<?xml version='1.0' encoding='UTF-8'?><gpx version="1.1" creator="JPX - https://github.com/jenetics/jpx" xmlns="http://www.topografix.com/GPX/1/1"><trk><trkseg><trkpt lat="43.87587647940931" lon="10.257908172675766"><ele>-1.0</ele><time>2026-05-01T10:46:06Z</time></trkpt><trkpt lat="43.8758304799787" lon="10.25783489325067"><ele>-0.9999999999999999</ele><time>2026-05-01T10:46:10Z</time></trkpt><trkpt lat="43.87579726436301" lon="10.257747582658338"><ele>-1.0</ele><time>2026-05-01T10:46:14Z</time></trkpt><trkpt lat="43.8757126904529" lon="10.257739262042769"><ele>-1.0</ele><time>2026-05-01T10:46:17Z</time></trkpt><trkpt lat="43.87565427562142" lon="10.25779059062331"><ele>-0.9999999999999999</ele><time>2026-05-01T10:46:19Z</time></trkpt><trkpt lat="43.87559757115359" lon="10.257832250774337"><ele>-1.0</ele><time>2026-05-01T10:46:21Z</time></trkpt><trkpt lat="43.87554085490592" lon="10.257883930460883"><ele>-1.0</ele><time>2026-05-01T10:46:25Z</time></trkpt><trkpt lat="43.87553835119323" lon="10.257983103656658"><ele>-1.0</ele><time>2026-05-01T10:46:29Z</time></trkpt><trkpt lat="43.87553613502303" lon="10.258084088379208"><ele>-1.0</ele><time>2026-05-01T10:46:31Z</time></trkpt><trkpt lat="43.875579451984116" lon="10.258200022204885"><ele>-1.0</ele><time>2026-05-01T10:46:33Z</time></trkpt><trkpt lat="43.87562614861822" lon="10.258307797558249"><ele>-1.0</ele><time>2026-05-01T10:46:35Z</time></trkpt><trkpt lat="43.87566447395828" lon="10.258431117261445"><ele>-1.0</ele><time>2026-05-01T10:46:37Z</time></trkpt><trkpt lat="43.87571324612422" lon="10.258551280375471"><ele>-0.8</ele><time>2026-05-01T10:46:39Z</time></trkpt><trkpt lat="43.875760253665206" lon="10.258665436258099"><ele>-0.6000000000000001</ele><time>2026-05-01T10:46:41Z</time></trkpt><trkpt lat="43.875814092779166" lon="10.258782303123517"><ele>-0.4</ele><time>2026-05-01T10:46:43Z</time></trkpt><trkpt lat="43.87587269608771" lon="10.25889505722106"><ele>-0.2</ele><time>2026-05-01T10:46:45.001Z</time></trkpt><trkpt lat="43.87592103996802" lon="10.259017227345893"><ele>0.0</ele><time>2026-05-01T10:46:47.001Z</time></trkpt><trkpt lat="43.8759768472374" lon="10.259134915777697"><ele>0.2</ele><time>2026-05-01T10:46:49.001Z</time></trkpt><trkpt lat="43.876033155463986" lon="10.259247506343117"><ele>0.4</ele><time>2026-05-01T10:46:51.001Z</time></trkpt><trkpt lat="43.87608708431353" lon="10.259353601339917"><ele>0.6000000000000001</ele><time>2026-05-01T10:46:53.001Z</time></trkpt><trkpt lat="43.87613767536453" lon="10.259463100294338"><ele>0.8</ele><time>2026-05-01T10:46:55.001Z</time></trkpt><trkpt lat="43.87619159976654" lon="10.259580325454579"><ele>1.0</ele><time>2026-05-01T10:46:57.001Z</time></trkpt><trkpt lat="43.87625528022569" lon="10.259705624524495"><ele>1.25</ele><time>2026-05-01T10:46:59.001Z</time></trkpt><trkpt lat="43.87631255269234" lon="10.25984634644666"><ele>1.5</ele><time>2026-05-01T10:47:01.001Z</time></trkpt><trkpt lat="43.87638123215171" lon="10.259980511935888"><ele>1.75</ele><time>2026-05-01T10:47:03.001Z</time></trkpt><trkpt lat="43.876450601865244" lon="10.260113254727225"><ele>2.0</ele><time>2026-05-01T10:47:05.001Z</time></trkpt><trkpt lat="43.87651657143202" lon="10.26024660005529"><ele>2.0</ele><time>2026-05-01T10:47:07.001Z</time></trkpt><trkpt lat="43.87658188671235" lon="10.260378198876131"><ele>2.0</ele><time>2026-05-01T10:47:09.001Z</time></trkpt><trkpt lat="43.87664603052013" lon="10.260519759859719"><ele>2.0</ele><time>2026-05-01T10:47:11.001Z</time></trkpt><trkpt lat="43.87671071816061" lon="10.260649083570843"><ele>2.0</ele><time>2026-05-01T10:47:13.001Z</time></trkpt><trkpt lat="43.87677853857193" lon="10.260783518283008"><ele>1.6</ele><time>2026-05-01T10:47:15.001Z</time></trkpt><trkpt lat="43.8768447866522" lon="10.260912081541175"><ele>1.2000000000000002</ele><time>2026-05-01T10:47:17.001Z</time></trkpt><trkpt lat="43.87691812643696" lon="10.261064672978623"><ele>0.8</ele><time>2026-05-01T10:47:19.001Z</time></trkpt><trkpt lat="43.87697682899569" lon="10.261171421985898"><ele>0.4</ele><time>2026-05-01T10:47:21.001Z</time></trkpt><trkpt lat="43.87702934017427" lon="10.261296813166727"><ele>0.0</ele><time>2026-05-01T10:47:23.001Z</time></trkpt><trkpt lat="43.877088030602145" lon="10.261423099444718"><ele>0.4</ele><time>2026-05-01T10:47:25.001Z</time></trkpt><trkpt lat="43.877153313082275" lon="10.261548436607974"><ele>0.8</ele><time>2026-05-01T10:47:27.001Z</time></trkpt><trkpt lat="43.87721563301839" lon="10.261674354460684"><ele>1.2000000000000002</ele><time>2026-05-01T10:47:29.001Z</time></trkpt><trkpt lat="43.87726965841719" lon="10.261808689639341"><ele>1.6</ele><time>2026-05-01T10:47:31.001Z</time></trkpt><trkpt lat="43.877321662903235" lon="10.26194764342128"><ele>2.0</ele><time>2026-05-01T10:47:33.001Z</time></trkpt><trkpt lat="43.87736852386032" lon="10.26209207594489"><ele>2.0</ele><time>2026-05-01T10:47:35.001Z</time></trkpt><trkpt lat="43.87740603021361" lon="10.262241060265884"><ele>2.0</ele><time>2026-05-01T10:47:37.001Z</time></trkpt><trkpt lat="43.87743730874437" lon="10.262388544569633"><ele>2.0</ele><time>2026-05-01T10:47:39Z</time></trkpt><trkpt lat="43.87747304314112" lon="10.262540491123843"><ele>2.0</ele><time>2026-05-01T10:47:41Z</time></trkpt><trkpt lat="43.877505155314225" lon="10.26269666217564"><ele>1.8</ele><time>2026-05-01T10:47:43Z</time></trkpt><trkpt lat="43.877536261221586" lon="10.26284512627959"><ele>1.6</ele><time>2026-05-01T10:47:45Z</time></trkpt><trkpt lat="43.877560944475434" lon="10.262999553232891"><ele>1.4000000000000001</ele><time>2026-05-01T10:47:47Z</time></trkpt><trkpt lat="43.87758562268133" lon="10.263085239799096"><ele>1.2000000000000002</ele><time>2026-05-01T10:47:48Z</time></trkpt><trkpt lat="43.87761383236003" lon="10.263211378348354"><ele>1.0</ele><time>2026-05-01T10:47:50Z</time></trkpt><trkpt lat="43.8776480188614" lon="10.263357373301"><ele>1.0</ele><time>2026-05-01T10:47:52Z</time></trkpt><trkpt lat="43.877671725568476" lon="10.263480952006526"><ele>1.0</ele><time>2026-05-01T10:47:54Z</time></trkpt><trkpt lat="43.87771339466061" lon="10.263558740851709"><ele>1.0</ele><time>2026-05-01T10:47:55Z</time></trkpt><trkpt lat="43.877752015273884" lon="10.263701211410295"><ele>1.0</ele><time>2026-05-01T10:47:57Z</time></trkpt><trkpt lat="43.87780053054576" lon="10.263833122330343"><ele>1.0</ele><time>2026-05-01T10:47:59Z</time></trkpt><trkpt lat="43.87786963430284" lon="10.26395430750414"><ele>1.0</ele><time>2026-05-01T10:48:01Z</time></trkpt><trkpt lat="43.87792527139827" lon="10.2640829371605"><ele>1.0</ele><time>2026-05-01T10:48:03Z</time></trkpt><trkpt lat="43.877985891433916" lon="10.264209822076566"><ele>1.0</ele><time>2026-05-01T10:48:05Z</time></trkpt><trkpt lat="43.87804024789167" lon="10.26434059443102"><ele>1.0</ele><time>2026-05-01T10:48:07Z</time></trkpt><trkpt lat="43.878100332067426" lon="10.264456390015752"><ele>1.0</ele><time>2026-05-01T10:48:09Z</time></trkpt><trkpt lat="43.878159557130054" lon="10.264567825151177"><ele>1.0</ele><time>2026-05-01T10:48:11Z</time></trkpt><trkpt lat="43.87819518804732" lon="10.264674658740113"><ele>1.0</ele><time>2026-05-01T10:48:13Z</time></trkpt><trkpt lat="43.87821830652162" lon="10.264819235738624"><ele>1.0</ele><time>2026-05-01T10:48:15Z</time></trkpt><trkpt lat="43.878226138580956" lon="10.264907452629888"><ele>1.0</ele><time>2026-05-01T10:48:16Z</time></trkpt><trkpt lat="43.878286239814905" lon="10.26502964727866"><ele>1.0</ele><time>2026-05-01T10:48:18Z</time></trkpt><trkpt lat="43.87832371743575" lon="10.265176927292078"><ele>1.0</ele><time>2026-05-01T10:48:20Z</time></trkpt><trkpt lat="43.87838096617492" lon="10.265316955956655"><ele>1.0</ele><time>2026-05-01T10:48:22Z</time></trkpt><trkpt lat="43.878430040816504" lon="10.265464950561999"><ele>1.0</ele><time>2026-05-01T10:48:24Z</time></trkpt><trkpt lat="43.87848023321556" lon="10.265615310687254"><ele>1.0</ele><time>2026-05-01T10:48:26Z</time></trkpt><trkpt lat="43.87851955137502" lon="10.265781047667677"><ele>0.6000000000000001</ele><time>2026-05-01T10:48:28Z</time></trkpt><trkpt lat="43.87857731322978" lon="10.265914058836701"><ele>0.20000000000000007</ele><time>2026-05-01T10:48:30Z</time></trkpt><trkpt lat="43.878604007707416" lon="10.265993730166787"><ele>-0.20000000000000007</ele><time>2026-05-01T10:48:31Z</time></trkpt><trkpt lat="43.87865298007111" lon="10.266140037326677"><ele>-0.6000000000000001</ele><time>2026-05-01T10:48:33Z</time></trkpt><trkpt lat="43.8786876670323" lon="10.266276854398265"><ele>-1.0</ele><time>2026-05-01T10:48:35Z</time></trkpt><trkpt lat="43.87873379347862" lon="10.266418478374687"><ele>-0.8</ele><time>2026-05-01T10:48:37Z</time></trkpt><trkpt lat="43.87877302188203" lon="10.266552830577377"><ele>-0.6000000000000001</ele><time>2026-05-01T10:48:39Z</time></trkpt><trkpt lat="43.87880322365142" lon="10.266662501457567"><ele>-0.4</ele><time>2026-05-01T10:48:41Z</time></trkpt><trkpt lat="43.87873184137591" lon="10.26679604372477"><ele>-0.2</ele><time>2026-05-01T10:48:44Z</time></trkpt><trkpt lat="43.878626685132" lon="10.266842597946434"><ele>0.0</ele><time>2026-05-01T10:48:46Z</time></trkpt><trkpt lat="43.87852423200624" lon="10.266895325897615"><ele>0.0</ele><time>2026-05-01T10:48:48Z</time></trkpt><trkpt lat="43.87843706990173" lon="10.266954896697452"><ele>0.0</ele><time>2026-05-01T10:48:50Z</time></trkpt><trkpt lat="43.87834164240056" lon="10.267016402003128"><ele>0.0</ele><time>2026-05-01T10:48:52Z</time></trkpt><trkpt lat="43.87824715254206" lon="10.267082020100437"><ele>0.0</ele><time>2026-05-01T10:48:54Z</time></trkpt><trkpt lat="43.87814591608261" lon="10.267143013435145"><ele>0.0</ele><time>2026-05-01T10:48:56Z</time></trkpt><trkpt lat="43.8780442443055" lon="10.267206530415207"><ele>0.0</ele><time>2026-05-01T10:48:58Z</time></trkpt><trkpt lat="43.87794132845706" lon="10.267271209976542"><ele>0.0</ele><time>2026-05-01T10:49:00Z</time></trkpt><trkpt lat="43.877833360544294" lon="10.267333687726119"><ele>0.0</ele><time>2026-05-01T10:49:02Z</time></trkpt><trkpt lat="43.87772716503375" lon="10.267402288404886"><ele>0.0</ele><time>2026-05-01T10:49:04.001Z</time></trkpt><trkpt lat="43.877618658899046" lon="10.26746836833764"><ele>0.0</ele><time>2026-05-01T10:49:06.001Z</time></trkpt><trkpt lat="43.87751200824362" lon="10.267536154320565"><ele>0.0</ele><time>2026-05-01T10:49:08.001Z</time></trkpt><trkpt lat="43.877405330262135" lon="10.267612934457354"><ele>0.0</ele><time>2026-05-01T10:49:10.001Z</time></trkpt><trkpt lat="43.877296377210804" lon="10.267690243525449"><ele>0.0</ele><time>2026-05-01T10:49:12.001Z</time></trkpt><trkpt lat="43.877191236958495" lon="10.26776906313829"><ele>0.0</ele><time>2026-05-01T10:49:14.001Z</time></trkpt><trkpt lat="43.877086679990654" lon="10.267845399135677"><ele>0.0</ele><time>2026-05-01T10:49:16.001Z</time></trkpt><trkpt lat="43.87698023802744" lon="10.267919633567256"><ele>0.0</ele><time>2026-05-01T10:49:18.001Z</time></trkpt><trkpt lat="43.876874205454286" lon="10.267999217240572"><ele>0.0</ele><time>2026-05-01T10:49:20.001Z</time></trkpt><trkpt lat="43.87676994028567" lon="10.268085309800801"><ele>0.0</ele><time>2026-05-01T10:49:22.001Z</time></trkpt><trkpt lat="43.876663805917794" lon="10.268162201792935"><ele>0.0</ele><time>2026-05-01T10:49:24.001Z</time></trkpt><trkpt lat="43.87655504858672" lon="10.268243562221356"><ele>0.0</ele><time>2026-05-01T10:49:26.001Z</time></trkpt><trkpt lat="43.8764498219636" lon="10.26832046019354"><ele>0.0</ele><time>2026-05-01T10:49:28.001Z</time></trkpt><trkpt lat="43.876346820684034" lon="10.268394308961481"><ele>0.0</ele><time>2026-05-01T10:49:30.001Z</time></trkpt><trkpt lat="43.876255828394015" lon="10.268463111481237"><ele>0.0</ele><time>2026-05-01T10:49:32.001Z</time></trkpt><trkpt lat="43.87618055244056" lon="10.268511218542148"><ele>0.0</ele><time>2026-05-01T10:49:34.001Z</time></trkpt><trkpt lat="43.87611653461307" lon="10.268551226984307"><ele>0.0</ele><time>2026-05-01T10:49:37.001Z</time></trkpt><trkpt lat="43.876157933524034" lon="10.268701604749744"><ele>0.0</ele><time>2026-05-01T10:49:39.001Z</time></trkpt><trkpt lat="43.87621489109014" lon="10.268827968382167"><ele>0.5</ele><time>2026-05-01T10:49:41.001Z</time></trkpt><trkpt lat="43.876265908401216" lon="10.268969657601884"><ele>1.0</ele><time>2026-05-01T10:49:43.001Z</time></trkpt><trkpt lat="43.876333581450474" lon="10.26910947326215"><ele>1.5</ele><time>2026-05-01T10:49:44.999Z</time></trkpt><trkpt lat="43.87642107738588" lon="10.269219471051802"><ele>2.0</ele><time>2026-05-01T10:49:46.999Z</time></trkpt><trkpt lat="43.87651580690585" lon="10.26929402073001"><ele>2.0</ele><time>2026-05-01T10:49:48.999Z</time></trkpt><trkpt lat="43.87661443649646" lon="10.269345680486065"><ele>2.0</ele><time>2026-05-01T10:49:50.999Z</time></trkpt><trkpt lat="43.8767209333575" lon="10.269388331848365"><ele>2.0</ele><time>2026-05-01T10:49:52.999Z</time></trkpt><trkpt lat="43.876833152730434" lon="10.26942885977298"><ele>2.0</ele><time>2026-05-01T10:49:55Z</time></trkpt><trkpt lat="43.87694167237257" lon="10.269482364966725"><ele>2.0</ele><time>2026-05-01T10:49:57Z</time></trkpt><trkpt lat="43.87702551310079" lon="10.269573920727945"><ele>1.5</ele><time>2026-05-01T10:49:59Z</time></trkpt><trkpt lat="43.87708291544605" lon="10.269706166600727"><ele>1.0</ele><time>2026-05-01T10:50:01Z</time></trkpt><trkpt lat="43.87713302707499" lon="10.269844946847261"><ele>0.5</ele><time>2026-05-01T10:50:03Z</time></trkpt><trkpt lat="43.87718220700059" lon="10.269991337754643"><ele>0.0</ele><time>2026-05-01T10:50:05Z</time></trkpt><trkpt lat="43.87723925660635" lon="10.270135067750347"><ele>-0.25</ele><time>2026-05-01T10:50:07Z</time></trkpt><trkpt lat="43.87729149612912" lon="10.270271847863265"><ele>-0.5</ele><time>2026-05-01T10:50:09Z</time></trkpt><trkpt lat="43.87734682114152" lon="10.270423226751152"><ele>-0.75</ele><time>2026-05-01T10:50:11Z</time></trkpt><trkpt lat="43.87739979968264" lon="10.270564870341378"><ele>-1.0</ele><time>2026-05-01T10:50:13Z</time></trkpt><trkpt lat="43.87745114245783" lon="10.270701474437915"><ele>-0.6666666666666666</ele><time>2026-05-01T10:50:15Z</time></trkpt><trkpt lat="43.87750382111219" lon="10.27083463295907"><ele>-0.3333333333333333</ele><time>2026-05-01T10:50:17Z</time></trkpt><trkpt lat="43.8775596872922" lon="10.270985675184237"><ele>0.0</ele><time>2026-05-01T10:50:19Z</time></trkpt><trkpt lat="43.87758692463719" lon="10.271067727206342"><ele>0.3333333333333333</ele><time>2026-05-01T10:50:20Z</time></trkpt><trkpt lat="43.87761170279664" lon="10.271153941138346"><ele>0.6666666666666666</ele><time>2026-05-01T10:50:21Z</time></trkpt><trkpt lat="43.87763635263455" lon="10.271247690894747"><ele>1.0</ele><time>2026-05-01T10:50:22Z</time></trkpt><trkpt lat="43.877653912643694" lon="10.271348478458899"><ele>0.6666666666666666</ele><time>2026-05-01T10:50:23Z</time></trkpt><trkpt lat="43.877665257333994" lon="10.271454377221136"><ele>0.3333333333333333</ele><time>2026-05-01T10:50:24Z</time></trkpt><trkpt lat="43.8776716326989" lon="10.271565365044527"><ele>0.0</ele><time>2026-05-01T10:50:25Z</time></trkpt><trkpt lat="43.87765729467079" lon="10.27167790986901"><ele>-0.3333333333333333</ele><time>2026-05-01T10:50:26Z</time></trkpt><trkpt lat="43.877637129248846" lon="10.27180149215613"><ele>-0.6666666666666666</ele><time>2026-05-01T10:50:27Z</time></trkpt><trkpt lat="43.87763453791917" lon="10.271904196884622"><ele>-1.0</ele><time>2026-05-01T10:50:28Z</time></trkpt><trkpt lat="43.87760796146161" lon="10.272013526550637"><ele>-0.9999999999999999</ele><time>2026-05-01T10:50:29Z</time></trkpt><trkpt lat="43.877583596105644" lon="10.272117064353345"><ele>-1.0</ele><time>2026-05-01T10:50:30Z</time></trkpt><trkpt lat="43.87756332881391" lon="10.272210675315577"><ele>-1.0</ele><time>2026-05-01T10:50:31Z</time></trkpt><trkpt lat="43.87755690318962" lon="10.272314003289335"><ele>-1.0</ele><time>2026-05-01T10:50:32Z</time></trkpt><trkpt lat="43.87755936344388" lon="10.272412508745301"><ele>-0.9999999999999999</ele><time>2026-05-01T10:50:33Z</time></trkpt><trkpt lat="43.877581353097064" lon="10.272564444350571"><ele>-1.0</ele><time>2026-05-01T10:50:35Z</time></trkpt><trkpt lat="43.87761669088843" lon="10.272682499594183"><ele>-0.9999999999999999</ele><time>2026-05-01T10:50:37Z</time></trkpt><trkpt lat="43.877652921787906" lon="10.27278713136768"><ele>-1.0</ele><time>2026-05-01T10:50:39Z</time></trkpt><trkpt lat="43.87767275540209" lon="10.272897954504494"><ele>-1.0</ele><time>2026-05-01T10:50:41Z</time></trkpt><trkpt lat="43.87770321238302" lon="10.272981264960189"><ele>-1.0</ele><time>2026-05-01T10:50:42Z</time></trkpt><trkpt lat="43.877749555542394" lon="10.273093766975023"><ele>-0.9999999999999999</ele><time>2026-05-01T10:50:44Z</time></trkpt><trkpt lat="43.8778244562856" lon="10.273216507458482"><ele>-1.0</ele><time>2026-05-01T10:50:46Z</time></trkpt><trkpt lat="43.87788174984581" lon="10.273351725145496"><ele>-0.8</ele><time>2026-05-01T10:50:48Z</time></trkpt><trkpt lat="43.877945062784875" lon="10.273477902392074"><ele>-0.6000000000000001</ele><time>2026-05-01T10:50:50Z</time></trkpt><trkpt lat="43.87802666448098" lon="10.273592381831493"><ele>-0.4</ele><time>2026-05-01T10:50:52Z</time></trkpt><trkpt lat="43.878084150511995" lon="10.273655554854201"><ele>-0.2</ele><time>2026-05-01T10:50:53Z</time></trkpt><trkpt lat="43.87816450360254" lon="10.273730374350315"><ele>0.0</ele><time>2026-05-01T10:50:55Z</time></trkpt><trkpt lat="43.878272782062865" lon="10.273844949194112"><ele>-0.2</ele><time>2026-05-01T10:50:57Z</time></trkpt><trkpt lat="43.878348169601345" lon="10.273956003248582"><ele>-0.4</ele><time>2026-05-01T10:50:59Z</time></trkpt><trkpt lat="43.87843475728257" lon="10.27406472759327"><ele>-0.6000000000000001</ele><time>2026-05-01T10:51:01Z</time></trkpt><trkpt lat="43.87850210314801" lon="10.274195874160265"><ele>-0.8</ele><time>2026-05-01T10:51:03Z</time></trkpt><trkpt lat="43.87854980198313" lon="10.274255890213642"><ele>-1.0</ele><time>2026-05-01T10:51:04Z</time></trkpt><trkpt lat="43.87863540437955" lon="10.274362906076629"><ele>-1.0</ele><time>2026-05-01T10:51:06Z</time></trkpt><trkpt lat="43.87872446552123" lon="10.274474245892549"><ele>-1.0</ele><time>2026-05-01T10:51:08Z</time></trkpt><trkpt lat="43.878815498886375" lon="10.274587081987399"><ele>-1.0</ele><time>2026-05-01T10:51:10Z</time></trkpt><trkpt lat="43.878916254516945" lon="10.274681717896085"><ele>-1.0</ele><time>2026-05-01T10:51:12Z</time></trkpt><trkpt lat="43.878993156556945" lon="10.274809622994189"><ele>-0.8</ele><time>2026-05-01T10:51:14Z</time></trkpt><trkpt lat="43.87908197633469" lon="10.274922995821626"><ele>-0.6000000000000001</ele><time>2026-05-01T10:51:16Z</time></trkpt><trkpt lat="43.879165776863154" lon="10.275031990983576"><ele>-0.4</ele><time>2026-05-01T10:51:18Z</time></trkpt><trkpt lat="43.879255778490574" lon="10.27512097114268"><ele>-0.2</ele><time>2026-05-01T10:51:20Z</time></trkpt><trkpt lat="43.87932613259816" lon="10.27521976705673"><ele>0.0</ele><time>2026-05-01T10:51:22Z</time></trkpt><trkpt lat="43.87939693133592" lon="10.275307564810117"><ele>0.0</ele><time>2026-05-01T10:51:24.001Z</time></trkpt><trkpt lat="43.87945116399302" lon="10.275378753598366"><ele>0.0</ele><time>2026-05-01T10:51:26.001Z</time></trkpt><trkpt lat="43.879505846952576" lon="10.275454375640406"><ele>0.0</ele><time>2026-05-01T10:51:29.001Z</time></trkpt><trkpt lat="43.87958139678008" lon="10.27544453977067"><ele>0.0</ele><time>2026-05-01T10:51:31.001Z</time></trkpt><trkpt lat="43.87966720665443" lon="10.275425463489107"><ele>0.0</ele><time>2026-05-01T10:51:33.001Z</time></trkpt><trkpt lat="43.87975396786332" lon="10.275499929275888"><ele>0.0</ele><time>2026-05-01T10:51:35.001Z</time></trkpt><trkpt lat="43.879828100457125" lon="10.275601058479136"><ele>-0.25</ele><time>2026-05-01T10:51:37.001Z</time></trkpt><trkpt lat="43.87990999852434" lon="10.275709545969063"><ele>-0.5</ele><time>2026-05-01T10:51:39.001Z</time></trkpt><trkpt lat="43.87999749921967" lon="10.27582131160019"><ele>-0.75</ele><time>2026-05-01T10:51:41.001Z</time></trkpt><trkpt lat="43.880071713856125" lon="10.275945350648357"><ele>-1.0</ele><time>2026-05-01T10:51:43.001Z</time></trkpt><trkpt lat="43.88016628448406" lon="10.276050160096911"><ele>-1.25</ele><time>2026-05-01T10:51:45.001Z</time></trkpt><trkpt lat="43.88025501065565" lon="10.276167955865274"><ele>-1.5</ele><time>2026-05-01T10:51:47.001Z</time></trkpt><trkpt lat="43.88034348447133" lon="10.27627561919225"><ele>-1.75</ele><time>2026-05-01T10:51:49.001Z</time></trkpt><trkpt lat="43.880426687944876" lon="10.276384254519627"><ele>-2.0</ele><time>2026-05-01T10:51:50.999Z</time></trkpt><trkpt lat="43.88051467685276" lon="10.27649465332521"><ele>-2.0</ele><time>2026-05-01T10:51:52.999Z</time></trkpt><trkpt lat="43.88060060777019" lon="10.276603861694724"><ele>-2.0</ele><time>2026-05-01T10:51:54.999Z</time></trkpt><trkpt lat="43.880686911344206" lon="10.276715241830173"><ele>-2.0</ele><time>2026-05-01T10:51:56.999Z</time></trkpt><trkpt lat="43.88077383809039" lon="10.276830233418615"><ele>-2.0</ele><time>2026-05-01T10:51:58.999Z</time></trkpt><trkpt lat="43.88085916255772" lon="10.276941114722655"><ele>-2.25</ele><time>2026-05-01T10:52:00.999Z</time></trkpt><trkpt lat="43.88095179742049" lon="10.277053528359062"><ele>-2.5</ele><time>2026-05-01T10:52:02.999Z</time></trkpt><trkpt lat="43.8810396776198" lon="10.277159039909538"><ele>-2.75</ele><time>2026-05-01T10:52:04.999Z</time></trkpt><trkpt lat="43.881126379044936" lon="10.277272097675125"><ele>-3.0</ele><time>2026-05-01T10:52:06.999Z</time></trkpt><trkpt lat="43.881215679562736" lon="10.277380955884132"><ele>-2.6</ele><time>2026-05-01T10:52:09Z</time></trkpt><trkpt lat="43.88130595662685" lon="10.277497027611625"><ele>-2.1999999999999997</ele><time>2026-05-01T10:52:11Z</time></trkpt><trkpt lat="43.88135295896491" lon="10.277559529179783"><ele>-1.8</ele><time>2026-05-01T10:52:12Z</time></trkpt><trkpt lat="43.881438934578334" lon="10.277677879968072"><ele>-1.4</ele><time>2026-05-01T10:52:14Z</time></trkpt><trkpt lat="43.8815198872852" lon="10.277793389129862"><ele>-1.0</ele><time>2026-05-01T10:52:16Z</time></trkpt><trkpt lat="43.881576066956306" lon="10.27783869986725"><ele>-1.0</ele><time>2026-05-01T10:52:17Z</time></trkpt><trkpt lat="43.881621423001974" lon="10.277902910385725"><ele>-1.0</ele><time>2026-05-01T10:52:18Z</time></trkpt><trkpt lat="43.88171236566959" lon="10.278016263525373"><ele>-1.0</ele><time>2026-05-01T10:52:20Z</time></trkpt><trkpt lat="43.881807346232215" lon="10.278124684326476"><ele>-1.0</ele><time>2026-05-01T10:52:22Z</time></trkpt><trkpt lat="43.88188181200309" lon="10.278252908174247"><ele>-1.0</ele><time>2026-05-01T10:52:24Z</time></trkpt><trkpt lat="43.881978609259086" lon="10.278357083992345"><ele>-1.25</ele><time>2026-05-01T10:52:26Z</time></trkpt><trkpt lat="43.88206586756808" lon="10.278473558618632"><ele>-1.5</ele><time>2026-05-01T10:52:28Z</time></trkpt><trkpt lat="43.88215595092215" lon="10.278586485211791"><ele>-1.75</ele><time>2026-05-01T10:52:30Z</time></trkpt><trkpt lat="43.882245235842525" lon="10.278701402562012"><ele>-2.0</ele><time>2026-05-01T10:52:32Z</time></trkpt><trkpt lat="43.88233407259923" lon="10.278812542738725"><ele>-2.0</ele><time>2026-05-01T10:52:34Z</time></trkpt><trkpt lat="43.882408425925576" lon="10.278937534607865"><ele>-2.0</ele><time>2026-05-01T10:52:36Z</time></trkpt><trkpt lat="43.88249305001499" lon="10.279049614846333"><ele>-2.0</ele><time>2026-05-01T10:52:38Z</time></trkpt><trkpt lat="43.8825824267895" lon="10.27914915273971"><ele>-2.0</ele><time>2026-05-01T10:52:40Z</time></trkpt><trkpt lat="43.88265431554576" lon="10.279250422782633"><ele>-2.0</ele><time>2026-05-01T10:52:42Z</time></trkpt><trkpt lat="43.882719777575886" lon="10.27935598171157"><ele>-2.0</ele><time>2026-05-01T10:52:44Z</time></trkpt><trkpt lat="43.882789195191044" lon="10.279423857852638"><ele>-2.0</ele><time>2026-05-01T10:52:46Z</time></trkpt><trkpt lat="43.88285526353873" lon="10.279499302684409"><ele>-2.0</ele><time>2026-05-01T10:52:48Z</time></trkpt><trkpt lat="43.88291615139153" lon="10.279605081958842"><ele>-2.0</ele><time>2026-05-01T10:52:50Z</time></trkpt><trkpt lat="43.88299045638318" lon="10.279698575532763"><ele>-1.8</ele><time>2026-05-01T10:52:52Z</time></trkpt><trkpt lat="43.88306592793591" lon="10.279781897703957"><ele>-1.6</ele><time>2026-05-01T10:52:54Z</time></trkpt><trkpt lat="43.883137314330725" lon="10.27985177213049"><ele>-1.4000000000000001</ele><time>2026-05-01T10:52:56Z</time></trkpt><trkpt lat="43.88319016626042" lon="10.279934505150623"><ele>-1.2000000000000002</ele><time>2026-05-01T10:52:58Z</time></trkpt><trkpt lat="43.88327149946702" lon="10.280024922259763"><ele>-1.0</ele><time>2026-05-01T10:53:00Z</time></trkpt><trkpt lat="43.88334726498814" lon="10.280121531852906"><ele>-1.0</ele><time>2026-05-01T10:53:02Z</time></trkpt><trkpt lat="43.883424203622035" lon="10.280212427049138"><ele>-1.0</ele><time>2026-05-01T10:53:04Z</time></trkpt><trkpt lat="43.88349583343516" lon="10.280321894159856"><ele>-1.0</ele><time>2026-05-01T10:53:06Z</time></trkpt><trkpt lat="43.88357541199213" lon="10.280413329785173"><ele>-1.0</ele><time>2026-05-01T10:53:08Z</time></trkpt><trkpt lat="43.8836505187907" lon="10.280507014575003"><ele>-1.0</ele><time>2026-05-01T10:53:10Z</time></trkpt><trkpt lat="43.88371703993255" lon="10.280573936944108"><ele>-1.0</ele><time>2026-05-01T10:53:12Z</time></trkpt><trkpt lat="43.88376657445266" lon="10.280644366979084"><ele>-1.0</ele><time>2026-05-01T10:53:13Z</time></trkpt><trkpt lat="43.88385520786947" lon="10.2807643392954"><ele>-1.0</ele><time>2026-05-01T10:53:15Z</time></trkpt><trkpt lat="43.883949108111814" lon="10.280874210498693"><ele>-1.0</ele><time>2026-05-01T10:53:17.001Z</time></trkpt><trkpt lat="43.88403848897121" lon="10.280987232977727"><ele>-1.0</ele><time>2026-05-01T10:53:19.001Z</time></trkpt><trkpt lat="43.884127327520446" lon="10.281105568145898"><ele>-1.0</ele><time>2026-05-01T10:53:21.001Z</time></trkpt><trkpt lat="43.88417186946698" lon="10.281172786308906"><ele>-1.0</ele><time>2026-05-01T10:53:22.001Z</time></trkpt><trkpt lat="43.88424930631611" lon="10.281267497174044"><ele>-1.0</ele><time>2026-05-01T10:53:24.001Z</time></trkpt><trkpt lat="43.88429853845631" lon="10.28133069658812"><ele>-1.0</ele><time>2026-05-01T10:53:25.001Z</time></trkpt><trkpt lat="43.88439200901311" lon="10.281430752869408"><ele>-1.0</ele><time>2026-05-01T10:53:27.001Z</time></trkpt><trkpt lat="43.88447579917686" lon="10.281545556632265"><ele>-1.25</ele><time>2026-05-01T10:53:29.001Z</time></trkpt><trkpt lat="43.884564685675656" lon="10.28166276436008"><ele>-1.5</ele><time>2026-05-01T10:53:31.001Z</time></trkpt><trkpt lat="43.88465540063774" lon="10.281775884887956"><ele>-1.75</ele><time>2026-05-01T10:53:33.001Z</time></trkpt><trkpt lat="43.88474303205303" lon="10.281890650798944"><ele>-2.0</ele><time>2026-05-01T10:53:35.001Z</time></trkpt><trkpt lat="43.88482701704511" lon="10.281993286589449"><ele>-1.9999999999999998</ele><time>2026-05-01T10:53:37.001Z</time></trkpt><trkpt lat="43.88491286669066" lon="10.282086071874566"><ele>-2.0</ele><time>2026-05-01T10:53:39.001Z</time></trkpt><trkpt lat="43.88498491743646" lon="10.282170383482569"><ele>-2.0</ele><time>2026-05-01T10:53:41.001Z</time></trkpt><trkpt lat="43.885048872492604" lon="10.28224572081725"><ele>-2.0</ele><time>2026-05-01T10:53:43.001Z</time></trkpt><trkpt lat="43.885105475333184" lon="10.282291584073002"><ele>-1.9999999999999998</ele><time>2026-05-01T10:53:47.001Z</time></trkpt><trkpt lat="43.88517315096041" lon="10.282337164240914"><ele>-2.0</ele><time>2026-05-01T10:53:50.001Z</time></trkpt><trkpt lat="43.88523729489883" lon="10.282235768250692"><ele>-2.0</ele><time>2026-05-01T10:53:51.001Z</time></trkpt><trkpt lat="43.88530542932146" lon="10.282113031495856"><ele>-2.0</ele><time>2026-05-01T10:53:53.001Z</time></trkpt><trkpt lat="43.88533166694213" lon="10.282033607131963"><ele>-2.0</ele><time>2026-05-01T10:53:54.001Z</time></trkpt><trkpt lat="43.88540295095706" lon="10.28190980283868"><ele>-2.0</ele><time>2026-05-01T10:53:55.999Z</time></trkpt><trkpt lat="43.88546655953135" lon="10.281793478487245"><ele>-2.0</ele><time>2026-05-01T10:53:57.999Z</time></trkpt><trkpt lat="43.88551795271636" lon="10.281653761600769"><ele>-2.0</ele><time>2026-05-01T10:53:59.999Z</time></trkpt><trkpt lat="43.88556827250272" lon="10.281506723277287"><ele>-2.0</ele><time>2026-05-01T10:54:01.999Z</time></trkpt><trkpt lat="43.88560487843125" lon="10.281358873965193"><ele>-2.0</ele><time>2026-05-01T10:54:03.999Z</time></trkpt><trkpt lat="43.88564189972611" lon="10.281199500395562"><ele>-2.0</ele><time>2026-05-01T10:54:05.999Z</time></trkpt><trkpt lat="43.885671845950895" lon="10.281038412046655"><ele>-2.0</ele><time>2026-05-01T10:54:07.999Z</time></trkpt><trkpt lat="43.88570182912463" lon="10.280874384520997"><ele>-2.0</ele><time>2026-05-01T10:54:10Z</time></trkpt><trkpt lat="43.885729222803576" lon="10.280715750862363"><ele>-2.0</ele><time>2026-05-01T10:54:12Z</time></trkpt><trkpt lat="43.88575431506454" lon="10.280553674571816"><ele>-2.0</ele><time>2026-05-01T10:54:14Z</time></trkpt><trkpt lat="43.885781130373296" lon="10.280398830793203"><ele>-1.4000000000000001</ele><time>2026-05-01T10:54:16Z</time></trkpt><trkpt lat="43.88580486988587" lon="10.280247370298193"><ele>-0.8000000000000002</ele><time>2026-05-01T10:54:18Z</time></trkpt><trkpt lat="43.88583445998659" lon="10.280087717056853"><ele>-0.19999999999999996</ele><time>2026-05-01T10:54:20Z</time></trkpt><trkpt lat="43.885858490831446" lon="10.279923910180125"><ele>0.4</ele><time>2026-05-01T10:54:22Z</time></trkpt><trkpt lat="43.885878844826294" lon="10.279840246832176"><ele>1.0</ele><time>2026-05-01T10:54:23Z</time></trkpt><trkpt lat="43.88590214739352" lon="10.279680481883045"><ele>1.0</ele><time>2026-05-01T10:54:25Z</time></trkpt><trkpt lat="43.88592688922725" lon="10.279519548698822"><ele>1.0</ele><time>2026-05-01T10:54:27Z</time></trkpt><trkpt lat="43.88595463605344" lon="10.279360780537012"><ele>1.0</ele><time>2026-05-01T10:54:29Z</time></trkpt><trkpt lat="43.88598887459525" lon="10.279200385522142"><ele>1.0</ele><time>2026-05-01T10:54:31Z</time></trkpt><trkpt lat="43.886016916530416" lon="10.279043913866996"><ele>0.0</ele><time>2026-05-01T10:54:33Z</time></trkpt><trkpt lat="43.8860484582991" lon="10.278888218107115"><ele>-1.0</ele><time>2026-05-01T10:54:35Z</time></trkpt><trkpt lat="43.886088392782085" lon="10.278730752109704"><ele>-2.0000000000000004</ele><time>2026-05-01T10:54:37Z</time></trkpt><trkpt lat="43.886147019054704" lon="10.278568859001009"><ele>-3.0</ele><time>2026-05-01T10:54:39Z</time></trkpt><trkpt lat="43.886179055965705" lon="10.27848593969295"><ele>-4.0</ele><time>2026-05-01T10:54:40Z</time></trkpt><trkpt lat="43.88624084536234" lon="10.278364176686718"><ele>-3.9999999999999996</ele><time>2026-05-01T10:54:42Z</time></trkpt><trkpt lat="43.88631688979164" lon="10.278234540269567"><ele>-4.0</ele><time>2026-05-01T10:54:44Z</time></trkpt><trkpt lat="43.88640208246015" lon="10.27812249686836"><ele>-4.0</ele><time>2026-05-01T10:54:46Z</time></trkpt><trkpt lat="43.88645112692903" lon="10.278066875987225"><ele>-4.0</ele><time>2026-05-01T10:54:47Z</time></trkpt><trkpt lat="43.886502760713526" lon="10.278014054617447"><ele>-3.9999999999999996</ele><time>2026-05-01T10:54:48Z</time></trkpt><trkpt lat="43.88655540564519" lon="10.27796192062931"><ele>-4.0</ele><time>2026-05-01T10:54:49Z</time></trkpt><trkpt lat="43.886607825665145" lon="10.277910963786454"><ele>-3.75</ele><time>2026-05-01T10:54:50Z</time></trkpt><trkpt lat="43.88671494255765" lon="10.27782374096149"><ele>-3.5</ele><time>2026-05-01T10:54:52Z</time></trkpt><trkpt lat="43.88682386400956" lon="10.27773991863131"><ele>-3.25</ele><time>2026-05-01T10:54:54Z</time></trkpt><trkpt lat="43.886930953096524" lon="10.277651731675949"><ele>-3.0</ele><time>2026-05-01T10:54:56Z</time></trkpt><trkpt lat="43.88703247248948" lon="10.277564226212455"><ele>-2.8</ele><time>2026-05-01T10:54:58Z</time></trkpt><trkpt lat="43.887083753925204" lon="10.277511659843203"><ele>-2.5999999999999996</ele><time>2026-05-01T10:54:59Z</time></trkpt><trkpt lat="43.88719108596883" lon="10.277432782322219"><ele>-2.4000000000000004</ele><time>2026-05-01T10:55:01Z</time></trkpt><trkpt lat="43.887297203001474" lon="10.277352996074336"><ele>-2.2</ele><time>2026-05-01T10:55:03Z</time></trkpt><trkpt lat="43.887402700917036" lon="10.277267797696918"><ele>-2.0</ele><time>2026-05-01T10:55:05Z</time></trkpt><trkpt lat="43.88750817884309" lon="10.277183726623019"><ele>-1.5</ele><time>2026-05-01T10:55:07.001Z</time></trkpt><trkpt lat="43.88761630313311" lon="10.27710207054701"><ele>-1.0</ele><time>2026-05-01T10:55:09.001Z</time></trkpt><trkpt lat="43.88771806878528" lon="10.277014660897889"><ele>-0.5</ele><time>2026-05-01T10:55:11.001Z</time></trkpt><trkpt lat="43.88781765726056" lon="10.276926411774793"><ele>0.0</ele><time>2026-05-01T10:55:13.001Z</time></trkpt><trkpt lat="43.887926333469544" lon="10.276844802220461"><ele>0.0</ele><time>2026-05-01T10:55:15.001Z</time></trkpt><trkpt lat="43.88798455360035" lon="10.27680203708435"><ele>0.0</ele><time>2026-05-01T10:55:16.001Z</time></trkpt><trkpt lat="43.88809088495925" lon="10.27671784066274"><ele>0.0</ele><time>2026-05-01T10:55:18.001Z</time></trkpt><trkpt lat="43.88819730128424" lon="10.276637696323425"><ele>0.0</ele><time>2026-05-01T10:55:20.001Z</time></trkpt><trkpt lat="43.88829678816026" lon="10.276552734372293"><ele>0.0</ele><time>2026-05-01T10:55:22.001Z</time></trkpt><trkpt lat="43.88840193208565" lon="10.276466107203412"><ele>-1.0</ele><time>2026-05-01T10:55:24.001Z</time></trkpt><trkpt lat="43.88850319804699" lon="10.276380255216301"><ele>-2.0</ele><time>2026-05-01T10:55:26.001Z</time></trkpt><trkpt lat="43.888611609209036" lon="10.276294955337898"><ele>-3.0</ele><time>2026-05-01T10:55:28.001Z</time></trkpt><trkpt lat="43.88871518480799" lon="10.276210170218658"><ele>-4.0</ele><time>2026-05-01T10:55:30.001Z</time></trkpt><trkpt lat="43.888817595529424" lon="10.276128526240024"><ele>-4.0</ele><time>2026-05-01T10:55:32.001Z</time></trkpt><trkpt lat="43.88892027349092" lon="10.276050826196412"><ele>-4.0</ele><time>2026-05-01T10:55:34.001Z</time></trkpt><trkpt lat="43.8890198249467" lon="10.275949785024773"><ele>-4.0</ele><time>2026-05-01T10:55:36.001Z</time></trkpt><trkpt lat="43.88912431600022" lon="10.275872576190952"><ele>-4.0</ele><time>2026-05-01T10:55:38.001Z</time></trkpt><trkpt lat="43.88923179947427" lon="10.275791226299818"><ele>-3.75</ele><time>2026-05-01T10:55:40.001Z</time></trkpt><trkpt lat="43.88933638046352" lon="10.275712426141304"><ele>-3.5</ele><time>2026-05-01T10:55:42.001Z</time></trkpt><trkpt lat="43.88943784458067" lon="10.275625648599162"><ele>-3.25</ele><time>2026-05-01T10:55:44.001Z</time></trkpt><trkpt lat="43.889532615951275" lon="10.275527892485172"><ele>-3.0</ele><time>2026-05-01T10:55:46.001Z</time></trkpt><trkpt lat="43.889615294779475" lon="10.27541083002246"><ele>-3.0</ele><time>2026-05-01T10:55:48.001Z</time></trkpt><trkpt lat="43.889682528974376" lon="10.275280869829645"><ele>-3.0</ele><time>2026-05-01T10:55:50.001Z</time></trkpt><trkpt lat="43.889733292094085" lon="10.27512745886102"><ele>-3.0</ele><time>2026-05-01T10:55:52.001Z</time></trkpt><trkpt lat="43.88976462737254" lon="10.274977588897622"><ele>-3.0</ele><time>2026-05-01T10:55:54.001Z</time></trkpt><trkpt lat="43.889795118662306" lon="10.274851026676703"><ele>-3.0</ele><time>2026-05-01T10:55:56.001Z</time></trkpt><trkpt lat="43.889900618405136" lon="10.274818182061475"><ele>-3.0</ele><time>2026-05-01T10:55:58.001Z</time></trkpt><trkpt lat="43.88998839391173" lon="10.274858515895126"><ele>-3.0</ele><time>2026-05-01T10:56:00.001Z</time></trkpt><trkpt lat="43.89007703061549" lon="10.274900001953545"><ele>-3.0</ele><time>2026-05-01T10:56:02Z</time></trkpt><trkpt lat="43.890119244977285" lon="10.275001538668993"><ele>-3.0</ele><time>2026-05-01T10:56:04Z</time></trkpt><trkpt lat="43.890172342227245" lon="10.275073028568016"><ele>-3.0</ele><time>2026-05-01T10:56:07Z</time></trkpt><trkpt lat="43.89029904857546" lon="10.274979738386465"><ele>-2.8</ele><time>2026-05-01T10:56:08Z</time></trkpt><trkpt lat="43.89036512436356" lon="10.274913047732479"><ele>-2.5999999999999996</ele><time>2026-05-01T10:56:10Z</time></trkpt><trkpt lat="43.89044727350269" lon="10.274833956511296"><ele>-2.4000000000000004</ele><time>2026-05-01T10:56:12Z</time></trkpt><trkpt lat="43.890544671641784" lon="10.274744143724824"><ele>-2.2</ele><time>2026-05-01T10:56:14Z</time></trkpt><trkpt lat="43.890635566278014" lon="10.274636656997925"><ele>-2.0</ele><time>2026-05-01T10:56:16Z</time></trkpt><trkpt lat="43.8907367423159" lon="10.274541802747258"><ele>-1.9999999999999998</ele><time>2026-05-01T10:56:18Z</time></trkpt><trkpt lat="43.89079100006759" lon="10.27448215893304"><ele>-2.0</ele><time>2026-05-01T10:56:19Z</time></trkpt><trkpt lat="43.89084423867958" lon="10.274430499362545"><ele>-2.0</ele><time>2026-05-01T10:56:20Z</time></trkpt><trkpt lat="43.890907426365665" lon="10.274399169124218"><ele>-2.0</ele><time>2026-05-01T10:56:21Z</time></trkpt><trkpt lat="43.890963463870186" lon="10.27435744752366"><ele>-1.9999999999999998</ele><time>2026-05-01T10:56:22Z</time></trkpt><trkpt lat="43.89107398371782" lon="10.27427703466615"><ele>-2.0</ele><time>2026-05-01T10:56:24Z</time></trkpt><trkpt lat="43.891174575439926" lon="10.274182823989724"><ele>-2.0</ele><time>2026-05-01T10:56:26Z</time></trkpt><trkpt lat="43.891292909673226" lon="10.274121308361128"><ele>-2.0</ele><time>2026-05-01T10:56:28Z</time></trkpt><trkpt lat="43.8913905038737" lon="10.274030959760646"><ele>-2.0</ele><time>2026-05-01T10:56:30Z</time></trkpt><trkpt lat="43.891522615377404" lon="10.273979244212992"><ele>-2.0</ele><time>2026-05-01T10:56:32Z</time></trkpt><trkpt lat="43.891601826566905" lon="10.27389020074757"><ele>-2.0</ele><time>2026-05-01T10:56:34Z</time></trkpt><trkpt lat="43.89170133016421" lon="10.273819974961922"><ele>-2.0</ele><time>2026-05-01T10:56:36Z</time></trkpt><trkpt lat="43.89181097912062" lon="10.273786001140992"><ele>-2.0</ele><time>2026-05-01T10:56:38Z</time></trkpt><trkpt lat="43.89191856539182" lon="10.273769793556104"><ele>-2.0</ele><time>2026-05-01T10:56:40Z</time></trkpt><trkpt lat="43.89201209603272" lon="10.27384471948331"><ele>-2.0</ele><time>2026-05-01T10:56:42Z</time></trkpt><trkpt lat="43.89204500861947" lon="10.27399113598585"><ele>-2.0</ele><time>2026-05-01T10:56:44Z</time></trkpt><trkpt lat="43.8920820535158" lon="10.27415067864221"><ele>-2.0</ele><time>2026-05-01T10:56:46Z</time></trkpt><trkpt lat="43.89212887295416" lon="10.274313721455984"><ele>-2.0</ele><time>2026-05-01T10:56:48Z</time></trkpt><trkpt lat="43.89216258467488" lon="10.274471730721617"><ele>-2.0</ele><time>2026-05-01T10:56:50Z</time></trkpt><trkpt lat="43.892191332355104" lon="10.274638980849451"><ele>-1.9999999999999998</ele><time>2026-05-01T10:56:52Z</time></trkpt><trkpt lat="43.892210687083626" lon="10.274722280296183"><ele>-2.0</ele><time>2026-05-01T10:56:53Z</time></trkpt><trkpt lat="43.89220905124426" lon="10.274813576729164"><ele>-2.0</ele><time>2026-05-01T10:56:54Z</time></trkpt><trkpt lat="43.89222280108976" lon="10.274901697695771"><ele>-2.0</ele><time>2026-05-01T10:56:55Z</time></trkpt><trkpt lat="43.89224412726765" lon="10.27506288870946"><ele>-1.9999999999999998</ele><time>2026-05-01T10:56:57.001Z</time></trkpt><trkpt lat="43.892257828579766" lon="10.275217948236934"><ele>-2.0</ele><time>2026-05-01T10:56:59.001Z</time></trkpt><trkpt lat="43.89228827834795" lon="10.275376937821273"><ele>-2.0</ele><time>2026-05-01T10:57:01.001Z</time></trkpt><trkpt lat="43.892296684437234" lon="10.275541019912772"><ele>-2.0</ele><time>2026-05-01T10:57:03.001Z</time></trkpt><trkpt lat="43.89231519115871" lon="10.275671287139966"><ele>-2.0</ele><time>2026-05-01T10:57:05.001Z</time></trkpt><trkpt lat="43.892363929178494" lon="10.275753799698684"><ele>-2.0</ele><time>2026-05-01T10:57:07.001Z</time></trkpt><trkpt lat="43.892448659475825" lon="10.275766515800266"><ele>-2.0</ele><time>2026-05-01T10:57:10.001Z</time></trkpt><trkpt lat="43.892547711923584" lon="10.275717330639543"><ele>-2.0</ele><time>2026-05-01T10:57:12.001Z</time></trkpt><trkpt lat="43.89266501647387" lon="10.275687938549778"><ele>-2.0</ele><time>2026-05-01T10:57:14.001Z</time></trkpt><trkpt lat="43.89273487153578" lon="10.2756727073127"><ele>-2.0</ele><time>2026-05-01T10:57:16.001Z</time></trkpt><trkpt lat="43.89273486458497" lon="10.275565847925884"><ele>-2.0</ele><time>2026-05-01T10:57:18.001Z</time></trkpt><trkpt lat="43.892702957343495" lon="10.275422530491173"><ele>-2.0</ele><time>2026-05-01T10:57:20.001Z</time></trkpt><trkpt lat="43.89266629253401" lon="10.275283405464885"><ele>-2.0</ele><time>2026-05-01T10:57:22.001Z</time></trkpt><trkpt lat="43.89265370513091" lon="10.275133566859072"><ele>-2.0</ele><time>2026-05-01T10:57:24.001Z</time></trkpt><trkpt lat="43.89262022253318" lon="10.274986012847378"><ele>-2.0</ele><time>2026-05-01T10:57:26.001Z</time></trkpt><trkpt lat="43.892596786606795" lon="10.27483294646113"><ele>-2.0</ele><time>2026-05-01T10:57:28.001Z</time></trkpt><trkpt lat="43.89256960064758" lon="10.274675985461288"><ele>-2.0</ele><time>2026-05-01T10:57:30.001Z</time></trkpt><trkpt lat="43.892538948105994" lon="10.274526987481229"><ele>-2.0</ele><time>2026-05-01T10:57:32.001Z</time></trkpt><trkpt lat="43.89250776764072" lon="10.274372311421892"><ele>-2.0</ele><time>2026-05-01T10:57:34.001Z</time></trkpt><trkpt lat="43.89247638150563" lon="10.27422109035279"><ele>-2.0</ele><time>2026-05-01T10:57:36.001Z</time></trkpt><trkpt lat="43.89243824077566" lon="10.274067103052417"><ele>-2.0</ele><time>2026-05-01T10:57:38.001Z</time></trkpt><trkpt lat="43.892401803508584" lon="10.273914959344566"><ele>-2.0</ele><time>2026-05-01T10:57:40.001Z</time></trkpt><trkpt lat="43.892378218924996" lon="10.2737735425443"><ele>-2.0</ele><time>2026-05-01T10:57:42.001Z</time></trkpt><trkpt lat="43.8924228224103" lon="10.273668543695921"><ele>-2.0</ele><time>2026-05-01T10:57:44.001Z</time></trkpt><trkpt lat="43.892487996754056" lon="10.27365709966534"><ele>-2.0</ele><time>2026-05-01T10:57:46.001Z</time></trkpt><trkpt lat="43.892573198726716" lon="10.273598298573745"><ele>-2.0</ele><time>2026-05-01T10:57:48.001Z</time></trkpt><trkpt lat="43.892661839251154" lon="10.273517891522374"><ele>-1.8</ele><time>2026-05-01T10:57:50.001Z</time></trkpt><trkpt lat="43.89275849448094" lon="10.273450176500212"><ele>-1.6</ele><time>2026-05-01T10:57:52.001Z</time></trkpt><trkpt lat="43.892854613761465" lon="10.273380311148152"><ele>-1.4000000000000001</ele><time>2026-05-01T10:57:54.001Z</time></trkpt><trkpt lat="43.892947275498166" lon="10.273327685239558"><ele>-1.2000000000000002</ele><time>2026-05-01T10:57:56.001Z</time></trkpt><trkpt lat="43.89305733370872" lon="10.273252463602745"><ele>-1.0</ele><time>2026-05-01T10:57:58.001Z</time></trkpt><trkpt lat="43.89315904576843" lon="10.273180222811135"><ele>-1.0</ele><time>2026-05-01T10:58:00.001Z</time></trkpt><trkpt lat="43.89325713962356" lon="10.273105154536207"><ele>-1.0</ele><time>2026-05-01T10:58:02.001Z</time></trkpt><trkpt lat="43.89336652079884" lon="10.273049319591061"><ele>-1.0</ele><time>2026-05-01T10:58:04.002Z</time></trkpt><trkpt lat="43.89347472167204" lon="10.27298248069467"><ele>-1.0</ele><time>2026-05-01T10:58:06.002Z</time></trkpt><trkpt lat="43.893576244981936" lon="10.272905183101104"><ele>-1.25</ele><time>2026-05-01T10:58:08Z</time></trkpt><trkpt lat="43.8936895662097" lon="10.272880896483"><ele>-1.5</ele><time>2026-05-01T10:58:10Z</time></trkpt><trkpt lat="43.89379992340643" lon="10.272825971661032"><ele>-1.75</ele><time>2026-05-01T10:58:12Z</time></trkpt><trkpt lat="43.89391561322386" lon="10.272775761981736"><ele>-2.0</ele><time>2026-05-01T10:58:14Z</time></trkpt><trkpt lat="43.89401140853956" lon="10.272711193844623"><ele>-2.0</ele><time>2026-05-01T10:58:16Z</time></trkpt><trkpt lat="43.89412117839447" lon="10.272659830703414"><ele>-2.0</ele><time>2026-05-01T10:58:18Z</time></trkpt><trkpt lat="43.89422481827061" lon="10.272572845123657"><ele>-2.0</ele><time>2026-05-01T10:58:20Z</time></trkpt><trkpt lat="43.89432904406008" lon="10.272503457945984"><ele>-2.0</ele><time>2026-05-01T10:58:22Z</time></trkpt><trkpt lat="43.894436265888935" lon="10.272424561911352"><ele>-1.75</ele><time>2026-05-01T10:58:24Z</time></trkpt><trkpt lat="43.89454036128523" lon="10.272341079403589"><ele>-1.5</ele><time>2026-05-01T10:58:26Z</time></trkpt><trkpt lat="43.894651160508836" lon="10.272276153045556"><ele>-1.25</ele><time>2026-05-01T10:58:28Z</time></trkpt><trkpt lat="43.89475723826493" lon="10.272202761729867"><ele>-1.0</ele><time>2026-05-01T10:58:30Z</time></trkpt><trkpt lat="43.894861036675394" lon="10.27212665416303"><ele>-1.0</ele><time>2026-05-01T10:58:32Z</time></trkpt><trkpt lat="43.89497810823539" lon="10.272062139148645"><ele>-1.0</ele><time>2026-05-01T10:58:34Z</time></trkpt><trkpt lat="43.89507922301203" lon="10.27199322771497"><ele>-1.0</ele><time>2026-05-01T10:58:36Z</time></trkpt><trkpt lat="43.89518770733876" lon="10.271919295482729"><ele>-1.0</ele><time>2026-05-01T10:58:38Z</time></trkpt><trkpt lat="43.895287744154466" lon="10.271828780104366"><ele>-1.25</ele><time>2026-05-01T10:58:40Z</time></trkpt><trkpt lat="43.89539301252052" lon="10.271751849126218"><ele>-1.5</ele><time>2026-05-01T10:58:42Z</time></trkpt><trkpt lat="43.895499918029905" lon="10.271680299088459"><ele>-1.75</ele><time>2026-05-01T10:58:44Z</time></trkpt><trkpt lat="43.89559887664729" lon="10.271608388656981"><ele>-2.0</ele><time>2026-05-01T10:58:46Z</time></trkpt><trkpt lat="43.895707483235654" lon="10.271555371216378"><ele>-2.0</ele><time>2026-05-01T10:58:48Z</time></trkpt><trkpt lat="43.89581048322095" lon="10.271483157179674"><ele>-2.0</ele><time>2026-05-01T10:58:50Z</time></trkpt><trkpt lat="43.89591417116792" lon="10.271410460809138"><ele>-2.0</ele><time>2026-05-01T10:58:52Z</time></trkpt><trkpt lat="43.896010540384566" lon="10.271318278395372"><ele>-2.0</ele><time>2026-05-01T10:58:54Z</time></trkpt><trkpt lat="43.89611428266616" lon="10.271246592219796"><ele>-1.75</ele><time>2026-05-01T10:58:56Z</time></trkpt><trkpt lat="43.89621683200474" lon="10.271175444305618"><ele>-1.5</ele><time>2026-05-01T10:58:58Z</time></trkpt><trkpt lat="43.89631830108403" lon="10.27111054351042"><ele>-1.25</ele><time>2026-05-01T10:59:00.001Z</time></trkpt><trkpt lat="43.89642283272925" lon="10.27103846909189"><ele>-1.0</ele><time>2026-05-01T10:59:02.001Z</time></trkpt><trkpt lat="43.89652722273733" lon="10.2709602330559"><ele>-1.0</ele><time>2026-05-01T10:59:04.001Z</time></trkpt><trkpt lat="43.89663335808521" lon="10.270888889437678"><ele>-1.0</ele><time>2026-05-01T10:59:06.001Z</time></trkpt><trkpt lat="43.896741907070215" lon="10.270810448917983"><ele>-1.0</ele><time>2026-05-01T10:59:08.001Z</time></trkpt><trkpt lat="43.896848970212766" lon="10.27074081336891"><ele>-1.0</ele><time>2026-05-01T10:59:10.001Z</time></trkpt><trkpt lat="43.89695955598383" lon="10.27067704230664"><ele>-1.0</ele><time>2026-05-01T10:59:12.001Z</time></trkpt><trkpt lat="43.89707180940982" lon="10.270627349854603"><ele>-1.0</ele><time>2026-05-01T10:59:14.001Z</time></trkpt><trkpt lat="43.89713095349093" lon="10.270595444910317"><ele>-1.0</ele><time>2026-05-01T10:59:15.001Z</time></trkpt><trkpt lat="43.89723869677499" lon="10.270507054761728"><ele>-1.0</ele><time>2026-05-01T10:59:17.001Z</time></trkpt><trkpt lat="43.89734817568014" lon="10.270433506634106"><ele>-1.0</ele><time>2026-05-01T10:59:19.001Z</time></trkpt><trkpt lat="43.897455298341704" lon="10.270347194609847"><ele>-1.0</ele><time>2026-05-01T10:59:21.001Z</time></trkpt><trkpt lat="43.89756685648915" lon="10.270275213946979"><ele>-1.0</ele><time>2026-05-01T10:59:23.001Z</time></trkpt><trkpt lat="43.89767383732488" lon="10.270192681243453"><ele>-1.0</ele><time>2026-05-01T10:59:25.001Z</time></trkpt><trkpt lat="43.897782772470066" lon="10.27011699612888"><ele>-1.0</ele><time>2026-05-01T10:59:27.001Z</time></trkpt><trkpt lat="43.89788971962883" lon="10.27004298843712"><ele>-1.0</ele><time>2026-05-01T10:59:29.001Z</time></trkpt><trkpt lat="43.89799807105137" lon="10.2699683301392"><ele>-1.0</ele><time>2026-05-01T10:59:31.001Z</time></trkpt><trkpt lat="43.898104055543826" lon="10.269895772891752"><ele>-1.0</ele><time>2026-05-01T10:59:33.001Z</time></trkpt><trkpt lat="43.89820896708538" lon="10.269822023558488"><ele>-1.0</ele><time>2026-05-01T10:59:35.001Z</time></trkpt><trkpt lat="43.89831536383254" lon="10.269744287657963"><ele>-0.5</ele><time>2026-05-01T10:59:37.001Z</time></trkpt><trkpt lat="43.898421650490256" lon="10.269670216716873"><ele>0.0</ele><time>2026-05-01T10:59:39.001Z</time></trkpt><trkpt lat="43.898527778443885" lon="10.269602060452016"><ele>0.5</ele><time>2026-05-01T10:59:41.001Z</time></trkpt><trkpt lat="43.898634627475566" lon="10.269524650654246"><ele>1.0</ele><time>2026-05-01T10:59:43.001Z</time></trkpt><trkpt lat="43.89874000178829" lon="10.269446345259473"><ele>1.0</ele><time>2026-05-01T10:59:45.001Z</time></trkpt><trkpt lat="43.898849211236055" lon="10.269374559814349"><ele>1.0</ele><time>2026-05-01T10:59:47.001Z</time></trkpt><trkpt lat="43.89895406843828" lon="10.269295073377794"><ele>1.0</ele><time>2026-05-01T10:59:49.001Z</time></trkpt><trkpt lat="43.8990590047698" lon="10.269217460169292"><ele>1.0</ele><time>2026-05-01T10:59:51.001Z</time></trkpt><trkpt lat="43.89916667429338" lon="10.269144647959239"><ele>1.0</ele><time>2026-05-01T10:59:53.001Z</time></trkpt><trkpt lat="43.899274772221574" lon="10.269071236911028"><ele>1.0</ele><time>2026-05-01T10:59:55.001Z</time></trkpt><trkpt lat="43.899379876989784" lon="10.268992317896346"><ele>1.0</ele><time>2026-05-01T10:59:57.001Z</time></trkpt><trkpt lat="43.89949547541219" lon="10.268932843025214"><ele>1.0</ele><time>2026-05-01T10:59:59.001Z</time></trkpt><trkpt lat="43.89959730749803" lon="10.268842294784093"><ele>1.0</ele><time>2026-05-01T11:00:01.001Z</time></trkpt><trkpt lat="43.899702344856784" lon="10.26876253011248"><ele>1.0</ele><time>2026-05-01T11:00:03.001Z</time></trkpt><trkpt lat="43.899808862215686" lon="10.26869146809178"><ele>1.0</ele><time>2026-05-01T11:00:05.001Z</time></trkpt><trkpt lat="43.89991574290778" lon="10.268621605395312"><ele>1.0</ele><time>2026-05-01T11:00:07.002Z</time></trkpt><trkpt lat="43.90002411350783" lon="10.268545011088664"><ele>1.0</ele><time>2026-05-01T11:00:09.002Z</time></trkpt><trkpt lat="43.90013333554757" lon="10.268468397766583"><ele>1.0</ele><time>2026-05-01T11:00:11.002Z</time></trkpt><trkpt lat="43.900240191559" lon="10.26838772935599"><ele>1.0</ele><time>2026-05-01T11:00:13.002Z</time></trkpt><trkpt lat="43.90035033112498" lon="10.26830821288972"><ele>1.0</ele><time>2026-05-01T11:00:15Z</time></trkpt><trkpt lat="43.900456711363695" lon="10.26822581878632"><ele>1.0</ele><time>2026-05-01T11:00:17Z</time></trkpt><trkpt lat="43.90056409615727" lon="10.268143087796306"><ele>1.0</ele><time>2026-05-01T11:00:19Z</time></trkpt><trkpt lat="43.900673655697624" lon="10.26806549198652"><ele>1.0</ele><time>2026-05-01T11:00:21Z</time></trkpt><trkpt lat="43.90078035936125" lon="10.267984554424416"><ele>1.0</ele><time>2026-05-01T11:00:23Z</time></trkpt><trkpt lat="43.900890141962584" lon="10.267909998934208"><ele>1.0</ele><time>2026-05-01T11:00:25Z</time></trkpt><trkpt lat="43.9009972043444" lon="10.267831904704192"><ele>1.0</ele><time>2026-05-01T11:00:27Z</time></trkpt><trkpt lat="43.90110323353123" lon="10.26774440655385"><ele>1.0</ele><time>2026-05-01T11:00:29Z</time></trkpt><trkpt lat="43.901213265699795" lon="10.267666982876928"><ele>1.0</ele><time>2026-05-01T11:00:31Z</time></trkpt><trkpt lat="43.901320647940985" lon="10.267588151942014"><ele>1.0</ele><time>2026-05-01T11:00:33Z</time></trkpt><trkpt lat="43.90142890371361" lon="10.267508490439784"><ele>1.0</ele><time>2026-05-01T11:00:35Z</time></trkpt><trkpt lat="43.90153911156264" lon="10.267431178360447"><ele>1.0</ele><time>2026-05-01T11:00:37Z</time></trkpt><trkpt lat="43.90160312858326" lon="10.267415861601659"><ele>1.0</ele><time>2026-05-01T11:00:38Z</time></trkpt><trkpt lat="43.901710590285" lon="10.267332676967404"><ele>1.0</ele><time>2026-05-01T11:00:40Z</time></trkpt><trkpt lat="43.90176852001077" lon="10.267297023379044"><ele>1.25</ele><time>2026-05-01T11:00:41Z</time></trkpt><trkpt lat="43.90188283382291" lon="10.267236186893022"><ele>1.5</ele><time>2026-05-01T11:00:43Z</time></trkpt><trkpt lat="43.901994691419546" lon="10.267168574431162"><ele>1.75</ele><time>2026-05-01T11:00:45Z</time></trkpt><trkpt lat="43.902106579747986" lon="10.267102396820135"><ele>2.0</ele><time>2026-05-01T11:00:47Z</time></trkpt><trkpt lat="43.90221629693717" lon="10.267041163816605"><ele>2.0</ele><time>2026-05-01T11:00:49Z</time></trkpt><trkpt lat="43.90232151454169" lon="10.266993175237813"><ele>2.0</ele><time>2026-05-01T11:00:51Z</time></trkpt><trkpt lat="43.902424768817234" lon="10.266926755336161"><ele>2.0</ele><time>2026-05-01T11:00:53Z</time></trkpt><trkpt lat="43.90251370809305" lon="10.266895204875043"><ele>2.0</ele><time>2026-05-01T11:00:55Z</time></trkpt><trkpt lat="43.9025846306003" lon="10.266855834386035"><ele>2.0</ele><time>2026-05-01T11:00:59.001Z</time></trkpt><trkpt lat="43.902664652056224" lon="10.266811413170911"><ele>2.0</ele><time>2026-05-01T11:01:02.001Z</time></trkpt><trkpt lat="43.90274277398203" lon="10.266738839203159"><ele>2.0</ele><time>2026-05-01T11:01:04.001Z</time></trkpt><trkpt lat="43.90284405098104" lon="10.266691583773499"><ele>2.0</ele><time>2026-05-01T11:01:06.001Z</time></trkpt><trkpt lat="43.90295622608549" lon="10.266647802960895"><ele>2.0</ele><time>2026-05-01T11:01:08.001Z</time></trkpt><trkpt lat="43.90306724541587" lon="10.266597415590462"><ele>2.0</ele><time>2026-05-01T11:01:10.001Z</time></trkpt><trkpt lat="43.903179128538895" lon="10.266540503150939"><ele>2.0</ele><time>2026-05-01T11:01:12.001Z</time></trkpt><trkpt lat="43.90329501623197" lon="10.266488134555807"><ele>2.0</ele><time>2026-05-01T11:01:14.001Z</time></trkpt><trkpt lat="43.90341228175956" lon="10.266444404895166"><ele>2.0</ele><time>2026-05-01T11:01:16.001Z</time></trkpt><trkpt lat="43.90351408492632" lon="10.266408619860023"><ele>2.0</ele><time>2026-05-01T11:01:18.001Z</time></trkpt><trkpt lat="43.90358202997767" lon="10.266372948692657"><ele>2.0</ele><time>2026-05-01T11:01:19.001Z</time></trkpt><trkpt lat="43.90364350485377" lon="10.266341915242071"><ele>2.0</ele><time>2026-05-01T11:01:20.001Z</time></trkpt><trkpt lat="43.90376128608369" lon="10.266287016080408"><ele>2.0</ele><time>2026-05-01T11:01:22.001Z</time></trkpt><trkpt lat="43.9038791461148" lon="10.266238762161393"><ele>2.0</ele><time>2026-05-01T11:01:24.001Z</time></trkpt><trkpt lat="43.903996252139976" lon="10.26618788309201"><ele>2.0</ele><time>2026-05-01T11:01:26.001Z</time></trkpt><trkpt lat="43.904058993880525" lon="10.26616506278506"><ele>2.0</ele><time>2026-05-01T11:01:27.001Z</time></trkpt><trkpt lat="43.904175159113265" lon="10.266121636468046"><ele>2.0</ele><time>2026-05-01T11:01:29.001Z</time></trkpt><trkpt lat="43.90423980677769" lon="10.266116187339147"><ele>2.0</ele><time>2026-05-01T11:01:30.001Z</time></trkpt><trkpt lat="43.90435719176818" lon="10.266067259121144"><ele>2.0</ele><time>2026-05-01T11:01:32.001Z</time></trkpt><trkpt lat="43.90447007614984" lon="10.265997448760668"><ele>2.0</ele><time>2026-05-01T11:01:34.001Z</time></trkpt><trkpt lat="43.90458809878788" lon="10.265967865935515"><ele>2.0</ele><time>2026-05-01T11:01:36.001Z</time></trkpt><trkpt lat="43.90470485620294" lon="10.265917810170643"><ele>1.75</ele><time>2026-05-01T11:01:38.001Z</time></trkpt><trkpt lat="43.90482365723685" lon="10.265865906276218"><ele>1.5</ele><time>2026-05-01T11:01:40.001Z</time></trkpt><trkpt lat="43.904939493564605" lon="10.265815693655648"><ele>1.25</ele><time>2026-05-01T11:01:42.001Z</time></trkpt><trkpt lat="43.90505467599353" lon="10.265765918104076"><ele>1.0</ele><time>2026-05-01T11:01:44.001Z</time></trkpt><trkpt lat="43.90517259852405" lon="10.265714958408134"><ele>0.8</ele><time>2026-05-01T11:01:46.001Z</time></trkpt><trkpt lat="43.90529029450487" lon="10.265664096623002"><ele>0.6000000000000001</ele><time>2026-05-01T11:01:48.001Z</time></trkpt><trkpt lat="43.905407947598725" lon="10.265613253377143"><ele>0.4</ele><time>2026-05-01T11:01:50.001Z</time></trkpt><trkpt lat="43.90552609386973" lon="10.265564542547935"><ele>0.2</ele><time>2026-05-01T11:01:52.001Z</time></trkpt><trkpt lat="43.90558788278129" lon="10.265539180909514"><ele>0.0</ele><time>2026-05-01T11:01:53.001Z</time></trkpt><trkpt lat="43.905705835611464" lon="10.26549231988889"><ele>0.4</ele><time>2026-05-01T11:01:55.001Z</time></trkpt><trkpt lat="43.90576367458667" lon="10.265452535788468"><ele>0.8</ele><time>2026-05-01T11:01:56.001Z</time></trkpt><trkpt lat="43.905883408211366" lon="10.265398305075683"><ele>1.2000000000000002</ele><time>2026-05-01T11:01:58.001Z</time></trkpt><trkpt lat="43.906002014473614" lon="10.265349410310543"><ele>1.6</ele><time>2026-05-01T11:02:00.001Z</time></trkpt><trkpt lat="43.906121476721545" lon="10.265300245922818"><ele>2.0</ele><time>2026-05-01T11:02:02.001Z</time></trkpt><trkpt lat="43.90623800527648" lon="10.265252170704356"><ele>2.0</ele><time>2026-05-01T11:02:04.001Z</time></trkpt><trkpt lat="43.90635815401285" lon="10.26519754463853"><ele>2.0</ele><time>2026-05-01T11:02:06.002Z</time></trkpt><trkpt lat="43.906473724472406" lon="10.265144896444802"><ele>2.0</ele><time>2026-05-01T11:02:08.002Z</time></trkpt><trkpt lat="43.90653496283265" lon="10.265113659447081"><ele>2.0</ele><time>2026-05-01T11:02:09.002Z</time></trkpt><trkpt lat="43.90665080233534" lon="10.265059962687355"><ele>2.0</ele><time>2026-05-01T11:02:11.002Z</time></trkpt><trkpt lat="43.906769335964256" lon="10.265017388625656"><ele>1.9999999999999998</ele><time>2026-05-01T11:02:13.002Z</time></trkpt><trkpt lat="43.90688547673064" lon="10.26496390228591"><ele>2.0</ele><time>2026-05-01T11:02:15.002Z</time></trkpt><trkpt lat="43.906948120223134" lon="10.264938020094394"><ele>2.0</ele><time>2026-05-01T11:02:16.002Z</time></trkpt><trkpt lat="43.90701242774027" lon="10.264906307778245"><ele>2.0</ele><time>2026-05-01T11:02:17.002Z</time></trkpt><trkpt lat="43.907126646920915" lon="10.264848034758819"><ele>1.9999999999999998</ele><time>2026-05-01T11:02:19.002Z</time></trkpt><trkpt lat="43.90718858550196" lon="10.264825838258117"><ele>2.0</ele><time>2026-05-01T11:02:20Z</time></trkpt><trkpt lat="43.907304787914036" lon="10.264774028307562"><ele>2.0</ele><time>2026-05-01T11:02:22Z</time></trkpt><trkpt lat="43.90742143772776" lon="10.264716436567888"><ele>2.0</ele><time>2026-05-01T11:02:24Z</time></trkpt><trkpt lat="43.907540225416106" lon="10.264666544427683"><ele>2.0</ele><time>2026-05-01T11:02:26Z</time></trkpt><trkpt lat="43.90765160692357" lon="10.264615352722316"><ele>2.0</ele><time>2026-05-01T11:02:28Z</time></trkpt><trkpt lat="43.90776748979418" lon="10.26459023488191"><ele>2.25</ele><time>2026-05-01T11:02:30Z</time></trkpt><trkpt lat="43.90786831317731" lon="10.264547134116512"><ele>2.5</ele><time>2026-05-01T11:02:32Z</time></trkpt><trkpt lat="43.907974508401836" lon="10.264501736952667"><ele>2.75</ele><time>2026-05-01T11:02:34Z</time></trkpt><trkpt lat="43.908087437032016" lon="10.264452381688178"><ele>3.0</ele><time>2026-05-01T11:02:36Z</time></trkpt><trkpt lat="43.90820019026667" lon="10.264402815667472"><ele>3.0</ele><time>2026-05-01T11:02:38Z</time></trkpt><trkpt lat="43.908312752754114" lon="10.264353333494244"><ele>3.0</ele><time>2026-05-01T11:02:40Z</time></trkpt><trkpt lat="43.908369571296454" lon="10.264312070965872"><ele>3.0</ele><time>2026-05-01T11:02:41Z</time></trkpt><trkpt lat="43.90848505494705" lon="10.264259125978727"><ele>3.0</ele><time>2026-05-01T11:02:43Z</time></trkpt><trkpt lat="43.90859882442554" lon="10.264208064348306"><ele>3.0</ele><time>2026-05-01T11:02:45Z</time></trkpt><trkpt lat="43.90871100604848" lon="10.26415646481552"><ele>2.5</ele><time>2026-05-01T11:02:47Z</time></trkpt><trkpt lat="43.90882696770867" lon="10.26410849573076"><ele>2.0</ele><time>2026-05-01T11:02:49Z</time></trkpt><trkpt lat="43.90894302854529" lon="10.264058246955567"><ele>1.5</ele><time>2026-05-01T11:02:51Z</time></trkpt><trkpt lat="43.90905838921246" lon="10.26400474504408"><ele>1.0</ele><time>2026-05-01T11:02:53Z</time></trkpt><trkpt lat="43.90917503562248" lon="10.263957782025116"><ele>1.1666666666666665</ele><time>2026-05-01T11:02:55.001Z</time></trkpt><trkpt lat="43.90929070954707" lon="10.263909324624382"><ele>1.3333333333333333</ele><time>2026-05-01T11:02:57.001Z</time></trkpt><trkpt lat="43.90935153023825" lon="10.263883086118044"><ele>1.5</ele><time>2026-05-01T11:02:58.001Z</time></trkpt><trkpt lat="43.90942020906498" lon="10.263871857743508"><ele>1.6666666666666665</ele><time>2026-05-01T11:02:59.001Z</time></trkpt><trkpt lat="43.90948433594675" lon="10.263847627205964"><ele>1.8333333333333333</ele><time>2026-05-01T11:03:00.001Z</time></trkpt><trkpt lat="43.90959680109431" lon="10.263797843618756"><ele>2.0</ele><time>2026-05-01T11:03:02.001Z</time></trkpt><trkpt lat="43.90971786212292" lon="10.26373883186504"><ele>2.0</ele><time>2026-05-01T11:03:04.001Z</time></trkpt><trkpt lat="43.90978466291187" lon="10.263724026508728"><ele>2.0</ele><time>2026-05-01T11:03:05.001Z</time></trkpt><trkpt lat="43.90990371341633" lon="10.263670315429534"><ele>2.0</ele><time>2026-05-01T11:03:07.001Z</time></trkpt><trkpt lat="43.91001696788662" lon="10.263608541697105"><ele>2.0</ele><time>2026-05-01T11:03:09.001Z</time></trkpt><trkpt lat="43.91012793979894" lon="10.263567812280165"><ele>2.0</ele><time>2026-05-01T11:03:11.001Z</time></trkpt><trkpt lat="43.91019453343171" lon="10.26353290643157"><ele>2.0</ele><time>2026-05-01T11:03:12.001Z</time></trkpt><trkpt lat="43.91031248549869" lon="10.263485646458403"><ele>2.0</ele><time>2026-05-01T11:03:14.001Z</time></trkpt><trkpt lat="43.91042362094626" lon="10.263424640155849"><ele>2.0</ele><time>2026-05-01T11:03:16.001Z</time></trkpt><trkpt lat="43.91052645177921" lon="10.263354990151619"><ele>2.0</ele><time>2026-05-01T11:03:18.001Z</time></trkpt><trkpt lat="43.9106402662272" lon="10.263315732414796"><ele>2.0</ele><time>2026-05-01T11:03:20.001Z</time></trkpt><trkpt lat="43.910762803021896" lon="10.263276839142618"><ele>2.0</ele><time>2026-05-01T11:03:22.001Z</time></trkpt><trkpt lat="43.91087811368329" lon="10.263218224088021"><ele>2.0</ele><time>2026-05-01T11:03:24.001Z</time></trkpt><trkpt lat="43.910993132529185" lon="10.263205807028177"><ele>2.0</ele><time>2026-05-01T11:03:26.001Z</time></trkpt><trkpt lat="43.911106339813095" lon="10.263155718002524"><ele>2.5</ele><time>2026-05-01T11:03:28.001Z</time></trkpt><trkpt lat="43.91122067834444" lon="10.263087479561145"><ele>3.0</ele><time>2026-05-01T11:03:30.001Z</time></trkpt><trkpt lat="43.91132733142741" lon="10.263044374680742"><ele>3.5</ele><time>2026-05-01T11:03:32.001Z</time></trkpt><trkpt lat="43.91144212957427" lon="10.262995714822253"><ele>4.0</ele><time>2026-05-01T11:03:34.001Z</time></trkpt><trkpt lat="43.911556149129986" lon="10.262949354177783"><ele>4.0</ele><time>2026-05-01T11:03:36.001Z</time></trkpt><trkpt lat="43.911667360517285" lon="10.262907421947927"><ele>4.0</ele><time>2026-05-01T11:03:38.001Z</time></trkpt><trkpt lat="43.91177845959136" lon="10.262843044704342"><ele>4.0</ele><time>2026-05-01T11:03:40.001Z</time></trkpt><trkpt lat="43.91186911264866" lon="10.2627868698011"><ele>4.0</ele><time>2026-05-01T11:03:42.001Z</time></trkpt><trkpt lat="43.91195267277465" lon="10.262712176408336"><ele>4.0</ele><time>2026-05-01T11:03:44.001Z</time></trkpt><trkpt lat="43.912005810154746" lon="10.262636094786881"><ele>4.0</ele><time>2026-05-01T11:03:46.001Z</time></trkpt><trkpt lat="43.91206862182861" lon="10.26261600889829"><ele>4.0</ele><time>2026-05-01T11:03:48.001Z</time></trkpt><trkpt lat="43.91213756859237" lon="10.262615149709186"><ele>4.0</ele><time>2026-05-01T11:03:51.001Z</time></trkpt><trkpt lat="43.91224020513422" lon="10.262763806490474"><ele>4.0</ele><time>2026-05-01T11:03:52.001Z</time></trkpt><trkpt lat="43.912293439539006" lon="10.26281643548361"><ele>4.0</ele><time>2026-05-01T11:03:53.001Z</time></trkpt><trkpt lat="43.91239911879628" lon="10.262886316756958"><ele>4.0</ele><time>2026-05-01T11:03:55.001Z</time></trkpt><trkpt lat="43.912459148976886" lon="10.262922472929757"><ele>4.0</ele><time>2026-05-01T11:03:56.001Z</time></trkpt><trkpt lat="43.912576239882455" lon="10.26300304846083"><ele>4.0</ele><time>2026-05-01T11:03:58.001Z</time></trkpt><trkpt lat="43.91267964664665" lon="10.263084277414567"><ele>4.0</ele><time>2026-05-01T11:04:00.001Z</time></trkpt><trkpt lat="43.91278670498318" lon="10.263160189399295"><ele>4.0</ele><time>2026-05-01T11:04:02.001Z</time></trkpt><trkpt lat="43.91289667947784" lon="10.26323707592078"><ele>3.75</ele><time>2026-05-01T11:04:04.001Z</time></trkpt><trkpt lat="43.91300165086869" lon="10.263315047208616"><ele>3.5</ele><time>2026-05-01T11:04:06.001Z</time></trkpt><trkpt lat="43.91311213206965" lon="10.263391100838335"><ele>3.25</ele><time>2026-05-01T11:04:08.001Z</time></trkpt><trkpt lat="43.91322037295188" lon="10.263463592974421"><ele>3.0</ele><time>2026-05-01T11:04:10.002Z</time></trkpt><trkpt lat="43.91332900091274" lon="10.263542295821663"><ele>3.2</ele><time>2026-05-01T11:04:12.002Z</time></trkpt><trkpt lat="43.913436281562575" lon="10.263616334441396"><ele>3.4</ele><time>2026-05-01T11:04:14.002Z</time></trkpt><trkpt lat="43.913543003143076" lon="10.263694653589448"><ele>3.6000000000000005</ele><time>2026-05-01T11:04:16.002Z</time></trkpt><trkpt lat="43.913626998219684" lon="10.263755309143818"><ele>3.8000000000000003</ele><time>2026-05-01T11:04:18.002Z</time></trkpt><trkpt lat="43.91369303438168" lon="10.263800102479898"><ele>4.0</ele><time>2026-05-01T11:04:19.002Z</time></trkpt><trkpt lat="43.913797505821066" lon="10.263873907795288"><ele>4.0</ele><time>2026-05-01T11:04:21.002Z</time></trkpt><trkpt lat="43.91390345440972" lon="10.263936735391015"><ele>4.0</ele><time>2026-05-01T11:04:23.002Z</time></trkpt><trkpt lat="43.91397649727973" lon="10.263960352528278"><ele>4.0</ele><time>2026-05-01T11:04:24.002Z</time></trkpt><trkpt lat="43.914059782076706" lon="10.26403410206106"><ele>4.0</ele><time>2026-05-01T11:04:26Z</time></trkpt><trkpt lat="43.914154696162726" lon="10.264105563526973"><ele>4.0</ele><time>2026-05-01T11:04:28Z</time></trkpt><trkpt lat="43.91425413759272" lon="10.264163299267482"><ele>4.2</ele><time>2026-05-01T11:04:30Z</time></trkpt><trkpt lat="43.91435752723378" lon="10.264234001093799"><ele>4.4</ele><time>2026-05-01T11:04:32Z</time></trkpt><trkpt lat="43.91446362725243" lon="10.264310155179823"><ele>4.6</ele><time>2026-05-01T11:04:34Z</time></trkpt><trkpt lat="43.91457170623672" lon="10.264379938253997"><ele>4.8</ele><time>2026-05-01T11:04:36Z</time></trkpt><trkpt lat="43.91464980488807" lon="10.264416729346372"><ele>5.0</ele><time>2026-05-01T11:04:37Z</time></trkpt><trkpt lat="43.91473646146512" lon="10.264492637039236"><ele>5.0</ele><time>2026-05-01T11:04:39Z</time></trkpt><trkpt lat="43.914843696188605" lon="10.264567016034373"><ele>5.0</ele><time>2026-05-01T11:04:41Z</time></trkpt><trkpt lat="43.91490263166741" lon="10.264599144634152"><ele>5.0</ele><time>2026-05-01T11:04:42Z</time></trkpt><trkpt lat="43.915009680177945" lon="10.264670874271951"><ele>5.0</ele><time>2026-05-01T11:04:44Z</time></trkpt><trkpt lat="43.915114864939035" lon="10.264759534366727"><ele>5.0</ele><time>2026-05-01T11:04:46Z</time></trkpt><trkpt lat="43.91517124752567" lon="10.264801685173937"><ele>4.8</ele><time>2026-05-01T11:04:47Z</time></trkpt><trkpt lat="43.91527810856873" lon="10.264872142634722"><ele>4.6</ele><time>2026-05-01T11:04:49Z</time></trkpt><trkpt lat="43.915379732590225" lon="10.264949954733654"><ele>4.4</ele><time>2026-05-01T11:04:51Z</time></trkpt><trkpt lat="43.91543667953282" lon="10.264988437579756"><ele>4.2</ele><time>2026-05-01T11:04:52Z</time></trkpt><trkpt lat="43.91554363699653" lon="10.265057298187353"><ele>4.0</ele><time>2026-05-01T11:04:54Z</time></trkpt><trkpt lat="43.915654942739856" lon="10.265130177330713"><ele>4.0</ele><time>2026-05-01T11:04:56Z</time></trkpt><trkpt lat="43.91576522033464" lon="10.265202132245795"><ele>4.0</ele><time>2026-05-01T11:04:58Z</time></trkpt><trkpt lat="43.915871710769096" lon="10.265274885271207"><ele>4.0</ele><time>2026-05-01T11:05:00Z</time></trkpt><trkpt lat="43.91598108348631" lon="10.265347052548716"><ele>4.0</ele><time>2026-05-01T11:05:02Z</time></trkpt><trkpt lat="43.91609089020928" lon="10.265422019183939"><ele>4.0</ele><time>2026-05-01T11:05:04.001Z</time></trkpt><trkpt lat="43.91620290954492" lon="10.265494763794306"><ele>4.0</ele><time>2026-05-01T11:05:06.001Z</time></trkpt><trkpt lat="43.916312835575695" lon="10.265562952786283"><ele>4.0</ele><time>2026-05-01T11:05:08.001Z</time></trkpt><trkpt lat="43.91642063919631" lon="10.265645482462938"><ele>4.0</ele><time>2026-05-01T11:05:10.001Z</time></trkpt><trkpt lat="43.91653146981275" lon="10.265716473416552"><ele>3.8000000000000003</ele><time>2026-05-01T11:05:12.001Z</time></trkpt><trkpt lat="43.916591426519645" lon="10.26575067890093"><ele>3.6000000000000005</ele><time>2026-05-01T11:05:13.001Z</time></trkpt><trkpt lat="43.91670588196046" lon="10.265825701578224"><ele>3.4</ele><time>2026-05-01T11:05:15.001Z</time></trkpt><trkpt lat="43.916812125557875" lon="10.265896077235974"><ele>3.2</ele><time>2026-05-01T11:05:17.001Z</time></trkpt><trkpt lat="43.9168703582406" lon="10.265933023621518"><ele>3.0</ele><time>2026-05-01T11:05:18.001Z</time></trkpt><trkpt lat="43.91698040427986" lon="10.266003948182457"><ele>4.0</ele><time>2026-05-01T11:05:20.001Z</time></trkpt><trkpt lat="43.91708996646946" lon="10.266075076428397"><ele>5.0</ele><time>2026-05-01T11:05:22.001Z</time></trkpt><trkpt lat="43.91720074283991" lon="10.266154454618842"><ele>6.0</ele><time>2026-05-01T11:05:24.001Z</time></trkpt><trkpt lat="43.91730896636479" lon="10.266223987378368"><ele>7.0</ele><time>2026-05-01T11:05:26.001Z</time></trkpt><trkpt lat="43.91741801114699" lon="10.266287657083957"><ele>7.0</ele><time>2026-05-01T11:05:28.001Z</time></trkpt><trkpt lat="43.917480477913706" lon="10.266326921243028"><ele>6.999999999999999</ele><time>2026-05-01T11:05:29.001Z</time></trkpt><trkpt lat="43.91758871257393" lon="10.266400960224233"><ele>6.999999999999999</ele><time>2026-05-01T11:05:31.001Z</time></trkpt><trkpt lat="43.917703001716504" lon="10.26647861870828"><ele>7.0</ele><time>2026-05-01T11:05:33.001Z</time></trkpt><trkpt lat="43.91781020227537" lon="10.266556763763365"><ele>7.0</ele><time>2026-05-01T11:05:35.001Z</time></trkpt><trkpt lat="43.91792178365399" lon="10.26663369401149"><ele>6.6</ele><time>2026-05-01T11:05:37.001Z</time></trkpt><trkpt lat="43.917980983343064" lon="10.266672939140763"><ele>6.199999999999999</ele><time>2026-05-01T11:05:38.001Z</time></trkpt><trkpt lat="43.91809135471566" lon="10.266750195730209"><ele>5.8</ele><time>2026-05-01T11:05:40.001Z</time></trkpt><trkpt lat="43.91820391225068" lon="10.266821858694263"><ele>5.4</ele><time>2026-05-01T11:05:42.001Z</time></trkpt><trkpt lat="43.918315567024464" lon="10.266896664697036"><ele>5.0</ele><time>2026-05-01T11:05:44.001Z</time></trkpt><trkpt lat="43.91837320438713" lon="10.266933628998899"><ele>5.142857142857142</ele><time>2026-05-01T11:05:45.001Z</time></trkpt><trkpt lat="43.91843080623143" lon="10.266971246231755"><ele>5.285714285714286</ele><time>2026-05-01T11:05:46.001Z</time></trkpt><trkpt lat="43.91854186723864" lon="10.267050129552759"><ele>5.428571428571429</ele><time>2026-05-01T11:05:48.001Z</time></trkpt><trkpt lat="43.9185996370016" lon="10.267089082317739"><ele>5.571428571428571</ele><time>2026-05-01T11:05:49.001Z</time></trkpt><trkpt lat="43.918658217449924" lon="10.26712680461916"><ele>5.714285714285714</ele><time>2026-05-01T11:05:50.001Z</time></trkpt><trkpt lat="43.91871636718817" lon="10.267165932539793"><ele>5.857142857142857</ele><time>2026-05-01T11:05:51.001Z</time></trkpt><trkpt lat="43.91877484662107" lon="10.267204519036119"><ele>6.0</ele><time>2026-05-01T11:05:52.001Z</time></trkpt><trkpt lat="43.918831786287306" lon="10.267245651772503"><ele>5.8</ele><time>2026-05-01T11:05:53.001Z</time></trkpt><trkpt lat="43.918944115163875" lon="10.267324069795654"><ele>5.6</ele><time>2026-05-01T11:05:55.001Z</time></trkpt><trkpt lat="43.91905384087596" lon="10.267399334159867"><ele>5.4</ele><time>2026-05-01T11:05:57.001Z</time></trkpt><trkpt lat="43.91916239049706" lon="10.267469455434767"><ele>5.2</ele><time>2026-05-01T11:05:59.001Z</time></trkpt><trkpt lat="43.919218469313385" lon="10.267512599065162"><ele>5.0</ele><time>2026-05-01T11:06:00.001Z</time></trkpt><trkpt lat="43.91933071798751" lon="10.267586665413798"><ele>5.666666666666667</ele><time>2026-05-01T11:06:02.001Z</time></trkpt><trkpt lat="43.91939291833665" lon="10.267604189607562"><ele>6.333333333333334</ele><time>2026-05-01T11:06:03.001Z</time></trkpt><trkpt lat="43.919446044341086" lon="10.267657990016836"><ele>7.0</ele><time>2026-05-01T11:06:04.001Z</time></trkpt><trkpt lat="43.91955485003286" lon="10.267738002634868"><ele>7.666666666666667</ele><time>2026-05-01T11:06:06.001Z</time></trkpt><trkpt lat="43.91961175451272" lon="10.267782669193814"><ele>8.333333333333334</ele><time>2026-05-01T11:06:07.001Z</time></trkpt><trkpt lat="43.91967311978442" lon="10.267807177287905"><ele>9.0</ele><time>2026-05-01T11:06:08.001Z</time></trkpt><trkpt lat="43.91978360713181" lon="10.26789044313089"><ele>9.0</ele><time>2026-05-01T11:06:10.001Z</time></trkpt><trkpt lat="43.91990309737741" lon="10.267958217531287"><ele>9.0</ele><time>2026-05-01T11:06:12.001Z</time></trkpt><trkpt lat="43.92001154841216" lon="10.268036706672934"><ele>9.0</ele><time>2026-05-01T11:06:14.001Z</time></trkpt><trkpt lat="43.92012611804807" lon="10.268108951281128"><ele>9.0</ele><time>2026-05-01T11:06:16.001Z</time></trkpt><trkpt lat="43.92023608483203" lon="10.268182910957687"><ele>9.4</ele><time>2026-05-01T11:06:18.001Z</time></trkpt><trkpt lat="43.92029396396415" lon="10.268221389841015"><ele>9.8</ele><time>2026-05-01T11:06:19.001Z</time></trkpt><trkpt lat="43.92040467940712" lon="10.268291305678742"><ele>10.200000000000001</ele><time>2026-05-01T11:06:21.001Z</time></trkpt><trkpt lat="43.92046178061688" lon="10.268329539836468"><ele>10.600000000000001</ele><time>2026-05-01T11:06:22.001Z</time></trkpt><trkpt lat="43.92056801997775" lon="10.268398318976296"><ele>11.0</ele><time>2026-05-01T11:06:24.002Z</time></trkpt><trkpt lat="43.92068605674742" lon="10.268456250493696"><ele>11.0</ele><time>2026-05-01T11:06:26.002Z</time></trkpt><trkpt lat="43.92078170538987" lon="10.268521372209522"><ele>11.0</ele><time>2026-05-01T11:06:28.002Z</time></trkpt><trkpt lat="43.92086445527497" lon="10.268599967320984"><ele>11.0</ele><time>2026-05-01T11:06:30.002Z</time></trkpt><trkpt lat="43.92091139515825" lon="10.268696540987097"><ele>11.0</ele><time>2026-05-01T11:06:32Z</time></trkpt><trkpt lat="43.92097463301139" lon="10.268791885071225"><ele>11.0</ele><time>2026-05-01T11:06:34Z</time></trkpt><trkpt lat="43.92105442569249" lon="10.26887808923425"><ele>11.200000000000001</ele><time>2026-05-01T11:06:36Z</time></trkpt><trkpt lat="43.921140358563534" lon="10.268973337204423"><ele>11.4</ele><time>2026-05-01T11:06:38Z</time></trkpt><trkpt lat="43.92122780118171" lon="10.269075897716412"><ele>11.6</ele><time>2026-05-01T11:06:40Z</time></trkpt><trkpt lat="43.92134531511753" lon="10.269143616562022"><ele>11.8</ele><time>2026-05-01T11:06:42Z</time></trkpt><trkpt lat="43.92140639678786" lon="10.26918606510899"><ele>12.0</ele><time>2026-05-01T11:06:45Z</time></trkpt><trkpt lat="43.921475403138736" lon="10.269247051416768"><ele>12.0</ele><time>2026-05-01T11:06:47Z</time></trkpt><trkpt lat="43.921536692895344" lon="10.269309507475498"><ele>12.0</ele><time>2026-05-01T11:06:49Z</time></trkpt><trkpt lat="43.92159445844748" lon="10.269345743648438"><ele>12.0</ele><time>2026-05-01T11:06:52Z</time></trkpt><trkpt lat="43.92166229706552" lon="10.26946939911175"><ele>12.0</ele><time>2026-05-01T11:06:54Z</time></trkpt><trkpt lat="43.92169510896982" lon="10.269544272635446"><ele>12.0</ele><time>2026-05-01T11:06:55Z</time></trkpt><trkpt lat="43.9217542124566" lon="10.269689617661943"><ele>12.0</ele><time>2026-05-01T11:06:57Z</time></trkpt><trkpt lat="43.92180858298783" lon="10.269839293766909"><ele>11.8</ele><time>2026-05-01T11:06:59Z</time></trkpt><trkpt lat="43.921855106055794" lon="10.269985962432227"><ele>11.6</ele><time>2026-05-01T11:07:01Z</time></trkpt><trkpt lat="43.921895143420514" lon="10.270055007943723"><ele>11.4</ele><time>2026-05-01T11:07:02Z</time></trkpt><trkpt lat="43.92196282548564" lon="10.270188674185887"><ele>11.200000000000001</ele><time>2026-05-01T11:07:04Z</time></trkpt><trkpt lat="43.92202605874531" lon="10.270313030831364"><ele>11.0</ele><time>2026-05-01T11:07:06Z</time></trkpt><trkpt lat="43.922064933748196" lon="10.270437901028481"><ele>11.0</ele><time>2026-05-01T11:07:08Z</time></trkpt><trkpt lat="43.92210461829715" lon="10.270525828740036"><ele>11.0</ele><time>2026-05-01T11:07:09Z</time></trkpt><trkpt lat="43.92214001778648" lon="10.270604261844896"><ele>11.0</ele><time>2026-05-01T11:07:10Z</time></trkpt><trkpt lat="43.922210865327784" lon="10.27075546791663"><ele>11.0</ele><time>2026-05-01T11:07:12Z</time></trkpt><trkpt lat="43.92228895192898" lon="10.270891908417106"><ele>11.0</ele><time>2026-05-01T11:07:14Z</time></trkpt><trkpt lat="43.922375467627376" lon="10.271010819014533"><ele>11.0</ele><time>2026-05-01T11:07:16Z</time></trkpt><trkpt lat="43.922463255941295" lon="10.27111908935554"><ele>11.0</ele><time>2026-05-01T11:07:18Z</time></trkpt><trkpt lat="43.922549327454014" lon="10.271225073495614"><ele>11.0</ele><time>2026-05-01T11:07:20Z</time></trkpt><trkpt lat="43.92263546470873" lon="10.27133122651083"><ele>11.0</ele><time>2026-05-01T11:07:22Z</time></trkpt><trkpt lat="43.922732219585015" lon="10.271440153370907"><ele>11.25</ele><time>2026-05-01T11:07:24Z</time></trkpt><trkpt lat="43.92283267754431" lon="10.271533425535287"><ele>11.5</ele><time>2026-05-01T11:07:26.001Z</time></trkpt><trkpt lat="43.922930293224574" lon="10.271613319614781"><ele>11.75</ele><time>2026-05-01T11:07:28.001Z</time></trkpt><trkpt lat="43.92303986160792" lon="10.271678332932522"><ele>12.0</ele><time>2026-05-01T11:07:30.001Z</time></trkpt><trkpt lat="43.9231411449215" lon="10.27176084891342"><ele>12.0</ele><time>2026-05-01T11:07:32.001Z</time></trkpt><trkpt lat="43.92322985721127" lon="10.271839363516046"><ele>12.0</ele><time>2026-05-01T11:07:34.001Z</time></trkpt><trkpt lat="43.92332667602657" lon="10.271931915420714"><ele>12.0</ele><time>2026-05-01T11:07:36.001Z</time></trkpt><trkpt lat="43.92342422069872" lon="10.272031839267804"><ele>12.0</ele><time>2026-05-01T11:07:38.001Z</time></trkpt><trkpt lat="43.923514925254004" lon="10.272137096463759"><ele>12.25</ele><time>2026-05-01T11:07:40.001Z</time></trkpt><trkpt lat="43.92361221616164" lon="10.272243046823629"><ele>12.5</ele><time>2026-05-01T11:07:42.001Z</time></trkpt><trkpt lat="43.923711403034034" lon="10.272347396612322"><ele>12.75</ele><time>2026-05-01T11:07:44.001Z</time></trkpt><trkpt lat="43.92380618654863" lon="10.272448436800586"><ele>13.0</ele><time>2026-05-01T11:07:46.001Z</time></trkpt><trkpt lat="43.92389506999889" lon="10.272561971570289"><ele>13.0</ele><time>2026-05-01T11:07:48.001Z</time></trkpt><trkpt lat="43.92397959833226" lon="10.2726586701233"><ele>13.0</ele><time>2026-05-01T11:07:50.001Z</time></trkpt><trkpt lat="43.924051202349226" lon="10.272749497465451"><ele>13.0</ele><time>2026-05-01T11:07:52.001Z</time></trkpt><trkpt lat="43.924157938612154" lon="10.272780713409492"><ele>13.0</ele><time>2026-05-01T11:07:54.001Z</time></trkpt><trkpt lat="43.92427526506797" lon="10.272791804562242"><ele>13.0</ele><time>2026-05-01T11:07:56.001Z</time></trkpt><trkpt lat="43.92433340335033" lon="10.272837017722862"><ele>12.5</ele><time>2026-05-01T11:07:57.001Z</time></trkpt><trkpt lat="43.92444518997631" lon="10.272846648057802"><ele>12.0</ele><time>2026-05-01T11:07:59.001Z</time></trkpt><trkpt lat="43.92455845261664" lon="10.27286266570699"><ele>11.5</ele><time>2026-05-01T11:08:01.001Z</time></trkpt><trkpt lat="43.92467053549828" lon="10.272869732007832"><ele>11.0</ele><time>2026-05-01T11:08:03.001Z</time></trkpt><trkpt lat="43.92478613991042" lon="10.272911086551469"><ele>11.0</ele><time>2026-05-01T11:08:05.001Z</time></trkpt><trkpt lat="43.924892926098295" lon="10.272938284794499"><ele>11.0</ele><time>2026-05-01T11:08:07.001Z</time></trkpt><trkpt lat="43.924994227330224" lon="10.273003431151025"><ele>11.0</ele><time>2026-05-01T11:08:09.001Z</time></trkpt><trkpt lat="43.92510171785328" lon="10.27307155792144"><ele>11.0</ele><time>2026-05-01T11:08:11.001Z</time></trkpt><trkpt lat="43.92521418382415" lon="10.273144853783052"><ele>11.666666666666666</ele><time>2026-05-01T11:08:13.001Z</time></trkpt><trkpt lat="43.92527275120264" lon="10.273181803718227"><ele>12.333333333333332</ele><time>2026-05-01T11:08:14.001Z</time></trkpt><trkpt lat="43.92538977419916" lon="10.273257557145527"><ele>13.0</ele><time>2026-05-01T11:08:16.001Z</time></trkpt><trkpt lat="43.925449260167696" lon="10.273293597465097"><ele>13.666666666666666</ele><time>2026-05-01T11:08:17.001Z</time></trkpt><trkpt lat="43.92551020108779" lon="10.273327991293563"><ele>14.333333333333334</ele><time>2026-05-01T11:08:18.001Z</time></trkpt><trkpt lat="43.925572093137625" lon="10.27335302553504"><ele>15.0</ele><time>2026-05-01T11:08:19.001Z</time></trkpt><trkpt lat="43.92563492086249" lon="10.273377671007248"><ele>15.0</ele><time>2026-05-01T11:08:20.001Z</time></trkpt><trkpt lat="43.9256986454419" lon="10.27339933978413"><ele>15.0</ele><time>2026-05-01T11:08:21.001Z</time></trkpt><trkpt lat="43.925760642037275" lon="10.27341888457924"><ele>15.0</ele><time>2026-05-01T11:08:22.001Z</time></trkpt><trkpt lat="43.92582432038623" lon="10.273436046758093"><ele>15.0</ele><time>2026-05-01T11:08:23.001Z</time></trkpt><trkpt lat="43.92594572251852" lon="10.273477491999412"><ele>15.0</ele><time>2026-05-01T11:08:25.001Z</time></trkpt><trkpt lat="43.92606128713293" lon="10.273525698916252"><ele>15.0</ele><time>2026-05-01T11:08:27.001Z</time></trkpt><trkpt lat="43.926172641512025" lon="10.27357710583821"><ele>14.5</ele><time>2026-05-01T11:08:29.001Z</time></trkpt><trkpt lat="43.92628303823695" lon="10.273628301363996"><ele>14.0</ele><time>2026-05-01T11:08:31.001Z</time></trkpt><trkpt lat="43.92639391188658" lon="10.273677110858102"><ele>13.5</ele><time>2026-05-01T11:08:33.001Z</time></trkpt><trkpt lat="43.926505477346275" lon="10.273744837293831"><ele>13.0</ele><time>2026-05-01T11:08:35.001Z</time></trkpt><trkpt lat="43.92662112944744" lon="10.273819696818764"><ele>13.75</ele><time>2026-05-01T11:08:37.001Z</time></trkpt><trkpt lat="43.9267330437871" lon="10.273897644878058"><ele>14.5</ele><time>2026-05-01T11:08:38.999Z</time></trkpt><trkpt lat="43.92684239092486" lon="10.27397328403995"><ele>15.25</ele><time>2026-05-01T11:08:40.999Z</time></trkpt><trkpt lat="43.926953059823305" lon="10.274054153395955"><ele>16.0</ele><time>2026-05-01T11:08:42.999Z</time></trkpt><trkpt lat="43.927060144480656" lon="10.274145316396806"><ele>16.5</ele><time>2026-05-01T11:08:44.999Z</time></trkpt><trkpt lat="43.927161046024594" lon="10.274227939680912"><ele>17.0</ele><time>2026-05-01T11:08:46.999Z</time></trkpt><trkpt lat="43.92726374331069" lon="10.274307532438339"><ele>17.5</ele><time>2026-05-01T11:08:48.999Z</time></trkpt><trkpt lat="43.9273725764808" lon="10.274385125227075"><ele>18.0</ele><time>2026-05-01T11:08:50.999Z</time></trkpt><trkpt lat="43.92747933665866" lon="10.274476602210738"><ele>17.6</ele><time>2026-05-01T11:08:52.999Z</time></trkpt><trkpt lat="43.92758253587059" lon="10.27456000417599"><ele>17.200000000000003</ele><time>2026-05-01T11:08:55Z</time></trkpt><trkpt lat="43.92768977646555" lon="10.274648160485096"><ele>16.8</ele><time>2026-05-01T11:08:57Z</time></trkpt><trkpt lat="43.927741935338936" lon="10.274698501747503"><ele>16.400000000000002</ele><time>2026-05-01T11:08:58Z</time></trkpt><trkpt lat="43.927843093387104" lon="10.274805345483994"><ele>16.0</ele><time>2026-05-01T11:09:00Z</time></trkpt><trkpt lat="43.92794419927157" lon="10.274907558803768"><ele>15.600000000000001</ele><time>2026-05-01T11:09:02Z</time></trkpt><trkpt lat="43.92804283165329" lon="10.27500384468371"><ele>15.200000000000001</ele><time>2026-05-01T11:09:04Z</time></trkpt><trkpt lat="43.928133797780895" lon="10.27511516722126"><ele>14.799999999999999</ele><time>2026-05-01T11:09:06Z</time></trkpt><trkpt lat="43.92822783761657" lon="10.2752243231743"><ele>14.399999999999999</ele><time>2026-05-01T11:09:08Z</time></trkpt><trkpt lat="43.92827702810301" lon="10.275279588048992"><ele>14.0</ele><time>2026-05-01T11:09:09Z</time></trkpt><trkpt lat="43.92837584514144" lon="10.275385158221031"><ele>14.399999999999999</ele><time>2026-05-01T11:09:11Z</time></trkpt><trkpt lat="43.92848248222067" lon="10.275470807035253"><ele>14.799999999999999</ele><time>2026-05-01T11:09:13Z</time></trkpt><trkpt lat="43.92858845897157" lon="10.275555460641066"><ele>15.200000000000001</ele><time>2026-05-01T11:09:15Z</time></trkpt><trkpt lat="43.92869518469717" lon="10.275632430896737"><ele>15.600000000000001</ele><time>2026-05-01T11:09:17Z</time></trkpt><trkpt lat="43.92874983584866" lon="10.27567654695151"><ele>16.0</ele><time>2026-05-01T11:09:18Z</time></trkpt><trkpt lat="43.928846946488875" lon="10.275763274158857"><ele>16.2</ele><time>2026-05-01T11:09:20Z</time></trkpt><trkpt lat="43.92893703304161" lon="10.275838668913618"><ele>16.400000000000002</ele><time>2026-05-01T11:09:22Z</time></trkpt><trkpt lat="43.9289976014517" lon="10.275943282194627"><ele>16.6</ele><time>2026-05-01T11:09:24Z</time></trkpt><trkpt lat="43.92906219592072" lon="10.276082124216927"><ele>16.8</ele><time>2026-05-01T11:09:26Z</time></trkpt><trkpt lat="43.9290952620866" lon="10.276158057392877"><ele>17.0</ele><time>2026-05-01T11:09:27Z</time></trkpt><trkpt lat="43.92915021743161" lon="10.276311133970255"><ele>16.4</ele><time>2026-05-01T11:09:29Z</time></trkpt><trkpt lat="43.929159450007425" lon="10.276468724183415"><ele>15.799999999999999</ele><time>2026-05-01T11:09:31Z</time></trkpt><trkpt lat="43.92918693868113" lon="10.276638079841963"><ele>15.2</ele><time>2026-05-01T11:09:33Z</time></trkpt><trkpt lat="43.929196368993885" lon="10.276726619134255"><ele>14.6</ele><time>2026-05-01T11:09:34Z</time></trkpt><trkpt lat="43.929254574870065" lon="10.276782881194283"><ele>14.0</ele><time>2026-05-01T11:09:35Z</time></trkpt><trkpt lat="43.92936055132543" lon="10.276874365445046"><ele>14.0</ele><time>2026-05-01T11:09:37Z</time></trkpt><trkpt lat="43.92941674002835" lon="10.276916664186066"><ele>13.999999999999998</ele><time>2026-05-01T11:09:38Z</time></trkpt><trkpt lat="43.92947243308451" lon="10.27695773154956"><ele>13.999999999999998</ele><time>2026-05-01T11:09:39Z</time></trkpt><trkpt lat="43.92958013202961" lon="10.277041278768603"><ele>14.0</ele><time>2026-05-01T11:09:41Z</time></trkpt><trkpt lat="43.92968609681115" lon="10.277122611428348"><ele>14.0</ele><time>2026-05-01T11:09:43Z</time></trkpt><trkpt lat="43.92978816463486" lon="10.277206128750047"><ele>15.0</ele><time>2026-05-01T11:09:45.001Z</time></trkpt><trkpt lat="43.929891768594096" lon="10.277289464939358"><ele>15.999999999999998</ele><time>2026-05-01T11:09:47.001Z</time></trkpt><trkpt lat="43.92999520963788" lon="10.277355818436419"><ele>17.0</ele><time>2026-05-01T11:09:49.001Z</time></trkpt><trkpt lat="43.93009031612313" lon="10.277412177769067"><ele>18.0</ele><time>2026-05-01T11:09:51.001Z</time></trkpt><trkpt lat="43.93017630615116" lon="10.277443649170056"><ele>19.0</ele><time>2026-05-01T11:09:53.001Z</time></trkpt><trkpt lat="43.930257495425266" lon="10.27746734451344"><ele>19.0</ele><time>2026-05-01T11:09:55.001Z</time></trkpt><trkpt lat="43.93031010342606" lon="10.277378161280382"><ele>19.0</ele><time>2026-05-01T11:09:56.001Z</time></trkpt><trkpt lat="43.9304042237495" lon="10.27730884436257"><ele>19.0</ele><time>2026-05-01T11:09:58.001Z</time></trkpt><trkpt lat="43.9305007463854" lon="10.277245030672713"><ele>19.0</ele><time>2026-05-01T11:10:00.001Z</time></trkpt><trkpt lat="43.9305941011406" lon="10.277182328960283"><ele>19.0</ele><time>2026-05-01T11:10:02.001Z</time></trkpt><trkpt lat="43.930686716241176" lon="10.277148211319485"><ele>18.333333333333332</ele><time>2026-05-01T11:10:04.001Z</time></trkpt><trkpt lat="43.930761877161935" lon="10.277090745411428"><ele>17.666666666666664</ele><time>2026-05-01T11:10:06.001Z</time></trkpt><trkpt lat="43.930826582169615" lon="10.277103268308421"><ele>17.0</ele><time>2026-05-01T11:10:08.001Z</time></trkpt><trkpt lat="43.930865535576295" lon="10.277182794058469"><ele>16.333333333333332</ele><time>2026-05-01T11:10:19.001Z</time></trkpt><trkpt lat="43.93091170487594" lon="10.277269327455246"><ele>15.666666666666666</ele><time>2026-05-01T11:10:23.001Z</time></trkpt><trkpt lat="43.9309563591346" lon="10.277367645012276"><ele>15.0</ele><time>2026-05-01T11:10:26.001Z</time></trkpt><trkpt lat="43.93099836529448" lon="10.277479258112763"><ele>15.0</ele><time>2026-05-01T11:10:29.001Z</time></trkpt><trkpt lat="43.93102417157162" lon="10.2775860398051"><ele>15.0</ele><time>2026-05-01T11:10:32.001Z</time></trkpt><trkpt lat="43.93104690085101" lon="10.277678549456521"><ele>15.0</ele><time>2026-05-01T11:10:34.001Z</time></trkpt><trkpt lat="43.93106960551487" lon="10.277777560402784"><ele>15.0</ele><time>2026-05-01T11:10:36.001Z</time></trkpt><trkpt lat="43.93109366693338" lon="10.277880766169178"><ele>15.0</ele><time>2026-05-01T11:10:38.001Z</time></trkpt><trkpt lat="43.93111817920914" lon="10.277980368447514"><ele>15.0</ele><time>2026-05-01T11:10:40.001Z</time></trkpt><trkpt lat="43.93114310820416" lon="10.278081664107663"><ele>15.8</ele><time>2026-05-01T11:10:42.001Z</time></trkpt><trkpt lat="43.93117012761999" lon="10.278191451995268"><ele>16.6</ele><time>2026-05-01T11:10:44Z</time></trkpt><trkpt lat="43.931191177133826" lon="10.278287093127657"><ele>17.4</ele><time>2026-05-01T11:10:46Z</time></trkpt><trkpt lat="43.93121483737803" lon="10.278390412366594"><ele>18.2</ele><time>2026-05-01T11:10:48Z</time></trkpt><trkpt lat="43.931306608425956" lon="10.27859235111845"><ele>19.0</ele><time>2026-05-01T11:10:50Z</time></trkpt><trkpt lat="43.93127234734038" lon="10.278666439854431"><ele>19.0</ele><time>2026-05-01T11:10:55Z</time></trkpt><trkpt lat="43.93131027178009" lon="10.278774965175296"><ele>19.0</ele><time>2026-05-01T11:10:57Z</time></trkpt><trkpt lat="43.93190510112262" lon="10.27886499483067"><ele>18.599999999999998</ele><time>2026-05-01T11:11:00Z</time></trkpt><trkpt lat="43.931952923620834" lon="10.278968955724142"><ele>18.2</ele><time>2026-05-01T11:11:02Z</time></trkpt><trkpt lat="43.93201392103889" lon="10.279067441975402"><ele>17.799999999999997</ele><time>2026-05-01T11:11:04Z</time></trkpt><trkpt lat="43.93206123838176" lon="10.279166807838727"><ele>17.4</ele><time>2026-05-01T11:11:06Z</time></trkpt><trkpt lat="43.93212338769758" lon="10.279265254326058"><ele>17.0</ele><time>2026-05-01T11:11:08Z</time></trkpt><trkpt lat="43.93218054722922" lon="10.279368664305144"><ele>17.0</ele><time>2026-05-01T11:11:10Z</time></trkpt><trkpt lat="43.932240939251884" lon="10.279477987226674"><ele>17.0</ele><time>2026-05-01T11:11:12Z</time></trkpt><trkpt lat="43.9323096852252" lon="10.279571746175925"><ele>17.0</ele><time>2026-05-01T11:11:14Z</time></trkpt><trkpt lat="43.93236912479416" lon="10.279670147582294"><ele>17.0</ele><time>2026-05-01T11:11:16Z</time></trkpt><trkpt lat="43.93244212081731" lon="10.279754568439559"><ele>17.0</ele><time>2026-05-01T11:11:18Z</time></trkpt><trkpt lat="43.932516690989424" lon="10.279836241408857"><ele>17.2</ele><time>2026-05-01T11:11:20Z</time></trkpt><trkpt lat="43.93258958467033" lon="10.279922101527598"><ele>17.4</ele><time>2026-05-01T11:11:22Z</time></trkpt><trkpt lat="43.93266226387476" lon="10.280007786197823"><ele>17.6</ele><time>2026-05-01T11:11:24Z</time></trkpt><trkpt lat="43.93273822284727" lon="10.280088730920092"><ele>17.8</ele><time>2026-05-01T11:11:26Z</time></trkpt><trkpt lat="43.93280816273756" lon="10.280166134786183"><ele>18.0</ele><time>2026-05-01T11:11:28Z</time></trkpt><trkpt lat="43.932860613590364" lon="10.280245498776644"><ele>18.0</ele><time>2026-05-01T11:11:30Z</time></trkpt><trkpt lat="43.93293200983655" lon="10.280320547364484"><ele>18.0</ele><time>2026-05-01T11:11:32Z</time></trkpt><trkpt lat="43.9330023676267" lon="10.280402089254165"><ele>18.0</ele><time>2026-05-01T11:11:34Z</time></trkpt><trkpt lat="43.93307783378261" lon="10.280490630907222"><ele>18.0</ele><time>2026-05-01T11:11:36Z</time></trkpt><trkpt lat="43.93315011846445" lon="10.280568656332894"><ele>18.0</ele><time>2026-05-01T11:11:38Z</time></trkpt><trkpt lat="43.9332281883457" lon="10.280668841085285"><ele>18.333333333333332</ele><time>2026-05-01T11:11:40.001Z</time></trkpt><trkpt lat="43.93330529067985" lon="10.280763879444189"><ele>18.666666666666668</ele><time>2026-05-01T11:11:42.001Z</time></trkpt><trkpt lat="43.933378305151564" lon="10.280843803230646"><ele>19.0</ele><time>2026-05-01T11:11:44.001Z</time></trkpt><trkpt lat="43.93344807784351" lon="10.280914019907"><ele>19.333333333333336</ele><time>2026-05-01T11:11:46.001Z</time></trkpt><trkpt lat="43.9335110391703" lon="10.280979509492502"><ele>19.666666666666668</ele><time>2026-05-01T11:11:48.001Z</time></trkpt><trkpt lat="43.93356209753975" lon="10.281053957806577"><ele>20.0</ele><time>2026-05-01T11:11:50.001Z</time></trkpt><trkpt lat="43.93362527042675" lon="10.281100806247792"><ele>20.0</ele><time>2026-05-01T11:11:52.001Z</time></trkpt><trkpt lat="43.93368520793859" lon="10.281174110551138"><ele>20.0</ele><time>2026-05-01T11:11:55.001Z</time></trkpt><trkpt lat="43.93375813372887" lon="10.28126121529682"><ele>20.0</ele><time>2026-05-01T11:11:58.001Z</time></trkpt><trkpt lat="43.93381586835462" lon="10.281314951548117"><ele>20.0</ele><time>2026-05-01T11:12:00.001Z</time></trkpt><trkpt lat="43.93387657612747" lon="10.281389987971702"><ele>20.0</ele><time>2026-05-01T11:12:02.001Z</time></trkpt><trkpt lat="43.93393450878458" lon="10.281448027416028"><ele>20.0</ele><time>2026-05-01T11:12:04.001Z</time></trkpt><trkpt lat="43.933992213134836" lon="10.281494000295636"><ele>20.0</ele><time>2026-05-01T11:12:06.001Z</time></trkpt><trkpt lat="43.934050042828716" lon="10.281553520529597"><ele>20.0</ele><time>2026-05-01T11:12:08.001Z</time></trkpt><trkpt lat="43.93420856786973" lon="10.281511958383444"><ele>20.0</ele><time>2026-05-01T11:12:10.001Z</time></trkpt><trkpt lat="43.93427479017211" lon="10.281590528089428"><ele>20.0</ele><time>2026-05-01T11:12:12.001Z</time></trkpt><trkpt lat="43.93434472695528" lon="10.28167525880384"><ele>20.0</ele><time>2026-05-01T11:12:14.001Z</time></trkpt><trkpt lat="43.93441525597039" lon="10.281761873871957"><ele>20.0</ele><time>2026-05-01T11:12:16.001Z</time></trkpt><trkpt lat="43.93449019835175" lon="10.281855426372703"><ele>20.0</ele><time>2026-05-01T11:12:18.001Z</time></trkpt><trkpt lat="43.934564815340124" lon="10.281954198254821"><ele>20.0</ele><time>2026-05-01T11:12:20.001Z</time></trkpt><trkpt lat="43.93462010497583" lon="10.282032851401912"><ele>20.0</ele><time>2026-05-01T11:12:22.001Z</time></trkpt><trkpt lat="43.93467332455763" lon="10.282116847612874"><ele>20.0</ele><time>2026-05-01T11:12:24.001Z</time></trkpt><trkpt lat="43.93472972543782" lon="10.282207404081415"><ele>20.166666666666668</ele><time>2026-05-01T11:12:26.001Z</time></trkpt><trkpt lat="43.934779464444034" lon="10.282292355449721"><ele>20.333333333333336</ele><time>2026-05-01T11:12:28.001Z</time></trkpt><trkpt lat="43.93482970938039" lon="10.282381403917867"><ele>20.5</ele><time>2026-05-01T11:12:30.001Z</time></trkpt><trkpt lat="43.93488123675585" lon="10.282478265677735"><ele>20.666666666666668</ele><time>2026-05-01T11:12:32.001Z</time></trkpt><trkpt lat="43.93494011227569" lon="10.282594047812452"><ele>20.833333333333332</ele><time>2026-05-01T11:12:34.001Z</time></trkpt><trkpt lat="43.93498900500686" lon="10.282699682724067"><ele>21.0</ele><time>2026-05-01T11:12:36.001Z</time></trkpt><trkpt lat="43.93502947302576" lon="10.282794408955791"><ele>21.333333333333332</ele><time>2026-05-01T11:12:38.001Z</time></trkpt><trkpt lat="43.9350564692661" lon="10.2828733926464"><ele>21.666666666666668</ele><time>2026-05-01T11:12:39.001Z</time></trkpt><trkpt lat="43.93509231992732" lon="10.282986929106551"><ele>22.0</ele><time>2026-05-01T11:12:41.002Z</time></trkpt><trkpt lat="43.93512499263347" lon="10.283098048832835"><ele>22.333333333333336</ele><time>2026-05-01T11:12:43.002Z</time></trkpt><trkpt lat="43.935156776915555" lon="10.283197111109219"><ele>22.666666666666668</ele><time>2026-05-01T11:12:45.002Z</time></trkpt><trkpt lat="43.93519232781972" lon="10.28330218771667"><ele>23.0</ele><time>2026-05-01T11:12:47.002Z</time></trkpt><trkpt lat="43.93522711734239" lon="10.283403201426255"><ele>23.0</ele><time>2026-05-01T11:12:49.002Z</time></trkpt><trkpt lat="43.93526270097538" lon="10.283487298745886"><ele>23.0</ele><time>2026-05-01T11:12:51Z</time></trkpt><trkpt lat="43.93532794830665" lon="10.283629158515222"><ele>23.0</ele><time>2026-05-01T11:12:53Z</time></trkpt><trkpt lat="43.935381404962925" lon="10.283731897654866"><ele>23.0</ele><time>2026-05-01T11:12:56Z</time></trkpt><trkpt lat="43.93542863670514" lon="10.283827992705417"><ele>23.0</ele><time>2026-05-01T11:12:58Z</time></trkpt><trkpt lat="43.93547014428048" lon="10.283916436606713"><ele>23.0</ele><time>2026-05-01T11:13:00Z</time></trkpt><trkpt lat="43.93550279328076" lon="10.283992621296871"><ele>22.833333333333336</ele><time>2026-05-01T11:13:01Z</time></trkpt><trkpt lat="43.935547292658384" lon="10.284105779517724"><ele>22.666666666666668</ele><time>2026-05-01T11:13:03Z</time></trkpt><trkpt lat="43.93558808294408" lon="10.284219838424885"><ele>22.5</ele><time>2026-05-01T11:13:05Z</time></trkpt><trkpt lat="43.935613779378734" lon="10.28430054774877"><ele>22.333333333333332</ele><time>2026-05-01T11:13:06Z</time></trkpt><trkpt lat="43.935651385426326" lon="10.284430020606683"><ele>22.166666666666664</ele><time>2026-05-01T11:13:08Z</time></trkpt><trkpt lat="43.93568416570217" lon="10.284545502069763"><ele>22.0</ele><time>2026-05-01T11:13:10Z</time></trkpt><trkpt lat="43.9357161937435" lon="10.284658333718099"><ele>22.0</ele><time>2026-05-01T11:13:12Z</time></trkpt><trkpt lat="43.93574477385474" lon="10.284748025870108"><ele>22.0</ele><time>2026-05-01T11:13:14Z</time></trkpt><trkpt lat="43.93541873047582" lon="10.285015769757528"><ele>22.0</ele><time>2026-05-01T11:13:15Z</time></trkpt><trkpt lat="43.935440569296546" lon="10.28514772571867"><ele>22.0</ele><time>2026-05-01T11:13:17Z</time></trkpt><trkpt lat="43.93550081002209" lon="10.285273413998903"><ele>22.0</ele><time>2026-05-01T11:13:19Z</time></trkpt><trkpt lat="43.935530104604645" lon="10.285411220802994"><ele>22.0</ele><time>2026-05-01T11:13:21Z</time></trkpt><trkpt lat="43.9355645450126" lon="10.285534629577556"><ele>22.0</ele><time>2026-05-01T11:13:23Z</time></trkpt><trkpt lat="43.935603692133895" lon="10.285678626840179"><ele>22.0</ele><time>2026-05-01T11:13:25Z</time></trkpt><trkpt lat="43.93564302321977" lon="10.2858031669532"><ele>21.8</ele><time>2026-05-01T11:13:27Z</time></trkpt><trkpt lat="43.93567287024429" lon="10.285946823903506"><ele>21.6</ele><time>2026-05-01T11:13:29Z</time></trkpt><trkpt lat="43.9357101142295" lon="10.286081257479076"><ele>21.400000000000002</ele><time>2026-05-01T11:13:31Z</time></trkpt><trkpt lat="43.93572889458221" lon="10.286224236200242"><ele>21.200000000000003</ele><time>2026-05-01T11:13:33Z</time></trkpt><trkpt lat="43.935768301551164" lon="10.286356404291537"><ele>21.0</ele><time>2026-05-01T11:13:35Z</time></trkpt><trkpt lat="43.93579570619521" lon="10.286495530891342"><ele>21.0</ele><time>2026-05-01T11:13:37Z</time></trkpt><trkpt lat="43.93583005858101" lon="10.286630427537787"><ele>21.0</ele><time>2026-05-01T11:13:39Z</time></trkpt><trkpt lat="43.935867337253875" lon="10.286762893572506"><ele>21.0</ele><time>2026-05-01T11:13:41Z</time></trkpt><trkpt lat="43.93590536390333" lon="10.286883788607993"><ele>21.0</ele><time>2026-05-01T11:13:43.001Z</time></trkpt><trkpt lat="43.93593981831498" lon="10.287013918474992"><ele>21.0</ele><time>2026-05-01T11:13:45.001Z</time></trkpt><trkpt lat="43.9359779187392" lon="10.287143662077316"><ele>21.0</ele><time>2026-05-01T11:13:47.001Z</time></trkpt><trkpt lat="43.93602604953766" lon="10.287279499445154"><ele>21.0</ele><time>2026-05-01T11:13:49.001Z</time></trkpt><trkpt lat="43.93606401500307" lon="10.2874286276416"><ele>21.0</ele><time>2026-05-01T11:13:51.001Z</time></trkpt><trkpt lat="43.936095883524075" lon="10.287561468965112"><ele>21.0</ele><time>2026-05-01T11:13:53.001Z</time></trkpt><trkpt lat="43.936138127687315" lon="10.287627941860485"><ele>21.0</ele><time>2026-05-01T11:13:54.001Z</time></trkpt><trkpt lat="43.93618487142539" lon="10.287761974582798"><ele>21.0</ele><time>2026-05-01T11:13:56.001Z</time></trkpt><trkpt lat="43.936220441425604" lon="10.287884174804395"><ele>21.0</ele><time>2026-05-01T11:13:58.001Z</time></trkpt><trkpt lat="43.93626883632939" lon="10.287996037509291"><ele>21.0</ele><time>2026-05-01T11:14:00.001Z</time></trkpt><trkpt lat="43.93631093460628" lon="10.288123621945347"><ele>21.0</ele><time>2026-05-01T11:14:02.001Z</time></trkpt><trkpt lat="43.936325741834374" lon="10.288257722415294"><ele>21.0</ele><time>2026-05-01T11:14:04.001Z</time></trkpt><trkpt lat="43.93636603640503" lon="10.288328634575459"><ele>21.5</ele><time>2026-05-01T11:14:05.001Z</time></trkpt><trkpt lat="43.936413014625224" lon="10.288462185901064"><ele>22.0</ele><time>2026-05-01T11:14:07.001Z</time></trkpt><trkpt lat="43.936446235412056" lon="10.28854668398107"><ele>22.5</ele><time>2026-05-01T11:14:08.001Z</time></trkpt><trkpt lat="43.93647738815716" lon="10.288656726629236"><ele>23.0</ele><time>2026-05-01T11:14:10.001Z</time></trkpt><trkpt lat="43.93653708709123" lon="10.288773387785184"><ele>23.5</ele><time>2026-05-01T11:14:12.001Z</time></trkpt><trkpt lat="43.93659115705738" lon="10.288851934132538"><ele>24.0</ele><time>2026-05-01T11:14:14.001Z</time></trkpt><trkpt lat="43.936601622208116" lon="10.288977785370994"><ele>24.0</ele><time>2026-05-01T11:14:16.001Z</time></trkpt><trkpt lat="43.93662721610906" lon="10.289079475167046"><ele>24.0</ele><time>2026-05-01T11:14:18.001Z</time></trkpt><trkpt lat="43.936659869641915" lon="10.289203610336664"><ele>24.0</ele><time>2026-05-01T11:14:21.001Z</time></trkpt><trkpt lat="43.936691836722595" lon="10.289280383206433"><ele>24.0</ele><time>2026-05-01T11:14:23.001Z</time></trkpt><trkpt lat="43.936703442990904" lon="10.289372885915189"><ele>24.0</ele><time>2026-05-01T11:14:25.001Z</time></trkpt><trkpt lat="43.93673816429846" lon="10.289501077597828"><ele>24.0</ele><time>2026-05-01T11:14:27.001Z</time></trkpt><trkpt lat="43.93678802592749" lon="10.289649614222341"><ele>23.833333333333332</ele><time>2026-05-01T11:14:29.001Z</time></trkpt><trkpt lat="43.93678664170748" lon="10.289764435129202"><ele>23.666666666666668</ele><time>2026-05-01T11:14:31.001Z</time></trkpt><trkpt lat="43.9368127514844" lon="10.289897247441623"><ele>23.5</ele><time>2026-05-01T11:14:33.001Z</time></trkpt><trkpt lat="43.936836940347504" lon="10.29002785006795"><ele>23.333333333333336</ele><time>2026-05-01T11:14:35.001Z</time></trkpt><trkpt lat="43.93685492721789" lon="10.290121034783473"><ele>23.166666666666668</ele><time>2026-05-01T11:14:36.001Z</time></trkpt><trkpt lat="43.93686420094778" lon="10.290233864120985"><ele>23.0</ele><time>2026-05-01T11:14:38.001Z</time></trkpt><trkpt lat="43.936882423891305" lon="10.290374393760063"><ele>23.0</ele><time>2026-05-01T11:14:40.001Z</time></trkpt><trkpt lat="43.936898303815276" lon="10.290511665871481"><ele>23.0</ele><time>2026-05-01T11:14:42.002Z</time></trkpt><trkpt lat="43.93691197917623" lon="10.290650474260126"><ele>23.0</ele><time>2026-05-01T11:14:44.002Z</time></trkpt><trkpt lat="43.93692853122015" lon="10.290784553860052"><ele>23.0</ele><time>2026-05-01T11:14:46.002Z</time></trkpt><trkpt lat="43.93693629568471" lon="10.290931151216832"><ele>23.0</ele><time>2026-05-01T11:14:48.002Z</time></trkpt><trkpt lat="43.93694768649462" lon="10.291070811116647"><ele>23.0</ele><time>2026-05-01T11:14:50.002Z</time></trkpt><trkpt lat="43.93695516281397" lon="10.291209542479134"><ele>23.0</ele><time>2026-05-01T11:14:52.002Z</time></trkpt><trkpt lat="43.93695874642489" lon="10.291348817437896"><ele>23.0</ele><time>2026-05-01T11:14:54.002Z</time></trkpt><trkpt lat="43.93696005402228" lon="10.29148064291526"><ele>23.0</ele><time>2026-05-01T11:14:56Z</time></trkpt><trkpt lat="43.93696784473077" lon="10.291595132908357"><ele>23.0</ele><time>2026-05-01T11:14:58Z</time></trkpt><trkpt lat="43.936958796348044" lon="10.29172156278323"><ele>23.5</ele><time>2026-05-01T11:15:00Z</time></trkpt><trkpt lat="43.93695944205615" lon="10.291821768550008"><ele>24.0</ele><time>2026-05-01T11:15:02Z</time></trkpt><trkpt lat="43.93697905210187" lon="10.291910001446775"><ele>24.5</ele><time>2026-05-01T11:15:04Z</time></trkpt><trkpt lat="43.93698931690639" lon="10.292032756737711"><ele>25.0</ele><time>2026-05-01T11:15:06Z</time></trkpt><trkpt lat="43.93698255364209" lon="10.292153578571574"><ele>25.499999999999996</ele><time>2026-05-01T11:15:08Z</time></trkpt><trkpt lat="43.93700834781424" lon="10.292250719632227"><ele>26.0</ele><time>2026-05-01T11:15:10Z</time></trkpt><trkpt lat="43.93700150055947" lon="10.292362885905051"><ele>25.999999999999996</ele><time>2026-05-01T11:15:12Z</time></trkpt><trkpt lat="43.93698827956467" lon="10.29245497677417"><ele>26.0</ele><time>2026-05-01T11:15:14Z</time></trkpt><trkpt lat="43.93702467056417" lon="10.292566850058265"><ele>26.0</ele><time>2026-05-01T11:15:17Z</time></trkpt><trkpt lat="43.93703510754652" lon="10.29268026580885"><ele>26.0</ele><time>2026-05-01T11:15:20Z</time></trkpt><trkpt lat="43.93705760626776" lon="10.29276982147426"><ele>25.999999999999996</ele><time>2026-05-01T11:15:22Z</time></trkpt><trkpt lat="43.93708618191445" lon="10.292887568098754"><ele>26.0</ele><time>2026-05-01T11:15:24Z</time></trkpt><trkpt lat="43.93708680451929" lon="10.292999928413622"><ele>26.6</ele><time>2026-05-01T11:15:26Z</time></trkpt><trkpt lat="43.93708883896426" lon="10.29311354946028"><ele>27.200000000000003</ele><time>2026-05-01T11:15:28Z</time></trkpt><trkpt lat="43.93709793222731" lon="10.293205829230173"><ele>27.799999999999997</ele><time>2026-05-01T11:15:29Z</time></trkpt><trkpt lat="43.93710907458812" lon="10.293343648578018"><ele>28.4</ele><time>2026-05-01T11:15:31Z</time></trkpt><trkpt lat="43.937122806795884" lon="10.293481507757718"><ele>29.0</ele><time>2026-05-01T11:15:33Z</time></trkpt><trkpt lat="43.93714880313256" lon="10.293618292241781"><ele>29.0</ele><time>2026-05-01T11:15:35Z</time></trkpt><trkpt lat="43.93717025271674" lon="10.293758493686376"><ele>29.0</ele><time>2026-05-01T11:15:37Z</time></trkpt><trkpt lat="43.937180572345795" lon="10.293901446135015"><ele>29.0</ele><time>2026-05-01T11:15:39.001Z</time></trkpt><trkpt lat="43.93719075141413" lon="10.294049513380033"><ele>29.0</ele><time>2026-05-01T11:15:41.001Z</time></trkpt><trkpt lat="43.937197174287014" lon="10.294198140076928"><ele>29.0</ele><time>2026-05-01T11:15:43.001Z</time></trkpt><trkpt lat="43.93720529016096" lon="10.29432888510647"><ele>29.0</ele><time>2026-05-01T11:15:45.001Z</time></trkpt><trkpt lat="43.937232012625614" lon="10.294459401767261"><ele>29.0</ele><time>2026-05-01T11:15:47.001Z</time></trkpt><trkpt lat="43.937251480431215" lon="10.294591099286816"><ele>29.0</ele><time>2026-05-01T11:15:49.001Z</time></trkpt><trkpt lat="43.93727464065624" lon="10.2947337397053"><ele>29.0</ele><time>2026-05-01T11:15:51.001Z</time></trkpt><trkpt lat="43.93729576351984" lon="10.294889864148844"><ele>29.0</ele><time>2026-05-01T11:15:53.001Z</time></trkpt><trkpt lat="43.93728768149789" lon="10.29503746921913"><ele>29.0</ele><time>2026-05-01T11:15:55.001Z</time></trkpt><trkpt lat="43.93729748222939" lon="10.295139808478561"><ele>29.0</ele><time>2026-05-01T11:15:56.001Z</time></trkpt><trkpt lat="43.93732179068173" lon="10.295286728210664"><ele>29.0</ele><time>2026-05-01T11:15:58.001Z</time></trkpt><trkpt lat="43.93733468101151" lon="10.29544832685158"><ele>29.0</ele><time>2026-05-01T11:16:00.001Z</time></trkpt><trkpt lat="43.93735088590254" lon="10.295610331703662"><ele>29.0</ele><time>2026-05-01T11:16:02.001Z</time></trkpt><trkpt lat="43.93750041489983" lon="10.295687213974572"><ele>29.0</ele><time>2026-05-01T11:16:03.001Z</time></trkpt><trkpt lat="43.93750206402719" lon="10.295849940783336"><ele>29.0</ele><time>2026-05-01T11:16:05.001Z</time></trkpt><trkpt lat="43.93750372067317" lon="10.296013299186171"><ele>29.0</ele><time>2026-05-01T11:16:07.001Z</time></trkpt><trkpt lat="43.93750526785109" lon="10.296161451998232"><ele>29.0</ele><time>2026-05-01T11:16:09.001Z</time></trkpt><trkpt lat="43.937506981389454" lon="10.296325533518363"><ele>29.4</ele><time>2026-05-01T11:16:11.001Z</time></trkpt><trkpt lat="43.937508570259894" lon="10.29647767838335"><ele>29.799999999999997</ele><time>2026-05-01T11:16:13.001Z</time></trkpt><trkpt lat="43.93751024141133" lon="10.296637701598044"><ele>30.200000000000003</ele><time>2026-05-01T11:16:15.001Z</time></trkpt><trkpt lat="43.93751183013718" lon="10.296789832337065"><ele>30.6</ele><time>2026-05-01T11:16:17.001Z</time></trkpt><trkpt lat="43.93751337828541" lon="10.29693807683453"><ele>31.0</ele><time>2026-05-01T11:16:19.001Z</time></trkpt><trkpt lat="43.93751484503951" lon="10.297078528472001"><ele>31.0</ele><time>2026-05-01T11:16:21.001Z</time></trkpt><trkpt lat="43.93751665584087" lon="10.297226916040085"><ele>31.0</ele><time>2026-05-01T11:16:23.001Z</time></trkpt><trkpt lat="43.93751864034007" lon="10.29738320870255"><ele>31.0</ele><time>2026-05-01T11:16:25.001Z</time></trkpt><trkpt lat="43.93752057877547" lon="10.297535872485348"><ele>31.0</ele><time>2026-05-01T11:16:27.001Z</time></trkpt><trkpt lat="43.93752258628421" lon="10.297693976143202"><ele>31.0</ele><time>2026-05-01T11:16:29.001Z</time></trkpt><trkpt lat="43.93752432584943" lon="10.29784588932588"><ele>31.0</ele><time>2026-05-01T11:16:31.001Z</time></trkpt><trkpt lat="43.93752598944227" lon="10.297995414646563"><ele>31.0</ele><time>2026-05-01T11:16:33.001Z</time></trkpt><trkpt lat="43.937527890315685" lon="10.29816626603349"><ele>31.0</ele><time>2026-05-01T11:16:35.001Z</time></trkpt><trkpt lat="43.93752943106334" lon="10.298304749132434"><ele>31.0</ele><time>2026-05-01T11:16:37.002Z</time></trkpt><trkpt lat="43.93753044676477" lon="10.298414480217112"><ele>31.0</ele><time>2026-05-01T11:16:39.002Z</time></trkpt><trkpt lat="43.937531574128435" lon="10.29854299947421"><ele>30.8</ele><time>2026-05-01T11:16:41.002Z</time></trkpt><trkpt lat="43.937530896227734" lon="10.298638942220096"><ele>30.6</ele><time>2026-05-01T11:16:43.002Z</time></trkpt><trkpt lat="43.93752986812128" lon="10.298752033439746"><ele>30.4</ele><time>2026-05-01T11:16:44.002Z</time></trkpt><trkpt lat="43.93752667159843" lon="10.298902124465629"><ele>30.2</ele><time>2026-05-01T11:16:46.002Z</time></trkpt><trkpt lat="43.93752295122792" lon="10.299051731713174"><ele>30.0</ele><time>2026-05-01T11:16:48.002Z</time></trkpt><trkpt lat="43.937518873425034" lon="10.299181003380781"><ele>30.0</ele><time>2026-05-01T11:16:50.002Z</time></trkpt><trkpt lat="43.93751356375709" lon="10.299317389695165"><ele>30.0</ele><time>2026-05-01T11:16:52.002Z</time></trkpt><trkpt lat="43.937505713520785" lon="10.299466694334198"><ele>30.0</ele><time>2026-05-01T11:16:54.002Z</time></trkpt><trkpt lat="43.93749519763203" lon="10.299606655804485"><ele>30.0</ele><time>2026-05-01T11:16:56.002Z</time></trkpt><trkpt lat="43.93748125328642" lon="10.299750693653811"><ele>30.0</ele><time>2026-05-01T11:16:58.002Z</time></trkpt><trkpt lat="43.93746271059607" lon="10.299896035034356"><ele>30.0</ele><time>2026-05-01T11:17:00.002Z</time></trkpt><trkpt lat="43.937440711776865" lon="10.300043657436508"><ele>30.0</ele><time>2026-05-01T11:17:02Z</time></trkpt><trkpt lat="43.93741808348514" lon="10.30018385557678"><ele>30.0</ele><time>2026-05-01T11:17:04Z</time></trkpt><trkpt lat="43.93739493864327" lon="10.3003131474677"><ele>30.0</ele><time>2026-05-01T11:17:06Z</time></trkpt><trkpt lat="43.93736202582517" lon="10.30045853213701"><ele>30.0</ele><time>2026-05-01T11:17:08Z</time></trkpt><trkpt lat="43.937327378119384" lon="10.300604376345392"><ele>30.5</ele><time>2026-05-01T11:17:10Z</time></trkpt><trkpt lat="43.93729165669922" lon="10.30075074034541"><ele>31.0</ele><time>2026-05-01T11:17:12Z</time></trkpt><trkpt lat="43.93725987484196" lon="10.300874398381985"><ele>31.5</ele><time>2026-05-01T11:17:14Z</time></trkpt><trkpt lat="43.937046689951316" lon="10.300859898142654"><ele>32.0</ele><time>2026-05-01T11:17:16Z</time></trkpt><trkpt lat="43.93698705993147" lon="10.30089502605443"><ele>32.0</ele><time>2026-05-01T11:17:18Z</time></trkpt><trkpt lat="43.93694203705297" lon="10.300963662854311"><ele>31.999999999999996</ele><time>2026-05-01T11:17:21Z</time></trkpt><trkpt lat="43.93696158327734" lon="10.301050773187976"><ele>32.0</ele><time>2026-05-01T11:17:23Z</time></trkpt><trkpt lat="43.93700720517902" lon="10.301127065429785"><ele>32.0</ele><time>2026-05-01T11:17:25Z</time></trkpt><trkpt lat="43.93707375971391" lon="10.301185830718067"><ele>31.999999999999996</ele><time>2026-05-01T11:17:27Z</time></trkpt><trkpt lat="43.9371395942727" lon="10.301215545130969"><ele>32.0</ele><time>2026-05-01T11:17:29Z</time></trkpt><trkpt lat="43.93721525687993" lon="10.301277484333841"><ele>32.0</ele><time>2026-05-01T11:17:32Z</time></trkpt><trkpt lat="43.93720586121726" lon="10.301396265078862"><ele>32.25</ele><time>2026-05-01T11:17:34Z</time></trkpt><trkpt lat="43.93715823853681" lon="10.301524775709593"><ele>32.5</ele><time>2026-05-01T11:17:36Z</time></trkpt><trkpt lat="43.9371247780159" lon="10.30167164517232"><ele>32.75</ele><time>2026-05-01T11:17:38Z</time></trkpt><trkpt lat="43.937080931708415" lon="10.301826674957987"><ele>33.0</ele><time>2026-05-01T11:17:40Z</time></trkpt><trkpt lat="43.93704069134679" lon="10.301985317296097"><ele>33.0</ele><time>2026-05-01T11:17:42Z</time></trkpt><trkpt lat="43.93702407829677" lon="10.302069911093168"><ele>33.0</ele><time>2026-05-01T11:17:43.001Z</time></trkpt><trkpt lat="43.93700368633807" lon="10.302153535708582"><ele>33.0</ele><time>2026-05-01T11:17:44.001Z</time></trkpt><trkpt lat="43.93697987795214" lon="10.302235057055842"><ele>33.0</ele><time>2026-05-01T11:17:45.001Z</time></trkpt><trkpt lat="43.9369305041099" lon="10.302391599048294"><ele>33.0</ele><time>2026-05-01T11:17:47.001Z</time></trkpt><trkpt lat="43.936871300807574" lon="10.302539926539723"><ele>33.0</ele><time>2026-05-01T11:17:49.001Z</time></trkpt><trkpt lat="43.9368054887263" lon="10.302680818317778"><ele>33.0</ele><time>2026-05-01T11:17:51.001Z</time></trkpt><trkpt lat="43.936735488507665" lon="10.302818529389043"><ele>33.0</ele><time>2026-05-01T11:17:53.001Z</time></trkpt><trkpt lat="43.93666290511337" lon="10.302950087245039"><ele>33.0</ele><time>2026-05-01T11:17:55.001Z</time></trkpt><trkpt lat="43.9365806712422" lon="10.303075014522895"><ele>33.0</ele><time>2026-05-01T11:17:57.001Z</time></trkpt><trkpt lat="43.936495520110846" lon="10.303196694108479"><ele>32.5</ele><time>2026-05-01T11:17:59.001Z</time></trkpt><trkpt lat="43.936408294204234" lon="10.303312563276727"><ele>32.0</ele><time>2026-05-01T11:18:01.001Z</time></trkpt><trkpt lat="43.93632254974809" lon="10.303430497708463"><ele>31.5</ele><time>2026-05-01T11:18:03.001Z</time></trkpt><trkpt lat="43.93623597662357" lon="10.303549661242943"><ele>31.0</ele><time>2026-05-01T11:18:05.001Z</time></trkpt><trkpt lat="43.93614795731462" lon="10.303662674818192"><ele>31.0</ele><time>2026-05-01T11:18:07.001Z</time></trkpt><trkpt lat="43.93606022311877" lon="10.303784249234608"><ele>31.0</ele><time>2026-05-01T11:18:09.001Z</time></trkpt><trkpt lat="43.935974681519944" lon="10.303902709293142"><ele>31.0</ele><time>2026-05-01T11:18:11.001Z</time></trkpt><trkpt lat="43.93588903049033" lon="10.304025360216754"><ele>31.0</ele><time>2026-05-01T11:18:13.001Z</time></trkpt><trkpt lat="43.93581371158985" lon="10.304156099246985"><ele>31.5</ele><time>2026-05-01T11:18:15.001Z</time></trkpt><trkpt lat="43.9357365262747" lon="10.304287212333303"><ele>32.0</ele><time>2026-05-01T11:18:17.001Z</time></trkpt><trkpt lat="43.93566167962566" lon="10.30441800928286"><ele>32.5</ele><time>2026-05-01T11:18:19.001Z</time></trkpt><trkpt lat="43.935593440154726" lon="10.304551824096892"><ele>33.0</ele><time>2026-05-01T11:18:21.001Z</time></trkpt><trkpt lat="43.935520584528504" lon="10.304685635447514"><ele>33.0</ele><time>2026-05-01T11:18:23.001Z</time></trkpt><trkpt lat="43.9354482970883" lon="10.304824649111955"><ele>33.0</ele><time>2026-05-01T11:18:25.001Z</time></trkpt><trkpt lat="43.93537414240197" lon="10.304962409820543"><ele>33.0</ele><time>2026-05-01T11:18:27.001Z</time></trkpt><trkpt lat="43.935303356285445" lon="10.305098955506654"><ele>33.0</ele><time>2026-05-01T11:18:29.001Z</time></trkpt><trkpt lat="43.935236349610385" lon="10.305229500967"><ele>33.0</ele><time>2026-05-01T11:18:31.001Z</time></trkpt><trkpt lat="43.935161585132484" lon="10.305364882642682"><ele>33.0</ele><time>2026-05-01T11:18:33.001Z</time></trkpt><trkpt lat="43.93508479859295" lon="10.305494012061372"><ele>33.0</ele><time>2026-05-01T11:18:35.001Z</time></trkpt><trkpt lat="43.93500373421152" lon="10.305618351988539"><ele>33.0</ele><time>2026-05-01T11:18:37.001Z</time></trkpt><trkpt lat="43.934919345812375" lon="10.305736601357331"><ele>33.25</ele><time>2026-05-01T11:18:39.001Z</time></trkpt><trkpt lat="43.93482963215581" lon="10.305854840924194"><ele>33.5</ele><time>2026-05-01T11:18:41.001Z</time></trkpt><trkpt lat="43.93474626342473" lon="10.305972032762137"><ele>33.75</ele><time>2026-05-01T11:18:43.001Z</time></trkpt><trkpt lat="43.93466069446005" lon="10.30608514699044"><ele>34.0</ele><time>2026-05-01T11:18:45.002Z</time></trkpt><trkpt lat="43.93457678031619" lon="10.30620050968783"><ele>34.0</ele><time>2026-05-01T11:18:47.002Z</time></trkpt><trkpt lat="43.93449435734848" lon="10.306311807660482"><ele>34.0</ele><time>2026-05-01T11:18:49.002Z</time></trkpt><trkpt lat="43.93441932991919" lon="10.306410372271133"><ele>34.0</ele><time>2026-05-01T11:18:51.002Z</time></trkpt><trkpt lat="43.93435195265355" lon="10.306503505700727"><ele>34.0</ele><time>2026-05-01T11:18:53.002Z</time></trkpt><trkpt lat="43.934292035337215" lon="10.306593207538807"><ele>34.0</ele><time>2026-05-01T11:18:55.002Z</time></trkpt><trkpt lat="43.93424150484704" lon="10.306673416881406"><ele>34.5</ele><time>2026-05-01T11:18:57.002Z</time></trkpt><trkpt lat="43.934157512063784" lon="10.306671781615913"><ele>35.0</ele><time>2026-05-01T11:19:00.002Z</time></trkpt><trkpt lat="43.93410697814522" lon="10.306610816154794"><ele>35.5</ele><time>2026-05-01T11:19:02.002Z</time></trkpt><trkpt lat="43.93405304225644" lon="10.306550243561343"><ele>36.0</ele><time>2026-05-01T11:19:06.002Z</time></trkpt><trkpt lat="43.93399889617621" lon="10.306671031236514"><ele>36.5</ele><time>2026-05-01T11:19:07.002Z</time></trkpt><trkpt lat="43.933933299658975" lon="10.306739397282316"><ele>37.0</ele><time>2026-05-01T11:19:09Z</time></trkpt><trkpt lat="43.93387476934614" lon="10.306836686817777"><ele>37.0</ele><time>2026-05-01T11:19:11Z</time></trkpt><trkpt lat="43.933816654557766" lon="10.306952632281888"><ele>37.0</ele><time>2026-05-01T11:19:13Z</time></trkpt><trkpt lat="43.933776658082444" lon="10.30703575877734"><ele>37.0</ele><time>2026-05-01T11:19:14Z</time></trkpt><trkpt lat="43.9337137512231" lon="10.307168276906145"><ele>37.0</ele><time>2026-05-01T11:19:16Z</time></trkpt><trkpt lat="43.93364774901347" lon="10.307307315670776"><ele>37.0</ele><time>2026-05-01T11:19:18Z</time></trkpt><trkpt lat="43.93359758861041" lon="10.307412938278473"><ele>36.800000000000004</ele><time>2026-05-01T11:19:20Z</time></trkpt><trkpt lat="43.933556304193594" lon="10.307499675593917"><ele>36.6</ele><time>2026-05-01T11:19:21Z</time></trkpt><trkpt lat="43.93350088886713" lon="10.307636656002103"><ele>36.400000000000006</ele><time>2026-05-01T11:19:23Z</time></trkpt><trkpt lat="43.93344241124484" lon="10.307772965896852"><ele>36.2</ele><time>2026-05-01T11:19:25Z</time></trkpt><trkpt lat="43.933370135710774" lon="10.30789407823277"><ele>36.0</ele><time>2026-05-01T11:19:27Z</time></trkpt><trkpt lat="43.93332160422657" lon="10.308040294458811"><ele>36.25</ele><time>2026-05-01T11:19:29Z</time></trkpt><trkpt lat="43.93325263230035" lon="10.308173719523674"><ele>36.5</ele><time>2026-05-01T11:19:31Z</time></trkpt><trkpt lat="43.933188817453846" lon="10.308307983371696"><ele>36.75</ele><time>2026-05-01T11:19:33Z</time></trkpt><trkpt lat="43.93312090674584" lon="10.308451037801014"><ele>37.0</ele><time>2026-05-01T11:19:35Z</time></trkpt><trkpt lat="43.9330637913082" lon="10.308583577365429"><ele>37.0</ele><time>2026-05-01T11:19:37Z</time></trkpt><trkpt lat="43.93299080161389" lon="10.308713257740015"><ele>37.0</ele><time>2026-05-01T11:19:39Z</time></trkpt><trkpt lat="43.93292101824206" lon="10.308845399148861"><ele>37.0</ele><time>2026-05-01T11:19:41Z</time></trkpt><trkpt lat="43.932851718730284" lon="10.308963519896462"><ele>37.0</ele><time>2026-05-01T11:19:43Z</time></trkpt><trkpt lat="43.93278484341457" lon="10.309077155355954"><ele>37.0</ele><time>2026-05-01T11:19:45Z</time></trkpt><trkpt lat="43.93272041359582" lon="10.309166363384227"><ele>37.0</ele><time>2026-05-01T11:19:47.001Z</time></trkpt><trkpt lat="43.93265236769785" lon="10.309232157566333"><ele>37.0</ele><time>2026-05-01T11:19:49.001Z</time></trkpt><trkpt lat="43.932546660067736" lon="10.309194181996268"><ele>37.0</ele><time>2026-05-01T11:19:51.001Z</time></trkpt><trkpt lat="43.93247381271638" lon="10.309127388161011"><ele>37.0</ele><time>2026-05-01T11:19:53.001Z</time></trkpt><trkpt lat="43.932374743482555" lon="10.309064784241"><ele>37.0</ele><time>2026-05-01T11:19:55.001Z</time></trkpt><trkpt lat="43.93226991013998" lon="10.309024040863465"><ele>37.0</ele><time>2026-05-01T11:19:57.001Z</time></trkpt><trkpt lat="43.932165733456685" lon="10.308997506395313"><ele>37.0</ele><time>2026-05-01T11:19:59.001Z</time></trkpt><trkpt lat="43.93205838757008" lon="10.309088232050618"><ele>37.0</ele><time>2026-05-01T11:20:01.001Z</time></trkpt><trkpt lat="43.931956947370836" lon="10.309143026788101"><ele>37.0</ele><time>2026-05-01T11:20:03.001Z</time></trkpt><trkpt lat="43.931859705988856" lon="10.309218168565959"><ele>37.0</ele><time>2026-05-01T11:20:05.001Z</time></trkpt><trkpt lat="43.93174840006774" lon="10.309269920046063"><ele>37.0</ele><time>2026-05-01T11:20:07.001Z</time></trkpt><trkpt lat="43.9316555969933" lon="10.309355713317407"><ele>37.0</ele><time>2026-05-01T11:20:09.001Z</time></trkpt><trkpt lat="43.931565349476934" lon="10.3094361295234"><ele>37.0</ele><time>2026-05-01T11:20:11.001Z</time></trkpt><trkpt lat="43.93146292013516" lon="10.309514233284617"><ele>37.6</ele><time>2026-05-01T11:20:13.001Z</time></trkpt><trkpt lat="43.931357479784836" lon="10.309575337909619"><ele>38.2</ele><time>2026-05-01T11:20:15.001Z</time></trkpt><trkpt lat="43.93124394862091" lon="10.309615196670427"><ele>38.8</ele><time>2026-05-01T11:20:17.001Z</time></trkpt><trkpt lat="43.9311264374328" lon="10.309632522425307"><ele>39.4</ele><time>2026-05-01T11:20:19.001Z</time></trkpt><trkpt lat="43.93102785656512" lon="10.309654118804076"><ele>40.0</ele><time>2026-05-01T11:20:21.001Z</time></trkpt><trkpt lat="43.93092653553908" lon="10.3096890880525"><ele>40.2</ele><time>2026-05-01T11:20:23.001Z</time></trkpt><trkpt lat="43.930815353817486" lon="10.30971948609149"><ele>40.4</ele><time>2026-05-01T11:20:25.001Z</time></trkpt><trkpt lat="43.93069800958549" lon="10.309735626922771"><ele>40.599999999999994</ele><time>2026-05-01T11:20:27.001Z</time></trkpt><trkpt lat="43.93059312543025" lon="10.309738133831262"><ele>40.8</ele><time>2026-05-01T11:20:29.001Z</time></trkpt><trkpt lat="43.93048181209631" lon="10.309756180672643"><ele>41.0</ele><time>2026-05-01T11:20:31.001Z</time></trkpt><trkpt lat="43.93037808681074" lon="10.309781720724224"><ele>41.0</ele><time>2026-05-01T11:20:33.001Z</time></trkpt><trkpt lat="43.930273926938966" lon="10.309804013035546"><ele>41.0</ele><time>2026-05-01T11:20:35.001Z</time></trkpt><trkpt lat="43.93016204225085" lon="10.3098252665261"><ele>41.0</ele><time>2026-05-01T11:20:37.001Z</time></trkpt><trkpt lat="43.930057969175294" lon="10.309833558475502"><ele>41.0</ele><time>2026-05-01T11:20:39.001Z</time></trkpt><trkpt lat="43.92996293449091" lon="10.30986761046209"><ele>41.0</ele><time>2026-05-01T11:20:41.001Z</time></trkpt><trkpt lat="43.9298586214206" lon="10.309858290038003"><ele>41.0</ele><time>2026-05-01T11:20:43.001Z</time></trkpt><trkpt lat="43.929758653365475" lon="10.309876557468487"><ele>41.0</ele><time>2026-05-01T11:20:45.001Z</time></trkpt><trkpt lat="43.92965701581576" lon="10.309898505877785"><ele>41.0</ele><time>2026-05-01T11:20:47.002Z</time></trkpt><trkpt lat="43.929555304202005" lon="10.309928657556178"><ele>41.0</ele><time>2026-05-01T11:20:49.002Z</time></trkpt><trkpt lat="43.929462049204986" lon="10.309955260682782"><ele>41.0</ele><time>2026-05-01T11:20:51.002Z</time></trkpt><trkpt lat="43.929368321142555" lon="10.30994388198699"><ele>41.0</ele><time>2026-05-01T11:20:53.002Z</time></trkpt><trkpt lat="43.92927613629201" lon="10.309909608883075"><ele>41.0</ele><time>2026-05-01T11:20:55.002Z</time></trkpt><trkpt lat="43.92918414257982" lon="10.30986764807821"><ele>41.0</ele><time>2026-05-01T11:20:57.002Z</time></trkpt><trkpt lat="43.92908945781903" lon="10.309823397516281"><ele>41.0</ele><time>2026-05-01T11:20:59.002Z</time></trkpt><trkpt lat="43.928978284598294" lon="10.309833695893428"><ele>41.0</ele><time>2026-05-01T11:21:01.002Z</time></trkpt><trkpt lat="43.92889342993165" lon="10.309904407868519"><ele>41.33333333333333</ele><time>2026-05-01T11:21:03.002Z</time></trkpt><trkpt lat="43.9288173973837" lon="10.309956612410112"><ele>41.666666666666664</ele><time>2026-05-01T11:21:05.002Z</time></trkpt><trkpt lat="43.928750392600385" lon="10.310027949139712"><ele>42.0</ele><time>2026-05-01T11:21:07.002Z</time></trkpt><trkpt lat="43.92869144879242" lon="10.310116363489598"><ele>42.333333333333336</ele><time>2026-05-01T11:21:09.002Z</time></trkpt><trkpt lat="43.9286292945037" lon="10.310203420475812"><ele>42.66666666666667</ele><time>2026-05-01T11:21:11.002Z</time></trkpt><trkpt lat="43.92856732874812" lon="10.310301417962076"><ele>43.0</ele><time>2026-05-01T11:21:13.002Z</time></trkpt><trkpt lat="43.928531001817454" lon="10.310379410183316"><ele>43.0</ele><time>2026-05-01T11:21:15Z</time></trkpt><trkpt lat="43.92847469631817" lon="10.310462412372681"><ele>43.0</ele><time>2026-05-01T11:21:17Z</time></trkpt><trkpt lat="43.928442271091846" lon="10.310558578290006"><ele>43.0</ele><time>2026-05-01T11:21:19Z</time></trkpt><trkpt lat="43.928351914986855" lon="10.310567481900685"><ele>43.0</ele><time>2026-05-01T11:21:21Z</time></trkpt><trkpt lat="43.92827624075359" lon="10.310521193286034"><ele>43.0</ele><time>2026-05-01T11:21:23Z</time></trkpt><trkpt lat="43.92819543328046" lon="10.31051248955265"><ele>43.0</ele><time>2026-05-01T11:21:25Z</time></trkpt><trkpt lat="43.928132167600715" lon="10.310595862851168"><ele>43.4</ele><time>2026-05-01T11:21:27Z</time></trkpt><trkpt lat="43.928100655475475" lon="10.310736431671803"><ele>43.8</ele><time>2026-05-01T11:21:29Z</time></trkpt><trkpt lat="43.928077055880195" lon="10.310882435099678"><ele>44.2</ele><time>2026-05-01T11:21:31Z</time></trkpt><trkpt lat="43.92807362618958" lon="10.311020468504973"><ele>44.6</ele><time>2026-05-01T11:21:33Z</time></trkpt><trkpt lat="43.92810850796694" lon="10.311141130303563"><ele>45.0</ele><time>2026-05-01T11:21:35Z</time></trkpt><trkpt lat="43.92818252674368" lon="10.311231456645682"><ele>45.0</ele><time>2026-05-01T11:21:37Z</time></trkpt><trkpt lat="43.928274818364436" lon="10.311297913940065"><ele>45.0</ele><time>2026-05-01T11:21:39Z</time></trkpt><trkpt lat="43.928364297792015" lon="10.31135778366697"><ele>45.0</ele><time>2026-05-01T11:21:41Z</time></trkpt><trkpt lat="43.92843222410271" lon="10.311419483908383"><ele>45.0</ele><time>2026-05-01T11:21:43Z</time></trkpt><trkpt lat="43.92844783759481" lon="10.311534736025056"><ele>45.0</ele><time>2026-05-01T11:21:47Z</time></trkpt><trkpt lat="43.92844431964667" lon="10.311644843469697"><ele>45.0</ele><time>2026-05-01T11:21:49Z</time></trkpt><trkpt lat="43.92838658775558" lon="10.31169432311676"><ele>45.5</ele><time>2026-05-01T11:21:51.001Z</time></trkpt><trkpt lat="43.92830937441921" lon="10.31175791631419"><ele>46.0</ele><time>2026-05-01T11:21:54.001Z</time></trkpt><trkpt lat="43.92825483162053" lon="10.311824359918665"><ele>46.5</ele><time>2026-05-01T11:21:56.001Z</time></trkpt><trkpt lat="43.928192903788066" lon="10.311914357305081"><ele>47.0</ele><time>2026-05-01T11:21:58.001Z</time></trkpt><trkpt lat="43.92814840281474" lon="10.311991409547565"><ele>47.5</ele><time>2026-05-01T11:22:00.001Z</time></trkpt><trkpt lat="43.92810205536871" lon="10.312079217616684"><ele>48.0</ele><time>2026-05-01T11:22:02.001Z</time></trkpt><trkpt lat="43.92805358589771" lon="10.312166806533725"><ele>47.833333333333336</ele><time>2026-05-01T11:22:04.001Z</time></trkpt><trkpt lat="43.92799814950617" lon="10.31224848655616"><ele>47.666666666666664</ele><time>2026-05-01T11:22:06.001Z</time></trkpt><trkpt lat="43.927935023042764" lon="10.312314316245132"><ele>47.5</ele><time>2026-05-01T11:22:08.001Z</time></trkpt><trkpt lat="43.92787197835923" lon="10.312350079702984"><ele>47.33333333333333</ele><time>2026-05-01T11:22:09.001Z</time></trkpt><trkpt lat="43.92777564048515" lon="10.312373092194626"><ele>47.166666666666664</ele><time>2026-05-01T11:22:11.001Z</time></trkpt><trkpt lat="43.927679095268246" lon="10.312412533878765"><ele>47.0</ele><time>2026-05-01T11:22:13.001Z</time></trkpt><trkpt lat="43.92758461316669" lon="10.312446232539408"><ele>48.666666666666664</ele><time>2026-05-01T11:22:15.001Z</time></trkpt><trkpt lat="43.927486732085995" lon="10.312485849962943"><ele>50.33333333333333</ele><time>2026-05-01T11:22:17.001Z</time></trkpt><trkpt lat="43.92742445792907" lon="10.312509262613043"><ele>52.0</ele><time>2026-05-01T11:22:18.001Z</time></trkpt><trkpt lat="43.92736087639111" lon="10.312582367708037"><ele>53.666666666666664</ele><time>2026-05-01T11:22:20.001Z</time></trkpt><trkpt lat="43.92726687449617" lon="10.312627484774502"><ele>55.333333333333336</ele><time>2026-05-01T11:22:22.001Z</time></trkpt><trkpt lat="43.92720257003258" lon="10.31269616691256"><ele>57.0</ele><time>2026-05-01T11:22:24.001Z</time></trkpt><trkpt lat="43.92717614384507" lon="10.312788553164378"><ele>57.0</ele><time>2026-05-01T11:22:25.001Z</time></trkpt><trkpt lat="43.92721435472089" lon="10.312952207623415"><ele>57.0</ele><time>2026-05-01T11:22:27.001Z</time></trkpt><trkpt lat="43.92723699633935" lon="10.313072461796143"><ele>57.0</ele><time>2026-05-01T11:22:29.001Z</time></trkpt><trkpt lat="43.92724321378148" lon="10.313205912606577"><ele>57.0</ele><time>2026-05-01T11:22:31.001Z</time></trkpt><trkpt lat="43.92722402646291" lon="10.313301380047129"><ele>57.0</ele><time>2026-05-01T11:22:33.001Z</time></trkpt><trkpt lat="43.92718683376574" lon="10.313439956045201"><ele>54.75</ele><time>2026-05-01T11:22:35.001Z</time></trkpt><trkpt lat="43.927132658452514" lon="10.31357928620578"><ele>52.5</ele><time>2026-05-01T11:22:37.001Z</time></trkpt><trkpt lat="43.92708486405635" lon="10.313735421659684"><ele>50.25</ele><time>2026-05-01T11:22:39.001Z</time></trkpt><trkpt lat="43.92707190100893" lon="10.313893357889835"><ele>48.0</ele><time>2026-05-01T11:22:41.001Z</time></trkpt><trkpt lat="43.927031369578216" lon="10.314021571361998"><ele>47.5</ele><time>2026-05-01T11:22:43.001Z</time></trkpt><trkpt lat="43.9269987292956" lon="10.314122403915032"><ele>47.0</ele><time>2026-05-01T11:22:45.001Z</time></trkpt><trkpt lat="43.92694023075514" lon="10.314214705434253"><ele>46.5</ele><time>2026-05-01T11:22:47.001Z</time></trkpt><trkpt lat="43.92689860487256" lon="10.314285067080885"><ele>46.0</ele><time>2026-05-01T11:22:48.001Z</time></trkpt><trkpt lat="43.92687850982188" lon="10.31439687828093"><ele>45.5</ele><time>2026-05-01T11:22:50.001Z</time></trkpt><trkpt lat="43.92691639125121" lon="10.314517683669596"><ele>45.0</ele><time>2026-05-01T11:22:52.001Z</time></trkpt><trkpt lat="43.926967189460456" lon="10.314578781184405"><ele>45.0</ele><time>2026-05-01T11:22:53.002Z</time></trkpt><trkpt lat="43.92702032826922" lon="10.314648432966152"><ele>45.0</ele><time>2026-05-01T11:22:55.002Z</time></trkpt><trkpt lat="43.927078903104544" lon="10.314740669040695"><ele>45.0</ele><time>2026-05-01T11:22:57.002Z</time></trkpt><trkpt lat="43.927137396026744" lon="10.314843427461291"><ele>45.0</ele><time>2026-05-01T11:22:59.002Z</time></trkpt><trkpt lat="43.92721103454766" lon="10.314961619418941"><ele>45.0</ele><time>2026-05-01T11:23:01.002Z</time></trkpt><trkpt lat="43.927266380954926" lon="10.31509480166183"><ele>45.0</ele><time>2026-05-01T11:23:03.002Z</time></trkpt><trkpt lat="43.92731765294325" lon="10.315181288369928"><ele>45.0</ele><time>2026-05-01T11:23:05.002Z</time></trkpt><trkpt lat="43.92736384797472" lon="10.315267924475465"><ele>45.0</ele><time>2026-05-01T11:23:07.002Z</time></trkpt><trkpt lat="43.92739857656945" lon="10.315366871380109"><ele>45.0</ele><time>2026-05-01T11:23:08.002Z</time></trkpt><trkpt lat="43.92747176358197" lon="10.315294339839468"><ele>45.0</ele><time>2026-05-01T11:23:13.002Z</time></trkpt><trkpt lat="43.92755005403299" lon="10.31525236360937"><ele>45.0</ele><time>2026-05-01T11:23:16.002Z</time></trkpt><trkpt lat="43.927617795384954" lon="10.315179123023716"><ele>45.166666666666664</ele><time>2026-05-01T11:23:18.002Z</time></trkpt><trkpt lat="43.927694051999" lon="10.315156938006933"><ele>45.333333333333336</ele><time>2026-05-01T11:23:20Z</time></trkpt><trkpt lat="43.927795028749884" lon="10.315096590272718"><ele>45.5</ele><time>2026-05-01T11:23:22Z</time></trkpt><trkpt lat="43.92787208841497" lon="10.31506209177"><ele>45.66666666666667</ele><time>2026-05-01T11:23:24Z</time></trkpt><trkpt lat="43.927936746335725" lon="10.315054139516679"><ele>45.833333333333336</ele><time>2026-05-01T11:23:26Z</time></trkpt><trkpt lat="43.92802477743552" lon="10.315085437263752"><ele>46.0</ele><time>2026-05-01T11:23:29Z</time></trkpt><trkpt lat="43.92808661350614" lon="10.315130153763699"><ele>46.0</ele><time>2026-05-01T11:23:32Z</time></trkpt><trkpt lat="43.92807259792703" lon="10.315294176881773"><ele>46.0</ele><time>2026-05-01T11:23:35Z</time></trkpt><trkpt lat="43.9280454444585" lon="10.315425369580478"><ele>46.0</ele><time>2026-05-01T11:23:37Z</time></trkpt><trkpt lat="43.92799741367993" lon="10.31554990237443"><ele>46.0</ele><time>2026-05-01T11:23:39Z</time></trkpt><trkpt lat="43.927940462066516" lon="10.315656983045347"><ele>46.0</ele><time>2026-05-01T11:23:41Z</time></trkpt><trkpt lat="43.927957047732775" lon="10.315771082492931"><ele>46.5</ele><time>2026-05-01T11:23:42Z</time></trkpt><trkpt lat="43.92793154484542" lon="10.315919465099958"><ele>47.0</ele><time>2026-05-01T11:23:44Z</time></trkpt><trkpt lat="43.927897329424724" lon="10.316075750159282"><ele>47.5</ele><time>2026-05-01T11:23:46Z</time></trkpt><trkpt lat="43.92786133151785" lon="10.316228558790334"><ele>48.0</ele><time>2026-05-01T11:23:48Z</time></trkpt><trkpt lat="43.92781935309499" lon="10.31637932390725"><ele>48.8</ele><time>2026-05-01T11:23:50Z</time></trkpt><trkpt lat="43.92777456132775" lon="10.316533920157433"><ele>49.599999999999994</ele><time>2026-05-01T11:23:52Z</time></trkpt><trkpt lat="43.927755629577945" lon="10.316683816858744"><ele>50.400000000000006</ele><time>2026-05-01T11:23:54Z</time></trkpt><trkpt lat="43.92770816133474" lon="10.316833771109437"><ele>51.2</ele><time>2026-05-01T11:23:56Z</time></trkpt><trkpt lat="43.92768581821911" lon="10.316916929787434"><ele>52.0</ele><time>2026-05-01T11:23:57Z</time></trkpt><trkpt lat="43.927649437047656" lon="10.317071020645665"><ele>52.0</ele><time>2026-05-01T11:23:59Z</time></trkpt><trkpt lat="43.92761018707405" lon="10.317222632018906"><ele>52.0</ele><time>2026-05-01T11:24:01.001Z</time></trkpt><trkpt lat="43.92756709555096" lon="10.317375119971574"><ele>52.0</ele><time>2026-05-01T11:24:03.001Z</time></trkpt><trkpt lat="43.927541433742874" lon="10.317516305172601"><ele>52.0</ele><time>2026-05-01T11:24:05.001Z</time></trkpt><trkpt lat="43.92750041046592" lon="10.317669324424797"><ele>52.0</ele><time>2026-05-01T11:24:07.001Z</time></trkpt><trkpt lat="43.92746416671658" lon="10.317819756024313"><ele>52.0</ele><time>2026-05-01T11:24:09.001Z</time></trkpt><trkpt lat="43.92740816142643" lon="10.317981492766908"><ele>52.0</ele><time>2026-05-01T11:24:11.001Z</time></trkpt><trkpt lat="43.92739423331521" lon="10.31812265631094"><ele>52.0</ele><time>2026-05-01T11:24:13.001Z</time></trkpt><trkpt lat="43.92736183884623" lon="10.318259646975168"><ele>52.0</ele><time>2026-05-01T11:24:15.001Z</time></trkpt><trkpt lat="43.92730899780998" lon="10.31841419760477"><ele>52.0</ele><time>2026-05-01T11:24:17.001Z</time></trkpt><trkpt lat="43.92727873183761" lon="10.318565360468964"><ele>52.0</ele><time>2026-05-01T11:24:19.001Z</time></trkpt><trkpt lat="43.92724526635933" lon="10.318701658065734"><ele>52.0</ele><time>2026-05-01T11:24:21.001Z</time></trkpt><trkpt lat="43.92722812432733" lon="10.318788422832586"><ele>52.0</ele><time>2026-05-01T11:24:22.001Z</time></trkpt><trkpt lat="43.927194737299665" lon="10.318940833790169"><ele>52.83333333333333</ele><time>2026-05-01T11:24:24.001Z</time></trkpt><trkpt lat="43.92715586384788" lon="10.319026587900725"><ele>53.666666666666664</ele><time>2026-05-01T11:24:25.001Z</time></trkpt><trkpt lat="43.92712447925038" lon="10.319142157863478"><ele>54.5</ele><time>2026-05-01T11:24:27.001Z</time></trkpt><trkpt lat="43.92708562666995" lon="10.31928522771691"><ele>55.33333333333333</ele><time>2026-05-01T11:24:29.001Z</time></trkpt><trkpt lat="43.927061689690206" lon="10.319369252950828"><ele>56.166666666666664</ele><time>2026-05-01T11:24:30.001Z</time></trkpt><trkpt lat="43.92702159741765" lon="10.31950440640955"><ele>57.0</ele><time>2026-05-01T11:24:32.001Z</time></trkpt><trkpt lat="43.92698256604073" lon="10.319669967732338"><ele>57.5</ele><time>2026-05-01T11:24:34.001Z</time></trkpt><trkpt lat="43.92691930367157" lon="10.319811486387096"><ele>58.0</ele><time>2026-05-01T11:24:36.001Z</time></trkpt><trkpt lat="43.92685851980289" lon="10.31993595278048"><ele>58.5</ele><time>2026-05-01T11:24:38.001Z</time></trkpt><trkpt lat="43.92679461822924" lon="10.32007659927988"><ele>59.0</ele><time>2026-05-01T11:24:40.001Z</time></trkpt><trkpt lat="43.92672665046115" lon="10.320217626046434"><ele>58.6</ele><time>2026-05-01T11:24:42.001Z</time></trkpt><trkpt lat="43.92668632973728" lon="10.320305427249075"><ele>58.2</ele><time>2026-05-01T11:24:43.001Z</time></trkpt><trkpt lat="43.92663936692812" lon="10.320402341982163"><ele>57.800000000000004</ele><time>2026-05-01T11:24:45.001Z</time></trkpt><trkpt lat="43.92658492975484" lon="10.320555786534014"><ele>57.400000000000006</ele><time>2026-05-01T11:24:47.001Z</time></trkpt><trkpt lat="43.92651255146508" lon="10.320676347059733"><ele>57.0</ele><time>2026-05-01T11:24:49.001Z</time></trkpt><trkpt lat="43.926456220641306" lon="10.32079805919816"><ele>57.0</ele><time>2026-05-01T11:24:51.001Z</time></trkpt><trkpt lat="43.926423592590496" lon="10.320880875563489"><ele>57.0</ele><time>2026-05-01T11:24:53.001Z</time></trkpt><trkpt lat="43.92636706046318" lon="10.32098158848993"><ele>57.0</ele><time>2026-05-01T11:24:55.001Z</time></trkpt><trkpt lat="43.926314994310864" lon="10.321128175143436"><ele>57.0</ele><time>2026-05-01T11:24:57.001Z</time></trkpt><trkpt lat="43.92626262787226" lon="10.321254162038276"><ele>57.0</ele><time>2026-05-01T11:24:59.001Z</time></trkpt><trkpt lat="43.92619650103654" lon="10.321381043368046"><ele>58.5</ele><time>2026-05-01T11:25:01.001Z</time></trkpt><trkpt lat="43.926140100939136" lon="10.321511081874725"><ele>60.0</ele><time>2026-05-01T11:25:03.001Z</time></trkpt><trkpt lat="43.926079111139515" lon="10.321647073837282"><ele>61.5</ele><time>2026-05-01T11:25:05.002Z</time></trkpt><trkpt lat="43.92601712650701" lon="10.321778612976377"><ele>63.0</ele><time>2026-05-01T11:25:07.002Z</time></trkpt><trkpt lat="43.925959630760445" lon="10.321915589418785"><ele>63.0</ele><time>2026-05-01T11:25:09.002Z</time></trkpt><trkpt lat="43.92590019909223" lon="10.322047650250154"><ele>63.0</ele><time>2026-05-01T11:25:11.002Z</time></trkpt><trkpt lat="43.925838878740294" lon="10.32218040968918"><ele>63.0</ele><time>2026-05-01T11:25:13.002Z</time></trkpt><trkpt lat="43.92579198775028" lon="10.322312244376734"><ele>63.0</ele><time>2026-05-01T11:25:15.002Z</time></trkpt><trkpt lat="43.925719141049534" lon="10.322450103236736"><ele>62.2</ele><time>2026-05-01T11:25:17.002Z</time></trkpt><trkpt lat="43.92565562762839" lon="10.322598642647305"><ele>61.4</ele><time>2026-05-01T11:25:19.002Z</time></trkpt><trkpt lat="43.925608668671785" lon="10.322676569366886"><ele>60.60000000000001</ele><time>2026-05-01T11:25:20.002Z</time></trkpt><trkpt lat="43.92556944538729" lon="10.322798768596861"><ele>59.800000000000004</ele><time>2026-05-01T11:25:22.002Z</time></trkpt><trkpt lat="43.92553376986427" lon="10.322871285333774"><ele>59.0</ele><time>2026-05-01T11:25:23.002Z</time></trkpt><trkpt lat="43.925447845091526" lon="10.323004190955743"><ele>59.833333333333336</ele><time>2026-05-01T11:25:25.002Z</time></trkpt><trkpt lat="43.92540919454631" lon="10.323075796131508"><ele>60.66666666666667</ele><time>2026-05-01T11:25:26Z</time></trkpt><trkpt lat="43.92537194750563" lon="10.323173934075902"><ele>61.5</ele><time>2026-05-01T11:25:28Z</time></trkpt><trkpt lat="43.92535428108257" lon="10.323262479245816"><ele>62.33333333333333</ele><time>2026-05-01T11:25:29Z</time></trkpt><trkpt lat="43.92529979034254" lon="10.323384434599983"><ele>63.166666666666664</ele><time>2026-05-01T11:25:31Z</time></trkpt><trkpt lat="43.92526022725432" lon="10.323455173987538"><ele>64.0</ele><time>2026-05-01T11:25:32Z</time></trkpt><trkpt lat="43.925205876662915" lon="10.323585221438952"><ele>64.0</ele><time>2026-05-01T11:25:34Z</time></trkpt><trkpt lat="43.92514323813003" lon="10.323714901198507"><ele>64.0</ele><time>2026-05-01T11:25:36Z</time></trkpt><trkpt lat="43.92508251970368" lon="10.323851209196292"><ele>64.0</ele><time>2026-05-01T11:25:38Z</time></trkpt><trkpt lat="43.925013152285615" lon="10.323990833486835"><ele>64.0</ele><time>2026-05-01T11:25:40Z</time></trkpt><trkpt lat="43.92496022865207" lon="10.324125554907585"><ele>63.0</ele><time>2026-05-01T11:25:42Z</time></trkpt><trkpt lat="43.92490471394698" lon="10.324269084538578"><ele>62.0</ele><time>2026-05-01T11:25:44Z</time></trkpt><trkpt lat="43.9248390100699" lon="10.32440097503554"><ele>61.0</ele><time>2026-05-01T11:25:46Z</time></trkpt><trkpt lat="43.9247733903567" lon="10.324540531681961"><ele>60.0</ele><time>2026-05-01T11:25:48Z</time></trkpt><trkpt lat="43.92470380494511" lon="10.324680039254003"><ele>61.75</ele><time>2026-05-01T11:25:50Z</time></trkpt><trkpt lat="43.92464956060371" lon="10.324818126422016"><ele>63.5</ele><time>2026-05-01T11:25:52Z</time></trkpt><trkpt lat="43.9245800604246" lon="10.324958382059636"><ele>65.25</ele><time>2026-05-01T11:25:54Z</time></trkpt><trkpt lat="43.92451164655534" lon="10.325082079564307"><ele>67.0</ele><time>2026-05-01T11:25:56Z</time></trkpt><trkpt lat="43.924433977140914" lon="10.325201828201"><ele>67.0</ele><time>2026-05-01T11:25:58Z</time></trkpt><trkpt lat="43.924353268977484" lon="10.325327235546848"><ele>67.0</ele><time>2026-05-01T11:26:00Z</time></trkpt><trkpt lat="43.924269738078635" lon="10.325446809629792"><ele>67.0</ele><time>2026-05-01T11:26:02Z</time></trkpt><trkpt lat="43.92418757266025" lon="10.325570883550538"><ele>67.0</ele><time>2026-05-01T11:26:04Z</time></trkpt><trkpt lat="43.924102945298365" lon="10.325692390925813"><ele>65.75</ele><time>2026-05-01T11:26:06Z</time></trkpt><trkpt lat="43.92402062250942" lon="10.325811121688442"><ele>64.5</ele><time>2026-05-01T11:26:08.001Z</time></trkpt><trkpt lat="43.92393861702339" lon="10.325929695384755"><ele>63.25</ele><time>2026-05-01T11:26:10.001Z</time></trkpt><trkpt lat="43.92386878370969" lon="10.326025617058306"><ele>62.0</ele><time>2026-05-01T11:26:12.001Z</time></trkpt><trkpt lat="43.92379287064351" lon="10.32614777329671"><ele>62.0</ele><time>2026-05-01T11:26:14.001Z</time></trkpt><trkpt lat="43.9237185587057" lon="10.326269265824566"><ele>62.0</ele><time>2026-05-01T11:26:16.001Z</time></trkpt><trkpt lat="43.92363721297214" lon="10.326379496882224"><ele>62.0</ele><time>2026-05-01T11:26:18.001Z</time></trkpt><trkpt lat="43.92356144639819" lon="10.326495404889785"><ele>62.0</ele><time>2026-05-01T11:26:20.001Z</time></trkpt><trkpt lat="43.92347938725713" lon="10.326607161738211"><ele>62.2</ele><time>2026-05-01T11:26:22.001Z</time></trkpt><trkpt lat="43.923404504963784" lon="10.326720747565066"><ele>62.400000000000006</ele><time>2026-05-01T11:26:24.001Z</time></trkpt><trkpt lat="43.92333108337903" lon="10.326830083053977"><ele>62.599999999999994</ele><time>2026-05-01T11:26:26.001Z</time></trkpt><trkpt lat="43.92328680226031" lon="10.326895226879314"><ele>62.8</ele><time>2026-05-01T11:26:27.001Z</time></trkpt><trkpt lat="43.92321639241187" lon="10.327009668081482"><ele>63.0</ele><time>2026-05-01T11:26:29.001Z</time></trkpt><trkpt lat="43.92313458485763" lon="10.327123022420894"><ele>64.2</ele><time>2026-05-01T11:26:31.001Z</time></trkpt><trkpt lat="43.923056655099394" lon="10.32723609199579"><ele>65.4</ele><time>2026-05-01T11:26:33.001Z</time></trkpt><trkpt lat="43.92297937044604" lon="10.327344233169484"><ele>66.60000000000001</ele><time>2026-05-01T11:26:35.001Z</time></trkpt><trkpt lat="43.92290620201628" lon="10.327458522088827"><ele>67.8</ele><time>2026-05-01T11:26:37.001Z</time></trkpt><trkpt lat="43.922830546506134" lon="10.32756880141068"><ele>69.0</ele><time>2026-05-01T11:26:39.001Z</time></trkpt><trkpt lat="43.922760371244536" lon="10.327675410411182"><ele>69.0</ele><time>2026-05-01T11:26:41.001Z</time></trkpt><trkpt lat="43.92268359019451" lon="10.3277870518226"><ele>69.0</ele><time>2026-05-01T11:26:43.001Z</time></trkpt><trkpt lat="43.92260502088928" lon="10.327888270064367"><ele>69.0</ele><time>2026-05-01T11:26:45.001Z</time></trkpt><trkpt lat="43.92254093207037" lon="10.328003842568824"><ele>69.0</ele><time>2026-05-01T11:26:47.001Z</time></trkpt><trkpt lat="43.92246693685522" lon="10.328110397152951"><ele>69.0</ele><time>2026-05-01T11:26:49.001Z</time></trkpt><trkpt lat="43.92239028825784" lon="10.328213860148951"><ele>69.2</ele><time>2026-05-01T11:26:51.001Z</time></trkpt><trkpt lat="43.92231923130678" lon="10.328314549091065"><ele>69.4</ele><time>2026-05-01T11:26:53.001Z</time></trkpt><trkpt lat="43.92224342047746" lon="10.328428785045912"><ele>69.6</ele><time>2026-05-01T11:26:55.001Z</time></trkpt><trkpt lat="43.922167750219174" lon="10.32853766735867"><ele>69.8</ele><time>2026-05-01T11:26:57.001Z</time></trkpt><trkpt lat="43.92209578106194" lon="10.328645431763539"><ele>70.0</ele><time>2026-05-01T11:26:59.001Z</time></trkpt><trkpt lat="43.922035184529" lon="10.328747736372142"><ele>70.0</ele><time>2026-05-01T11:27:01.001Z</time></trkpt><trkpt lat="43.92196606124655" lon="10.328869399466988"><ele>70.0</ele><time>2026-05-01T11:27:03.001Z</time></trkpt><trkpt lat="43.92190660815186" lon="10.328991898682892"><ele>70.0</ele><time>2026-05-01T11:27:05.001Z</time></trkpt><trkpt lat="43.92184679313478" lon="10.329108416358224"><ele>70.0</ele><time>2026-05-01T11:27:07.001Z</time></trkpt><trkpt lat="43.92183018000052" lon="10.329195047628096"><ele>70.0</ele><time>2026-05-01T11:27:08.001Z</time></trkpt><trkpt lat="43.92178496666163" lon="10.329339965534968"><ele>70.4</ele><time>2026-05-01T11:27:10.001Z</time></trkpt><trkpt lat="43.92174999125837" lon="10.32949061764931"><ele>70.8</ele><time>2026-05-01T11:27:12.001Z</time></trkpt><trkpt lat="43.92171672074123" lon="10.329623372654217"><ele>71.2</ele><time>2026-05-01T11:27:14.002Z</time></trkpt><trkpt lat="43.92168114781481" lon="10.329755858361512"><ele>71.6</ele><time>2026-05-01T11:27:16.002Z</time></trkpt><trkpt lat="43.92164307721604" lon="10.329890563601474"><ele>72.0</ele><time>2026-05-01T11:27:18.002Z</time></trkpt><trkpt lat="43.921605104485714" lon="10.330043415849316"><ele>72.6</ele><time>2026-05-01T11:27:20.002Z</time></trkpt><trkpt lat="43.921559891245984" lon="10.330173385370093"><ele>73.2</ele><time>2026-05-01T11:27:22.002Z</time></trkpt><trkpt lat="43.92151438072968" lon="10.330303825857479"><ele>73.8</ele><time>2026-05-01T11:27:24.002Z</time></trkpt><trkpt lat="43.92148044700665" lon="10.330459548261059"><ele>74.4</ele><time>2026-05-01T11:27:26.002Z</time></trkpt><trkpt lat="43.92144134463602" lon="10.330602570415454"><ele>75.0</ele><time>2026-05-01T11:27:28.002Z</time></trkpt><trkpt lat="43.921405176291614" lon="10.330756532241654"><ele>75.8</ele><time>2026-05-01T11:27:30.002Z</time></trkpt><trkpt lat="43.9213680810066" lon="10.330895807110796"><ele>76.6</ele><time>2026-05-01T11:27:32Z</time></trkpt><trkpt lat="43.9213370806694" lon="10.331033088196"><ele>77.4</ele><time>2026-05-01T11:27:34Z</time></trkpt><trkpt lat="43.92130122585011" lon="10.331176381400203"><ele>78.2</ele><time>2026-05-01T11:27:36Z</time></trkpt><trkpt lat="43.92126326839294" lon="10.331323232258786"><ele>79.0</ele><time>2026-05-01T11:27:38Z</time></trkpt><trkpt lat="43.921226589256335" lon="10.331469624427111"><ele>80.25</ele><time>2026-05-01T11:27:40Z</time></trkpt><trkpt lat="43.92119209212751" lon="10.331608443646099"><ele>81.5</ele><time>2026-05-01T11:27:42Z</time></trkpt><trkpt lat="43.92115055326421" lon="10.3317663364599"><ele>82.75</ele><time>2026-05-01T11:27:44Z</time></trkpt><trkpt lat="43.92110243298302" lon="10.331949439293345"><ele>84.0</ele><time>2026-05-01T11:27:47Z</time></trkpt><trkpt lat="43.92106873581225" lon="10.332059588868066"><ele>84.0</ele><time>2026-05-01T11:27:49Z</time></trkpt><trkpt lat="43.921039733813785" lon="10.332212116653944"><ele>84.0</ele><time>2026-05-01T11:27:51Z</time></trkpt><trkpt lat="43.92100232701336" lon="10.332348319329508"><ele>84.0</ele><time>2026-05-01T11:27:53Z</time></trkpt><trkpt lat="43.920969159102896" lon="10.33249691008453"><ele>84.0</ele><time>2026-05-01T11:27:55Z</time></trkpt><trkpt lat="43.92092583915975" lon="10.332648681884908"><ele>84.0</ele><time>2026-05-01T11:27:57Z</time></trkpt><trkpt lat="43.9208891700144" lon="10.332779778539297"><ele>84.2</ele><time>2026-05-01T11:27:59Z</time></trkpt><trkpt lat="43.92085287188361" lon="10.332927966120188"><ele>84.4</ele><time>2026-05-01T11:28:01Z</time></trkpt><trkpt lat="43.92080458902057" lon="10.333083002417505"><ele>84.6</ele><time>2026-05-01T11:28:03Z</time></trkpt><trkpt lat="43.92078051390812" lon="10.333216279545368"><ele>84.8</ele><time>2026-05-01T11:28:05.001Z</time></trkpt><trkpt lat="43.92073848203367" lon="10.333334131761116"><ele>85.0</ele><time>2026-05-01T11:28:07.001Z</time></trkpt><trkpt lat="43.92069910607219" lon="10.33347423650269"><ele>85.0</ele><time>2026-05-01T11:28:09.001Z</time></trkpt><trkpt lat="43.920662491251676" lon="10.333586516966559"><ele>85.0</ele><time>2026-05-01T11:28:11.001Z</time></trkpt><trkpt lat="43.92057813731757" lon="10.333672888410346"><ele>85.0</ele><time>2026-05-01T11:28:13.001Z</time></trkpt><trkpt lat="43.92052227232365" lon="10.333718670351153"><ele>85.0</ele><time>2026-05-01T11:28:14.001Z</time></trkpt><trkpt lat="43.92041726478818" lon="10.333741095463067"><ele>85.0</ele><time>2026-05-01T11:28:16.001Z</time></trkpt><trkpt lat="43.92030528707407" lon="10.333763122498977"><ele>85.0</ele><time>2026-05-01T11:28:18.001Z</time></trkpt><trkpt lat="43.92020238577489" lon="10.333784915188508"><ele>85.0</ele><time>2026-05-01T11:28:20.001Z</time></trkpt><trkpt lat="43.920098179075055" lon="10.333811677680153"><ele>85.0</ele><time>2026-05-01T11:28:22.001Z</time></trkpt><trkpt lat="43.91999130874992" lon="10.333840145220607"><ele>85.0</ele><time>2026-05-01T11:28:24.001Z</time></trkpt><trkpt lat="43.91988332983704" lon="10.33386917227952"><ele>85.0</ele><time>2026-05-01T11:28:26.001Z</time></trkpt><trkpt lat="43.91978252563065" lon="10.33389714061613"><ele>85.0</ele><time>2026-05-01T11:28:28.001Z</time></trkpt><trkpt lat="43.919671212691895" lon="10.333929555236987"><ele>85.0</ele><time>2026-05-01T11:28:30.001Z</time></trkpt><trkpt lat="43.91956479753422" lon="10.3339605453973"><ele>85.0</ele><time>2026-05-01T11:28:32.001Z</time></trkpt><trkpt lat="43.919458628586845" lon="10.33399203843523"><ele>85.0</ele><time>2026-05-01T11:28:34.001Z</time></trkpt><trkpt lat="43.91935418392372" lon="10.334025253987306"><ele>85.0</ele><time>2026-05-01T11:28:36.001Z</time></trkpt><trkpt lat="43.919255571648705" lon="10.3340789565935"><ele>86.0</ele><time>2026-05-01T11:28:38.001Z</time></trkpt><trkpt lat="43.919149264676584" lon="10.334101891258136"><ele>87.0</ele><time>2026-05-01T11:28:40.001Z</time></trkpt><trkpt lat="43.919052723034305" lon="10.334131052619174"><ele>88.0</ele><time>2026-05-01T11:28:42.001Z</time></trkpt><trkpt lat="43.91895376300042" lon="10.334163551245348"><ele>89.0</ele><time>2026-05-01T11:28:44.001Z</time></trkpt><trkpt lat="43.91885703250332" lon="10.334198413553443"><ele>90.0</ele><time>2026-05-01T11:28:46.001Z</time></trkpt><trkpt lat="43.9187539150024" lon="10.33421490046386"><ele>90.0</ele><time>2026-05-01T11:28:48.001Z</time></trkpt><trkpt lat="43.918659823964276" lon="10.334243490963956"><ele>90.0</ele><time>2026-05-01T11:28:50.001Z</time></trkpt><trkpt lat="43.9185620605392" lon="10.334272461313045"><ele>90.0</ele><time>2026-05-01T11:28:52.001Z</time></trkpt><trkpt lat="43.9184657684591" lon="10.33430729013887"><ele>90.0</ele><time>2026-05-01T11:28:54.001Z</time></trkpt><trkpt lat="43.91836861190894" lon="10.334347313387486"><ele>90.0</ele><time>2026-05-01T11:28:56.001Z</time></trkpt><trkpt lat="43.91827687705726" lon="10.334399517893598"><ele>90.4</ele><time>2026-05-01T11:28:58.001Z</time></trkpt><trkpt lat="43.918193899364454" lon="10.334463163429875"><ele>90.8</ele><time>2026-05-01T11:29:00.001Z</time></trkpt><trkpt lat="43.91811821701084" lon="10.334567811693095"><ele>91.19999999999999</ele><time>2026-05-01T11:29:02.001Z</time></trkpt><trkpt lat="43.918044108805155" lon="10.334651738806988"><ele>91.6</ele><time>2026-05-01T11:29:04.001Z</time></trkpt><trkpt lat="43.91797494293065" lon="10.334751565321609"><ele>92.0</ele><time>2026-05-01T11:29:06.001Z</time></trkpt><trkpt lat="43.91790547157798" lon="10.334856589243339"><ele>94.19999999999999</ele><time>2026-05-01T11:29:08.001Z</time></trkpt><trkpt lat="43.91783711005497" lon="10.334960577356197"><ele>96.4</ele><time>2026-05-01T11:29:10.001Z</time></trkpt><trkpt lat="43.91776715575637" lon="10.335066988659616"><ele>98.6</ele><time>2026-05-01T11:29:12.001Z</time></trkpt><trkpt lat="43.91770969722226" lon="10.335186159922403"><ele>100.80000000000001</ele><time>2026-05-01T11:29:14.001Z</time></trkpt><trkpt lat="43.91762900047923" lon="10.335278427024395"><ele>103.0</ele><time>2026-05-01T11:29:16.001Z</time></trkpt><trkpt lat="43.917572353474206" lon="10.335399223758504"><ele>103.60000000000001</ele><time>2026-05-01T11:29:18.002Z</time></trkpt><trkpt lat="43.917500941886054" lon="10.335499189612783"><ele>104.2</ele><time>2026-05-01T11:29:20.002Z</time></trkpt><trkpt lat="43.917426565455706" lon="10.335599067176386"><ele>104.8</ele><time>2026-05-01T11:29:22.002Z</time></trkpt><trkpt lat="43.917344604489344" lon="10.335685717373083"><ele>105.4</ele><time>2026-05-01T11:29:24.002Z</time></trkpt><trkpt lat="43.917275167657216" lon="10.335767197771274"><ele>106.0</ele><time>2026-05-01T11:29:26.002Z</time></trkpt><trkpt lat="43.9172035660195" lon="10.335811742957091"><ele>106.0</ele><time>2026-05-01T11:29:27.002Z</time></trkpt><trkpt lat="43.91716414145862" lon="10.335892535856518"><ele>106.0</ele><time>2026-05-01T11:29:29.002Z</time></trkpt><trkpt lat="43.917103490814476" lon="10.335999047290553"><ele>106.0</ele><time>2026-05-01T11:29:31.002Z</time></trkpt><trkpt lat="43.91706778768194" lon="10.336128818019148"><ele>106.0</ele><time>2026-05-01T11:29:33.002Z</time></trkpt><trkpt lat="43.917045176144214" lon="10.33626201658088"><ele>106.0</ele><time>2026-05-01T11:29:35.002Z</time></trkpt><trkpt lat="43.91703288753722" lon="10.33639827635034"><ele>108.6</ele><time>2026-05-01T11:29:37.002Z</time></trkpt><trkpt lat="43.917023309504124" lon="10.336532774047063"><ele>111.19999999999999</ele><time>2026-05-01T11:29:39Z</time></trkpt><trkpt lat="43.91701402528609" lon="10.336672148321908"><ele>113.80000000000001</ele><time>2026-05-01T11:29:41Z</time></trkpt><trkpt lat="43.91699482401627" lon="10.336808583935381"><ele>116.4</ele><time>2026-05-01T11:29:43Z</time></trkpt><trkpt lat="43.91698578258191" lon="10.336942406758096"><ele>119.0</ele><time>2026-05-01T11:29:45Z</time></trkpt><trkpt lat="43.91696959802093" lon="10.337058660364407"><ele>119.0</ele><time>2026-05-01T11:29:47Z</time></trkpt><trkpt lat="43.9169231530393" lon="10.33716716722848"><ele>119.0</ele><time>2026-05-01T11:29:49Z</time></trkpt><trkpt lat="43.91682405866867" lon="10.337184631930528"><ele>119.0</ele><time>2026-05-01T11:29:51Z</time></trkpt><trkpt lat="43.916738760963064" lon="10.337123681945998"><ele>119.0</ele><time>2026-05-01T11:29:53Z</time></trkpt><trkpt lat="43.91666073827226" lon="10.337092605998317"><ele>119.0</ele><time>2026-05-01T11:29:55Z</time></trkpt><trkpt lat="43.9165701814102" lon="10.337045308368817"><ele>116.6</ele><time>2026-05-01T11:29:57Z</time></trkpt><trkpt lat="43.91647484085551" lon="10.336982351802762"><ele>114.2</ele><time>2026-05-01T11:29:59Z</time></trkpt><trkpt lat="43.9163811039322" lon="10.336900758081281"><ele>111.79999999999998</ele><time>2026-05-01T11:30:01Z</time></trkpt><trkpt lat="43.91628464637212" lon="10.3368474992328"><ele>109.39999999999999</ele><time>2026-05-01T11:30:03Z</time></trkpt><trkpt lat="43.91619288304615" lon="10.336799848936273"><ele>107.0</ele><time>2026-05-01T11:30:05Z</time></trkpt><trkpt lat="43.91609898255521" lon="10.336752863150583"><ele>107.0</ele><time>2026-05-01T11:30:07Z</time></trkpt><trkpt lat="43.91599932846056" lon="10.336732297679664"><ele>106.99999999999999</ele><time>2026-05-01T11:30:09Z</time></trkpt><trkpt lat="43.91590202877726" lon="10.336705082238389"><ele>106.99999999999999</ele><time>2026-05-01T11:30:11Z</time></trkpt><trkpt lat="43.91580871257004" lon="10.33671181879362"><ele>107.0</ele><time>2026-05-01T11:30:13Z</time></trkpt><trkpt lat="43.91570561585084" lon="10.336745033086281"><ele>107.0</ele><time>2026-05-01T11:30:15Z</time></trkpt><trkpt lat="43.91563088456573" lon="10.336844791137965"><ele>107.0</ele><time>2026-05-01T11:30:17.001Z</time></trkpt><trkpt lat="43.9155415657819" lon="10.336920644432201"><ele>106.99999999999999</ele><time>2026-05-01T11:30:19.001Z</time></trkpt><trkpt lat="43.915464540823706" lon="10.337027592568552"><ele>106.99999999999999</ele><time>2026-05-01T11:30:21.001Z</time></trkpt><trkpt lat="43.9154005565493" lon="10.337139172944081"><ele>107.0</ele><time>2026-05-01T11:30:23.001Z</time></trkpt><trkpt lat="43.915346361751176" lon="10.33724493968957"><ele>107.0</ele><time>2026-05-01T11:30:25.001Z</time></trkpt><trkpt lat="43.915309424666695" lon="10.337348949815638"><ele>108.19999999999999</ele><time>2026-05-01T11:30:27.001Z</time></trkpt><trkpt lat="43.91526637837764" lon="10.33747131262761"><ele>109.39999999999999</ele><time>2026-05-01T11:30:29.001Z</time></trkpt><trkpt lat="43.915174614366016" lon="10.337549421314172"><ele>110.60000000000001</ele><time>2026-05-01T11:30:31.001Z</time></trkpt><trkpt lat="43.915075694364276" lon="10.337523217484215"><ele>111.80000000000001</ele><time>2026-05-01T11:30:33.001Z</time></trkpt><trkpt lat="43.91500872494842" lon="10.337412733297901"><ele>113.0</ele><time>2026-05-01T11:30:35.001Z</time></trkpt><trkpt lat="43.914949381818836" lon="10.337309729000093"><ele>112.2</ele><time>2026-05-01T11:30:37.001Z</time></trkpt><trkpt lat="43.914874909749976" lon="10.33721288536986"><ele>111.4</ele><time>2026-05-01T11:30:39.001Z</time></trkpt><trkpt lat="43.91478653240483" lon="10.337147419634487"><ele>110.60000000000001</ele><time>2026-05-01T11:30:41.001Z</time></trkpt><trkpt lat="43.914685038230175" lon="10.337122299366145"><ele>109.80000000000001</ele><time>2026-05-01T11:30:43.001Z</time></trkpt><trkpt lat="43.914588823896075" lon="10.337105440705455"><ele>109.0</ele><time>2026-05-01T11:30:45.001Z</time></trkpt><trkpt lat="43.914490725268806" lon="10.337089038306601"><ele>109.0</ele><time>2026-05-01T11:30:47.001Z</time></trkpt><trkpt lat="43.9143875460114" lon="10.33708094991868"><ele>109.0</ele><time>2026-05-01T11:30:49.001Z</time></trkpt><trkpt lat="43.91428534861178" lon="10.33708450913878"><ele>109.0</ele><time>2026-05-01T11:30:51.001Z</time></trkpt><trkpt lat="43.91418731086693" lon="10.337089708734212"><ele>109.0</ele><time>2026-05-01T11:30:53.001Z</time></trkpt><trkpt lat="43.91409641928049" lon="10.33710113424793"><ele>109.0</ele><time>2026-05-01T11:30:55.001Z</time></trkpt><trkpt lat="43.9139929406438" lon="10.337115365950119"><ele>110.2</ele><time>2026-05-01T11:30:57.001Z</time></trkpt><trkpt lat="43.913893764549194" lon="10.337130148318835"><ele>111.4</ele><time>2026-05-01T11:30:59.001Z</time></trkpt><trkpt lat="43.91380369916342" lon="10.337136733314448"><ele>112.6</ele><time>2026-05-01T11:31:01.001Z</time></trkpt><trkpt lat="43.913701812039456" lon="10.337140733486397"><ele>113.8</ele><time>2026-05-01T11:31:03.001Z</time></trkpt><trkpt lat="43.913607475048074" lon="10.337083237238042"><ele>115.0</ele><time>2026-05-01T11:31:05.001Z</time></trkpt><trkpt lat="43.91356144321395" lon="10.336943677193492"><ele>115.0</ele><time>2026-05-01T11:31:07.001Z</time></trkpt><trkpt lat="43.913554490898754" lon="10.336797822422525"><ele>115.0</ele><time>2026-05-01T11:31:09.001Z</time></trkpt><trkpt lat="43.91354595303442" lon="10.336646128641434"><ele>115.0</ele><time>2026-05-01T11:31:11.001Z</time></trkpt><trkpt lat="43.91352712199215" lon="10.336515957345949"><ele>115.0</ele><time>2026-05-01T11:31:13.001Z</time></trkpt><trkpt lat="43.91347890700676" lon="10.336381397241217"><ele>115.0</ele><time>2026-05-01T11:31:15.001Z</time></trkpt><trkpt lat="43.91341410852322" lon="10.33626578346441"><ele>117.2</ele><time>2026-05-01T11:31:17.001Z</time></trkpt><trkpt lat="43.913338161792005" lon="10.336165764760038"><ele>119.4</ele><time>2026-05-01T11:31:19.001Z</time></trkpt><trkpt lat="43.913269775141444" lon="10.336058766446051"><ele>121.6</ele><time>2026-05-01T11:31:21.001Z</time></trkpt><trkpt lat="43.913203006639726" lon="10.33594952461486"><ele>123.8</ele><time>2026-05-01T11:31:23.001Z</time></trkpt><trkpt lat="43.91313109990583" lon="10.335843040117922"><ele>126.0</ele><time>2026-05-01T11:31:25.001Z</time></trkpt><trkpt lat="43.91305868025203" lon="10.335738206824029"><ele>126.0</ele><time>2026-05-01T11:31:27.001Z</time></trkpt><trkpt lat="43.91297997411736" lon="10.335636304966776"><ele>126.0</ele><time>2026-05-01T11:31:29.001Z</time></trkpt><trkpt lat="43.9128754356745" lon="10.335596352426391"><ele>126.0</ele><time>2026-05-01T11:31:31.002Z</time></trkpt><trkpt lat="43.912769312682244" lon="10.335638317112975"><ele>126.0</ele><time>2026-05-01T11:31:33.002Z</time></trkpt><trkpt lat="43.912715759631354" lon="10.335753745545437"><ele>126.0</ele><time>2026-05-01T11:31:35.002Z</time></trkpt><trkpt lat="43.91269488529608" lon="10.335914350717621"><ele>126.0</ele><time>2026-05-01T11:31:37.002Z</time></trkpt><trkpt lat="43.91272838268595" lon="10.3360512455258"><ele>126.0</ele><time>2026-05-01T11:31:39.002Z</time></trkpt><trkpt lat="43.91282111208392" lon="10.336131782270787"><ele>126.0</ele><time>2026-05-01T11:31:41.002Z</time></trkpt><trkpt lat="43.91292797012922" lon="10.336176351422354"><ele>126.0</ele><time>2026-05-01T11:31:43.002Z</time></trkpt><trkpt lat="43.913028160548365" lon="10.336230208792513"><ele>126.0</ele><time>2026-05-01T11:31:45Z</time></trkpt><trkpt lat="43.913119557549386" lon="10.336313385064429"><ele>128.0</ele><time>2026-05-01T11:31:47Z</time></trkpt><trkpt lat="43.913184302669876" lon="10.336432000671532"><ele>130.0</ele><time>2026-05-01T11:31:49Z</time></trkpt><trkpt lat="43.91323276398153" lon="10.336565111750833"><ele>132.0</ele><time>2026-05-01T11:31:51Z</time></trkpt><trkpt lat="43.91325339457897" lon="10.336704373436733"><ele>134.0</ele><time>2026-05-01T11:31:53Z</time></trkpt><trkpt lat="43.913251533510625" lon="10.336851713679833"><ele>136.0</ele><time>2026-05-01T11:31:55Z</time></trkpt><trkpt lat="43.913223474551295" lon="10.336992289564353"><ele>136.0</ele><time>2026-05-01T11:31:57Z</time></trkpt><trkpt lat="43.91319322463415" lon="10.337126183058329"><ele>136.0</ele><time>2026-05-01T11:31:59Z</time></trkpt><trkpt lat="43.91315355555395" lon="10.337263350421532"><ele>136.0</ele><time>2026-05-01T11:32:01Z</time></trkpt><trkpt lat="43.91313195252754" lon="10.33740044904852"><ele>136.0</ele><time>2026-05-01T11:32:03Z</time></trkpt><trkpt lat="43.913161486960746" lon="10.337538947553425"><ele>136.0</ele><time>2026-05-01T11:32:05Z</time></trkpt><trkpt lat="43.91325449404874" lon="10.33761963266023"><ele>135.83333333333334</ele><time>2026-05-01T11:32:07Z</time></trkpt><trkpt lat="43.913320154383996" lon="10.337628329441364"><ele>135.66666666666669</ele><time>2026-05-01T11:32:08Z</time></trkpt><trkpt lat="43.913384408853695" lon="10.337636747519552"><ele>135.5</ele><time>2026-05-01T11:32:09Z</time></trkpt><trkpt lat="43.9134926198568" lon="10.337666462984025"><ele>135.33333333333334</ele><time>2026-05-01T11:32:11Z</time></trkpt><trkpt lat="43.91356489788119" lon="10.337676120298433"><ele>135.16666666666666</ele><time>2026-05-01T11:32:13Z</time></trkpt><trkpt lat="43.91366616760669" lon="10.337695283166482"><ele>135.0</ele><time>2026-05-01T11:32:15Z</time></trkpt><trkpt lat="43.9137830396204" lon="10.33774325955496"><ele>135.0</ele><time>2026-05-01T11:32:17Z</time></trkpt><trkpt lat="43.91386656234214" lon="10.337827782390512"><ele>135.0</ele><time>2026-05-01T11:32:19Z</time></trkpt><trkpt lat="43.913957718285374" lon="10.337921117842795"><ele>135.0</ele><time>2026-05-01T11:32:21Z</time></trkpt><trkpt lat="43.91404654624245" lon="10.33799905429908"><ele>135.0</ele><time>2026-05-01T11:32:23Z</time></trkpt><trkpt lat="43.91414825771474" lon="10.338035812310126"><ele>135.0</ele><time>2026-05-01T11:32:25Z</time></trkpt><trkpt lat="43.91424457531638" lon="10.338064872379334"><ele>136.2</ele><time>2026-05-01T11:32:27Z</time></trkpt><trkpt lat="43.914346869453404" lon="10.33808898267959"><ele>137.4</ele><time>2026-05-01T11:32:29Z</time></trkpt><trkpt lat="43.914448437401425" lon="10.338112907255288"><ele>138.6</ele><time>2026-05-01T11:32:31Z</time></trkpt><trkpt lat="43.91454217400177" lon="10.338161083577642"><ele>139.8</ele><time>2026-05-01T11:32:33.001Z</time></trkpt><trkpt lat="43.91461509715112" lon="10.338260337796411"><ele>141.0</ele><time>2026-05-01T11:32:35.001Z</time></trkpt><trkpt lat="43.91464885359584" lon="10.338334315627533"><ele>141.0</ele><time>2026-05-01T11:32:36.001Z</time></trkpt><trkpt lat="43.91470016948596" lon="10.338452821898505"><ele>141.0</ele><time>2026-05-01T11:32:38.001Z</time></trkpt><trkpt lat="43.91475633332113" lon="10.338581910315233"><ele>141.0</ele><time>2026-05-01T11:32:40.001Z</time></trkpt><trkpt lat="43.91479975429806" lon="10.338702341367302"><ele>141.0</ele><time>2026-05-01T11:32:42.001Z</time></trkpt><trkpt lat="43.914846714730295" lon="10.338832635897093"><ele>141.0</ele><time>2026-05-01T11:32:44.001Z</time></trkpt><trkpt lat="43.91489845911665" lon="10.33896291339771"><ele>145.0</ele><time>2026-05-01T11:32:46.001Z</time></trkpt><trkpt lat="43.914956007394096" lon="10.33907475304739"><ele>149.0</ele><time>2026-05-01T11:32:48.001Z</time></trkpt><trkpt lat="43.915055282357685" lon="10.33914454135842"><ele>153.0</ele><time>2026-05-01T11:32:50.001Z</time></trkpt><trkpt lat="43.91516668732643" lon="10.339136047931277"><ele>157.0</ele><time>2026-05-01T11:32:52.001Z</time></trkpt><trkpt lat="43.91527026049168" lon="10.339091127983048"><ele>161.0</ele><time>2026-05-01T11:32:54.001Z</time></trkpt><trkpt lat="43.915368794968096" lon="10.339034070696492"><ele>161.20000000000002</ele><time>2026-05-01T11:32:56.001Z</time></trkpt><trkpt lat="43.91547139222526" lon="10.339003073571055"><ele>161.4</ele><time>2026-05-01T11:32:58.001Z</time></trkpt><trkpt lat="43.91557388177724" lon="10.338983330550782"><ele>161.6</ele><time>2026-05-01T11:33:00.001Z</time></trkpt><trkpt lat="43.9156698469795" lon="10.338994829291696"><ele>161.8</ele><time>2026-05-01T11:33:02.001Z</time></trkpt><trkpt lat="43.91576847242326" lon="10.33900652159714"><ele>162.0</ele><time>2026-05-01T11:33:04.001Z</time></trkpt><trkpt lat="43.91586058355022" lon="10.339046491491805"><ele>161.0</ele><time>2026-05-01T11:33:06.001Z</time></trkpt><trkpt lat="43.91596173873431" lon="10.339087403836974"><ele>160.0</ele><time>2026-05-01T11:33:08.001Z</time></trkpt><trkpt lat="43.916041458130856" lon="10.339162912497482"><ele>159.0</ele><time>2026-05-01T11:33:10.001Z</time></trkpt><trkpt lat="43.916126171597654" lon="10.339236833451489"><ele>158.0</ele><time>2026-05-01T11:33:12.001Z</time></trkpt><trkpt lat="43.91622207201954" lon="10.339270594199567"><ele>157.0</ele><time>2026-05-01T11:33:14.001Z</time></trkpt><trkpt lat="43.91633138732573" lon="10.339268299877656"><ele>157.0</ele><time>2026-05-01T11:33:16.001Z</time></trkpt><trkpt lat="43.91643354457067" lon="10.339266565580147"><ele>157.0</ele><time>2026-05-01T11:33:18.001Z</time></trkpt><trkpt lat="43.91653645250886" lon="10.339269798834476"><ele>157.0</ele><time>2026-05-01T11:33:20.001Z</time></trkpt><trkpt lat="43.91663686990174" lon="10.33925071571083"><ele>157.0</ele><time>2026-05-01T11:33:22.001Z</time></trkpt><trkpt lat="43.91673837936258" lon="10.33922305544494"><ele>157.0</ele><time>2026-05-01T11:33:24.001Z</time></trkpt><trkpt lat="43.916838566269966" lon="10.339192287985085"><ele>157.0</ele><time>2026-05-01T11:33:26.001Z</time></trkpt><trkpt lat="43.91693406198704" lon="10.339166897283393"><ele>157.0</ele><time>2026-05-01T11:33:28.001Z</time></trkpt><trkpt lat="43.91702949279843" lon="10.339129201980352"><ele>157.0</ele><time>2026-05-01T11:33:30.001Z</time></trkpt><trkpt lat="43.91713749152437" lon="10.33910260914609"><ele>157.0</ele><time>2026-05-01T11:33:32.001Z</time></trkpt><trkpt lat="43.91724411064501" lon="10.339071481043442"><ele>157.0</ele><time>2026-05-01T11:33:34.001Z</time></trkpt><trkpt lat="43.91734869006982" lon="10.339043195106598"><ele>157.0</ele><time>2026-05-01T11:33:36.001Z</time></trkpt><trkpt lat="43.91745448160538" lon="10.339017852082115"><ele>157.0</ele><time>2026-05-01T11:33:38.001Z</time></trkpt><trkpt lat="43.91755499597879" lon="10.33898889407916"><ele>157.0</ele><time>2026-05-01T11:33:40.001Z</time></trkpt><trkpt lat="43.91764994487229" lon="10.339000684936636"><ele>157.0</ele><time>2026-05-01T11:33:42.001Z</time></trkpt><trkpt lat="43.91773032278132" lon="10.339089453104828"><ele>157.0</ele><time>2026-05-01T11:33:44.001Z</time></trkpt><trkpt lat="43.91773025462327" lon="10.339236475670432"><ele>157.0</ele><time>2026-05-01T11:33:46.001Z</time></trkpt><trkpt lat="43.91766782167792" lon="10.339337622698368"><ele>157.0</ele><time>2026-05-01T11:33:48.002Z</time></trkpt><trkpt lat="43.91756954123544" lon="10.339339896243231"><ele>157.0</ele><time>2026-05-01T11:33:50Z</time></trkpt><trkpt lat="43.91748090449861" lon="10.339294208219531"><ele>157.0</ele><time>2026-05-01T11:33:52Z</time></trkpt><trkpt lat="43.917388900959835" lon="10.339270250162043"><ele>157.0</ele><time>2026-05-01T11:33:54Z</time></trkpt><trkpt lat="43.91728567937349" lon="10.339286752131466"><ele>157.0</ele><time>2026-05-01T11:33:56Z</time></trkpt><trkpt lat="43.91719572653938" lon="10.339322629024146"><ele>157.0</ele><time>2026-05-01T11:33:58Z</time></trkpt><trkpt lat="43.91709602069608" lon="10.339348078207264"><ele>157.0</ele><time>2026-05-01T11:34:00Z</time></trkpt><trkpt lat="43.91700583592411" lon="10.339418448062078"><ele>157.0</ele><time>2026-05-01T11:34:02Z</time></trkpt><trkpt lat="43.91691782472809" lon="10.33949732461404"><ele>157.0</ele><time>2026-05-01T11:34:04Z</time></trkpt><trkpt lat="43.91684043982446" lon="10.339598254573712"><ele>157.0</ele><time>2026-05-01T11:34:06Z</time></trkpt><trkpt lat="43.91675391564871" lon="10.33966449467565"><ele>157.0</ele><time>2026-05-01T11:34:08Z</time></trkpt><trkpt lat="43.91667286446034" lon="10.339742157797232"><ele>157.0</ele><time>2026-05-01T11:34:10Z</time></trkpt><trkpt lat="43.91659541704596" lon="10.339829478817974"><ele>157.0</ele><time>2026-05-01T11:34:12Z</time></trkpt><trkpt lat="43.916518947285866" lon="10.339907626261137"><ele>157.0</ele><time>2026-05-01T11:34:14Z</time></trkpt><trkpt lat="43.916435053326694" lon="10.339988043311237"><ele>159.0</ele><time>2026-05-01T11:34:16Z</time></trkpt><trkpt lat="43.91634854321146" lon="10.340041063081953"><ele>161.0</ele><time>2026-05-01T11:34:18Z</time></trkpt><trkpt lat="43.91626093314047" lon="10.340100352015943"><ele>163.0</ele><time>2026-05-01T11:34:20Z</time></trkpt><trkpt lat="43.91617381563082" lon="10.340134878620507"><ele>165.0</ele><time>2026-05-01T11:34:22Z</time></trkpt><trkpt lat="43.91607200032996" lon="10.340142164071738"><ele>167.0</ele><time>2026-05-01T11:34:24Z</time></trkpt><trkpt lat="43.91596937099101" lon="10.340129459221105"><ele>169.39999999999998</ele><time>2026-05-01T11:34:26Z</time></trkpt><trkpt lat="43.9158702573145" lon="10.340071149480536"><ele>171.79999999999998</ele><time>2026-05-01T11:34:28Z</time></trkpt><trkpt lat="43.91577319492009" lon="10.340014906710369"><ele>174.2</ele><time>2026-05-01T11:34:30Z</time></trkpt><trkpt lat="43.915669028020446" lon="10.339983230779133"><ele>176.6</ele><time>2026-05-01T11:34:32Z</time></trkpt><trkpt lat="43.91556913305027" lon="10.340001350708691"><ele>179.0</ele><time>2026-05-01T11:34:34Z</time></trkpt><trkpt lat="43.91547180077797" lon="10.340071092647134"><ele>179.0</ele><time>2026-05-01T11:34:36Z</time></trkpt><trkpt lat="43.91538895826799" lon="10.34016633568689"><ele>179.0</ele><time>2026-05-01T11:34:38Z</time></trkpt><trkpt lat="43.915293016528345" lon="10.340233272324284"><ele>179.0</ele><time>2026-05-01T11:34:40Z</time></trkpt><trkpt lat="43.915181356604315" lon="10.340259454702249"><ele>179.0</ele><time>2026-05-01T11:34:42Z</time></trkpt><trkpt lat="43.91507037713363" lon="10.340239286221609"><ele>179.0</ele><time>2026-05-01T11:34:44Z</time></trkpt><trkpt lat="43.91496611032185" lon="10.340243697668988"><ele>178.6</ele><time>2026-05-01T11:34:46.001Z</time></trkpt><trkpt lat="43.91485026766112" lon="10.340258123021968"><ele>178.2</ele><time>2026-05-01T11:34:48.001Z</time></trkpt><trkpt lat="43.91474143008943" lon="10.340263919421139"><ele>177.79999999999998</ele><time>2026-05-01T11:34:50.001Z</time></trkpt><trkpt lat="43.91462957886996" lon="10.340262665392371"><ele>177.39999999999998</ele><time>2026-05-01T11:34:52.001Z</time></trkpt><trkpt lat="43.914566546762956" lon="10.34026075506392"><ele>177.0</ele><time>2026-05-01T11:34:53.001Z</time></trkpt><trkpt lat="43.9145042106559" lon="10.3402277213145"><ele>177.0</ele><time>2026-05-01T11:34:54.001Z</time></trkpt><trkpt lat="43.91439655678659" lon="10.340189998219039"><ele>177.0</ele><time>2026-05-01T11:34:56.001Z</time></trkpt><trkpt lat="43.914281830982404" lon="10.34016147336078"><ele>177.0</ele><time>2026-05-01T11:34:58.001Z</time></trkpt><trkpt lat="43.914176695252095" lon="10.34012273229411"><ele>177.0</ele><time>2026-05-01T11:35:00.001Z</time></trkpt><trkpt lat="43.91407723989725" lon="10.340116252447817"><ele>177.0</ele><time>2026-05-01T11:35:02.001Z</time></trkpt><trkpt lat="43.913967316495324" lon="10.340154357134244"><ele>178.5</ele><time>2026-05-01T11:35:04.001Z</time></trkpt><trkpt lat="43.91387804113184" lon="10.340254714870312"><ele>180.0</ele><time>2026-05-01T11:35:06.001Z</time></trkpt><trkpt lat="43.9138138311989" lon="10.340386887779305"><ele>181.5</ele><time>2026-05-01T11:35:08.001Z</time></trkpt><trkpt lat="43.91376478812281" lon="10.340534532062577"><ele>183.0</ele><time>2026-05-01T11:35:10.001Z</time></trkpt><trkpt lat="43.913733819015505" lon="10.340681203299004"><ele>183.0</ele><time>2026-05-01T11:35:12.001Z</time></trkpt><trkpt lat="43.91373310920591" lon="10.340837153048755"><ele>183.0</ele><time>2026-05-01T11:35:14.001Z</time></trkpt><trkpt lat="43.913737819570464" lon="10.340996698488576"><ele>183.0</ele><time>2026-05-01T11:35:16.001Z</time></trkpt><trkpt lat="43.91374584092401" lon="10.341149437261226"><ele>183.0</ele><time>2026-05-01T11:35:18.001Z</time></trkpt><trkpt lat="43.913725646838614" lon="10.341289249486325"><ele>183.0</ele><time>2026-05-01T11:35:20.001Z</time></trkpt><trkpt lat="43.91362212031451" lon="10.34133485725765"><ele>183.0</ele><time>2026-05-01T11:35:22.001Z</time></trkpt><trkpt lat="43.913574194906886" lon="10.341273977001892"><ele>183.0</ele><time>2026-05-01T11:35:23.001Z</time></trkpt><trkpt lat="43.91360402053494" lon="10.34115861412084"><ele>183.0</ele><time>2026-05-01T11:35:25.001Z</time></trkpt><trkpt lat="43.9136036961065" lon="10.341031225728658"><ele>183.0</ele><time>2026-05-01T11:35:27.001Z</time></trkpt><trkpt lat="43.91361657933711" lon="10.340891931583021"><ele>183.0</ele><time>2026-05-01T11:35:29.001Z</time></trkpt><trkpt lat="43.91362443385432" lon="10.340795913738402"><ele>183.0</ele><time>2026-05-01T11:35:30.001Z</time></trkpt><trkpt lat="43.91364636976396" lon="10.340712194249932"><ele>183.0</ele><time>2026-05-01T11:35:31.001Z</time></trkpt><trkpt lat="43.91368886066524" lon="10.340584470943513"><ele>183.0</ele><time>2026-05-01T11:35:33.001Z</time></trkpt><trkpt lat="43.91370837245071" lon="10.340430064638344"><ele>183.0</ele><time>2026-05-01T11:35:35.001Z</time></trkpt><trkpt lat="43.91374097036813" lon="10.340313075025044"><ele>183.0</ele><time>2026-05-01T11:35:37.001Z</time></trkpt><trkpt lat="43.91378745851008" lon="10.340178729260003"><ele>183.0</ele><time>2026-05-01T11:35:39.001Z</time></trkpt><trkpt lat="43.91383551497842" lon="10.34005397024654"><ele>183.8</ele><time>2026-05-01T11:35:41.001Z</time></trkpt><trkpt lat="43.91389747439232" lon="10.339941416334652"><ele>184.60000000000002</ele><time>2026-05-01T11:35:43.001Z</time></trkpt><trkpt lat="43.91394928953526" lon="10.339822843340372"><ele>185.39999999999998</ele><time>2026-05-01T11:35:45.001Z</time></trkpt><trkpt lat="43.914003560940046" lon="10.339696568866023"><ele>186.2</ele><time>2026-05-01T11:35:47.001Z</time></trkpt><trkpt lat="43.91399509280073" lon="10.339561447344048"><ele>187.0</ele><time>2026-05-01T11:35:49.001Z</time></trkpt><trkpt lat="43.91395248400306" lon="10.339434791936858"><ele>185.0</ele><time>2026-05-01T11:35:51.001Z</time></trkpt><trkpt lat="43.913861772140045" lon="10.339361269373375"><ele>183.0</ele><time>2026-05-01T11:35:53.001Z</time></trkpt><trkpt lat="43.9137588234105" lon="10.339341855516837"><ele>181.0</ele><time>2026-05-01T11:35:55.001Z</time></trkpt><trkpt lat="43.91365491973807" lon="10.339347699644307"><ele>179.0</ele><time>2026-05-01T11:35:57Z</time></trkpt><trkpt lat="43.91355678410226" lon="10.339347508099086"><ele>177.0</ele><time>2026-05-01T11:35:59Z</time></trkpt><trkpt lat="43.913456901355275" lon="10.339340282179947"><ele>181.39999999999998</ele><time>2026-05-01T11:36:01Z</time></trkpt><trkpt lat="43.91335502321178" lon="10.339318188755266"><ele>185.79999999999998</ele><time>2026-05-01T11:36:03Z</time></trkpt><trkpt lat="43.91326100064943" lon="10.33927054324243"><ele>190.2</ele><time>2026-05-01T11:36:05Z</time></trkpt><trkpt lat="43.91316550037093" lon="10.339207808721016"><ele>194.6</ele><time>2026-05-01T11:36:07Z</time></trkpt><trkpt lat="43.913074694387255" lon="10.339143157165934"><ele>199.0</ele><time>2026-05-01T11:36:09Z</time></trkpt><trkpt lat="43.91297793661606" lon="10.339081076938658"><ele>199.0</ele><time>2026-05-01T11:36:11Z</time></trkpt><trkpt lat="43.912867770191724" lon="10.339053881949857"><ele>199.0</ele><time>2026-05-01T11:36:13Z</time></trkpt><trkpt lat="43.912763259641814" lon="10.339038181943428"><ele>199.0</ele><time>2026-05-01T11:36:15Z</time></trkpt><trkpt lat="43.91266160984498" lon="10.339010538088012"><ele>199.0</ele><time>2026-05-01T11:36:17Z</time></trkpt><trkpt lat="43.91255464106142" lon="10.338988971214885"><ele>199.0</ele><time>2026-05-01T11:36:19Z</time></trkpt><trkpt lat="43.91244618188655" lon="10.338975320626286"><ele>196.39999999999998</ele><time>2026-05-01T11:36:21Z</time></trkpt><trkpt lat="43.912347774820105" lon="10.338967467580142"><ele>193.8</ele><time>2026-05-01T11:36:23Z</time></trkpt><trkpt lat="43.912236229719085" lon="10.338970359394478"><ele>191.2</ele><time>2026-05-01T11:36:25Z</time></trkpt><trkpt lat="43.91213191006913" lon="10.338965053228618"><ele>188.60000000000002</ele><time>2026-05-01T11:36:27Z</time></trkpt><trkpt lat="43.91202342946214" lon="10.338935095658886"><ele>186.0</ele><time>2026-05-01T11:36:29Z</time></trkpt><trkpt lat="43.9119166184151" lon="10.33888111911423"><ele>186.0</ele><time>2026-05-01T11:36:31Z</time></trkpt><trkpt lat="43.91181151018536" lon="10.33882233201672"><ele>186.0</ele><time>2026-05-01T11:36:33Z</time></trkpt><trkpt lat="43.911710857389785" lon="10.338759207833155"><ele>186.0</ele><time>2026-05-01T11:36:35Z</time></trkpt><trkpt lat="43.91160664731055" lon="10.338714051601443"><ele>186.0</ele><time>2026-05-01T11:36:37Z</time></trkpt><trkpt lat="43.9114935314553" lon="10.338698944290195"><ele>186.0</ele><time>2026-05-01T11:36:39Z</time></trkpt><trkpt lat="43.91138098685801" lon="10.338693940531257"><ele>187.8</ele><time>2026-05-01T11:36:41Z</time></trkpt><trkpt lat="43.911270991855844" lon="10.338689412849574"><ele>189.60000000000002</ele><time>2026-05-01T11:36:43Z</time></trkpt><trkpt lat="43.911166342884826" lon="10.338687553353687"><ele>191.4</ele><time>2026-05-01T11:36:45Z</time></trkpt><trkpt lat="43.91105762777764" lon="10.338695131162174"><ele>193.2</ele><time>2026-05-01T11:36:47.001Z</time></trkpt><trkpt lat="43.910948867351514" lon="10.3387068620385"><ele>195.0</ele><time>2026-05-01T11:36:49.001Z</time></trkpt><trkpt lat="43.910842628700856" lon="10.338724201084716"><ele>198.2</ele><time>2026-05-01T11:36:51.001Z</time></trkpt><trkpt lat="43.91073654888263" lon="10.338773491141552"><ele>201.4</ele><time>2026-05-01T11:36:53.001Z</time></trkpt><trkpt lat="43.91063806746434" lon="10.338845281441344"><ele>204.60000000000002</ele><time>2026-05-01T11:36:55.001Z</time></trkpt><trkpt lat="43.910539390392735" lon="10.338936885690183"><ele>207.8</ele><time>2026-05-01T11:36:57.001Z</time></trkpt><trkpt lat="43.91048771017845" lon="10.338987918374999"><ele>211.0</ele><time>2026-05-01T11:36:58.001Z</time></trkpt><trkpt lat="43.910406738168824" lon="10.339099522485077"><ele>212.60000000000002</ele><time>2026-05-01T11:37:00.001Z</time></trkpt><trkpt lat="43.910327788952706" lon="10.339215883525572"><ele>214.2</ele><time>2026-05-01T11:37:02.001Z</time></trkpt><trkpt lat="43.910266049162104" lon="10.33934204594263"><ele>215.79999999999998</ele><time>2026-05-01T11:37:04.001Z</time></trkpt><trkpt lat="43.91020972124419" lon="10.339429165256869"><ele>217.39999999999998</ele><time>2026-05-01T11:37:06.001Z</time></trkpt><trkpt lat="43.91012822983588" lon="10.339298496848267"><ele>219.0</ele><time>2026-05-01T11:37:09.001Z</time></trkpt><trkpt lat="43.91006224654951" lon="10.339243215056246"><ele>219.0</ele><time>2026-05-01T11:37:11.001Z</time></trkpt><trkpt lat="43.91000207221301" lon="10.339192800138585"><ele>219.0</ele><time>2026-05-01T11:37:13.001Z</time></trkpt><trkpt lat="43.90992958735407" lon="10.339132071257888"><ele>219.0</ele><time>2026-05-01T11:37:16.001Z</time></trkpt><trkpt lat="43.9099990049312" lon="10.339190230325672"><ele>219.0</ele><time>2026-05-01T11:41:01.001Z</time></trkpt><trkpt lat="43.910060435709624" lon="10.339241698400311"><ele>219.0</ele><time>2026-05-01T11:41:04.001Z</time></trkpt><trkpt lat="43.91012522894556" lon="10.339295983368451"><ele>219.0</ele><time>2026-05-01T11:41:07.001Z</time></trkpt><trkpt lat="43.910189988373325" lon="10.339350238978675"><ele>218.0</ele><time>2026-05-01T11:41:10.001Z</time></trkpt><trkpt lat="43.91007480185102" lon="10.3397734251605"><ele>217.0</ele><time>2026-05-01T11:41:17.001Z</time></trkpt><trkpt lat="43.91002385746493" lon="10.339913858887515"><ele>216.0</ele><time>2026-05-01T11:41:19.001Z</time></trkpt><trkpt lat="43.90996813086164" lon="10.340049759606554"><ele>216.0</ele><time>2026-05-01T11:41:21.001Z</time></trkpt><trkpt lat="43.90994180051871" lon="10.340134134445622"><ele>216.0</ele><time>2026-05-01T11:41:22.001Z</time></trkpt><trkpt lat="43.909914061466516" lon="10.340216330321969"><ele>216.0</ele><time>2026-05-01T11:41:23.001Z</time></trkpt><trkpt lat="43.909888611527926" lon="10.3403020517207"><ele>216.0</ele><time>2026-05-01T11:41:24.001Z</time></trkpt><trkpt lat="43.90986458252553" lon="10.340399789654864"><ele>216.0</ele><time>2026-05-01T11:41:25.001Z</time></trkpt><trkpt lat="43.90984079313548" lon="10.340492875311472"><ele>216.0</ele><time>2026-05-01T11:41:26.001Z</time></trkpt><trkpt lat="43.909810873554584" lon="10.3405903160455"><ele>216.0</ele><time>2026-05-01T11:41:27.001Z</time></trkpt><trkpt lat="43.909771294568124" lon="10.340673570302425"><ele>216.33333333333334</ele><time>2026-05-01T11:41:28.001Z</time></trkpt><trkpt lat="43.90974492154691" lon="10.340784084669476"><ele>216.66666666666669</ele><time>2026-05-01T11:41:29.001Z</time></trkpt><trkpt lat="43.909702641149195" lon="10.340881642987734"><ele>217.0</ele><time>2026-05-01T11:41:30.001Z</time></trkpt><trkpt lat="43.90966694748101" lon="10.340975263604095"><ele>217.33333333333334</ele><time>2026-05-01T11:41:31.001Z</time></trkpt><trkpt lat="43.90962281715382" lon="10.341070975027785"><ele>217.66666666666669</ele><time>2026-05-01T11:41:32.001Z</time></trkpt><trkpt lat="43.90959617491564" lon="10.341171344316134"><ele>218.0</ele><time>2026-05-01T11:41:33.001Z</time></trkpt><trkpt lat="43.909561638450086" lon="10.341270377600948"><ele>218.00000000000003</ele><time>2026-05-01T11:41:34.001Z</time></trkpt><trkpt lat="43.90952345749268" lon="10.341367698691654"><ele>218.0</ele><time>2026-05-01T11:41:35.001Z</time></trkpt><trkpt lat="43.90948722339476" lon="10.341468237053308"><ele>218.0</ele><time>2026-05-01T11:41:36.001Z</time></trkpt><trkpt lat="43.90945167193456" lon="10.341568304769812"><ele>218.0</ele><time>2026-05-01T11:41:37.001Z</time></trkpt><trkpt lat="43.909414205944934" lon="10.341667864771619"><ele>218.00000000000003</ele><time>2026-05-01T11:41:38.001Z</time></trkpt><trkpt lat="43.9093729901893" lon="10.341770828682584"><ele>218.0</ele><time>2026-05-01T11:41:39.001Z</time></trkpt><trkpt lat="43.909338633017356" lon="10.341872171739551"><ele>218.00000000000003</ele><time>2026-05-01T11:41:40.001Z</time></trkpt><trkpt lat="43.90930037237255" lon="10.34197448891909"><ele>218.0</ele><time>2026-05-01T11:41:41.001Z</time></trkpt><trkpt lat="43.90926521066636" lon="10.342075776490494"><ele>218.0</ele><time>2026-05-01T11:41:42.001Z</time></trkpt><trkpt lat="43.90922909533343" lon="10.34217860749267"><ele>218.0</ele><time>2026-05-01T11:41:43.001Z</time></trkpt><trkpt lat="43.90918728122663" lon="10.342276225673746"><ele>218.00000000000003</ele><time>2026-05-01T11:41:44.001Z</time></trkpt><trkpt lat="43.90915184030145" lon="10.342376051996075"><ele>218.0</ele><time>2026-05-01T11:41:45.001Z</time></trkpt><trkpt lat="43.90911373519238" lon="10.34248207598313"><ele>217.33333333333334</ele><time>2026-05-01T11:41:46.001Z</time></trkpt><trkpt lat="43.90907828093675" lon="10.34258073214681"><ele>216.66666666666669</ele><time>2026-05-01T11:41:47.001Z</time></trkpt><trkpt lat="43.90904066033316" lon="10.342679305173116"><ele>216.0</ele><time>2026-05-01T11:41:48.001Z</time></trkpt><trkpt lat="43.90900087400138" lon="10.342776396448832"><ele>215.33333333333331</ele><time>2026-05-01T11:41:49.001Z</time></trkpt><trkpt lat="43.90896387147414" lon="10.342877177308152"><ele>214.66666666666666</ele><time>2026-05-01T11:41:50.001Z</time></trkpt><trkpt lat="43.90892806678827" lon="10.342976124137142"><ele>214.0</ele><time>2026-05-01T11:41:51.001Z</time></trkpt><trkpt lat="43.908892026446935" lon="10.34307725106663"><ele>213.99999999999997</ele><time>2026-05-01T11:41:52.001Z</time></trkpt><trkpt lat="43.90885025860189" lon="10.343172443251255"><ele>214.0</ele><time>2026-05-01T11:41:53.001Z</time></trkpt><trkpt lat="43.908811294571926" lon="10.343270133897466"><ele>214.0</ele><time>2026-05-01T11:41:54.001Z</time></trkpt><trkpt lat="43.90877623842785" lon="10.343373238902549"><ele>214.0</ele><time>2026-05-01T11:41:55.001Z</time></trkpt><trkpt lat="43.9087437147498" lon="10.3434738645396"><ele>213.99999999999997</ele><time>2026-05-01T11:41:56.001Z</time></trkpt><trkpt lat="43.90870007802656" lon="10.343573172104973"><ele>214.0</ele><time>2026-05-01T11:41:57.001Z</time></trkpt><trkpt lat="43.90866883286064" lon="10.343676588770089"><ele>213.99999999999997</ele><time>2026-05-01T11:41:58.001Z</time></trkpt><trkpt lat="43.90863250188219" lon="10.34377644641657"><ele>214.0</ele><time>2026-05-01T11:41:59.001Z</time></trkpt><trkpt lat="43.90858907107821" lon="10.343873735439383"><ele>214.0</ele><time>2026-05-01T11:42:00.001Z</time></trkpt><trkpt lat="43.90855460427005" lon="10.343969220826894"><ele>214.0</ele><time>2026-05-01T11:42:01.001Z</time></trkpt><trkpt lat="43.90852106579748" lon="10.344074153254875"><ele>213.99999999999997</ele><time>2026-05-01T11:42:02.001Z</time></trkpt><trkpt lat="43.90848592766531" lon="10.344171810797388"><ele>214.0</ele><time>2026-05-01T11:42:03.001Z</time></trkpt><trkpt lat="43.90844797041147" lon="10.344268954433147"><ele>215.33333333333331</ele><time>2026-05-01T11:42:04.001Z</time></trkpt><trkpt lat="43.90841298091691" lon="10.344368509694363"><ele>216.66666666666666</ele><time>2026-05-01T11:42:05.001Z</time></trkpt><trkpt lat="43.90837886200362" lon="10.3444684168512"><ele>218.0</ele><time>2026-05-01T11:42:06.001Z</time></trkpt><trkpt lat="43.90834201018367" lon="10.34455973911874"><ele>219.33333333333331</ele><time>2026-05-01T11:42:07.001Z</time></trkpt><trkpt lat="43.908304638907744" lon="10.344653459260108"><ele>220.66666666666666</ele><time>2026-05-01T11:42:08.001Z</time></trkpt><trkpt lat="43.9082717055929" lon="10.344745760752135"><ele>222.0</ele><time>2026-05-01T11:42:09.001Z</time></trkpt><trkpt lat="43.90824460419303" lon="10.344829372779154"><ele>219.7142857142857</ele><time>2026-05-01T11:42:10.001Z</time></trkpt><trkpt lat="43.90821155042987" lon="10.344935192092649"><ele>217.42857142857144</ele><time>2026-05-01T11:42:11.001Z</time></trkpt><trkpt lat="43.90817900372506" lon="10.345022595715633"><ele>215.14285714285714</ele><time>2026-05-01T11:42:12.001Z</time></trkpt><trkpt lat="43.908143175149654" lon="10.345109706315439"><ele>212.85714285714283</ele><time>2026-05-01T11:42:13.002Z</time></trkpt><trkpt lat="43.908119386935695" lon="10.345199902482038"><ele>210.57142857142856</ele><time>2026-05-01T11:42:14Z</time></trkpt><trkpt lat="43.908101830986794" lon="10.345288957939564"><ele>208.28571428571428</ele><time>2026-05-01T11:42:15Z</time></trkpt><trkpt lat="43.90808185981023" lon="10.345374404991196"><ele>206.0</ele><time>2026-05-01T11:42:16Z</time></trkpt><trkpt lat="43.908065983769404" lon="10.345464200811776"><ele>206.60000000000002</ele><time>2026-05-01T11:42:17Z</time></trkpt><trkpt lat="43.90805070711815" lon="10.34555172186297"><ele>207.2</ele><time>2026-05-01T11:42:18Z</time></trkpt><trkpt lat="43.908034692102284" lon="10.345639555020682"><ele>207.8</ele><time>2026-05-01T11:42:19Z</time></trkpt><trkpt lat="43.908012480574676" lon="10.345808366267505"><ele>208.39999999999998</ele><time>2026-05-01T11:42:21Z</time></trkpt><trkpt lat="43.907990310624854" lon="10.345976829623199"><ele>209.0</ele><time>2026-05-01T11:42:23Z</time></trkpt><trkpt lat="43.90797473959349" lon="10.34614401148552"><ele>209.0</ele><time>2026-05-01T11:42:25Z</time></trkpt><trkpt lat="43.90796537895433" lon="10.346313925588644"><ele>209.0</ele><time>2026-05-01T11:42:27Z</time></trkpt><trkpt lat="43.90793993420992" lon="10.346472751898204"><ele>209.0</ele><time>2026-05-01T11:42:29Z</time></trkpt><trkpt lat="43.90792413941198" lon="10.346557624450782"><ele>209.0</ele><time>2026-05-01T11:42:30Z</time></trkpt><trkpt lat="43.90791116546922" lon="10.346643545992318"><ele>209.0</ele><time>2026-05-01T11:42:31Z</time></trkpt><trkpt lat="43.907892068680056" lon="10.34681678326706"><ele>210.79999999999998</ele><time>2026-05-01T11:42:33Z</time></trkpt><trkpt lat="43.907882356788285" lon="10.346905589076583"><ele>212.6</ele><time>2026-05-01T11:42:34Z</time></trkpt><trkpt lat="43.907864037172125" lon="10.347080626028081"><ele>214.4</ele><time>2026-05-01T11:42:36Z</time></trkpt><trkpt lat="43.907842496917866" lon="10.347172093585334"><ele>216.2</ele><time>2026-05-01T11:42:37Z</time></trkpt><trkpt lat="43.90781514498592" lon="10.347258440135962"><ele>218.0</ele><time>2026-05-01T11:42:38Z</time></trkpt><trkpt lat="43.90774631549558" lon="10.347418160198295"><ele>218.85714285714286</ele><time>2026-05-01T11:42:40Z</time></trkpt><trkpt lat="43.907702469978226" lon="10.347495240902962"><ele>219.71428571428572</ele><time>2026-05-01T11:42:41Z</time></trkpt><trkpt lat="43.907663580329874" lon="10.347572992869361"><ele>220.57142857142856</ele><time>2026-05-01T11:42:42Z</time></trkpt><trkpt lat="43.90761699927361" lon="10.347648097039"><ele>221.42857142857144</ele><time>2026-05-01T11:42:43Z</time></trkpt><trkpt lat="43.907570794118904" lon="10.347721694718288"><ele>222.28571428571428</ele><time>2026-05-01T11:42:44Z</time></trkpt><trkpt lat="43.90752607474265" lon="10.347798749708222"><ele>223.14285714285714</ele><time>2026-05-01T11:42:45Z</time></trkpt><trkpt lat="43.90748221897014" lon="10.3478761520081"><ele>224.0</ele><time>2026-05-01T11:42:46Z</time></trkpt><trkpt lat="43.907441962290505" lon="10.347959453286073"><ele>222.00000000000003</ele><time>2026-05-01T11:42:47Z</time></trkpt><trkpt lat="43.907397350224585" lon="10.348038439780396"><ele>220.0</ele><time>2026-05-01T11:42:48Z</time></trkpt><trkpt lat="43.90735087013207" lon="10.34812008618825"><ele>218.0</ele><time>2026-05-01T11:42:49Z</time></trkpt><trkpt lat="43.90730120815067" lon="10.348204142234367"><ele>216.0</ele><time>2026-05-01T11:42:50Z</time></trkpt><trkpt lat="43.90725636885946" lon="10.348283710041938"><ele>214.00000000000003</ele><time>2026-05-01T11:42:51Z</time></trkpt><trkpt lat="43.907210996393154" lon="10.348364718789675"><ele>212.0</ele><time>2026-05-01T11:42:52Z</time></trkpt><trkpt lat="43.9071641407573" lon="10.348450686680412"><ele>212.00000000000003</ele><time>2026-05-01T11:42:53Z</time></trkpt><trkpt lat="43.90711565553228" lon="10.348537319053204"><ele>212.0</ele><time>2026-05-01T11:42:54Z</time></trkpt><trkpt lat="43.90706438697058" lon="10.348628561502077"><ele>212.0</ele><time>2026-05-01T11:42:55Z</time></trkpt><trkpt lat="43.90701101282312" lon="10.348710865775649"><ele>212.0</ele><time>2026-05-01T11:42:56Z</time></trkpt><trkpt lat="43.90695722786733" lon="10.348793931369084"><ele>212.00000000000003</ele><time>2026-05-01T11:42:57Z</time></trkpt><trkpt lat="43.90689872598021" lon="10.348874817130056"><ele>212.0</ele><time>2026-05-01T11:42:58Z</time></trkpt><trkpt lat="43.906839729783" lon="10.348962127476488"><ele>212.66666666666669</ele><time>2026-05-01T11:42:59Z</time></trkpt><trkpt lat="43.906781381278016" lon="10.349029770188423"><ele>213.33333333333334</ele><time>2026-05-01T11:43:00Z</time></trkpt><trkpt lat="43.906717747411804" lon="10.349109359359646"><ele>214.0</ele><time>2026-05-01T11:43:01Z</time></trkpt><trkpt lat="43.90665637984472" lon="10.349180959916609"><ele>214.66666666666669</ele><time>2026-05-01T11:43:02Z</time></trkpt><trkpt lat="43.90659988657418" lon="10.34925529488225"><ele>215.33333333333334</ele><time>2026-05-01T11:43:03Z</time></trkpt><trkpt lat="43.90655454790992" lon="10.349340874396011"><ele>216.0</ele><time>2026-05-01T11:43:04Z</time></trkpt><trkpt lat="43.90651194610235" lon="10.349430721255812"><ele>214.16666666666666</ele><time>2026-05-01T11:43:05Z</time></trkpt><trkpt lat="43.906482410472314" lon="10.349533272707772"><ele>212.33333333333331</ele><time>2026-05-01T11:43:06Z</time></trkpt><trkpt lat="43.90645425969833" lon="10.3496318994962"><ele>210.5</ele><time>2026-05-01T11:43:07Z</time></trkpt><trkpt lat="43.9064231097377" lon="10.349727847921631"><ele>208.66666666666666</ele><time>2026-05-01T11:43:08Z</time></trkpt><trkpt lat="43.90638848605662" lon="10.349833519694036"><ele>206.83333333333331</ele><time>2026-05-01T11:43:09Z</time></trkpt><trkpt lat="43.9063487689053" lon="10.349931696461612"><ele>205.0</ele><time>2026-05-01T11:43:10Z</time></trkpt><trkpt lat="43.906307646063986" lon="10.35002784133449"><ele>204.99999999999997</ele><time>2026-05-01T11:43:11Z</time></trkpt><trkpt lat="43.906266456812936" lon="10.350126693749855"><ele>205.0</ele><time>2026-05-01T11:43:12Z</time></trkpt><trkpt lat="43.906230636087166" lon="10.350232453184777"><ele>205.0</ele><time>2026-05-01T11:43:13Z</time></trkpt><trkpt lat="43.90618454886385" lon="10.35033048638212"><ele>205.0</ele><time>2026-05-01T11:43:14.001Z</time></trkpt><trkpt lat="43.90613538779017" lon="10.35043447737423"><ele>204.99999999999997</ele><time>2026-05-01T11:43:15.001Z</time></trkpt><trkpt lat="43.90609105856441" lon="10.350543273221406"><ele>205.0</ele><time>2026-05-01T11:43:16.001Z</time></trkpt><trkpt lat="43.90603874919508" lon="10.350637528352028"><ele>205.4</ele><time>2026-05-01T11:43:17.001Z</time></trkpt><trkpt lat="43.90597473086124" lon="10.350731124677692"><ele>205.8</ele><time>2026-05-01T11:43:18.001Z</time></trkpt><trkpt lat="43.90592251035823" lon="10.350822088900436"><ele>206.2</ele><time>2026-05-01T11:43:19.001Z</time></trkpt><trkpt lat="43.905849289986556" lon="10.350921906898577"><ele>206.6</ele><time>2026-05-01T11:43:20.001Z</time></trkpt><trkpt lat="43.905788255475" lon="10.350994265146367"><ele>207.0</ele><time>2026-05-01T11:43:21.001Z</time></trkpt><trkpt lat="43.905732215222" lon="10.35109302005807"><ele>207.0</ele><time>2026-05-01T11:43:22.001Z</time></trkpt><trkpt lat="43.90567325057816" lon="10.351178412646108"><ele>207.0</ele><time>2026-05-01T11:43:23.001Z</time></trkpt><trkpt lat="43.90561930998034" lon="10.351256699566333"><ele>207.0</ele><time>2026-05-01T11:43:24.001Z</time></trkpt><trkpt lat="43.90556480077139" lon="10.351357217828864"><ele>207.0</ele><time>2026-05-01T11:43:25.001Z</time></trkpt><trkpt lat="43.90551222522176" lon="10.351425789270365"><ele>207.0</ele><time>2026-05-01T11:43:26.001Z</time></trkpt><trkpt lat="43.90546473471411" lon="10.35149274233231"><ele>207.0</ele><time>2026-05-01T11:43:27.001Z</time></trkpt><trkpt lat="43.90541387960077" lon="10.351568154948904"><ele>206.8</ele><time>2026-05-01T11:43:28.001Z</time></trkpt><trkpt lat="43.90536273536731" lon="10.351637734084353"><ele>206.6</ele><time>2026-05-01T11:43:29.001Z</time></trkpt><trkpt lat="43.905310494229305" lon="10.351715826254331"><ele>206.4</ele><time>2026-05-01T11:43:30.001Z</time></trkpt><trkpt lat="43.90527578796381" lon="10.351795465830113"><ele>206.20000000000002</ele><time>2026-05-01T11:43:31.001Z</time></trkpt><trkpt lat="43.90522105029616" lon="10.351957159523272"><ele>206.0</ele><time>2026-05-01T11:43:33.001Z</time></trkpt><trkpt lat="43.90517642073043" lon="10.352129359683172"><ele>205.99999999999997</ele><time>2026-05-01T11:43:35.001Z</time></trkpt><trkpt lat="43.905168025306736" lon="10.352230479288583"><ele>206.0</ele><time>2026-05-01T11:43:36.001Z</time></trkpt><trkpt lat="43.905152985249416" lon="10.352330767481163"><ele>206.0</ele><time>2026-05-01T11:43:37.001Z</time></trkpt><trkpt lat="43.90513764315765" lon="10.352430351794327"><ele>206.0</ele><time>2026-05-01T11:43:38.001Z</time></trkpt><trkpt lat="43.90512679755916" lon="10.352526917872156"><ele>206.0</ele><time>2026-05-01T11:43:39.001Z</time></trkpt><trkpt lat="43.90510564636013" lon="10.352617138659816"><ele>205.99999999999997</ele><time>2026-05-01T11:43:40.001Z</time></trkpt><trkpt lat="43.90508901865231" lon="10.35270672915793"><ele>206.0</ele><time>2026-05-01T11:43:41.001Z</time></trkpt><trkpt lat="43.90506916691362" lon="10.35279832734279"><ele>206.00000000000003</ele><time>2026-05-01T11:43:42.001Z</time></trkpt><trkpt lat="43.905034140517195" lon="10.35289134024258"><ele>206.0</ele><time>2026-05-01T11:43:43.001Z</time></trkpt><trkpt lat="43.905001777600724" lon="10.352978702323751"><ele>206.0</ele><time>2026-05-01T11:43:44.001Z</time></trkpt><trkpt lat="43.90496404993992" lon="10.353065096641085"><ele>206.0</ele><time>2026-05-01T11:43:45.001Z</time></trkpt><trkpt lat="43.90491255142589" lon="10.353157268910584"><ele>206.00000000000003</ele><time>2026-05-01T11:43:46.001Z</time></trkpt><trkpt lat="43.904862011033984" lon="10.353253614363194"><ele>206.0</ele><time>2026-05-01T11:43:47.001Z</time></trkpt><trkpt lat="43.90479769981201" lon="10.353335707347378"><ele>205.4</ele><time>2026-05-01T11:43:48.001Z</time></trkpt><trkpt lat="43.90471419690709" lon="10.353428475971379"><ele>204.8</ele><time>2026-05-01T11:43:49.001Z</time></trkpt><trkpt lat="43.90464683889113" lon="10.353515578892615"><ele>204.20000000000002</ele><time>2026-05-01T11:43:50.001Z</time></trkpt><trkpt lat="43.90458877471073" lon="10.353609011130747"><ele>203.60000000000002</ele><time>2026-05-01T11:43:51.001Z</time></trkpt><trkpt lat="43.904526420951726" lon="10.353703862716971"><ele>203.0</ele><time>2026-05-01T11:43:52.001Z</time></trkpt><trkpt lat="43.904474622555654" lon="10.35380796013485"><ele>201.60000000000002</ele><time>2026-05-01T11:43:53.001Z</time></trkpt><trkpt lat="43.90442242041075" lon="10.353912708493509"><ele>200.20000000000002</ele><time>2026-05-01T11:43:54.001Z</time></trkpt><trkpt lat="43.90436740801545" lon="10.354018810752537"><ele>198.8</ele><time>2026-05-01T11:43:55.001Z</time></trkpt><trkpt lat="43.904316900737236" lon="10.354127694715913"><ele>197.4</ele><time>2026-05-01T11:43:56.001Z</time></trkpt><trkpt lat="43.90426210528971" lon="10.354239933989973"><ele>196.0</ele><time>2026-05-01T11:43:57.001Z</time></trkpt><trkpt lat="43.90420387303404" lon="10.354348564247553"><ele>195.99999999999997</ele><time>2026-05-01T11:43:58.001Z</time></trkpt><trkpt lat="43.904149196681196" lon="10.35445375445805"><ele>196.0</ele><time>2026-05-01T11:43:59.001Z</time></trkpt><trkpt lat="43.90409740786688" lon="10.354555440237448"><ele>196.0</ele><time>2026-05-01T11:44:00.001Z</time></trkpt><trkpt lat="43.90405084723383" lon="10.354656654119907"><ele>196.0</ele><time>2026-05-01T11:44:01.001Z</time></trkpt><trkpt lat="43.90400550824253" lon="10.354756195605166"><ele>195.99999999999997</ele><time>2026-05-01T11:44:02.001Z</time></trkpt><trkpt lat="43.90395876356012" lon="10.354854740176886"><ele>196.0</ele><time>2026-05-01T11:44:03.001Z</time></trkpt><trkpt lat="43.90391967181285" lon="10.354955338165832"><ele>195.99999999999997</ele><time>2026-05-01T11:44:04.001Z</time></trkpt><trkpt lat="43.90388821119383" lon="10.355062753873234"><ele>196.0</ele><time>2026-05-01T11:44:05.001Z</time></trkpt><trkpt lat="43.903855276712235" lon="10.355171248166569"><ele>196.0</ele><time>2026-05-01T11:44:06.001Z</time></trkpt><trkpt lat="43.90383381838764" lon="10.35527297368241"><ele>196.0</ele><time>2026-05-01T11:44:07.001Z</time></trkpt><trkpt lat="43.90381512883913" lon="10.355373633053853"><ele>195.99999999999997</ele><time>2026-05-01T11:44:08.001Z</time></trkpt><trkpt lat="43.90379599879363" lon="10.355480246722806"><ele>196.0</ele><time>2026-05-01T11:44:09.001Z</time></trkpt><trkpt lat="43.90378921969043" lon="10.355583523555572"><ele>195.99999999999997</ele><time>2026-05-01T11:44:10.001Z</time></trkpt><trkpt lat="43.903781613843" lon="10.355692024761867"><ele>196.0</ele><time>2026-05-01T11:44:11.001Z</time></trkpt><trkpt lat="43.90377170183402" lon="10.355793160436992"><ele>196.0</ele><time>2026-05-01T11:44:12.001Z</time></trkpt><trkpt lat="43.90377029088836" lon="10.355892347217761"><ele>196.0</ele><time>2026-05-01T11:44:13.001Z</time></trkpt><trkpt lat="43.903767032995034" lon="10.356001770961322"><ele>195.99999999999997</ele><time>2026-05-01T11:44:14.001Z</time></trkpt><trkpt lat="43.90377237925592" lon="10.356107613544545"><ele>196.0</ele><time>2026-05-01T11:44:15.001Z</time></trkpt><trkpt lat="43.90377362180337" lon="10.356211821018997"><ele>196.0</ele><time>2026-05-01T11:44:16.001Z</time></trkpt><trkpt lat="43.903778352571884" lon="10.356317967568673"><ele>196.0</ele><time>2026-05-01T11:44:17.001Z</time></trkpt><trkpt lat="43.90379219219816" lon="10.35642025812806"><ele>196.0</ele><time>2026-05-01T11:44:18.001Z</time></trkpt><trkpt lat="43.90380557442912" lon="10.356521425980292"><ele>196.0</ele><time>2026-05-01T11:44:19.001Z</time></trkpt><trkpt lat="43.90381632998436" lon="10.356624637533782"><ele>196.0</ele><time>2026-05-01T11:44:20Z</time></trkpt><trkpt lat="43.90384030914479" lon="10.356717671549458"><ele>196.0</ele><time>2026-05-01T11:44:21Z</time></trkpt><trkpt lat="43.90386067030761" lon="10.356813787659762"><ele>196.0</ele><time>2026-05-01T11:44:22Z</time></trkpt><trkpt lat="43.90388259164413" lon="10.356907052889749"><ele>195.42857142857142</ele><time>2026-05-01T11:44:23Z</time></trkpt><trkpt lat="43.90390554719477" lon="10.356998507818435"><ele>194.85714285714286</ele><time>2026-05-01T11:44:24Z</time></trkpt><trkpt lat="43.90392984679289" lon="10.357087666923992"><ele>194.28571428571428</ele><time>2026-05-01T11:44:25Z</time></trkpt><trkpt lat="43.90395832230289" lon="10.357173498042"><ele>193.71428571428572</ele><time>2026-05-01T11:44:26Z</time></trkpt><trkpt lat="43.903989801628974" lon="10.357252134387725"><ele>193.14285714285714</ele><time>2026-05-01T11:44:27Z</time></trkpt><trkpt lat="43.90402089862374" lon="10.357329064067839"><ele>192.57142857142856</ele><time>2026-05-01T11:44:28Z</time></trkpt><trkpt lat="43.90405165398357" lon="10.357411108792164"><ele>192.0</ele><time>2026-05-01T11:44:29Z</time></trkpt><trkpt lat="43.90407763388061" lon="10.357494948601381"><ele>191.83333333333334</ele><time>2026-05-01T11:44:30Z</time></trkpt><trkpt lat="43.90413605332371" lon="10.357649293741572"><ele>191.66666666666666</ele><time>2026-05-01T11:44:32Z</time></trkpt><trkpt lat="43.90416883127912" lon="10.35772545744088"><ele>191.5</ele><time>2026-05-01T11:44:33Z</time></trkpt><trkpt lat="43.90419700912351" lon="10.357805155139"><ele>191.33333333333331</ele><time>2026-05-01T11:44:34Z</time></trkpt><trkpt lat="43.904227205563366" lon="10.357882031472599"><ele>191.16666666666666</ele><time>2026-05-01T11:44:35Z</time></trkpt><trkpt lat="43.90427646582162" lon="10.358038759280321"><ele>191.0</ele><time>2026-05-01T11:44:37Z</time></trkpt><trkpt lat="43.90431197119997" lon="10.35811646642781"><ele>194.0</ele><time>2026-05-01T11:44:38Z</time></trkpt><trkpt lat="43.904370577469365" lon="10.358265630238652"><ele>197.0</ele><time>2026-05-01T11:44:40Z</time></trkpt><trkpt lat="43.904430707394916" lon="10.358423272576843"><ele>200.0</ele><time>2026-05-01T11:44:42Z</time></trkpt><trkpt lat="43.9044942557127" lon="10.358561588116022"><ele>203.0</ele><time>2026-05-01T11:44:44Z</time></trkpt><trkpt lat="43.904522557350745" lon="10.358644444612903"><ele>206.0</ele><time>2026-05-01T11:44:45Z</time></trkpt><trkpt lat="43.90457686541415" lon="10.35879428790093"><ele>204.83333333333334</ele><time>2026-05-01T11:44:47Z</time></trkpt><trkpt lat="43.90461205952023" lon="10.358875901159164"><ele>203.66666666666669</ele><time>2026-05-01T11:44:48Z</time></trkpt><trkpt lat="43.90464010997429" lon="10.358959643668229"><ele>202.5</ele><time>2026-05-01T11:44:49Z</time></trkpt><trkpt lat="43.90466840068131" lon="10.359038058744225"><ele>201.33333333333331</ele><time>2026-05-01T11:44:50Z</time></trkpt><trkpt lat="43.90470353554034" lon="10.359113581703935"><ele>200.16666666666666</ele><time>2026-05-01T11:44:51Z</time></trkpt><trkpt lat="43.90473511766467" lon="10.359192323606093"><ele>199.0</ele><time>2026-05-01T11:44:52Z</time></trkpt><trkpt lat="43.90479478217685" lon="10.359355406657698"><ele>198.99999999999997</ele><time>2026-05-01T11:44:54Z</time></trkpt><trkpt lat="43.90482447641612" lon="10.35943736489425"><ele>199.0</ele><time>2026-05-01T11:44:55Z</time></trkpt><trkpt lat="43.90485486489134" lon="10.359517375196257"><ele>199.0</ele><time>2026-05-01T11:44:56Z</time></trkpt><trkpt lat="43.90491558681952" lon="10.359678200773256"><ele>199.0</ele><time>2026-05-01T11:44:58Z</time></trkpt><trkpt lat="43.90494805853999" lon="10.359758121578931"><ele>198.99999999999997</ele><time>2026-05-01T11:44:59Z</time></trkpt><trkpt lat="43.90497698665841" lon="10.359843973413058"><ele>199.0</ele><time>2026-05-01T11:45:00Z</time></trkpt><trkpt lat="43.905006128788614" lon="10.359927783296735"><ele>198.28571428571428</ele><time>2026-05-01T11:45:01Z</time></trkpt><trkpt lat="43.90503461312434" lon="10.360010639288156"><ele>197.57142857142856</ele><time>2026-05-01T11:45:02Z</time></trkpt><trkpt lat="43.90506507339212" lon="10.36009842896344"><ele>196.85714285714283</ele><time>2026-05-01T11:45:03Z</time></trkpt><trkpt lat="43.90509214157533" lon="10.360187125892926"><ele>196.14285714285714</ele><time>2026-05-01T11:45:04Z</time></trkpt><trkpt lat="43.90512448672733" lon="10.360279888632595"><ele>195.42857142857144</ele><time>2026-05-01T11:45:05Z</time></trkpt><trkpt lat="43.905152347884055" lon="10.3603730729669"><ele>194.7142857142857</ele><time>2026-05-01T11:45:06Z</time></trkpt><trkpt lat="43.90517571586462" lon="10.360469523511986"><ele>194.0</ele><time>2026-05-01T11:45:07Z</time></trkpt><trkpt lat="43.90519432949393" lon="10.360568220208595"><ele>197.16666666666669</ele><time>2026-05-01T11:45:08Z</time></trkpt><trkpt lat="43.905215593676054" lon="10.360671020193266"><ele>200.33333333333334</ele><time>2026-05-01T11:45:09Z</time></trkpt><trkpt lat="43.9052357282277" lon="10.360771505714142"><ele>203.5</ele><time>2026-05-01T11:45:10Z</time></trkpt><trkpt lat="43.90525306383532" lon="10.360879547767265"><ele>206.66666666666669</ele><time>2026-05-01T11:45:11Z</time></trkpt><trkpt lat="43.90526818156364" lon="10.360991216285452"><ele>209.83333333333334</ele><time>2026-05-01T11:45:12Z</time></trkpt><trkpt lat="43.90528032625508" lon="10.361106111091518"><ele>213.0</ele><time>2026-05-01T11:45:13Z</time></trkpt><trkpt lat="43.905290133416386" lon="10.361222458191689"><ele>213.0</ele><time>2026-05-01T11:45:14.001Z</time></trkpt><trkpt lat="43.905296522929035" lon="10.361340133702955"><ele>213.0</ele><time>2026-05-01T11:45:15.001Z</time></trkpt><trkpt lat="43.90529763952801" lon="10.361463132304184"><ele>213.0</ele><time>2026-05-01T11:45:16.001Z</time></trkpt><trkpt lat="43.9052960748671" lon="10.361588209192194"><ele>213.0</ele><time>2026-05-01T11:45:17.001Z</time></trkpt><trkpt lat="43.905291665878245" lon="10.361716864748125"><ele>213.0</ele><time>2026-05-01T11:45:18.001Z</time></trkpt><trkpt lat="43.905280729173505" lon="10.361843408598995"><ele>213.0</ele><time>2026-05-01T11:45:19.001Z</time></trkpt><trkpt lat="43.90526199646217" lon="10.361970846458975"><ele>209.60000000000002</ele><time>2026-05-01T11:45:20.001Z</time></trkpt><trkpt lat="43.905242294162875" lon="10.362097550242012"><ele>206.20000000000002</ele><time>2026-05-01T11:45:21.001Z</time></trkpt><trkpt lat="43.90522683924821" lon="10.362238249839217"><ele>202.8</ele><time>2026-05-01T11:45:22.001Z</time></trkpt><trkpt lat="43.90520632217148" lon="10.362373086658417"><ele>199.4</ele><time>2026-05-01T11:45:23.001Z</time></trkpt><trkpt lat="43.90518149740665" lon="10.362505069880596"><ele>196.0</ele><time>2026-05-01T11:45:24.001Z</time></trkpt><trkpt lat="43.90515635528006" lon="10.362646278483648"><ele>196.0</ele><time>2026-05-01T11:45:25.001Z</time></trkpt><trkpt lat="43.9051390055403" lon="10.362787643646204"><ele>196.0</ele><time>2026-05-01T11:45:26.001Z</time></trkpt><trkpt lat="43.90510868567407" lon="10.362932532260157"><ele>196.0</ele><time>2026-05-01T11:45:27.001Z</time></trkpt><trkpt lat="43.90508024458431" lon="10.363076643359934"><ele>196.0</ele><time>2026-05-01T11:45:28.001Z</time></trkpt><trkpt lat="43.90505489216964" lon="10.363219483763865"><ele>196.0</ele><time>2026-05-01T11:45:29.001Z</time></trkpt><trkpt lat="43.9050305557004" lon="10.363366832427472"><ele>192.60000000000002</ele><time>2026-05-01T11:45:30.001Z</time></trkpt><trkpt lat="43.90500627376258" lon="10.363515960457367"><ele>189.2</ele><time>2026-05-01T11:45:31.001Z</time></trkpt><trkpt lat="43.90498151882437" lon="10.363667470247343"><ele>185.8</ele><time>2026-05-01T11:45:32.001Z</time></trkpt><trkpt lat="43.90496238552936" lon="10.363815140862247"><ele>182.39999999999998</ele><time>2026-05-01T11:45:33.001Z</time></trkpt><trkpt lat="43.904939384061414" lon="10.36396592016344"><ele>179.0</ele><time>2026-05-01T11:45:34.001Z</time></trkpt><trkpt lat="43.904902284936675" lon="10.364117466408642"><ele>179.0</ele><time>2026-05-01T11:45:35.001Z</time></trkpt><trkpt lat="43.90488109113493" lon="10.364270360435087"><ele>179.0</ele><time>2026-05-01T11:45:36.001Z</time></trkpt><trkpt lat="43.90486060206413" lon="10.364418313204643"><ele>179.0</ele><time>2026-05-01T11:45:37.001Z</time></trkpt><trkpt lat="43.90483865544335" lon="10.364568766974699"><ele>179.0</ele><time>2026-05-01T11:45:38.001Z</time></trkpt><trkpt lat="43.90481254905155" lon="10.364719627024245"><ele>179.0</ele><time>2026-05-01T11:45:39.001Z</time></trkpt><trkpt lat="43.904792464730306" lon="10.3648753915307"><ele>180.0</ele><time>2026-05-01T11:45:40.001Z</time></trkpt><trkpt lat="43.904765544626805" lon="10.365024768908622"><ele>181.0</ele><time>2026-05-01T11:45:41.001Z</time></trkpt><trkpt lat="43.90474678541276" lon="10.365181021473175"><ele>182.0</ele><time>2026-05-01T11:45:42.001Z</time></trkpt><trkpt lat="43.90473927888045" lon="10.365337702100934"><ele>183.0</ele><time>2026-05-01T11:45:43.001Z</time></trkpt><trkpt lat="43.904725934758254" lon="10.365496195820292"><ele>182.25</ele><time>2026-05-01T11:45:44.001Z</time></trkpt><trkpt lat="43.90469632912749" lon="10.3656253889671"><ele>181.5</ele><time>2026-05-01T11:45:45.001Z</time></trkpt><trkpt lat="43.904715319921785" lon="10.365810609834782"><ele>180.75</ele><time>2026-05-01T11:45:46.001Z</time></trkpt><trkpt lat="43.90472080404778" lon="10.365967944517166"><ele>180.0</ele><time>2026-05-01T11:45:47.001Z</time></trkpt><trkpt lat="43.90473001098957" lon="10.3661207481441"><ele>180.0</ele><time>2026-05-01T11:45:48.001Z</time></trkpt><trkpt lat="43.90473829184728" lon="10.366275368805455"><ele>180.0</ele><time>2026-05-01T11:45:49.001Z</time></trkpt><trkpt lat="43.90474350763533" lon="10.366426496797283"><ele>180.0</ele><time>2026-05-01T11:45:50.001Z</time></trkpt><trkpt lat="43.904746828133206" lon="10.366577688998355"><ele>180.0</ele><time>2026-05-01T11:45:51.001Z</time></trkpt><trkpt lat="43.90474350665437" lon="10.36672373900669"><ele>180.0</ele><time>2026-05-01T11:45:52.001Z</time></trkpt><trkpt lat="43.904735450661164" lon="10.366869418873662"><ele>178.8</ele><time>2026-05-01T11:45:53.001Z</time></trkpt><trkpt lat="43.90472711548889" lon="10.367012699787725"><ele>177.6</ele><time>2026-05-01T11:45:54.001Z</time></trkpt><trkpt lat="43.904725407956704" lon="10.367147481618467"><ele>176.39999999999998</ele><time>2026-05-01T11:45:55.001Z</time></trkpt><trkpt lat="43.90471354607917" lon="10.367284208244197"><ele>175.2</ele><time>2026-05-01T11:45:56.001Z</time></trkpt><trkpt lat="43.90468773132734" lon="10.36741196963638"><ele>174.0</ele><time>2026-05-01T11:45:57.001Z</time></trkpt><trkpt lat="43.90466477173882" lon="10.3675452883182"><ele>173.6</ele><time>2026-05-01T11:45:58.001Z</time></trkpt><trkpt lat="43.90461077435939" lon="10.367665932377804"><ele>173.2</ele><time>2026-05-01T11:45:59.001Z</time></trkpt><trkpt lat="43.90456993114808" lon="10.367782480417816"><ele>172.79999999999998</ele><time>2026-05-01T11:46:00.001Z</time></trkpt><trkpt lat="43.90453149716522" lon="10.367899591660754"><ele>172.39999999999998</ele><time>2026-05-01T11:46:01.001Z</time></trkpt><trkpt lat="43.90449681439654" lon="10.368015307039855"><ele>172.0</ele><time>2026-05-01T11:46:02.001Z</time></trkpt><trkpt lat="43.90445247093167" lon="10.368132065458802"><ele>172.0</ele><time>2026-05-01T11:46:03.001Z</time></trkpt><trkpt lat="43.90441012752812" lon="10.36823550331134"><ele>172.0</ele><time>2026-05-01T11:46:04.001Z</time></trkpt><trkpt lat="43.904368150410036" lon="10.368345856142158"><ele>172.0</ele><time>2026-05-01T11:46:05.001Z</time></trkpt><trkpt lat="43.90433015242075" lon="10.368464362245515"><ele>172.0</ele><time>2026-05-01T11:46:06.001Z</time></trkpt><trkpt lat="43.90429375556751" lon="10.368571973735746"><ele>172.0</ele><time>2026-05-01T11:46:07.001Z</time></trkpt><trkpt lat="43.90425565464257" lon="10.368683457550109"><ele>172.0</ele><time>2026-05-01T11:46:08.001Z</time></trkpt><trkpt lat="43.904212624724266" lon="10.368787504333184"><ele>169.83333333333334</ele><time>2026-05-01T11:46:09.001Z</time></trkpt><trkpt lat="43.904172500478225" lon="10.368900413444809"><ele>167.66666666666669</ele><time>2026-05-01T11:46:10.001Z</time></trkpt><trkpt lat="43.90413526352967" lon="10.369005214740291"><ele>165.5</ele><time>2026-05-01T11:46:11.001Z</time></trkpt><trkpt lat="43.904107564771415" lon="10.369119497485158"><ele>163.33333333333334</ele><time>2026-05-01T11:46:12.001Z</time></trkpt><trkpt lat="43.904076853386364" lon="10.369230535533497"><ele>161.16666666666666</ele><time>2026-05-01T11:46:13.001Z</time></trkpt><trkpt lat="43.90404745072897" lon="10.369345319578214"><ele>159.0</ele><time>2026-05-01T11:46:14.001Z</time></trkpt><trkpt lat="43.904020615178716" lon="10.369458473116422"><ele>159.0</ele><time>2026-05-01T11:46:15.001Z</time></trkpt><trkpt lat="43.903993444497196" lon="10.369570040714356"><ele>159.0</ele><time>2026-05-01T11:46:16.001Z</time></trkpt><trkpt lat="43.90396622758751" lon="10.369678101883004"><ele>159.0</ele><time>2026-05-01T11:46:17.001Z</time></trkpt><trkpt lat="43.903938580786836" lon="10.369781879274626"><ele>159.0</ele><time>2026-05-01T11:46:18.001Z</time></trkpt><trkpt lat="43.90391486541506" lon="10.369894082560041"><ele>159.0</ele><time>2026-05-01T11:46:19.001Z</time></trkpt><trkpt lat="43.90388706549746" lon="10.370002889355533"><ele>159.0</ele><time>2026-05-01T11:46:20.001Z</time></trkpt><trkpt lat="43.90386431306226" lon="10.370110572616447"><ele>159.0</ele><time>2026-05-01T11:46:21.001Z</time></trkpt><trkpt lat="43.903842720608296" lon="10.37021742416203"><ele>159.0</ele><time>2026-05-01T11:46:22.001Z</time></trkpt><trkpt lat="43.90381822604917" lon="10.37032485612611"><ele>159.0</ele><time>2026-05-01T11:46:23.001Z</time></trkpt><trkpt lat="43.903794587309505" lon="10.370432247898563"><ele>159.0</ele><time>2026-05-01T11:46:24.001Z</time></trkpt><trkpt lat="43.90377464764229" lon="10.370537642124187"><ele>159.0</ele><time>2026-05-01T11:46:25.001Z</time></trkpt><trkpt lat="43.90375538542283" lon="10.37064689846687"><ele>159.0</ele><time>2026-05-01T11:46:26Z</time></trkpt><trkpt lat="43.90374608117714" lon="10.370750666117353"><ele>160.16666666666666</ele><time>2026-05-01T11:46:27Z</time></trkpt><trkpt lat="43.90372522560819" lon="10.370860590930706"><ele>161.33333333333334</ele><time>2026-05-01T11:46:28Z</time></trkpt><trkpt lat="43.90370649698549" lon="10.370969751108493"><ele>162.5</ele><time>2026-05-01T11:46:29Z</time></trkpt><trkpt lat="43.90369494993447" lon="10.371072884735511"><ele>163.66666666666669</ele><time>2026-05-01T11:46:30Z</time></trkpt><trkpt lat="43.90369604803839" lon="10.371174871537931"><ele>164.83333333333334</ele><time>2026-05-01T11:46:31Z</time></trkpt><trkpt lat="43.903706889061645" lon="10.371279545331989"><ele>166.0</ele><time>2026-05-01T11:46:32Z</time></trkpt><trkpt lat="43.903691968681855" lon="10.3713908597962"><ele>168.83333333333334</ele><time>2026-05-01T11:46:33Z</time></trkpt><trkpt lat="43.90369350861805" lon="10.371483207154077"><ele>171.66666666666669</ele><time>2026-05-01T11:46:34Z</time></trkpt><trkpt lat="43.90368455031468" lon="10.371583511062035"><ele>174.5</ele><time>2026-05-01T11:46:35Z</time></trkpt><trkpt lat="43.903680964388094" lon="10.371692033593254"><ele>177.33333333333334</ele><time>2026-05-01T11:46:36Z</time></trkpt><trkpt lat="43.90369195311577" lon="10.3718099532651"><ele>180.16666666666666</ele><time>2026-05-01T11:46:37Z</time></trkpt><trkpt lat="43.90368014127518" lon="10.371907821777064"><ele>183.0</ele><time>2026-05-01T11:46:38Z</time></trkpt><trkpt lat="43.903664207074335" lon="10.37209153452096"><ele>183.5</ele><time>2026-05-01T11:46:40Z</time></trkpt><trkpt lat="43.903654777450875" lon="10.372197245406864"><ele>184.0</ele><time>2026-05-01T11:46:41Z</time></trkpt><trkpt lat="43.903646431256476" lon="10.372289089299464"><ele>184.5</ele><time>2026-05-01T11:46:42Z</time></trkpt><trkpt lat="43.903643870565354" lon="10.372393217775267"><ele>185.0</ele><time>2026-05-01T11:46:43Z</time></trkpt><trkpt lat="43.9036369295489" lon="10.372498248522314"><ele>185.5</ele><time>2026-05-01T11:46:44Z</time></trkpt><trkpt lat="43.90361258512576" lon="10.37269497182714"><ele>186.0</ele><time>2026-05-01T11:46:46Z</time></trkpt><trkpt lat="43.903610466508226" lon="10.372799606040479"><ele>186.00000000000003</ele><time>2026-05-01T11:46:47Z</time></trkpt><trkpt lat="43.90360668184024" lon="10.372891148398612"><ele>186.0</ele><time>2026-05-01T11:46:48Z</time></trkpt><trkpt lat="43.90360266371635" lon="10.37299969196803"><ele>186.0</ele><time>2026-05-01T11:46:49Z</time></trkpt><trkpt lat="43.90360598086573" lon="10.373097701984937"><ele>186.0</ele><time>2026-05-01T11:46:50Z</time></trkpt><trkpt lat="43.90360495369216" lon="10.373197559662957"><ele>186.0</ele><time>2026-05-01T11:46:51Z</time></trkpt><trkpt lat="43.903594960901614" lon="10.373311719330301"><ele>186.00000000000003</ele><time>2026-05-01T11:46:52Z</time></trkpt><trkpt lat="43.90358061086285" lon="10.373416031588516"><ele>186.0</ele><time>2026-05-01T11:46:53Z</time></trkpt><trkpt lat="43.90356788647958" lon="10.373514290767666"><ele>183.57142857142858</ele><time>2026-05-01T11:46:54Z</time></trkpt><trkpt lat="43.903548862485266" lon="10.373609280816323"><ele>181.14285714285714</ele><time>2026-05-01T11:46:55Z</time></trkpt><trkpt lat="43.903523838888134" lon="10.37370614664454"><ele>178.71428571428572</ele><time>2026-05-01T11:46:56Z</time></trkpt><trkpt lat="43.9034935739092" lon="10.37379802296238"><ele>176.28571428571428</ele><time>2026-05-01T11:46:57Z</time></trkpt><trkpt lat="43.90346362672232" lon="10.373887647001366"><ele>173.85714285714286</ele><time>2026-05-01T11:46:58Z</time></trkpt><trkpt lat="43.90343444837657" lon="10.37398103190942"><ele>171.42857142857144</ele><time>2026-05-01T11:46:59Z</time></trkpt><trkpt lat="43.9034037072419" lon="10.37408084020716"><ele>169.0</ele><time>2026-05-01T11:47:00Z</time></trkpt><trkpt lat="43.903371248186886" lon="10.374184246327099"><ele>168.83333333333334</ele><time>2026-05-01T11:47:01Z</time></trkpt><trkpt lat="43.90333308573429" lon="10.37428648650828"><ele>168.66666666666669</ele><time>2026-05-01T11:47:02Z</time></trkpt><trkpt lat="43.903287612361" lon="10.374382528612763"><ele>168.5</ele><time>2026-05-01T11:47:03Z</time></trkpt><trkpt lat="43.90323556622382" lon="10.37447433792681"><ele>168.33333333333334</ele><time>2026-05-01T11:47:04Z</time></trkpt><trkpt lat="43.90317230177012" lon="10.37455721004353"><ele>168.16666666666666</ele><time>2026-05-01T11:47:05Z</time></trkpt><trkpt lat="43.90310367946777" lon="10.374641658613855"><ele>168.0</ele><time>2026-05-01T11:47:06Z</time></trkpt><trkpt lat="43.90304043056416" lon="10.37472424096322"><ele>168.0</ele><time>2026-05-01T11:47:07Z</time></trkpt><trkpt lat="43.902982068134115" lon="10.374813390742906"><ele>168.0</ele><time>2026-05-01T11:47:08Z</time></trkpt><trkpt lat="43.902920030517954" lon="10.37489723846817"><ele>168.0</ele><time>2026-05-01T11:47:09Z</time></trkpt><trkpt lat="43.902842874287664" lon="10.374981237205699"><ele>168.0</ele><time>2026-05-01T11:47:10Z</time></trkpt><trkpt lat="43.902790071500256" lon="10.375076533116163"><ele>168.0</ele><time>2026-05-01T11:47:11Z</time></trkpt><trkpt lat="43.90272716782325" lon="10.375157873833611"><ele>168.0</ele><time>2026-05-01T11:47:12Z</time></trkpt><trkpt lat="43.90266555303488" lon="10.375249540595137"><ele>168.0</ele><time>2026-05-01T11:47:13Z</time></trkpt><trkpt lat="43.90260766515086" lon="10.375338024593416"><ele>168.0</ele><time>2026-05-01T11:47:14Z</time></trkpt><trkpt lat="43.902530969389765" lon="10.375417048954896"><ele>168.0</ele><time>2026-05-01T11:47:15Z</time></trkpt><trkpt lat="43.90246398432596" lon="10.375492426903165"><ele>168.0</ele><time>2026-05-01T11:47:16Z</time></trkpt><trkpt lat="43.90239465244766" lon="10.375569166561023"><ele>168.0</ele><time>2026-05-01T11:47:17Z</time></trkpt><trkpt lat="43.90233376915717" lon="10.375652763985652"><ele>168.0</ele><time>2026-05-01T11:47:18Z</time></trkpt><trkpt lat="43.902274449251216" lon="10.37574314434706"><ele>166.83333333333334</ele><time>2026-05-01T11:47:19Z</time></trkpt><trkpt lat="43.90222477235642" lon="10.375834861519818"><ele>165.66666666666666</ele><time>2026-05-01T11:47:20Z</time></trkpt><trkpt lat="43.90217631567642" lon="10.375939781797314"><ele>164.5</ele><time>2026-05-01T11:47:21Z</time></trkpt><trkpt lat="43.902135172227084" lon="10.376043326173448"><ele>163.33333333333331</ele><time>2026-05-01T11:47:22Z</time></trkpt><trkpt lat="43.902102147721415" lon="10.376146039217497"><ele>162.16666666666666</ele><time>2026-05-01T11:47:23Z</time></trkpt><trkpt lat="43.9020758833509" lon="10.37624928408126"><ele>161.0</ele><time>2026-05-01T11:47:24Z</time></trkpt><trkpt lat="43.902051575376696" lon="10.376359685665864"><ele>161.0</ele><time>2026-05-01T11:47:25.001Z</time></trkpt><trkpt lat="43.90203027363443" lon="10.376472082219998"><ele>161.0</ele><time>2026-05-01T11:47:26.001Z</time></trkpt><trkpt lat="43.902019217548464" lon="10.376583675559479"><ele>161.0</ele><time>2026-05-01T11:47:27.001Z</time></trkpt><trkpt lat="43.90200909076998" lon="10.37669533238366"><ele>161.0</ele><time>2026-05-01T11:47:28.001Z</time></trkpt><trkpt lat="43.9019897149061" lon="10.376802409389327"><ele>161.0</ele><time>2026-05-01T11:47:29.001Z</time></trkpt><trkpt lat="43.90196694642419" lon="10.376913962084377"><ele>161.0</ele><time>2026-05-01T11:47:30.001Z</time></trkpt><trkpt lat="43.90194666608092" lon="10.377022839042096"><ele>161.0</ele><time>2026-05-01T11:47:31.001Z</time></trkpt><trkpt lat="43.90192736075847" lon="10.37712985048724"><ele>161.0</ele><time>2026-05-01T11:47:32.001Z</time></trkpt><trkpt lat="43.90190789656026" lon="10.37723783594148"><ele>161.0</ele><time>2026-05-01T11:47:33.001Z</time></trkpt><trkpt lat="43.90189622232381" lon="10.377341678002633"><ele>161.0</ele><time>2026-05-01T11:47:34.001Z</time></trkpt><trkpt lat="43.90187028049264" lon="10.37745542614919"><ele>161.0</ele><time>2026-05-01T11:47:35.001Z</time></trkpt><trkpt lat="43.90185587585661" lon="10.377555180569784"><ele>161.0</ele><time>2026-05-01T11:47:36.001Z</time></trkpt><trkpt lat="43.901835570528235" lon="10.377660646680582"><ele>160.16666666666666</ele><time>2026-05-01T11:47:37.001Z</time></trkpt><trkpt lat="43.90181245424225" lon="10.377775860226714"><ele>159.33333333333331</ele><time>2026-05-01T11:47:38.001Z</time></trkpt><trkpt lat="43.901793010902765" lon="10.377885372171033"><ele>158.5</ele><time>2026-05-01T11:47:39.001Z</time></trkpt><trkpt lat="43.90177964753962" lon="10.377999613632076"><ele>157.66666666666666</ele><time>2026-05-01T11:47:40.001Z</time></trkpt><trkpt lat="43.90175971274897" lon="10.378123235866479"><ele>156.83333333333334</ele><time>2026-05-01T11:47:41.001Z</time></trkpt><trkpt lat="43.9017349771523" lon="10.378229985614471"><ele>156.0</ele><time>2026-05-01T11:47:42.001Z</time></trkpt><trkpt lat="43.90172009479218" lon="10.378346502726645"><ele>153.16666666666666</ele><time>2026-05-01T11:47:43.001Z</time></trkpt><trkpt lat="43.90170328539138" lon="10.37846273565607"><ele>150.33333333333334</ele><time>2026-05-01T11:47:44.001Z</time></trkpt><trkpt lat="43.90168027792037" lon="10.378579243524396"><ele>147.5</ele><time>2026-05-01T11:47:45.001Z</time></trkpt><trkpt lat="43.90165169539671" lon="10.378703855686727"><ele>144.66666666666669</ele><time>2026-05-01T11:47:46.001Z</time></trkpt><trkpt lat="43.901636404316925" lon="10.378823558869398"><ele>141.83333333333334</ele><time>2026-05-01T11:47:47.001Z</time></trkpt><trkpt lat="43.9016190415405" lon="10.378942907935254"><ele>139.0</ele><time>2026-05-01T11:47:48.001Z</time></trkpt><trkpt lat="43.90159424018664" lon="10.379065256902223"><ele>138.4</ele><time>2026-05-01T11:47:49.001Z</time></trkpt><trkpt lat="43.90157769545203" lon="10.379187716215466"><ele>137.8</ele><time>2026-05-01T11:47:50.001Z</time></trkpt><trkpt lat="43.90155779182067" lon="10.379312944441185"><ele>137.2</ele><time>2026-05-01T11:47:51.001Z</time></trkpt><trkpt lat="43.90153168504611" lon="10.379436006546456"><ele>136.6</ele><time>2026-05-01T11:47:52.001Z</time></trkpt><trkpt lat="43.90151337479778" lon="10.379559804971077"><ele>136.0</ele><time>2026-05-01T11:47:53.001Z</time></trkpt><trkpt lat="43.90149502990802" lon="10.379683623985875"><ele>135.4</ele><time>2026-05-01T11:47:54.001Z</time></trkpt><trkpt lat="43.90147330539033" lon="10.379810092138749"><ele>134.8</ele><time>2026-05-01T11:47:55.001Z</time></trkpt><trkpt lat="43.90145134557876" lon="10.379935153311248"><ele>134.20000000000002</ele><time>2026-05-01T11:47:56.001Z</time></trkpt><trkpt lat="43.90142653461924" lon="10.380060631269659"><ele>133.6</ele><time>2026-05-01T11:47:57.001Z</time></trkpt><trkpt lat="43.90139705013436" lon="10.380182793605385"><ele>133.0</ele><time>2026-05-01T11:47:58.001Z</time></trkpt><trkpt lat="43.90136577201241" lon="10.380294763584853"><ele>133.0</ele><time>2026-05-01T11:47:59.001Z</time></trkpt><trkpt lat="43.90133118345999" lon="10.380416823104225"><ele>133.0</ele><time>2026-05-01T11:48:00.001Z</time></trkpt><trkpt lat="43.90129083539283" lon="10.380529562054694"><ele>133.0</ele><time>2026-05-01T11:48:01.001Z</time></trkpt><trkpt lat="43.90125204145743" lon="10.380645544447408"><ele>133.0</ele><time>2026-05-01T11:48:02.001Z</time></trkpt><trkpt lat="43.90121705089583" lon="10.38075925439921"><ele>133.0</ele><time>2026-05-01T11:48:03.001Z</time></trkpt><trkpt lat="43.901180423637555" lon="10.380876301202683"><ele>133.0</ele><time>2026-05-01T11:48:04.001Z</time></trkpt><trkpt lat="43.90114445745807" lon="10.380990848757904"><ele>133.0</ele><time>2026-05-01T11:48:05.001Z</time></trkpt><trkpt lat="43.90110533258782" lon="10.381095925310355"><ele>133.0</ele><time>2026-05-01T11:48:06.001Z</time></trkpt><trkpt lat="43.90106838307153" lon="10.381221004965568"><ele>133.0</ele><time>2026-05-01T11:48:07.001Z</time></trkpt><trkpt lat="43.901035235631" lon="10.381329633037769"><ele>133.0</ele><time>2026-05-01T11:48:08.001Z</time></trkpt><trkpt lat="43.90100098416014" lon="10.381443256133739"><ele>133.0</ele><time>2026-05-01T11:48:09.001Z</time></trkpt><trkpt lat="43.90096816526704" lon="10.381555239786419"><ele>133.33333333333334</ele><time>2026-05-01T11:48:10.001Z</time></trkpt><trkpt lat="43.90093529619829" lon="10.381666840718871"><ele>133.66666666666669</ele><time>2026-05-01T11:48:11.001Z</time></trkpt><trkpt lat="43.90089904602723" lon="10.381780617271477"><ele>134.0</ele><time>2026-05-01T11:48:12.001Z</time></trkpt><trkpt lat="43.900864140208235" lon="10.381893866015181"><ele>134.33333333333334</ele><time>2026-05-01T11:48:13.001Z</time></trkpt><trkpt lat="43.900829293384874" lon="10.382006138350429"><ele>134.66666666666666</ele><time>2026-05-01T11:48:14.001Z</time></trkpt><trkpt lat="43.90079290443756" lon="10.382117886325046"><ele>135.0</ele><time>2026-05-01T11:48:15.001Z</time></trkpt><trkpt lat="43.900755289545934" lon="10.38222701249595"><ele>133.5</ele><time>2026-05-01T11:48:16.001Z</time></trkpt><trkpt lat="43.90072047518934" lon="10.382328903705941"><ele>132.0</ele><time>2026-05-01T11:48:17.001Z</time></trkpt><trkpt lat="43.90068779713316" lon="10.382425046747766"><ele>130.5</ele><time>2026-05-01T11:48:18.001Z</time></trkpt><trkpt lat="43.90065484292969" lon="10.382545117536944"><ele>129.0</ele><time>2026-05-01T11:48:19.001Z</time></trkpt><trkpt lat="43.900618912588214" lon="10.382648876891746"><ele>127.5</ele><time>2026-05-01T11:48:20.001Z</time></trkpt><trkpt lat="43.900583574675366" lon="10.382750677303092"><ele>126.0</ele><time>2026-05-01T11:48:21.001Z</time></trkpt><trkpt lat="43.90055200773593" lon="10.382862321508075"><ele>126.0</ele><time>2026-05-01T11:48:22.001Z</time></trkpt><trkpt lat="43.90051843701267" lon="10.382965529181446"><ele>126.0</ele><time>2026-05-01T11:48:23.001Z</time></trkpt><trkpt lat="43.90048675351526" lon="10.383072930848725"><ele>126.0</ele><time>2026-05-01T11:48:24.001Z</time></trkpt><trkpt lat="43.90046170004038" lon="10.383174351722532"><ele>126.0</ele><time>2026-05-01T11:48:25.001Z</time></trkpt><trkpt lat="43.900436512613986" lon="10.383282990031342"><ele>126.0</ele><time>2026-05-01T11:48:26.001Z</time></trkpt><trkpt lat="43.90041667996695" lon="10.383375692520271"><ele>126.0</ele><time>2026-05-01T11:48:27.001Z</time></trkpt><trkpt lat="43.90038972024719" lon="10.383492501496603"><ele>126.0</ele><time>2026-05-01T11:48:28.001Z</time></trkpt><trkpt lat="43.90036313891228" lon="10.383604629214188"><ele>126.0</ele><time>2026-05-01T11:48:29.001Z</time></trkpt><trkpt lat="43.90033653314181" lon="10.383712524630523"><ele>126.0</ele><time>2026-05-01T11:48:30.001Z</time></trkpt><trkpt lat="43.90031022474546" lon="10.383821796198262"><ele>126.0</ele><time>2026-05-01T11:48:31.001Z</time></trkpt><trkpt lat="43.900284572862" lon="10.383931890793244"><ele>126.0</ele><time>2026-05-01T11:48:32Z</time></trkpt><trkpt lat="43.90025827614077" lon="10.384036015502977"><ele>126.0</ele><time>2026-05-01T11:48:33Z</time></trkpt><trkpt lat="43.900234873761086" lon="10.384147833911674"><ele>126.16666666666667</ele><time>2026-05-01T11:48:34Z</time></trkpt><trkpt lat="43.900206239882905" lon="10.38425568403314"><ele>126.33333333333334</ele><time>2026-05-01T11:48:35Z</time></trkpt><trkpt lat="43.90017875182593" lon="10.384361329434116"><ele>126.5</ele><time>2026-05-01T11:48:36Z</time></trkpt><trkpt lat="43.900150662165125" lon="10.384468210144046"><ele>126.66666666666667</ele><time>2026-05-01T11:48:37Z</time></trkpt><trkpt lat="43.9001252821676" lon="10.384571967405119"><ele>126.83333333333334</ele><time>2026-05-01T11:48:38Z</time></trkpt><trkpt lat="43.900098338412526" lon="10.384678096878242"><ele>127.0</ele><time>2026-05-01T11:48:39Z</time></trkpt><trkpt lat="43.90007190058412" lon="10.384784121552425"><ele>126.00000000000001</ele><time>2026-05-01T11:48:40Z</time></trkpt><trkpt lat="43.90004279008353" lon="10.384892494020551"><ele>125.0</ele><time>2026-05-01T11:48:41Z</time></trkpt><trkpt lat="43.900016968711824" lon="10.384998106289755"><ele>124.0</ele><time>2026-05-01T11:48:42Z</time></trkpt><trkpt lat="43.899990584493345" lon="10.385104603737734"><ele>123.0</ele><time>2026-05-01T11:48:43Z</time></trkpt><trkpt lat="43.899965325224414" lon="10.385206214220217"><ele>122.00000000000001</ele><time>2026-05-01T11:48:44Z</time></trkpt><trkpt lat="43.899939309962214" lon="10.385312760312766"><ele>121.0</ele><time>2026-05-01T11:48:45Z</time></trkpt><trkpt lat="43.899915179979004" lon="10.385419217964147"><ele>121.16666666666667</ele><time>2026-05-01T11:48:46Z</time></trkpt><trkpt lat="43.89988820480719" lon="10.385517745402488"><ele>121.33333333333334</ele><time>2026-05-01T11:48:47Z</time></trkpt><trkpt lat="43.89986794653392" lon="10.385617045385507"><ele>121.5</ele><time>2026-05-01T11:48:48Z</time></trkpt><trkpt lat="43.89984368609009" lon="10.385719405154907"><ele>121.66666666666666</ele><time>2026-05-01T11:48:49Z</time></trkpt><trkpt lat="43.89981517881216" lon="10.385816738295679"><ele>121.83333333333333</ele><time>2026-05-01T11:48:50Z</time></trkpt><trkpt lat="43.899789137225454" lon="10.385914586217948"><ele>122.0</ele><time>2026-05-01T11:48:51Z</time></trkpt><trkpt lat="43.89976564317734" lon="10.386010885002907"><ele>121.99999999999999</ele><time>2026-05-01T11:48:52Z</time></trkpt><trkpt lat="43.8997413002475" lon="10.386108012823323"><ele>122.0</ele><time>2026-05-01T11:48:53Z</time></trkpt><trkpt lat="43.899717623460006" lon="10.386204349601364"><ele>121.99999999999999</ele><time>2026-05-01T11:48:54Z</time></trkpt><trkpt lat="43.8996957880028" lon="10.386304084597526"><ele>121.99999999999999</ele><time>2026-05-01T11:48:55Z</time></trkpt><trkpt lat="43.89967237405336" lon="10.386398256031864"><ele>122.0</ele><time>2026-05-01T11:48:56Z</time></trkpt><trkpt lat="43.8996482958172" lon="10.386495132477574"><ele>121.99999999999999</ele><time>2026-05-01T11:48:57Z</time></trkpt><trkpt lat="43.89962523495887" lon="10.38659169758698"><ele>121.99999999999999</ele><time>2026-05-01T11:48:58Z</time></trkpt><trkpt lat="43.89960068250149" lon="10.386683469059976"><ele>121.7142857142857</ele><time>2026-05-01T11:48:59Z</time></trkpt><trkpt lat="43.89957124409197" lon="10.386771901963364"><ele>121.42857142857142</ele><time>2026-05-01T11:49:00Z</time></trkpt><trkpt lat="43.89954023334053" lon="10.386867781187757"><ele>121.14285714285714</ele><time>2026-05-01T11:49:01Z</time></trkpt><trkpt lat="43.89951244878594" lon="10.386954833573231"><ele>120.85714285714285</ele><time>2026-05-01T11:49:02Z</time></trkpt><trkpt lat="43.899459749399604" lon="10.387040608914461"><ele>120.57142857142856</ele><time>2026-05-01T11:49:03Z</time></trkpt><trkpt lat="43.899421199403086" lon="10.387126216830671"><ele>120.28571428571429</ele><time>2026-05-01T11:49:04Z</time></trkpt><trkpt lat="43.89938111799714" lon="10.38721490456779"><ele>120.0</ele><time>2026-05-01T11:49:05Z</time></trkpt><trkpt lat="43.899341925548235" lon="10.38730231693516"><ele>120.0</ele><time>2026-05-01T11:49:06Z</time></trkpt><trkpt lat="43.89930412839494" lon="10.387390806836125"><ele>120.0</ele><time>2026-05-01T11:49:07Z</time></trkpt><trkpt lat="43.89926576564283" lon="10.387479262778843"><ele>120.0</ele><time>2026-05-01T11:49:08Z</time></trkpt><trkpt lat="43.89922994673419" lon="10.387566731778216"><ele>120.0</ele><time>2026-05-01T11:49:09Z</time></trkpt><trkpt lat="43.89919374062287" lon="10.387653878303523"><ele>120.0</ele><time>2026-05-01T11:49:10Z</time></trkpt><trkpt lat="43.89915837360888" lon="10.387742250771467"><ele>120.0</ele><time>2026-05-01T11:49:11Z</time></trkpt><trkpt lat="43.89912260673061" lon="10.38782897105519"><ele>120.0</ele><time>2026-05-01T11:49:12Z</time></trkpt><trkpt lat="43.899078992031086" lon="10.387915063966837"><ele>119.71428571428572</ele><time>2026-05-01T11:49:13Z</time></trkpt><trkpt lat="43.89904583047852" lon="10.387996330704318"><ele>119.42857142857142</ele><time>2026-05-01T11:49:14Z</time></trkpt><trkpt lat="43.899012925187414" lon="10.388078172343521"><ele>119.14285714285714</ele><time>2026-05-01T11:49:15Z</time></trkpt><trkpt lat="43.8989780368222" lon="10.38816127012017"><ele>118.85714285714286</ele><time>2026-05-01T11:49:16Z</time></trkpt><trkpt lat="43.898940871703594" lon="10.388244673905696"><ele>118.57142857142858</ele><time>2026-05-01T11:49:17Z</time></trkpt><trkpt lat="43.89890306530532" lon="10.38832652819191"><ele>118.28571428571428</ele><time>2026-05-01T11:49:18Z</time></trkpt><trkpt lat="43.89886517917135" lon="10.388412989545854"><ele>118.0</ele><time>2026-05-01T11:49:19Z</time></trkpt><trkpt lat="43.898834389674484" lon="10.388495599753709"><ele>118.0</ele><time>2026-05-01T11:49:20Z</time></trkpt><trkpt lat="43.898798560108176" lon="10.388573917872357"><ele>118.0</ele><time>2026-05-01T11:49:21Z</time></trkpt><trkpt lat="43.89877202811959" lon="10.388662998691021"><ele>118.0</ele><time>2026-05-01T11:49:22Z</time></trkpt><trkpt lat="43.89874176595181" lon="10.388754657163739"><ele>118.0</ele><time>2026-05-01T11:49:23.001Z</time></trkpt><trkpt lat="43.89871549967239" lon="10.38884242063791"><ele>118.0</ele><time>2026-05-01T11:49:24.001Z</time></trkpt><trkpt lat="43.8986913993105" lon="10.388934704472257"><ele>118.0</ele><time>2026-05-01T11:49:25.001Z</time></trkpt><trkpt lat="43.898674567070834" lon="10.389025588606247"><ele>118.0</ele><time>2026-05-01T11:49:26.001Z</time></trkpt><trkpt lat="43.89866454812105" lon="10.389121859962685"><ele>117.83333333333334</ele><time>2026-05-01T11:49:27.001Z</time></trkpt><trkpt lat="43.89865627842562" lon="10.389222809543261"><ele>117.66666666666667</ele><time>2026-05-01T11:49:28.001Z</time></trkpt><trkpt lat="43.89865068209648" lon="10.389327821486543"><ele>117.5</ele><time>2026-05-01T11:49:29.001Z</time></trkpt><trkpt lat="43.898642762314736" lon="10.38943389106498"><ele>117.33333333333334</ele><time>2026-05-01T11:49:30.001Z</time></trkpt><trkpt lat="43.89863559555281" lon="10.38953697796856"><ele>117.16666666666667</ele><time>2026-05-01T11:49:31.001Z</time></trkpt><trkpt lat="43.898631850479674" lon="10.389641832848312"><ele>117.0</ele><time>2026-05-01T11:49:32.001Z</time></trkpt><trkpt lat="43.89862410094221" lon="10.389745204655288"><ele>116.42857142857143</ele><time>2026-05-01T11:49:33.001Z</time></trkpt><trkpt lat="43.89861751799042" lon="10.389846908195628"><ele>115.85714285714286</ele><time>2026-05-01T11:49:34.001Z</time></trkpt><trkpt lat="43.89861306531831" lon="10.389947639074911"><ele>115.28571428571429</ele><time>2026-05-01T11:49:35.001Z</time></trkpt><trkpt lat="43.898608724317015" lon="10.390049065721103"><ele>114.71428571428572</ele><time>2026-05-01T11:49:36.001Z</time></trkpt><trkpt lat="43.898601970496046" lon="10.390153041626503"><ele>114.14285714285714</ele><time>2026-05-01T11:49:37.001Z</time></trkpt><trkpt lat="43.898590983182224" lon="10.390253074654076"><ele>113.57142857142858</ele><time>2026-05-01T11:49:38.001Z</time></trkpt><trkpt lat="43.898588492380746" lon="10.390348859882387"><ele>113.0</ele><time>2026-05-01T11:49:39.001Z</time></trkpt><trkpt lat="43.89858467261075" lon="10.390451729352561"><ele>112.85714285714286</ele><time>2026-05-01T11:49:40.001Z</time></trkpt><trkpt lat="43.89858063873151" lon="10.390552457424533"><ele>112.71428571428571</ele><time>2026-05-01T11:49:41.001Z</time></trkpt><trkpt lat="43.89858174017403" lon="10.390653389274869"><ele>112.57142857142857</ele><time>2026-05-01T11:49:42.001Z</time></trkpt><trkpt lat="43.89858121610372" lon="10.3907534239814"><ele>112.42857142857143</ele><time>2026-05-01T11:49:43.001Z</time></trkpt><trkpt lat="43.89858410791231" lon="10.390847005529157"><ele>112.28571428571428</ele><time>2026-05-01T11:49:44.001Z</time></trkpt><trkpt lat="43.89858695125517" lon="10.390950680568084"><ele>112.14285714285714</ele><time>2026-05-01T11:49:45.001Z</time></trkpt><trkpt lat="43.898588844804266" lon="10.391050266798201"><ele>112.0</ele><time>2026-05-01T11:49:46.001Z</time></trkpt><trkpt lat="43.8985907611396" lon="10.391150793934123"><ele>112.0</ele><time>2026-05-01T11:49:47.001Z</time></trkpt><trkpt lat="43.89859153798658" lon="10.391251475248634"><ele>112.0</ele><time>2026-05-01T11:49:48.001Z</time></trkpt><trkpt lat="43.8985894270817" lon="10.391351016997026"><ele>112.0</ele><time>2026-05-01T11:49:49.001Z</time></trkpt><trkpt lat="43.89859083357067" lon="10.39144769265265"><ele>112.0</ele><time>2026-05-01T11:49:50.001Z</time></trkpt><trkpt lat="43.89859254118484" lon="10.391545812391513"><ele>112.0</ele><time>2026-05-01T11:49:51.001Z</time></trkpt><trkpt lat="43.89859510094344" lon="10.391648518208237"><ele>112.0</ele><time>2026-05-01T11:49:52.001Z</time></trkpt><trkpt lat="43.89860131830971" lon="10.391742016160807"><ele>112.0</ele><time>2026-05-01T11:49:53.001Z</time></trkpt><trkpt lat="43.898605766704094" lon="10.391840351144944"><ele>112.0</ele><time>2026-05-01T11:49:54.001Z</time></trkpt><trkpt lat="43.89860923737669" lon="10.39194324277115"><ele>112.0</ele><time>2026-05-01T11:49:55.001Z</time></trkpt><trkpt lat="43.89861364297146" lon="10.392045287953723"><ele>112.0</ele><time>2026-05-01T11:49:56.001Z</time></trkpt><trkpt lat="43.89862112623339" lon="10.392145139142142"><ele>112.0</ele><time>2026-05-01T11:49:57.001Z</time></trkpt><trkpt lat="43.89862565906596" lon="10.392244701295072"><ele>112.0</ele><time>2026-05-01T11:49:58.001Z</time></trkpt><trkpt lat="43.898632307769375" lon="10.392340155132436"><ele>112.0</ele><time>2026-05-01T11:49:59.001Z</time></trkpt><trkpt lat="43.89863948556427" lon="10.392433916433271"><ele>112.0</ele><time>2026-05-01T11:50:00.001Z</time></trkpt><trkpt lat="43.8986487818151" lon="10.392524260226326"><ele>112.0</ele><time>2026-05-01T11:50:01.001Z</time></trkpt><trkpt lat="43.89865827185309" lon="10.392675765869985"><ele>111.99999999999999</ele><time>2026-05-01T11:50:03.001Z</time></trkpt><trkpt lat="43.89866731058822" lon="10.392764123144183"><ele>111.99999999999999</ele><time>2026-05-01T11:50:04.001Z</time></trkpt><trkpt lat="43.89865143577828" lon="10.392856047412572"><ele>112.0</ele><time>2026-05-01T11:50:06.001Z</time></trkpt><trkpt lat="43.898502327074894" lon="10.392868366543247"><ele>112.0</ele><time>2026-05-01T11:50:11.001Z</time></trkpt><trkpt lat="43.89843606117592" lon="10.392880809133391"><ele>112.16666666666667</ele><time>2026-05-01T11:50:13.001Z</time></trkpt><trkpt lat="43.89837232632781" lon="10.39289719267275"><ele>112.33333333333334</ele><time>2026-05-01T11:50:15.001Z</time></trkpt><trkpt lat="43.89830183932935" lon="10.392915997308965"><ele>112.5</ele><time>2026-05-01T11:50:50Z</time></trkpt><trkpt lat="43.89822813893392" lon="10.392904576752457"><ele>112.66666666666666</ele><time>2026-05-01T11:50:54Z</time></trkpt><trkpt lat="43.8981488282342" lon="10.392912187494854"><ele>112.83333333333333</ele><time>2026-05-01T11:50:57Z</time></trkpt><trkpt lat="43.89806774528916" lon="10.392914492904728"><ele>113.0</ele><time>2026-05-01T11:50:59Z</time></trkpt><trkpt lat="43.897988241306464" lon="10.3929125904762"><ele>113.0</ele><time>2026-05-01T11:51:01Z</time></trkpt><trkpt lat="43.897900082427114" lon="10.392907033896293"><ele>113.00000000000001</ele><time>2026-05-01T11:51:03Z</time></trkpt><trkpt lat="43.8978047896031" lon="10.392901575440634"><ele>113.00000000000001</ele><time>2026-05-01T11:51:05Z</time></trkpt><trkpt lat="43.89769800208563" lon="10.392893696701098"><ele>113.0</ele><time>2026-05-01T11:51:07Z</time></trkpt><trkpt lat="43.89759841004513" lon="10.392901369171236"><ele>113.0</ele><time>2026-05-01T11:51:09Z</time></trkpt><trkpt lat="43.897502822663114" lon="10.39289057091376"><ele>114.2</ele><time>2026-05-01T11:51:11Z</time></trkpt><trkpt lat="43.897407299286044" lon="10.392880418220079"><ele>115.4</ele><time>2026-05-01T11:51:13Z</time></trkpt><trkpt lat="43.89731170928643" lon="10.39286273914628"><ele>116.60000000000001</ele><time>2026-05-01T11:51:15Z</time></trkpt><trkpt lat="43.89721439998808" lon="10.392866395850469"><ele>117.80000000000001</ele><time>2026-05-01T11:51:17Z</time></trkpt><trkpt lat="43.897111305362365" lon="10.39287079135767"><ele>119.0</ele><time>2026-05-01T11:51:19Z</time></trkpt><trkpt lat="43.89701020602478" lon="10.39287198766542"><ele>119.0</ele><time>2026-05-01T11:51:21Z</time></trkpt><trkpt lat="43.896909257804374" lon="10.392880859226112"><ele>119.0</ele><time>2026-05-01T11:51:23Z</time></trkpt><trkpt lat="43.89680574650687" lon="10.392888275981601"><ele>119.0</ele><time>2026-05-01T11:51:25Z</time></trkpt><trkpt lat="43.896711261379394" lon="10.392925645101469"><ele>119.0</ele><time>2026-05-01T11:51:27.001Z</time></trkpt><trkpt lat="43.89663524665844" lon="10.393002186681963"><ele>119.0</ele><time>2026-05-01T11:51:29.001Z</time></trkpt><trkpt lat="43.896594025414515" lon="10.393090573297693"><ele>121.16666666666666</ele><time>2026-05-01T11:51:31.001Z</time></trkpt><trkpt lat="43.89656262175279" lon="10.393234180823193"><ele>123.33333333333333</ele><time>2026-05-01T11:51:33.001Z</time></trkpt><trkpt lat="43.89656624834977" lon="10.39335674261101"><ele>125.5</ele><time>2026-05-01T11:51:35.001Z</time></trkpt><trkpt lat="43.89657329274066" lon="10.39346548621977"><ele>127.66666666666666</ele><time>2026-05-01T11:51:37.001Z</time></trkpt><trkpt lat="43.89658134192019" lon="10.393570922829518"><ele>129.83333333333334</ele><time>2026-05-01T11:51:40.001Z</time></trkpt><trkpt lat="43.89658958948366" lon="10.393678958216451"><ele>132.0</ele><time>2026-05-01T11:51:41.001Z</time></trkpt><trkpt lat="43.89660036934819" lon="10.393820162039392"><ele>132.83333333333334</ele><time>2026-05-01T11:51:43.001Z</time></trkpt><trkpt lat="43.896612762051376" lon="10.39395822645325"><ele>133.66666666666666</ele><time>2026-05-01T11:51:45.001Z</time></trkpt><trkpt lat="43.8966747899163" lon="10.394022571032291"><ele>134.5</ele><time>2026-05-01T11:51:46.001Z</time></trkpt><trkpt lat="43.89666571018679" lon="10.394140179022319"><ele>135.33333333333331</ele><time>2026-05-01T11:51:48.001Z</time></trkpt><trkpt lat="43.89662505022862" lon="10.394237105770985"><ele>136.16666666666666</ele><time>2026-05-01T11:51:50.001Z</time></trkpt><trkpt lat="43.896636372318206" lon="10.394352315079429"><ele>137.0</ele><time>2026-05-01T11:51:52.001Z</time></trkpt><trkpt lat="43.89659970901198" lon="10.394502922001"><ele>137.0</ele><time>2026-05-01T11:51:54.001Z</time></trkpt><trkpt lat="43.89657644479317" lon="10.394620562746384"><ele>137.0</ele><time>2026-05-01T11:51:56.001Z</time></trkpt><trkpt lat="43.89655203268569" lon="10.394741427976856"><ele>137.0</ele><time>2026-05-01T11:51:58.001Z</time></trkpt><trkpt lat="43.896535422110645" lon="10.394843969393019"><ele>137.0</ele><time>2026-05-01T11:52:00.001Z</time></trkpt><trkpt lat="43.8965415330094" lon="10.394957440477588"><ele>137.0</ele><time>2026-05-01T11:52:02.001Z</time></trkpt><trkpt lat="43.89652949037479" lon="10.39504734367267"><ele>137.0</ele><time>2026-05-01T11:52:04.001Z</time></trkpt><trkpt lat="43.89650453589057" lon="10.39517083908532"><ele>137.0</ele><time>2026-05-01T11:52:06.001Z</time></trkpt><trkpt lat="43.89645901052418" lon="10.395292506183528"><ele>137.0</ele><time>2026-05-01T11:52:08.001Z</time></trkpt><trkpt lat="43.896403179611546" lon="10.395400935767261"><ele>137.0</ele><time>2026-05-01T11:52:11.001Z</time></trkpt><trkpt lat="43.896416569985725" lon="10.395300672409808"><ele>137.0</ele><time>2026-05-01T11:52:15.001Z</time></trkpt><trkpt lat="43.896383049404726" lon="10.395091056591273"><ele>137.0</ele><time>2026-05-01T11:52:18.001Z</time></trkpt><trkpt lat="43.89635272743526" lon="10.394984436334427"><ele>137.0</ele><time>2026-05-01T11:52:20.001Z</time></trkpt><trkpt lat="43.896337899276496" lon="10.394893678835082"><ele>137.0</ele><time>2026-05-01T11:52:22.001Z</time></trkpt><trkpt lat="43.896322842299874" lon="10.394794271604228"><ele>137.0</ele><time>2026-05-01T11:52:24.001Z</time></trkpt><trkpt lat="43.89632595396389" lon="10.394676427078387"><ele>137.0</ele><time>2026-05-01T11:52:26.001Z</time></trkpt><trkpt lat="43.896381719595034" lon="10.39455651870939"><ele>137.0</ele><time>2026-05-01T11:52:28.001Z</time></trkpt><trkpt lat="43.896418381927084" lon="10.394443993926554"><ele>137.0</ele><time>2026-05-01T11:52:30.001Z</time></trkpt><trkpt lat="43.89643330700499" lon="10.394323953902282"><ele>137.0</ele><time>2026-05-01T11:52:32.001Z</time></trkpt><trkpt lat="43.89641407199246" lon="10.394215956119469"><ele>137.0</ele><time>2026-05-01T11:52:34.001Z</time></trkpt><trkpt lat="43.89638259235739" lon="10.394119906098638"><ele>137.0</ele><time>2026-05-01T11:52:36.001Z</time></trkpt><trkpt lat="43.89632192096367" lon="10.394020572702024"><ele>137.0</ele><time>2026-05-01T11:52:38.001Z</time></trkpt><trkpt lat="43.89626510141999" lon="10.393951116035044"><ele>137.0</ele><time>2026-05-01T11:52:40.001Z</time></trkpt><trkpt lat="43.8961673873566" lon="10.393910231369315"><ele>137.0</ele><time>2026-05-01T11:52:42.001Z</time></trkpt><trkpt lat="43.89607311002179" lon="10.393899473497727"><ele>136.16666666666666</ele><time>2026-05-01T11:52:44Z</time></trkpt><trkpt lat="43.89598895320797" lon="10.393837452712686"><ele>135.33333333333331</ele><time>2026-05-01T11:52:47Z</time></trkpt><trkpt lat="43.89593039195034" lon="10.393777743911485"><ele>134.5</ele><time>2026-05-01T11:52:49Z</time></trkpt><trkpt lat="43.8958642106834" lon="10.393705167879153"><ele>133.66666666666666</ele><time>2026-05-01T11:52:51Z</time></trkpt><trkpt lat="43.895788920410524" lon="10.393649623392722"><ele>132.83333333333334</ele><time>2026-05-01T11:52:53Z</time></trkpt><trkpt lat="43.89572976462298" lon="10.393560723713042"><ele>132.0</ele><time>2026-05-01T11:52:55Z</time></trkpt><trkpt lat="43.89566506480185" lon="10.39349761782581"><ele>135.0</ele><time>2026-05-01T11:52:57Z</time></trkpt><trkpt lat="43.895585817106934" lon="10.393445316143406"><ele>138.0</ele><time>2026-05-01T11:52:59Z</time></trkpt><trkpt lat="43.89549716795959" lon="10.39346672892254"><ele>141.0</ele><time>2026-05-01T11:53:01Z</time></trkpt><trkpt lat="43.895415797829905" lon="10.39343577937414"><ele>144.0</ele><time>2026-05-01T11:53:03Z</time></trkpt><trkpt lat="43.8953448524347" lon="10.393399403585418"><ele>147.0</ele><time>2026-05-01T11:53:05Z</time></trkpt><trkpt lat="43.895292289818876" lon="10.393301784610767"><ele>150.0</ele><time>2026-05-01T11:53:07Z</time></trkpt><trkpt lat="43.89523447670396" lon="10.39323017483686"><ele>150.0</ele><time>2026-05-01T11:53:09Z</time></trkpt><trkpt lat="43.89517331822942" lon="10.393169003803408"><ele>150.0</ele><time>2026-05-01T11:53:11Z</time></trkpt><trkpt lat="43.89507469152067" lon="10.39315636925528"><ele>150.0</ele><time>2026-05-01T11:53:13Z</time></trkpt><trkpt lat="43.89499788934845" lon="10.393144768082268"><ele>150.0</ele><time>2026-05-01T11:53:15Z</time></trkpt><trkpt lat="43.89492524368609" lon="10.393125954117684"><ele>150.0</ele><time>2026-05-01T11:53:17Z</time></trkpt><trkpt lat="43.89484321224233" lon="10.393103676755132"><ele>150.0</ele><time>2026-05-01T11:53:19Z</time></trkpt><trkpt lat="43.894729526129474" lon="10.393136270386744"><ele>153.83333333333334</ele><time>2026-05-01T11:53:21Z</time></trkpt><trkpt lat="43.89466478897574" lon="10.393200284347323"><ele>157.66666666666666</ele><time>2026-05-01T11:53:23Z</time></trkpt><trkpt lat="43.89457616162204" lon="10.393237759226851"><ele>161.5</ele><time>2026-05-01T11:53:26Z</time></trkpt><trkpt lat="43.89449689912333" lon="10.393232102169836"><ele>165.33333333333331</ele><time>2026-05-01T11:53:28Z</time></trkpt><trkpt lat="43.894397519519295" lon="10.393218889659154"><ele>169.16666666666666</ele><time>2026-05-01T11:53:30Z</time></trkpt><trkpt lat="43.894308884516434" lon="10.393210467335177"><ele>173.0</ele><time>2026-05-01T11:53:32Z</time></trkpt><trkpt lat="43.894214483338594" lon="10.39319476070387"><ele>174.4</ele><time>2026-05-01T11:53:34Z</time></trkpt><trkpt lat="43.89413122643042" lon="10.393180565104513"><ele>175.8</ele><time>2026-05-01T11:53:36.001Z</time></trkpt><trkpt lat="43.894037814189915" lon="10.393183663127056"><ele>177.2</ele><time>2026-05-01T11:53:38.001Z</time></trkpt><trkpt lat="43.8939481999742" lon="10.393202081655724"><ele>178.6</ele><time>2026-05-01T11:53:40.001Z</time></trkpt><trkpt lat="43.8938437652323" lon="10.393267762592135"><ele>180.0</ele><time>2026-05-01T11:53:42.001Z</time></trkpt><trkpt lat="43.893775499473996" lon="10.3933776719786"><ele>180.0</ele><time>2026-05-01T11:53:44.001Z</time></trkpt><trkpt lat="43.89373933543187" lon="10.393480880092355"><ele>180.0</ele><time>2026-05-01T11:53:46.001Z</time></trkpt><trkpt lat="43.89364959779375" lon="10.393551570334084"><ele>180.0</ele><time>2026-05-01T11:53:48.001Z</time></trkpt><trkpt lat="43.89356166968342" lon="10.393558564069725"><ele>180.0</ele><time>2026-05-01T11:53:50.001Z</time></trkpt><trkpt lat="43.89346746589452" lon="10.393578043410887"><ele>180.0</ele><time>2026-05-01T11:53:52.001Z</time></trkpt><trkpt lat="43.89339545451536" lon="10.393651705313424"><ele>179.5</ele><time>2026-05-01T11:53:54.001Z</time></trkpt><trkpt lat="43.893336488518194" lon="10.393726331097357"><ele>179.0</ele><time>2026-05-01T11:53:56.001Z</time></trkpt><trkpt lat="43.89325898319086" lon="10.393811857829478"><ele>178.5</ele><time>2026-05-01T11:53:58.001Z</time></trkpt><trkpt lat="43.89318514910205" lon="10.393881530326663"><ele>178.0</ele><time>2026-05-01T11:54:00.001Z</time></trkpt><trkpt lat="43.89311574464796" lon="10.393943299806972"><ele>177.5</ele><time>2026-05-01T11:54:02.001Z</time></trkpt><trkpt lat="43.89305312965374" lon="10.393995317500659"><ele>177.0</ele><time>2026-05-01T11:54:04.001Z</time></trkpt><trkpt lat="43.892971798281636" lon="10.394055347651166"><ele>177.0</ele><time>2026-05-01T11:54:06.001Z</time></trkpt><trkpt lat="43.892894578263736" lon="10.394050747062744"><ele>177.0</ele><time>2026-05-01T11:54:08.001Z</time></trkpt><trkpt lat="43.89282200869025" lon="10.393996697491799"><ele>177.0</ele><time>2026-05-01T11:54:10.001Z</time></trkpt><trkpt lat="43.89276722012431" lon="10.39394042767893"><ele>177.0</ele><time>2026-05-01T11:54:12.001Z</time></trkpt><trkpt lat="43.89275101644563" lon="10.393839474264025"><ele>177.0</ele><time>2026-05-01T11:54:14.001Z</time></trkpt><trkpt lat="43.892772262002886" lon="10.393721905225396"><ele>177.0</ele><time>2026-05-01T11:54:16.001Z</time></trkpt><trkpt lat="43.89278846216472" lon="10.393617444680626"><ele>177.0</ele><time>2026-05-01T11:54:18.001Z</time></trkpt><trkpt lat="43.89272565346944" lon="10.393524912405523"><ele>177.0</ele><time>2026-05-01T11:54:20.001Z</time></trkpt><trkpt lat="43.89261306517235" lon="10.393559222360947"><ele>177.0</ele><time>2026-05-01T11:54:22.001Z</time></trkpt><trkpt lat="43.892525242544934" lon="10.3935664703714"><ele>177.0</ele><time>2026-05-01T11:54:24.001Z</time></trkpt><trkpt lat="43.892447521077706" lon="10.393608384646118"><ele>177.0</ele><time>2026-05-01T11:54:26.001Z</time></trkpt><trkpt lat="43.8923628703647" lon="10.393666243856785"><ele>179.39999999999998</ele><time>2026-05-01T11:54:29.001Z</time></trkpt><trkpt lat="43.89228959908023" lon="10.393664552258203"><ele>181.79999999999998</ele><time>2026-05-01T11:54:32.001Z</time></trkpt><trkpt lat="43.89219734792841" lon="10.393553798941715"><ele>184.2</ele><time>2026-05-01T11:54:34.001Z</time></trkpt><trkpt lat="43.892134118704575" lon="10.393434435442977"><ele>186.6</ele><time>2026-05-01T11:54:36.001Z</time></trkpt><trkpt lat="43.8920637694211" lon="10.393297097047563"><ele>189.0</ele><time>2026-05-01T11:54:38.001Z</time></trkpt><trkpt lat="43.891986878057665" lon="10.393175506066562"><ele>189.0</ele><time>2026-05-01T11:54:40.001Z</time></trkpt><trkpt lat="43.891897667642596" lon="10.393066988144128"><ele>189.0</ele><time>2026-05-01T11:54:42.001Z</time></trkpt><trkpt lat="43.89183073530654" lon="10.393038817172842"><ele>189.0</ele><time>2026-05-01T11:54:43.001Z</time></trkpt><trkpt lat="43.891756449220416" lon="10.39304218208219"><ele>189.0</ele><time>2026-05-01T11:54:44.001Z</time></trkpt><trkpt lat="43.89169260774644" lon="10.393058399686314"><ele>189.0</ele><time>2026-05-01T11:54:45.001Z</time></trkpt><trkpt lat="43.891610944145214" lon="10.393083679667502"><ele>189.0</ele><time>2026-05-01T11:54:47.001Z</time></trkpt><trkpt lat="43.89154104712849" lon="10.393049362597997"><ele>189.33333333333334</ele><time>2026-05-01T11:54:50Z</time></trkpt><trkpt lat="43.89148191401921" lon="10.392978273048083"><ele>189.66666666666666</ele><time>2026-05-01T11:54:52Z</time></trkpt><trkpt lat="43.89142504591054" lon="10.392901189330233"><ele>190.0</ele><time>2026-05-01T11:54:54Z</time></trkpt><trkpt lat="43.89136724243761" lon="10.392801619059608"><ele>190.33333333333331</ele><time>2026-05-01T11:54:56Z</time></trkpt><trkpt lat="43.891327211487585" lon="10.392681521027056"><ele>190.66666666666666</ele><time>2026-05-01T11:54:59Z</time></trkpt><trkpt lat="43.89133303844905" lon="10.392592883356109"><ele>191.0</ele><time>2026-05-01T11:55:02Z</time></trkpt><trkpt lat="43.89142072158096" lon="10.39253173934439"><ele>191.0</ele><time>2026-05-01T11:55:03Z</time></trkpt><trkpt lat="43.8913804675669" lon="10.392440811868227"><ele>191.0</ele><time>2026-05-01T11:55:06Z</time></trkpt><trkpt lat="43.89127030197157" lon="10.39244088541672"><ele>191.0</ele><time>2026-05-01T11:55:08Z</time></trkpt><trkpt lat="43.8912132314011" lon="10.392484446108172"><ele>191.0</ele><time>2026-05-01T11:55:09Z</time></trkpt><trkpt lat="43.8911704510531" lon="10.39255528653745"><ele>191.0</ele><time>2026-05-01T11:55:10Z</time></trkpt><trkpt lat="43.89112690063937" lon="10.392646869252975"><ele>191.0</ele><time>2026-05-01T11:55:12Z</time></trkpt><trkpt lat="43.89118793790814" lon="10.392822619399642"><ele>191.0</ele><time>2026-05-01T11:55:14Z</time></trkpt><trkpt lat="43.891268866912576" lon="10.392925694346458"><ele>191.0</ele><time>2026-05-01T11:55:16Z</time></trkpt><trkpt lat="43.89132779750785" lon="10.393007978740041"><ele>191.0</ele><time>2026-05-01T11:55:18Z</time></trkpt><trkpt lat="43.89135976795097" lon="10.393086080771484"><ele>191.0</ele><time>2026-05-01T11:55:21Z</time></trkpt><trkpt lat="43.89126606415692" lon="10.392997512025458"><ele>191.0</ele><time>2026-05-01T11:55:25Z</time></trkpt><trkpt lat="43.891172083154494" lon="10.392895957940262"><ele>191.0</ele><time>2026-05-01T11:55:27Z</time></trkpt><trkpt lat="43.8911064060832" lon="10.392865397765036"><ele>191.0</ele><time>2026-05-01T11:55:28Z</time></trkpt><trkpt lat="43.891041129951354" lon="10.392844924173165"><ele>191.0</ele><time>2026-05-01T11:55:29Z</time></trkpt><trkpt lat="43.890969339512765" lon="10.392840352813298"><ele>191.0</ele><time>2026-05-01T11:55:30Z</time></trkpt><trkpt lat="43.89089328540474" lon="10.392854038697331"><ele>191.0</ele><time>2026-05-01T11:55:31Z</time></trkpt><trkpt lat="43.890810415969675" lon="10.39288605820232"><ele>191.0</ele><time>2026-05-01T11:55:32Z</time></trkpt><trkpt lat="43.89072997065758" lon="10.392907396326962"><ele>187.33333333333331</ele><time>2026-05-01T11:55:33Z</time></trkpt><trkpt lat="43.89064694436408" lon="10.392932105163293"><ele>183.66666666666666</ele><time>2026-05-01T11:55:34Z</time></trkpt><trkpt lat="43.89058487830178" lon="10.392959780450097"><ele>180.0</ele><time>2026-05-01T11:55:35Z</time></trkpt><trkpt lat="43.890493705850766" lon="10.39300239849378"><ele>176.33333333333334</ele><time>2026-05-01T11:55:37Z</time></trkpt><trkpt lat="43.89041895553075" lon="10.392931120983638"><ele>172.66666666666669</ele><time>2026-05-01T11:55:40Z</time></trkpt><trkpt lat="43.8904544734779" lon="10.392785958169753"><ele>169.0</ele><time>2026-05-01T11:55:43Z</time></trkpt><trkpt lat="43.890532747525384" lon="10.392682928439603"><ele>169.0</ele><time>2026-05-01T11:55:45Z</time></trkpt><trkpt lat="43.89057761626299" lon="10.392619080424547"><ele>169.0</ele><time>2026-05-01T11:55:46Z</time></trkpt><trkpt lat="43.89066522834763" lon="10.392531993449817"><ele>169.0</ele><time>2026-05-01T11:55:48Z</time></trkpt><trkpt lat="43.89070084090131" lon="10.392432052080068"><ele>169.0</ele><time>2026-05-01T11:55:50Z</time></trkpt><trkpt lat="43.890665951814945" lon="10.392351276140499"><ele>169.0</ele><time>2026-05-01T11:55:53.001Z</time></trkpt><trkpt lat="43.89056352191248" lon="10.392289251220179"><ele>169.0</ele><time>2026-05-01T11:55:54.001Z</time></trkpt><trkpt lat="43.890487998706476" lon="10.392324328869082"><ele>169.0</ele><time>2026-05-01T11:55:55.001Z</time></trkpt><trkpt lat="43.8904359322916" lon="10.39239540355007"><ele>169.0</ele><time>2026-05-01T11:55:56.001Z</time></trkpt><trkpt lat="43.890390844164315" lon="10.392471947381889"><ele>169.0</ele><time>2026-05-01T11:55:57.001Z</time></trkpt><trkpt lat="43.890348665104284" lon="10.392546747598866"><ele>169.0</ele><time>2026-05-01T11:55:58.001Z</time></trkpt><trkpt lat="43.89030754789424" lon="10.39261601891119"><ele>169.0</ele><time>2026-05-01T11:55:59.001Z</time></trkpt><trkpt lat="43.890250759338166" lon="10.39269618523383"><ele>169.0</ele><time>2026-05-01T11:56:00.001Z</time></trkpt><trkpt lat="43.890194069868336" lon="10.392764607149493"><ele>169.0</ele><time>2026-05-01T11:56:01.001Z</time></trkpt><trkpt lat="43.89012766616598" lon="10.392846799985934"><ele>166.2</ele><time>2026-05-01T11:56:02.001Z</time></trkpt><trkpt lat="43.89006556842735" lon="10.392930932678743"><ele>163.39999999999998</ele><time>2026-05-01T11:56:03.001Z</time></trkpt><trkpt lat="43.890019006232336" lon="10.392995059626054"><ele>160.6</ele><time>2026-05-01T11:56:04.001Z</time></trkpt><trkpt lat="43.88993646365559" lon="10.393113803075101"><ele>157.8</ele><time>2026-05-01T11:56:06.001Z</time></trkpt><trkpt lat="43.88988029800203" lon="10.393214123878519"><ele>155.0</ele><time>2026-05-01T11:56:08.001Z</time></trkpt><trkpt lat="43.889855346894876" lon="10.393332804329171"><ele>155.0</ele><time>2026-05-01T11:56:10.001Z</time></trkpt><trkpt lat="43.88994452547595" lon="10.393455294142255"><ele>155.0</ele><time>2026-05-01T11:56:12.001Z</time></trkpt><trkpt lat="43.89006190832744" lon="10.393424706426599"><ele>155.0</ele><time>2026-05-01T11:56:14.001Z</time></trkpt><trkpt lat="43.8901527078019" lon="10.393414598750207"><ele>155.0</ele><time>2026-05-01T11:56:16.001Z</time></trkpt><trkpt lat="43.890149306051455" lon="10.393509334481319"><ele>155.0</ele><time>2026-05-01T11:56:20.001Z</time></trkpt><trkpt lat="43.89001153527488" lon="10.393527454531442"><ele>155.0</ele><time>2026-05-01T11:56:22.001Z</time></trkpt><trkpt lat="43.889891690174416" lon="10.393547848551417"><ele>155.0</ele><time>2026-05-01T11:56:24.001Z</time></trkpt><trkpt lat="43.88981958563649" lon="10.393554159357363"><ele>155.0</ele><time>2026-05-01T11:56:25.001Z</time></trkpt><trkpt lat="43.88975121450184" lon="10.393539622060722"><ele>155.0</ele><time>2026-05-01T11:56:26.001Z</time></trkpt><trkpt lat="43.88968698679314" lon="10.393563208784425"><ele>155.0</ele><time>2026-05-01T11:56:27.001Z</time></trkpt><trkpt lat="43.8895966031077" lon="10.393565184014275"><ele>155.0</ele><time>2026-05-01T11:56:29.001Z</time></trkpt><trkpt lat="43.889538070395695" lon="10.393466074520502"><ele>155.0</ele><time>2026-05-01T11:56:31.001Z</time></trkpt><trkpt lat="43.88955321013844" lon="10.393345788078607"><ele>155.0</ele><time>2026-05-01T11:56:33.001Z</time></trkpt><trkpt lat="43.889613522700714" lon="10.393283431840777"><ele>155.0</ele><time>2026-05-01T11:56:34.001Z</time></trkpt><trkpt lat="43.88966980801723" lon="10.393204396114879"><ele>155.0</ele><time>2026-05-01T11:56:36.001Z</time></trkpt><trkpt lat="43.88969070956238" lon="10.39308997783966"><ele>155.0</ele><time>2026-05-01T11:56:39.001Z</time></trkpt><trkpt lat="43.8895546567551" lon="10.393049844468365"><ele>155.0</ele><time>2026-05-01T11:56:42.001Z</time></trkpt><trkpt lat="43.8894674275216" lon="10.39312582339952"><ele>155.0</ele><time>2026-05-01T11:56:44.001Z</time></trkpt><trkpt lat="43.889415135018105" lon="10.393176375993868"><ele>155.0</ele><time>2026-05-01T11:56:45.001Z</time></trkpt><trkpt lat="43.88936482430349" lon="10.393231937777125"><ele>155.0</ele><time>2026-05-01T11:56:46.001Z</time></trkpt><trkpt lat="43.88930437419728" lon="10.393362548284607"><ele>155.0</ele><time>2026-05-01T11:56:48.001Z</time></trkpt><trkpt lat="43.88930529996459" lon="10.393452001898826"><ele>155.0</ele><time>2026-05-01T11:56:49.001Z</time></trkpt><trkpt lat="43.88934171047072" lon="10.393598684400326"><ele>155.0</ele><time>2026-05-01T11:56:51.001Z</time></trkpt><trkpt lat="43.88935546164515" lon="10.393720454461143"><ele>155.0</ele><time>2026-05-01T11:56:53.001Z</time></trkpt><trkpt lat="43.88933254688724" lon="10.393810874716394"><ele>155.0</ele><time>2026-05-01T11:56:54.001Z</time></trkpt><trkpt lat="43.88928722681057" lon="10.393875021965588"><ele>155.0</ele><time>2026-05-01T11:56:55.001Z</time></trkpt><trkpt lat="43.8892289423696" lon="10.393934166641962"><ele>155.0</ele><time>2026-05-01T11:56:56Z</time></trkpt><trkpt lat="43.88917480204914" lon="10.393981850557292"><ele>155.0</ele><time>2026-05-01T11:56:57Z</time></trkpt><trkpt lat="43.889111246389255" lon="10.394039617956325"><ele>155.0</ele><time>2026-05-01T11:56:58Z</time></trkpt><trkpt lat="43.889033395119625" lon="10.39408425084031"><ele>151.0</ele><time>2026-05-01T11:56:59Z</time></trkpt><trkpt lat="43.88895041846405" lon="10.394123377937088"><ele>147.0</ele><time>2026-05-01T11:57:00Z</time></trkpt><trkpt lat="43.88886096517646" lon="10.394175670841152"><ele>143.0</ele><time>2026-05-01T11:57:01Z</time></trkpt><trkpt lat="43.888775688883165" lon="10.394207288280981"><ele>139.0</ele><time>2026-05-01T11:57:02Z</time></trkpt><trkpt lat="43.88870171597812" lon="10.394230802267993"><ele>135.0</ele><time>2026-05-01T11:57:03Z</time></trkpt><trkpt lat="43.88860169186628" lon="10.394251918737284"><ele>135.0</ele><time>2026-05-01T11:57:05Z</time></trkpt><trkpt lat="43.888487878183994" lon="10.394205818316815"><ele>135.0</ele><time>2026-05-01T11:57:07Z</time></trkpt><trkpt lat="43.88841535050629" lon="10.394169637096224"><ele>135.0</ele><time>2026-05-01T11:57:08Z</time></trkpt><trkpt lat="43.88833480273897" lon="10.39413635727541"><ele>135.0</ele><time>2026-05-01T11:57:09Z</time></trkpt><trkpt lat="43.88824570094354" lon="10.394092997787089"><ele>135.0</ele><time>2026-05-01T11:57:10Z</time></trkpt><trkpt lat="43.88814671996907" lon="10.394050068242624"><ele>133.83333333333334</ele><time>2026-05-01T11:57:11Z</time></trkpt><trkpt lat="43.88806501136505" lon="10.394014615915399"><ele>132.66666666666666</ele><time>2026-05-01T11:57:12Z</time></trkpt><trkpt lat="43.88800508369999" lon="10.393960401549757"><ele>131.5</ele><time>2026-05-01T11:57:13Z</time></trkpt><trkpt lat="43.88793583146717" lon="10.393915726702453"><ele>130.33333333333331</ele><time>2026-05-01T11:57:14Z</time></trkpt><trkpt lat="43.887835677244794" lon="10.39384326223249"><ele>129.16666666666666</ele><time>2026-05-01T11:57:16Z</time></trkpt><trkpt lat="43.887736259226656" lon="10.393859119402475"><ele>128.0</ele><time>2026-05-01T11:57:18Z</time></trkpt><trkpt lat="43.88764742688364" lon="10.393934281008004"><ele>127.99999999999999</ele><time>2026-05-01T11:57:20Z</time></trkpt><trkpt lat="43.88763292279329" lon="10.394045091976384"><ele>128.0</ele><time>2026-05-01T11:57:21Z</time></trkpt><trkpt lat="43.88764694267472" lon="10.394145385049274"><ele>128.0</ele><time>2026-05-01T11:57:22Z</time></trkpt><trkpt lat="43.88765542511522" lon="10.394238861051722"><ele>128.0</ele><time>2026-05-01T11:57:23Z</time></trkpt><trkpt lat="43.8876648759276" lon="10.394327717957351"><ele>127.99999999999999</ele><time>2026-05-01T11:57:24Z</time></trkpt><trkpt lat="43.8876163549726" lon="10.394450987286938"><ele>128.0</ele><time>2026-05-01T11:57:26Z</time></trkpt><trkpt lat="43.887502179111834" lon="10.39450857844286"><ele>126.16666666666666</ele><time>2026-05-01T11:57:28Z</time></trkpt><trkpt lat="43.88743672809487" lon="10.39454230644796"><ele>124.33333333333333</ele><time>2026-05-01T11:57:29Z</time></trkpt><trkpt lat="43.88735294882994" lon="10.394576443020965"><ele>122.5</ele><time>2026-05-01T11:57:30Z</time></trkpt><trkpt lat="43.88726990361092" lon="10.394607856042876"><ele>120.66666666666666</ele><time>2026-05-01T11:57:31Z</time></trkpt><trkpt lat="43.88719365112384" lon="10.39463200154115"><ele>118.83333333333333</ele><time>2026-05-01T11:57:32Z</time></trkpt><trkpt lat="43.88711888216008" lon="10.394654516160045"><ele>117.0</ele><time>2026-05-01T11:57:33Z</time></trkpt><trkpt lat="43.887055938662726" lon="10.394673469880985"><ele>117.0</ele><time>2026-05-01T11:57:34Z</time></trkpt><trkpt lat="43.88698966575987" lon="10.394694521557074"><ele>116.99999999999999</ele><time>2026-05-01T11:57:35Z</time></trkpt><trkpt lat="43.88688668744877" lon="10.394737517384584"><ele>116.99999999999999</ele><time>2026-05-01T11:57:37Z</time></trkpt><trkpt lat="43.8868075751721" lon="10.394809376994205"><ele>117.0</ele><time>2026-05-01T11:57:39Z</time></trkpt><trkpt lat="43.88674249074001" lon="10.394952931145776"><ele>117.0</ele><time>2026-05-01T11:57:41Z</time></trkpt><trkpt lat="43.88671701954455" lon="10.395039435225458"><ele>117.0</ele><time>2026-05-01T11:57:42Z</time></trkpt><trkpt lat="43.88667584339686" lon="10.395185089219563"><ele>116.99999999999999</ele><time>2026-05-01T11:57:44Z</time></trkpt><trkpt lat="43.88670674636195" lon="10.39530753406403"><ele>116.99999999999999</ele><time>2026-05-01T11:57:46Z</time></trkpt><trkpt lat="43.88681800306921" lon="10.39536657461224"><ele>117.0</ele><time>2026-05-01T11:57:48Z</time></trkpt><trkpt lat="43.88688209040551" lon="10.395376235991238"><ele>117.0</ele><time>2026-05-01T11:57:49Z</time></trkpt><trkpt lat="43.886952651800826" lon="10.39543229609536"><ele>117.0</ele><time>2026-05-01T11:57:51Z</time></trkpt><trkpt lat="43.88690705508285" lon="10.395543765626073"><ele>117.00000000000001</ele><time>2026-05-01T11:57:54Z</time></trkpt><trkpt lat="43.886844597787" lon="10.395492705797794"><ele>117.0</ele><time>2026-05-01T11:57:55Z</time></trkpt><trkpt lat="43.88677823938104" lon="10.395485763062505"><ele>117.0</ele><time>2026-05-01T11:57:56Z</time></trkpt><trkpt lat="43.886710772302436" lon="10.395501422084578"><ele>117.00000000000001</ele><time>2026-05-01T11:57:57Z</time></trkpt><trkpt lat="43.8866387962152" lon="10.395493737321853"><ele>117.0</ele><time>2026-05-01T11:57:58Z</time></trkpt><trkpt lat="43.88656350576307" lon="10.395490593491258"><ele>117.0</ele><time>2026-05-01T11:57:59Z</time></trkpt><trkpt lat="43.88648128715249" lon="10.395486961598527"><ele>114.33333333333333</ele><time>2026-05-01T11:58:00Z</time></trkpt><trkpt lat="43.88640419751147" lon="10.395489886990152"><ele>111.66666666666666</ele><time>2026-05-01T11:58:01Z</time></trkpt><trkpt lat="43.886322005175366" lon="10.395489669166018"><ele>109.0</ele><time>2026-05-01T11:58:02Z</time></trkpt><trkpt lat="43.88622903701405" lon="10.39548710580728"><ele>106.33333333333333</ele><time>2026-05-01T11:58:03Z</time></trkpt><trkpt lat="43.886152919073986" lon="10.395482631931975"><ele>103.66666666666666</ele><time>2026-05-01T11:58:04.001Z</time></trkpt><trkpt lat="43.8860817632623" lon="10.395479469706837"><ele>101.0</ele><time>2026-05-01T11:58:05.001Z</time></trkpt><trkpt lat="43.88601426234445" lon="10.39546653309782"><ele>100.99999999999999</ele><time>2026-05-01T11:58:06.001Z</time></trkpt><trkpt lat="43.88593901999082" lon="10.395476233606914"><ele>101.0</ele><time>2026-05-01T11:58:07.001Z</time></trkpt><trkpt lat="43.8858361995399" lon="10.395378217693814"><ele>101.0</ele><time>2026-05-01T11:58:09.001Z</time></trkpt><trkpt lat="43.885797686745505" lon="10.395287906668587"><ele>101.0</ele><time>2026-05-01T11:58:10.001Z</time></trkpt><trkpt lat="43.88576980856691" lon="10.395184235576"><ele>100.99999999999999</ele><time>2026-05-01T11:58:11.001Z</time></trkpt><trkpt lat="43.8857452869519" lon="10.395084669793365"><ele>101.0</ele><time>2026-05-01T11:58:12.001Z</time></trkpt><trkpt lat="43.885722372970484" lon="10.394981739402237"><ele>99.16666666666666</ele><time>2026-05-01T11:58:13.001Z</time></trkpt><trkpt lat="43.88570558828897" lon="10.394881847882662"><ele>97.33333333333333</ele><time>2026-05-01T11:58:14.001Z</time></trkpt><trkpt lat="43.88569396371522" lon="10.394784124107053"><ele>95.5</ele><time>2026-05-01T11:58:15.001Z</time></trkpt><trkpt lat="43.885695404963734" lon="10.394684276715015"><ele>93.66666666666666</ele><time>2026-05-01T11:58:16.001Z</time></trkpt><trkpt lat="43.88570902185149" lon="10.394592614712243"><ele>91.83333333333333</ele><time>2026-05-01T11:58:17.001Z</time></trkpt><trkpt lat="43.88571060443452" lon="10.394502598936207"><ele>90.0</ele><time>2026-05-01T11:58:18.001Z</time></trkpt><trkpt lat="43.88569874291559" lon="10.394336393889601"><ele>90.0</ele><time>2026-05-01T11:58:20.001Z</time></trkpt><trkpt lat="43.8856431076721" lon="10.394197735308849"><ele>90.0</ele><time>2026-05-01T11:58:22.001Z</time></trkpt><trkpt lat="43.88557151959559" lon="10.394075035870324"><ele>90.0</ele><time>2026-05-01T11:58:24.001Z</time></trkpt><trkpt lat="43.88551039197759" lon="10.393971818843598"><ele>90.0</ele><time>2026-05-01T11:58:26.001Z</time></trkpt><trkpt lat="43.885469564533686" lon="10.393861201286585"><ele>90.0</ele><time>2026-05-01T11:58:28.001Z</time></trkpt><trkpt lat="43.88543967680936" lon="10.393751198208422"><ele>90.57142857142857</ele><time>2026-05-01T11:58:30.001Z</time></trkpt><trkpt lat="43.885482751598815" lon="10.39368527416774"><ele>91.14285714285715</ele><time>2026-05-01T11:58:31.001Z</time></trkpt><trkpt lat="43.88552631272264" lon="10.393609413630067"><ele>91.71428571428572</ele><time>2026-05-01T11:58:33.001Z</time></trkpt><trkpt lat="43.88558219740585" lon="10.393512444975995"><ele>92.28571428571428</ele><time>2026-05-01T11:58:36.001Z</time></trkpt><trkpt lat="43.88562142294143" lon="10.393432047061221"><ele>92.85714285714286</ele><time>2026-05-01T11:58:38.001Z</time></trkpt><trkpt lat="43.88566153259153" lon="10.393349716617925"><ele>93.42857142857143</ele><time>2026-05-01T11:58:40.001Z</time></trkpt><trkpt lat="43.88570085727231" lon="10.393264722426808"><ele>94.0</ele><time>2026-05-01T11:58:42.001Z</time></trkpt><trkpt lat="43.88574412972929" lon="10.393173809392575"><ele>94.0</ele><time>2026-05-01T11:58:44.001Z</time></trkpt><trkpt lat="43.88579391973736" lon="10.39308171438396"><ele>94.0</ele><time>2026-05-01T11:58:46.001Z</time></trkpt><trkpt lat="43.885836744503095" lon="10.392996575180593"><ele>94.0</ele><time>2026-05-01T11:58:48.001Z</time></trkpt><trkpt lat="43.88588184810768" lon="10.392898752608883"><ele>94.0</ele><time>2026-05-01T11:58:50.001Z</time></trkpt><trkpt lat="43.88592563545483" lon="10.392801135882372"><ele>94.0</ele><time>2026-05-01T11:58:52.001Z</time></trkpt><trkpt lat="43.885975745514806" lon="10.392703884343463"><ele>94.0</ele><time>2026-05-01T11:58:54.001Z</time></trkpt><trkpt lat="43.88604127511523" lon="10.392619816072607"><ele>96.16666666666666</ele><time>2026-05-01T11:58:56.001Z</time></trkpt><trkpt lat="43.886111808844795" lon="10.392543488290583"><ele>98.33333333333333</ele><time>2026-05-01T11:58:58.001Z</time></trkpt><trkpt lat="43.886190686289744" lon="10.392486905848125"><ele>100.5</ele><time>2026-05-01T11:59:00.001Z</time></trkpt><trkpt lat="43.88626560939648" lon="10.392422845921677"><ele>102.66666666666666</ele><time>2026-05-01T11:59:02Z</time></trkpt><trkpt lat="43.88634398655683" lon="10.392358091742526"><ele>104.83333333333333</ele><time>2026-05-01T11:59:04Z</time></trkpt><trkpt lat="43.88641583475722" lon="10.392290447197563"><ele>107.0</ele><time>2026-05-01T11:59:06Z</time></trkpt><trkpt lat="43.88647306707196" lon="10.392205713561982"><ele>108.0</ele><time>2026-05-01T11:59:08Z</time></trkpt><trkpt lat="43.886534936839055" lon="10.392111911094114"><ele>108.99999999999999</ele><time>2026-05-01T11:59:10Z</time></trkpt><trkpt lat="43.88657985688948" lon="10.39203016952939"><ele>109.99999999999999</ele><time>2026-05-01T11:59:12Z</time></trkpt><trkpt lat="43.886640387562686" lon="10.391884483473397"><ele>111.0</ele><time>2026-05-01T11:59:15Z</time></trkpt><trkpt lat="43.88665210441997" lon="10.391764911292029"><ele>112.0</ele><time>2026-05-01T11:59:17Z</time></trkpt><trkpt lat="43.886639945781006" lon="10.391624172506173"><ele>112.00000000000001</ele><time>2026-05-01T11:59:20Z</time></trkpt><trkpt lat="43.88664612398944" lon="10.39149733747968"><ele>112.0</ele><time>2026-05-01T11:59:22Z</time></trkpt><trkpt lat="43.88665726820347" lon="10.391398648888906"><ele>112.0</ele><time>2026-05-01T11:59:24Z</time></trkpt><trkpt lat="43.886651765765734" lon="10.391298848808278"><ele>112.0</ele><time>2026-05-01T11:59:26Z</time></trkpt><trkpt lat="43.88666299238657" lon="10.39118536226012"><ele>112.00000000000001</ele><time>2026-05-01T11:59:28Z</time></trkpt><trkpt lat="43.88666239171828" lon="10.391057231978838"><ele>112.0</ele><time>2026-05-01T11:59:30Z</time></trkpt><trkpt lat="43.88666362374274" lon="10.390928851005631"><ele>112.50000000000001</ele><time>2026-05-01T11:59:32Z</time></trkpt><trkpt lat="43.88666685904914" lon="10.390811372802357"><ele>113.0</ele><time>2026-05-01T11:59:34Z</time></trkpt><trkpt lat="43.88667765182645" lon="10.390683827766857"><ele>113.5</ele><time>2026-05-01T11:59:36Z</time></trkpt><trkpt lat="43.88669737994282" lon="10.390568623478917"><ele>114.0</ele><time>2026-05-01T11:59:38Z</time></trkpt><trkpt lat="43.88671091266612" lon="10.390442964632356"><ele>114.50000000000001</ele><time>2026-05-01T11:59:40Z</time></trkpt><trkpt lat="43.88673183361288" lon="10.390323520802456"><ele>115.0</ele><time>2026-05-01T11:59:42Z</time></trkpt><trkpt lat="43.886753065316256" lon="10.390202699324362"><ele>117.4</ele><time>2026-05-01T11:59:44Z</time></trkpt><trkpt lat="43.88678739162718" lon="10.390083459762923"><ele>119.8</ele><time>2026-05-01T11:59:46Z</time></trkpt><trkpt lat="43.886829605543966" lon="10.389985961519713"><ele>122.19999999999999</ele><time>2026-05-01T11:59:48Z</time></trkpt><trkpt lat="43.886899749798935" lon="10.38989936384615"><ele>124.6</ele><time>2026-05-01T11:59:50Z</time></trkpt><trkpt lat="43.88698453357977" lon="10.38983914987185"><ele>127.0</ele><time>2026-05-01T11:59:52Z</time></trkpt><trkpt lat="43.8870828954613" lon="10.389827956464545"><ele>127.0</ele><time>2026-05-01T11:59:54Z</time></trkpt><trkpt lat="43.887163840975454" lon="10.38991346195908"><ele>126.99999999999999</ele><time>2026-05-01T11:59:56Z</time></trkpt><trkpt lat="43.88719929193654" lon="10.390048045366981"><ele>126.99999999999999</ele><time>2026-05-01T11:59:58Z</time></trkpt><trkpt lat="43.887203777918835" lon="10.390155695970641"><ele>127.0</ele><time>2026-05-01T12:00:00Z</time></trkpt><trkpt lat="43.887219742611634" lon="10.390306932411674"><ele>127.0</ele><time>2026-05-01T12:00:02Z</time></trkpt><trkpt lat="43.88725775582743" lon="10.390419969183169"><ele>127.6</ele><time>2026-05-01T12:00:04Z</time></trkpt><trkpt lat="43.887315341495714" lon="10.390521252288844"><ele>128.2</ele><time>2026-05-01T12:00:06.001Z</time></trkpt><trkpt lat="43.88738068387551" lon="10.390608703808555"><ele>128.8</ele><time>2026-05-01T12:00:08.001Z</time></trkpt><trkpt lat="43.887462809248554" lon="10.390664068401126"><ele>129.4</ele><time>2026-05-01T12:00:10.001Z</time></trkpt><trkpt lat="43.88755662416244" lon="10.39068412571409"><ele>130.0</ele><time>2026-05-01T12:00:12.001Z</time></trkpt><trkpt lat="43.88764717467554" lon="10.390680409670061"><ele>130.0</ele><time>2026-05-01T12:00:14.001Z</time></trkpt><trkpt lat="43.887734480639885" lon="10.390641714988615"><ele>130.0</ele><time>2026-05-01T12:00:16.001Z</time></trkpt><trkpt lat="43.887813825687985" lon="10.39057716437499"><ele>130.0</ele><time>2026-05-01T12:00:18.001Z</time></trkpt><trkpt lat="43.88789367800198" lon="10.390508867456122"><ele>130.0</ele><time>2026-05-01T12:00:20.001Z</time></trkpt><trkpt lat="43.88797558527419" lon="10.390442034345925"><ele>130.0</ele><time>2026-05-01T12:00:22.001Z</time></trkpt><trkpt lat="43.888056710441994" lon="10.390381688065244"><ele>130.0</ele><time>2026-05-01T12:00:24.001Z</time></trkpt><trkpt lat="43.88814296571898" lon="10.390345884712705"><ele>130.0</ele><time>2026-05-01T12:00:26.001Z</time></trkpt><trkpt lat="43.888231397827035" lon="10.390354573837783"><ele>130.0</ele><time>2026-05-01T12:00:28.001Z</time></trkpt><trkpt lat="43.88831047513143" lon="10.390388933119441"><ele>130.0</ele><time>2026-05-01T12:00:30.001Z</time></trkpt><trkpt lat="43.88837452428591" lon="10.390463877816456"><ele>130.0</ele><time>2026-05-01T12:00:32.001Z</time></trkpt><trkpt lat="43.888410008865115" lon="10.390581645584426"><ele>130.0</ele><time>2026-05-01T12:00:34.001Z</time></trkpt><trkpt lat="43.88841287699335" lon="10.390704384654462"><ele>130.0</ele><time>2026-05-01T12:00:36.001Z</time></trkpt><trkpt lat="43.88838346776272" lon="10.390815854997388"><ele>130.0</ele><time>2026-05-01T12:00:38.001Z</time></trkpt><trkpt lat="43.888364963328044" lon="10.390912224109417"><ele>130.0</ele><time>2026-05-01T12:00:40.001Z</time></trkpt><trkpt lat="43.888340851019876" lon="10.391035496083184"><ele>130.0</ele><time>2026-05-01T12:00:42.001Z</time></trkpt><trkpt lat="43.888312063061925" lon="10.391147420090224"><ele>130.0</ele><time>2026-05-01T12:00:44.001Z</time></trkpt><trkpt lat="43.88829591655023" lon="10.391257312574163"><ele>130.0</ele><time>2026-05-01T12:00:46.001Z</time></trkpt><trkpt lat="43.888303291976186" lon="10.391385483105188"><ele>130.0</ele><time>2026-05-01T12:00:48.001Z</time></trkpt><trkpt lat="43.888385511026314" lon="10.39147963816814"><ele>130.0</ele><time>2026-05-01T12:00:50.001Z</time></trkpt><trkpt lat="43.88844649367587" lon="10.391441535907147"><ele>130.0</ele><time>2026-05-01T12:00:51.001Z</time></trkpt><trkpt lat="43.88853674538831" lon="10.391383073167757"><ele>130.0</ele><time>2026-05-01T12:00:53.001Z</time></trkpt><trkpt lat="43.88860073928271" lon="10.391285199362464"><ele>130.0</ele><time>2026-05-01T12:00:55.001Z</time></trkpt><trkpt lat="43.888658816862026" lon="10.391194148735076"><ele>132.6</ele><time>2026-05-01T12:00:57.001Z</time></trkpt><trkpt lat="43.888717578591674" lon="10.391096504764967"><ele>135.2</ele><time>2026-05-01T12:00:59.001Z</time></trkpt><trkpt lat="43.888760098183404" lon="10.390983352520639"><ele>137.8</ele><time>2026-05-01T12:01:01.001Z</time></trkpt><trkpt lat="43.888801199112926" lon="10.390871100336476"><ele>140.4</ele><time>2026-05-01T12:01:03.001Z</time></trkpt><trkpt lat="43.888831722281125" lon="10.390748567938928"><ele>143.0</ele><time>2026-05-01T12:01:05.001Z</time></trkpt><trkpt lat="43.88882412061553" lon="10.390633235527602"><ele>143.0</ele><time>2026-05-01T12:01:07.001Z</time></trkpt><trkpt lat="43.888793436189495" lon="10.390521316504032"><ele>143.0</ele><time>2026-05-01T12:01:09Z</time></trkpt><trkpt lat="43.8887464351944" lon="10.390431071672786"><ele>143.0</ele><time>2026-05-01T12:01:11Z</time></trkpt><trkpt lat="43.888681522004646" lon="10.390346258938392"><ele>143.0</ele><time>2026-05-01T12:01:13Z</time></trkpt><trkpt lat="43.88863168584154" lon="10.39024628898803"><ele>143.0</ele><time>2026-05-01T12:01:15Z</time></trkpt><trkpt lat="43.888581774505745" lon="10.390141639675372"><ele>143.0</ele><time>2026-05-01T12:01:17Z</time></trkpt><trkpt lat="43.88853156677147" lon="10.390041007820601"><ele>143.16666666666666</ele><time>2026-05-01T12:01:19Z</time></trkpt><trkpt lat="43.88849127423738" lon="10.389935515698566"><ele>143.33333333333331</ele><time>2026-05-01T12:01:21Z</time></trkpt><trkpt lat="43.888443496382536" lon="10.389837446224748"><ele>143.5</ele><time>2026-05-01T12:01:23Z</time></trkpt><trkpt lat="43.88839374353569" lon="10.389742116900075"><ele>143.66666666666666</ele><time>2026-05-01T12:01:25Z</time></trkpt><trkpt lat="43.88834686648332" lon="10.389640485641218"><ele>143.83333333333334</ele><time>2026-05-01T12:01:27Z</time></trkpt><trkpt lat="43.88831441671236" lon="10.389528307627472"><ele>144.0</ele><time>2026-05-01T12:01:29Z</time></trkpt><trkpt lat="43.888306464172096" lon="10.38941183354899"><ele>144.0</ele><time>2026-05-01T12:01:31Z</time></trkpt><trkpt lat="43.88832255592643" lon="10.389289516449901"><ele>144.0</ele><time>2026-05-01T12:01:33Z</time></trkpt><trkpt lat="43.888359238804405" lon="10.38917565720951"><ele>144.0</ele><time>2026-05-01T12:01:35Z</time></trkpt><trkpt lat="43.88840478882404" lon="10.389077312505146"><ele>144.0</ele><time>2026-05-01T12:01:37Z</time></trkpt><trkpt lat="43.88847287829527" lon="10.389008670283065"><ele>144.0</ele><time>2026-05-01T12:01:39Z</time></trkpt><trkpt lat="43.8885573756965" lon="10.38896854912306"><ele>144.0</ele><time>2026-05-01T12:01:41Z</time></trkpt><trkpt lat="43.88863326319978" lon="10.388923162253144"><ele>147.16666666666666</ele><time>2026-05-01T12:01:43Z</time></trkpt><trkpt lat="43.88871588139717" lon="10.388885399215397"><ele>150.33333333333334</ele><time>2026-05-01T12:01:45Z</time></trkpt><trkpt lat="43.8887963442092" lon="10.388848890880379"><ele>153.5</ele><time>2026-05-01T12:01:47Z</time></trkpt><trkpt lat="43.88887428484701" lon="10.388801093843126"><ele>156.66666666666669</ele><time>2026-05-01T12:01:49Z</time></trkpt><trkpt lat="43.88895115956889" lon="10.38875202679437"><ele>159.83333333333334</ele><time>2026-05-01T12:01:51Z</time></trkpt><trkpt lat="43.88902691423018" lon="10.388703746957614"><ele>163.0</ele><time>2026-05-01T12:01:53Z</time></trkpt><trkpt lat="43.88908759056492" lon="10.388632745260926"><ele>164.5</ele><time>2026-05-01T12:01:55Z</time></trkpt><trkpt lat="43.889112305490045" lon="10.388524243804449"><ele>166.0</ele><time>2026-05-01T12:01:57Z</time></trkpt><trkpt lat="43.889074009622156" lon="10.388407757372372"><ele>167.5</ele><time>2026-05-01T12:01:59Z</time></trkpt><trkpt lat="43.889006617157044" lon="10.388323118244555"><ele>169.0</ele><time>2026-05-01T12:02:01Z</time></trkpt><trkpt lat="43.888940677493196" lon="10.388249406477074"><ele>170.5</ele><time>2026-05-01T12:02:03Z</time></trkpt><trkpt lat="43.88888069961922" lon="10.388161443786567"><ele>172.0</ele><time>2026-05-01T12:02:05Z</time></trkpt><trkpt lat="43.8888054676871" lon="10.388094036663052"><ele>172.0</ele><time>2026-05-01T12:02:07.001Z</time></trkpt><trkpt lat="43.888737320846175" lon="10.388049004021678"><ele>172.0</ele><time>2026-05-01T12:02:09.001Z</time></trkpt><trkpt lat="43.88865605175465" lon="10.38800859827551"><ele>172.0</ele><time>2026-05-01T12:02:11.001Z</time></trkpt><trkpt lat="43.888574295835895" lon="10.38797305482597"><ele>172.0</ele><time>2026-05-01T12:02:13.001Z</time></trkpt><trkpt lat="43.88849867631259" lon="10.387952055575253"><ele>172.0</ele><time>2026-05-01T12:02:15.001Z</time></trkpt><trkpt lat="43.8884157540145" lon="10.387934968202407"><ele>172.0</ele><time>2026-05-01T12:02:17.001Z</time></trkpt><trkpt lat="43.888344935753814" lon="10.387921759933516"><ele>171.83333333333334</ele><time>2026-05-01T12:02:19.001Z</time></trkpt><trkpt lat="43.888260623692204" lon="10.38790897670066"><ele>171.66666666666669</ele><time>2026-05-01T12:02:21.001Z</time></trkpt><trkpt lat="43.88817591258382" lon="10.387913872024933"><ele>171.5</ele><time>2026-05-01T12:02:23.001Z</time></trkpt><trkpt lat="43.888099778169476" lon="10.387876565522038"><ele>171.33333333333334</ele><time>2026-05-01T12:02:25.001Z</time></trkpt><trkpt lat="43.888033433954384" lon="10.387797610588487"><ele>171.16666666666666</ele><time>2026-05-01T12:02:27.001Z</time></trkpt><trkpt lat="43.88801202848767" lon="10.387678067275145"><ele>171.0</ele><time>2026-05-01T12:02:29.001Z</time></trkpt><trkpt lat="43.88804050671804" lon="10.387556554451114"><ele>171.0</ele><time>2026-05-01T12:02:31.001Z</time></trkpt><trkpt lat="43.88808187170414" lon="10.387450210974446"><ele>171.0</ele><time>2026-05-01T12:02:33.001Z</time></trkpt><trkpt lat="43.88811549494177" lon="10.387341481464464"><ele>171.0</ele><time>2026-05-01T12:02:35.001Z</time></trkpt><trkpt lat="43.88815297198406" lon="10.387239079466564"><ele>171.0</ele><time>2026-05-01T12:02:37.001Z</time></trkpt><trkpt lat="43.88821611809335" lon="10.387155118037928"><ele>171.0</ele><time>2026-05-01T12:02:39.001Z</time></trkpt><trkpt lat="43.888285544977435" lon="10.38708925578105"><ele>171.0</ele><time>2026-05-01T12:02:41.001Z</time></trkpt><trkpt lat="43.88836757519391" lon="10.387043863043202"><ele>175.66666666666666</ele><time>2026-05-01T12:02:43.001Z</time></trkpt><trkpt lat="43.888445701423905" lon="10.387020387927418"><ele>180.33333333333331</ele><time>2026-05-01T12:02:45.001Z</time></trkpt><trkpt lat="43.88852465424565" lon="10.386977274903556"><ele>185.0</ele><time>2026-05-01T12:02:47.001Z</time></trkpt><trkpt lat="43.888591520925274" lon="10.386908426519668"><ele>189.66666666666666</ele><time>2026-05-01T12:02:49.001Z</time></trkpt><trkpt lat="43.888610677270364" lon="10.386786006321808"><ele>194.33333333333331</ele><time>2026-05-01T12:02:51.001Z</time></trkpt><trkpt lat="43.88864903659183" lon="10.386684988608456"><ele>199.0</ele><time>2026-05-01T12:02:53.001Z</time></trkpt><trkpt lat="43.88867721114769" lon="10.386589096971685"><ele>198.99999999999997</ele><time>2026-05-01T12:02:55.001Z</time></trkpt><trkpt lat="43.88873584672693" lon="10.386501593103198"><ele>199.0</ele><time>2026-05-01T12:02:57.001Z</time></trkpt><trkpt lat="43.88879661759794" lon="10.38641926924455"><ele>199.0</ele><time>2026-05-01T12:02:59.001Z</time></trkpt><trkpt lat="43.88883379165075" lon="10.38631540134057"><ele>199.0</ele><time>2026-05-01T12:03:01.001Z</time></trkpt><trkpt lat="43.888807563487454" lon="10.386198381924675"><ele>198.99999999999997</ele><time>2026-05-01T12:03:03.001Z</time></trkpt><trkpt lat="43.88873560252526" lon="10.386114822984691"><ele>199.0</ele><time>2026-05-01T12:03:05.001Z</time></trkpt><trkpt lat="43.888656365235924" lon="10.386061087773788"><ele>198.99999999999997</ele><time>2026-05-01T12:03:07.001Z</time></trkpt><trkpt lat="43.88858084374438" lon="10.386013063220535"><ele>199.0</ele><time>2026-05-01T12:03:09.001Z</time></trkpt><trkpt lat="43.88851795015563" lon="10.38594322864368"><ele>199.0</ele><time>2026-05-01T12:03:11.001Z</time></trkpt><trkpt lat="43.88852339511573" lon="10.385827580764147"><ele>199.0</ele><time>2026-05-01T12:03:13.001Z</time></trkpt><trkpt lat="43.888596756186836" lon="10.385742589616868"><ele>198.99999999999997</ele><time>2026-05-01T12:03:15Z</time></trkpt><trkpt lat="43.888673713248885" lon="10.38568313410932"><ele>199.0</ele><time>2026-05-01T12:03:17Z</time></trkpt><trkpt lat="43.88874839414672" lon="10.385627174461098"><ele>198.99999999999997</ele><time>2026-05-01T12:03:19Z</time></trkpt><trkpt lat="43.88882002326505" lon="10.385574043636966"><ele>199.0</ele><time>2026-05-01T12:03:21Z</time></trkpt><trkpt lat="43.88890281675642" lon="10.385509640278858"><ele>199.0</ele><time>2026-05-01T12:03:23Z</time></trkpt><trkpt lat="43.888976574401326" lon="10.38543743627197"><ele>199.0</ele><time>2026-05-01T12:03:25Z</time></trkpt><trkpt lat="43.889054961159275" lon="10.385381025649583"><ele>198.99999999999997</ele><time>2026-05-01T12:03:27Z</time></trkpt><trkpt lat="43.889131169455126" lon="10.3853196351259"><ele>199.0</ele><time>2026-05-01T12:03:29Z</time></trkpt><trkpt lat="43.889213255830526" lon="10.385272641584772"><ele>202.66666666666666</ele><time>2026-05-01T12:03:31Z</time></trkpt><trkpt lat="43.88929803597082" lon="10.385227734046502"><ele>206.33333333333331</ele><time>2026-05-01T12:03:33Z</time></trkpt><trkpt lat="43.88937724144837" lon="10.385166714846209"><ele>210.0</ele><time>2026-05-01T12:03:35Z</time></trkpt><trkpt lat="43.88944912434701" lon="10.385090723560335"><ele>213.66666666666669</ele><time>2026-05-01T12:03:37Z</time></trkpt><trkpt lat="43.889515748945186" lon="10.385014379311864"><ele>217.33333333333334</ele><time>2026-05-01T12:03:39Z</time></trkpt><trkpt lat="43.889583282832625" lon="10.384942155548686"><ele>221.0</ele><time>2026-05-01T12:03:41Z</time></trkpt><trkpt lat="43.889648026436454" lon="10.384864087578382"><ele>221.0</ele><time>2026-05-01T12:03:43Z</time></trkpt><trkpt lat="43.88970682245492" lon="10.38478050903549"><ele>221.00000000000003</ele><time>2026-05-01T12:03:45Z</time></trkpt><trkpt lat="43.88971270727111" lon="10.384655622352708"><ele>221.00000000000003</ele><time>2026-05-01T12:03:47Z</time></trkpt><trkpt lat="43.889650433936936" lon="10.38456064846754"><ele>221.0</ele><time>2026-05-01T12:03:49Z</time></trkpt><trkpt lat="43.88955402639546" lon="10.384518451223956"><ele>221.0</ele><time>2026-05-01T12:03:51Z</time></trkpt><trkpt lat="43.88946399331015" lon="10.38447168756071"><ele>222.00000000000003</ele><time>2026-05-01T12:03:53Z</time></trkpt><trkpt lat="43.889376762770496" lon="10.38444586048492"><ele>223.0</ele><time>2026-05-01T12:03:55Z</time></trkpt><trkpt lat="43.889294430859785" lon="10.384421483785829"><ele>224.0</ele><time>2026-05-01T12:03:57Z</time></trkpt><trkpt lat="43.88921201549533" lon="10.384396435586678"><ele>225.0</ele><time>2026-05-01T12:03:59Z</time></trkpt><trkpt lat="43.889134412676725" lon="10.38437265248279"><ele>226.00000000000003</ele><time>2026-05-01T12:04:01Z</time></trkpt><trkpt lat="43.88904991494897" lon="10.384344693518836"><ele>227.0</ele><time>2026-05-01T12:04:03Z</time></trkpt><trkpt lat="43.88897180113038" lon="10.384316563615956"><ele>225.00000000000003</ele><time>2026-05-01T12:04:05Z</time></trkpt><trkpt lat="43.88889194719752" lon="10.384289377255314"><ele>223.0</ele><time>2026-05-01T12:04:07Z</time></trkpt><trkpt lat="43.88881721867533" lon="10.38424639636572"><ele>221.0</ele><time>2026-05-01T12:04:09Z</time></trkpt><trkpt lat="43.88875574565735" lon="10.384171143575028"><ele>219.0</ele><time>2026-05-01T12:04:11Z</time></trkpt><trkpt lat="43.88873485710496" lon="10.384060320199588"><ele>217.00000000000003</ele><time>2026-05-01T12:04:13Z</time></trkpt><trkpt lat="43.88875054554746" lon="10.383943827337704"><ele>215.0</ele><time>2026-05-01T12:04:15Z</time></trkpt><trkpt lat="43.88877138408827" lon="10.383828718968061"><ele>215.00000000000003</ele><time>2026-05-01T12:04:17Z</time></trkpt><trkpt lat="43.88879336875744" lon="10.383726258031592"><ele>215.0</ele><time>2026-05-01T12:04:19Z</time></trkpt><trkpt lat="43.8888157151923" lon="10.383622676895474"><ele>215.0</ele><time>2026-05-01T12:04:21Z</time></trkpt><trkpt lat="43.88884239036252" lon="10.383517974970323"><ele>215.0</ele><time>2026-05-01T12:04:23.001Z</time></trkpt><trkpt lat="43.88888935538975" lon="10.383419385604618"><ele>215.00000000000003</ele><time>2026-05-01T12:04:25.001Z</time></trkpt><trkpt lat="43.88894008337125" lon="10.383332672197385"><ele>215.0</ele><time>2026-05-01T12:04:27.001Z</time></trkpt><trkpt lat="43.88900626719732" lon="10.383255431505537"><ele>215.00000000000003</ele><time>2026-05-01T12:04:29.001Z</time></trkpt><trkpt lat="43.889069275372684" lon="10.383180123681822"><ele>215.0</ele><time>2026-05-01T12:04:31.001Z</time></trkpt><trkpt lat="43.889123366919414" lon="10.383100298005608"><ele>215.0</ele><time>2026-05-01T12:04:33.001Z</time></trkpt><trkpt lat="43.88917937350456" lon="10.383017280824436"><ele>215.0</ele><time>2026-05-01T12:04:35.001Z</time></trkpt><trkpt lat="43.8892250744284" lon="10.382938601974326"><ele>215.00000000000003</ele><time>2026-05-01T12:04:37.001Z</time></trkpt><trkpt lat="43.889284904738865" lon="10.382859952730296"><ele>215.0</ele><time>2026-05-01T12:04:39.001Z</time></trkpt><trkpt lat="43.88934893165815" lon="10.382784928198959"><ele>219.50000000000003</ele><time>2026-05-01T12:04:41.001Z</time></trkpt><trkpt lat="43.88941334055036" lon="10.382712236136557"><ele>224.0</ele><time>2026-05-01T12:04:43.001Z</time></trkpt><trkpt lat="43.88947151617956" lon="10.382625725321372"><ele>228.5</ele><time>2026-05-01T12:04:45.001Z</time></trkpt><trkpt lat="43.889534663685794" lon="10.382561341656812"><ele>233.0</ele><time>2026-05-01T12:04:47.001Z</time></trkpt><trkpt lat="43.88960605582892" lon="10.382502022639567"><ele>237.50000000000003</ele><time>2026-05-01T12:04:49.001Z</time></trkpt><trkpt lat="43.88967527989889" lon="10.382433717062161"><ele>242.0</ele><time>2026-05-01T12:04:51.001Z</time></trkpt><trkpt lat="43.88973611952936" lon="10.382348783334626"><ele>242.00000000000003</ele><time>2026-05-01T12:04:53.001Z</time></trkpt><trkpt lat="43.88978427853777" lon="10.38226137145038"><ele>242.0</ele><time>2026-05-01T12:04:55.001Z</time></trkpt><trkpt lat="43.88982671971587" lon="10.382177505988857"><ele>242.0</ele><time>2026-05-01T12:04:57.001Z</time></trkpt><trkpt lat="43.889817977786166" lon="10.38206659259156"><ele>242.0</ele><time>2026-05-01T12:04:59.001Z</time></trkpt><trkpt lat="43.889749551632" lon="10.381994371220449"><ele>242.00000000000003</ele><time>2026-05-01T12:05:01.001Z</time></trkpt><trkpt lat="43.88965566331562" lon="10.381984155533656"><ele>242.0</ele><time>2026-05-01T12:05:03.001Z</time></trkpt><trkpt lat="43.88956282093368" lon="10.381989798480104"><ele>239.33333333333334</ele><time>2026-05-01T12:05:05.001Z</time></trkpt><trkpt lat="43.889479405018214" lon="10.381998228848945"><ele>236.66666666666669</ele><time>2026-05-01T12:05:07.001Z</time></trkpt><trkpt lat="43.88939560393374" lon="10.382016269840586"><ele>234.0</ele><time>2026-05-01T12:05:09.001Z</time></trkpt><trkpt lat="43.889325521466695" lon="10.38201332873469"><ele>231.33333333333331</ele><time>2026-05-01T12:05:11.001Z</time></trkpt><trkpt lat="43.8892404968489" lon="10.382026342191551"><ele>228.66666666666666</ele><time>2026-05-01T12:05:13.001Z</time></trkpt><trkpt lat="43.88916201766995" lon="10.38201881053316"><ele>226.0</ele><time>2026-05-01T12:05:15.001Z</time></trkpt><trkpt lat="43.889091197490025" lon="10.381961876357085"><ele>225.99999999999997</ele><time>2026-05-01T12:05:17.001Z</time></trkpt><trkpt lat="43.88907116612963" lon="10.381853195004394"><ele>226.0</ele><time>2026-05-01T12:05:19.001Z</time></trkpt><trkpt lat="43.88906241704524" lon="10.381743616300923"><ele>226.0</ele><time>2026-05-01T12:05:21Z</time></trkpt><trkpt lat="43.88906109170354" lon="10.38163331982772"><ele>226.0</ele><time>2026-05-01T12:05:23Z</time></trkpt><trkpt lat="43.88908779901525" lon="10.381527062625034"><ele>225.99999999999997</ele><time>2026-05-01T12:05:25Z</time></trkpt><trkpt lat="43.889101743963295" lon="10.38142297802151"><ele>226.0</ele><time>2026-05-01T12:05:27Z</time></trkpt><trkpt lat="43.88912697164616" lon="10.381327640638244"><ele>228.28571428571428</ele><time>2026-05-01T12:05:29Z</time></trkpt><trkpt lat="43.88914086063052" lon="10.381229502760402"><ele>230.57142857142856</ele><time>2026-05-01T12:05:31Z</time></trkpt><trkpt lat="43.88916511824306" lon="10.381136222762795"><ele>232.85714285714283</ele><time>2026-05-01T12:05:33Z</time></trkpt><trkpt lat="43.88916739679982" lon="10.381040764421739"><ele>235.14285714285714</ele><time>2026-05-01T12:05:35Z</time></trkpt><trkpt lat="43.889174750833774" lon="10.380941054405143"><ele>237.4285714285714</ele><time>2026-05-01T12:05:37Z</time></trkpt><trkpt lat="43.889186761764506" lon="10.380839226955546"><ele>239.7142857142857</ele><time>2026-05-01T12:05:39Z</time></trkpt><trkpt lat="43.88918317788374" lon="10.380740466374506"><ele>242.0</ele><time>2026-05-01T12:05:41Z</time></trkpt><trkpt lat="43.88919437339979" lon="10.380642242185395"><ele>242.00000000000003</ele><time>2026-05-01T12:05:43Z</time></trkpt><trkpt lat="43.8892007347148" lon="10.38054543043841"><ele>242.0</ele><time>2026-05-01T12:05:45Z</time></trkpt><trkpt lat="43.889210908110414" lon="10.38044182501156"><ele>242.0</ele><time>2026-05-01T12:05:47Z</time></trkpt><trkpt lat="43.88922597107408" lon="10.380335844839674"><ele>242.0</ele><time>2026-05-01T12:05:49Z</time></trkpt><trkpt lat="43.889237591203305" lon="10.380240236114892"><ele>242.00000000000003</ele><time>2026-05-01T12:05:51Z</time></trkpt><trkpt lat="43.889216517615296" lon="10.380124224930375"><ele>242.0</ele><time>2026-05-01T12:05:53Z</time></trkpt><trkpt lat="43.889210613064165" lon="10.380018289821763"><ele>244.42857142857142</ele><time>2026-05-01T12:05:55Z</time></trkpt><trkpt lat="43.88920850709456" lon="10.379924831859512"><ele>246.85714285714283</ele><time>2026-05-01T12:05:57Z</time></trkpt><trkpt lat="43.88918783320705" lon="10.379822825424615"><ele>249.28571428571428</ele><time>2026-05-01T12:05:59Z</time></trkpt><trkpt lat="43.88915765027064" lon="10.379727358386583"><ele>251.71428571428572</ele><time>2026-05-01T12:06:01Z</time></trkpt><trkpt lat="43.88909511832212" lon="10.37970639270202"><ele>254.14285714285714</ele><time>2026-05-01T12:06:02Z</time></trkpt><trkpt lat="43.88901184436714" lon="10.379735930720646"><ele>256.57142857142856</ele><time>2026-05-01T12:06:04Z</time></trkpt><trkpt lat="43.888941133000685" lon="10.379750425272254"><ele>259.0</ele><time>2026-05-01T12:06:06Z</time></trkpt><trkpt lat="43.88886809043556" lon="10.379739415527622"><ele>259.0</ele><time>2026-05-01T12:06:08Z</time></trkpt><trkpt lat="43.88879957743164" lon="10.379748477219975"><ele>259.0</ele><time>2026-05-01T12:06:10Z</time></trkpt><trkpt lat="43.88872751837795" lon="10.379754974793096"><ele>259.0</ele><time>2026-05-01T12:06:12Z</time></trkpt><trkpt lat="43.88865623248156" lon="10.379761922677764"><ele>259.0</ele><time>2026-05-01T12:06:14Z</time></trkpt><trkpt lat="43.88858487301187" lon="10.379772725374147"><ele>259.0</ele><time>2026-05-01T12:06:16Z</time></trkpt><trkpt lat="43.888510883079135" lon="10.379787395793741"><ele>259.0</ele><time>2026-05-01T12:06:18Z</time></trkpt><trkpt lat="43.88843745257205" lon="10.37980872112885"><ele>259.0</ele><time>2026-05-01T12:06:20.001Z</time></trkpt><trkpt lat="43.88836848835229" lon="10.379845218501954"><ele>258.0</ele><time>2026-05-01T12:06:22.001Z</time></trkpt><trkpt lat="43.888293958568404" lon="10.3798953020161"><ele>257.0</ele><time>2026-05-01T12:06:24.001Z</time></trkpt><trkpt lat="43.88823345230883" lon="10.379952548854348"><ele>256.0</ele><time>2026-05-01T12:06:26.001Z</time></trkpt><trkpt lat="43.888174307724235" lon="10.38001914400346"><ele>255.0</ele><time>2026-05-01T12:06:28.001Z</time></trkpt><trkpt lat="43.888125676476356" lon="10.380095593771058"><ele>253.99999999999997</ele><time>2026-05-01T12:06:30.001Z</time></trkpt><trkpt lat="43.88815825131258" lon="10.38000753502339"><ele>253.0</ele><time>2026-05-01T12:06:34.001Z</time></trkpt><trkpt lat="43.88821940123582" lon="10.379938681989968"><ele>252.99999999999997</ele><time>2026-05-01T12:06:36.001Z</time></trkpt><trkpt lat="43.88827279449687" lon="10.37988716633043"><ele>253.0</ele><time>2026-05-01T12:06:38.001Z</time></trkpt><trkpt lat="43.8883291295077" lon="10.379843895606566"><ele>253.0</ele><time>2026-05-01T12:06:40.001Z</time></trkpt><trkpt lat="43.888413837430264" lon="10.379797181964546"><ele>253.0</ele><time>2026-05-01T12:06:43.001Z</time></trkpt><trkpt lat="43.888476567377126" lon="10.379769782706399"><ele>252.99999999999997</ele><time>2026-05-01T12:06:45.001Z</time></trkpt><trkpt lat="43.88856782369658" lon="10.379747965654557"><ele>253.0</ele><time>2026-05-01T12:06:48.001Z</time></trkpt><trkpt lat="43.8886541272399" lon="10.379739080264738"><ele>255.0</ele><time>2026-05-01T12:06:51.001Z</time></trkpt><trkpt lat="43.888726630879894" lon="10.379728791287599"><ele>257.0</ele><time>2026-05-01T12:06:53.001Z</time></trkpt><trkpt lat="43.88872545501571" lon="10.379234261166165"><ele>259.0</ele><time>2026-05-01T12:06:58.001Z</time></trkpt><trkpt lat="43.88864952239356" lon="10.379261057459736"><ele>261.2857142857143</ele><time>2026-05-01T12:07:00.001Z</time></trkpt><trkpt lat="43.888576769017774" lon="10.37926315533222"><ele>263.57142857142856</ele><time>2026-05-01T12:07:02.001Z</time></trkpt><trkpt lat="43.88851524802192" lon="10.37929559495272"><ele>265.8571428571429</ele><time>2026-05-01T12:07:04.001Z</time></trkpt><trkpt lat="43.88845429829287" lon="10.379325157229896"><ele>268.1428571428571</ele><time>2026-05-01T12:07:06.001Z</time></trkpt><trkpt lat="43.88839030581062" lon="10.379341617718755"><ele>270.42857142857144</ele><time>2026-05-01T12:07:08.001Z</time></trkpt><trkpt lat="43.888301875926466" lon="10.379314481694257"><ele>272.7142857142857</ele><time>2026-05-01T12:07:11.001Z</time></trkpt><trkpt lat="43.88823966755582" lon="10.37928488667765"><ele>275.0</ele><time>2026-05-01T12:07:13.001Z</time></trkpt><trkpt lat="43.88814775515247" lon="10.379222075961472"><ele>275.0</ele><time>2026-05-01T12:07:16.001Z</time></trkpt><trkpt lat="43.88807289061695" lon="10.379205269227379"><ele>275.0</ele><time>2026-05-01T12:07:18.001Z</time></trkpt><trkpt lat="43.88799391093778" lon="10.379212597957697"><ele>275.0</ele><time>2026-05-01T12:07:20.001Z</time></trkpt><trkpt lat="43.88792800725304" lon="10.379240962844063"><ele>275.0</ele><time>2026-05-01T12:07:22.001Z</time></trkpt><trkpt lat="43.88784595156845" lon="10.379265609901204"><ele>275.0</ele><time>2026-05-01T12:07:25.001Z</time></trkpt><trkpt lat="43.88778034666832" lon="10.379249098874363"><ele>275.0</ele><time>2026-05-01T12:07:28Z</time></trkpt><trkpt lat="43.88777593532862" lon="10.379139798476974"><ele>275.0</ele><time>2026-05-01T12:07:32Z</time></trkpt><trkpt lat="43.887856886236285" lon="10.379103087039464"><ele>275.0</ele><time>2026-05-01T12:07:34Z</time></trkpt><trkpt lat="43.887955136259095" lon="10.37911867189101"><ele>275.0</ele><time>2026-05-01T12:07:37Z</time></trkpt><trkpt lat="43.888017485971005" lon="10.379089127188916"><ele>275.0</ele><time>2026-05-01T12:07:39Z</time></trkpt><trkpt lat="43.88808376563379" lon="10.37908477202089"><ele>275.0</ele><time>2026-05-01T12:07:41Z</time></trkpt><trkpt lat="43.888156071630284" lon="10.379081789825666"><ele>275.0</ele><time>2026-05-01T12:07:43Z</time></trkpt><trkpt lat="43.88823500253539" lon="10.3790712248665"><ele>275.0</ele><time>2026-05-01T12:07:45Z</time></trkpt><trkpt lat="43.888301588500134" lon="10.379056498422377"><ele>275.0</ele><time>2026-05-01T12:07:47Z</time></trkpt><trkpt lat="43.8883657015026" lon="10.379035020826642"><ele>275.0</ele><time>2026-05-01T12:07:49Z</time></trkpt><trkpt lat="43.888426894599604" lon="10.378988436517965"><ele>275.0</ele><time>2026-05-01T12:07:51Z</time></trkpt><trkpt lat="43.888477364995836" lon="10.378927241194368"><ele>275.0</ele><time>2026-05-01T12:07:53Z</time></trkpt><trkpt lat="43.88851047795653" lon="10.378846216264071"><ele>275.0</ele><time>2026-05-01T12:07:55Z</time></trkpt><trkpt lat="43.88854942718127" lon="10.378738839158395"><ele>275.0</ele><time>2026-05-01T12:07:58Z</time></trkpt><trkpt lat="43.88859481662232" lon="10.378633747776169"><ele>279.83333333333337</ele><time>2026-05-01T12:08:01Z</time></trkpt><trkpt lat="43.88863321149047" lon="10.37852812158667"><ele>284.6666666666667</ele><time>2026-05-01T12:08:04Z</time></trkpt><trkpt lat="43.88867010842851" lon="10.378424068982222"><ele>289.5</ele><time>2026-05-01T12:08:07Z</time></trkpt><trkpt lat="43.88871435056302" lon="10.378338888853436"><ele>294.3333333333333</ele><time>2026-05-01T12:08:10Z</time></trkpt><trkpt lat="43.88876671340083" lon="10.378269241687253"><ele>299.16666666666663</ele><time>2026-05-01T12:08:13Z</time></trkpt><trkpt lat="43.88874966892937" lon="10.378164423820811"><ele>304.0</ele><time>2026-05-01T12:08:16Z</time></trkpt><trkpt lat="43.88872588716278" lon="10.378077246419336"><ele>305.57142857142856</ele><time>2026-05-01T12:08:18Z</time></trkpt><trkpt lat="43.888719726073305" lon="10.377957723025865"><ele>307.14285714285717</ele><time>2026-05-01T12:08:22.001Z</time></trkpt><trkpt lat="43.88876181622414" lon="10.377881817057789"><ele>308.7142857142857</ele><time>2026-05-01T12:08:24.001Z</time></trkpt><trkpt lat="43.88880920602447" lon="10.377823530126792"><ele>310.2857142857143</ele><time>2026-05-01T12:08:26.001Z</time></trkpt><trkpt lat="43.888863241021106" lon="10.37777224195115"><ele>311.8571428571429</ele><time>2026-05-01T12:08:28.001Z</time></trkpt><trkpt lat="43.88892331855486" lon="10.37772287695324"><ele>313.42857142857144</ele><time>2026-05-01T12:08:30.001Z</time></trkpt><trkpt lat="43.88899674500228" lon="10.377649631342662"><ele>315.0</ele><time>2026-05-01T12:08:33.001Z</time></trkpt><trkpt lat="43.889067388782145" lon="10.37759036565464"><ele>315.0</ele><time>2026-05-01T12:08:36.001Z</time></trkpt><trkpt lat="43.88910306103617" lon="10.377507945010537"><ele>315.0</ele><time>2026-05-01T12:08:38.001Z</time></trkpt><trkpt lat="43.889079666930115" lon="10.377407797959343"><ele>315.0</ele><time>2026-05-01T12:08:40.001Z</time></trkpt><trkpt lat="43.88903969133655" lon="10.377334711959366"><ele>315.0</ele><time>2026-05-01T12:08:42.001Z</time></trkpt><trkpt lat="43.88896229629456" lon="10.377275289657831"><ele>315.0</ele><time>2026-05-01T12:08:44.001Z</time></trkpt><trkpt lat="43.888889184665" lon="10.377234948753413"><ele>315.0</ele><time>2026-05-01T12:08:46.001Z</time></trkpt><trkpt lat="43.88879992815844" lon="10.377190862939187"><ele>319.5</ele><time>2026-05-01T12:08:49.001Z</time></trkpt><trkpt lat="43.88873266537805" lon="10.377166270215893"><ele>324.0</ele><time>2026-05-01T12:08:51.001Z</time></trkpt><trkpt lat="43.88868699529769" lon="10.377088868000843"><ele>328.5</ele><time>2026-05-01T12:08:54.001Z</time></trkpt><trkpt lat="43.8886759278222" lon="10.37699775384533"><ele>333.0</ele><time>2026-05-01T12:08:56.001Z</time></trkpt><trkpt lat="43.888593363155856" lon="10.376923355305548"><ele>337.5</ele><time>2026-05-01T12:08:58.001Z</time></trkpt><trkpt lat="43.88852122504155" lon="10.37690096150972"><ele>342.0</ele><time>2026-05-01T12:09:00.001Z</time></trkpt><trkpt lat="43.88843701176486" lon="10.376913620193795"><ele>338.85714285714283</ele><time>2026-05-01T12:09:03.001Z</time></trkpt><trkpt lat="43.8883669472385" lon="10.376901988858032"><ele>335.7142857142857</ele><time>2026-05-01T12:09:06.001Z</time></trkpt><trkpt lat="43.888295749006765" lon="10.376837155981908"><ele>332.57142857142856</ele><time>2026-05-01T12:09:09.001Z</time></trkpt><trkpt lat="43.88824483995841" lon="10.376777039391925"><ele>329.42857142857144</ele><time>2026-05-01T12:09:11.001Z</time></trkpt><trkpt lat="43.88819537160871" lon="10.37671871187617"><ele>326.2857142857143</ele><time>2026-05-01T12:09:13.001Z</time></trkpt><trkpt lat="43.88814433864683" lon="10.37666392850512"><ele>323.1428571428571</ele><time>2026-05-01T12:09:15.001Z</time></trkpt><trkpt lat="43.88808703371022" lon="10.376618958333516"><ele>320.0</ele><time>2026-05-01T12:09:17.001Z</time></trkpt><trkpt lat="43.88801821174933" lon="10.376600625939068"><ele>320.0</ele><time>2026-05-01T12:09:19.001Z</time></trkpt><trkpt lat="43.88795704671035" lon="10.376579506114824"><ele>320.0</ele><time>2026-05-01T12:09:21.001Z</time></trkpt><trkpt lat="43.88789490499048" lon="10.376559276529953"><ele>320.0</ele><time>2026-05-01T12:09:23.001Z</time></trkpt><trkpt lat="43.887818208102026" lon="10.376527755408144"><ele>320.0</ele><time>2026-05-01T12:09:26.001Z</time></trkpt><trkpt lat="43.887765465395454" lon="10.37644853876527"><ele>320.0</ele><time>2026-05-01T12:09:29.001Z</time></trkpt><trkpt lat="43.887717417945204" lon="10.376391907989198"><ele>320.0</ele><time>2026-05-01T12:09:31.001Z</time></trkpt><trkpt lat="43.88765469411196" lon="10.376347303081062"><ele>320.0</ele><time>2026-05-01T12:09:33Z</time></trkpt><trkpt lat="43.88758126898844" lon="10.376334759369247"><ele>324.0</ele><time>2026-05-01T12:09:35Z</time></trkpt><trkpt lat="43.887515335079826" lon="10.376328173516171"><ele>328.0</ele><time>2026-05-01T12:09:37Z</time></trkpt><trkpt lat="43.887431220397566" lon="10.376322904308854"><ele>332.0</ele><time>2026-05-01T12:09:40Z</time></trkpt><trkpt lat="43.88736459551889" lon="10.376301872556494"><ele>336.0</ele><time>2026-05-01T12:09:43Z</time></trkpt><trkpt lat="43.887290344591655" lon="10.37625549242809"><ele>340.0</ele><time>2026-05-01T12:09:46Z</time></trkpt><trkpt lat="43.88721105137293" lon="10.376192461887577"><ele>344.0</ele><time>2026-05-01T12:09:49Z</time></trkpt><trkpt lat="43.88714445609377" lon="10.376118209304215"><ele>344.0</ele><time>2026-05-01T12:09:52Z</time></trkpt><trkpt lat="43.88708027396807" lon="10.376037227261634"><ele>344.0</ele><time>2026-05-01T12:09:55Z</time></trkpt><trkpt lat="43.887020202567996" lon="10.375955079194744"><ele>344.0</ele><time>2026-05-01T12:09:58Z</time></trkpt><trkpt lat="43.88701798958028" lon="10.375866365153938"><ele>344.0</ele><time>2026-05-01T12:10:00Z</time></trkpt><trkpt lat="43.88697852361336" lon="10.375760300396996"><ele>344.0</ele><time>2026-05-01T12:10:03Z</time></trkpt><trkpt lat="43.88695102129524" lon="10.375664076298037"><ele>344.0</ele><time>2026-05-01T12:10:06Z</time></trkpt><trkpt lat="43.88691734085413" lon="10.375570712475897"><ele>344.4</ele><time>2026-05-01T12:10:09Z</time></trkpt><trkpt lat="43.8870034709129" lon="10.375392347966477"><ele>344.79999999999995</ele><time>2026-05-01T12:10:13Z</time></trkpt><trkpt lat="43.8870448883135" lon="10.37528500162731"><ele>345.20000000000005</ele><time>2026-05-01T12:10:16Z</time></trkpt><trkpt lat="43.88710749930064" lon="10.375192103879089"><ele>345.6</ele><time>2026-05-01T12:10:19Z</time></trkpt><trkpt lat="43.887160411851106" lon="10.375129818629963"><ele>346.0</ele><time>2026-05-01T12:10:21Z</time></trkpt><trkpt lat="43.8872095960063" lon="10.375062733452"><ele>346.0</ele><time>2026-05-01T12:10:23Z</time></trkpt><trkpt lat="43.88726408500467" lon="10.37499409016642"><ele>346.0</ele><time>2026-05-01T12:10:25Z</time></trkpt><trkpt lat="43.887324946721705" lon="10.374907570304991"><ele>346.0</ele><time>2026-05-01T12:10:27.001Z</time></trkpt><trkpt lat="43.88738029094784" lon="10.374833121945061"><ele>346.0</ele><time>2026-05-01T12:10:29.001Z</time></trkpt><trkpt lat="43.88744232832503" lon="10.374749922339879"><ele>346.0</ele><time>2026-05-01T12:10:31.001Z</time></trkpt><trkpt lat="43.887507683739926" lon="10.3746778422621"><ele>346.0</ele><time>2026-05-01T12:10:33.001Z</time></trkpt><trkpt lat="43.88756674414958" lon="10.374615973628016"><ele>349.5</ele><time>2026-05-01T12:10:35.001Z</time></trkpt><trkpt lat="43.88762010912504" lon="10.37452988791467"><ele>353.0</ele><time>2026-05-01T12:10:37.001Z</time></trkpt><trkpt lat="43.88766406297292" lon="10.374457694125704"><ele>356.5</ele><time>2026-05-01T12:10:39.001Z</time></trkpt><trkpt lat="43.887690571542315" lon="10.374351484896394"><ele>360.0</ele><time>2026-05-01T12:10:41.001Z</time></trkpt><trkpt lat="43.887695331104" lon="10.374238613449938"><ele>363.5</ele><time>2026-05-01T12:10:43.001Z</time></trkpt><trkpt lat="43.887702321845424" lon="10.374123530359732"><ele>367.0</ele><time>2026-05-01T12:10:45.001Z</time></trkpt><trkpt lat="43.887691775864056" lon="10.37396954247459"><ele>367.0</ele><time>2026-05-01T12:10:47.001Z</time></trkpt><trkpt lat="43.887704034670506" lon="10.373876504516975"><ele>367.0</ele><time>2026-05-01T12:10:49.001Z</time></trkpt><trkpt lat="43.887726391253075" lon="10.373789800572407"><ele>367.0</ele><time>2026-05-01T12:10:51.001Z</time></trkpt><trkpt lat="43.88773867453412" lon="10.373683176832126"><ele>367.0</ele><time>2026-05-01T12:10:53.001Z</time></trkpt><trkpt lat="43.887731238415945" lon="10.373581790753004"><ele>367.0</ele><time>2026-05-01T12:10:55.001Z</time></trkpt><trkpt lat="43.88773313305264" lon="10.373476579438746"><ele>367.0</ele><time>2026-05-01T12:10:57.001Z</time></trkpt><trkpt lat="43.887741254986764" lon="10.373362166918318"><ele>367.0</ele><time>2026-05-01T12:10:59.001Z</time></trkpt><trkpt lat="43.88779279127972" lon="10.373309172464129"><ele>364.16666666666663</ele><time>2026-05-01T12:11:01.001Z</time></trkpt><trkpt lat="43.88784145007092" lon="10.373196667898895"><ele>361.3333333333333</ele><time>2026-05-01T12:11:03.001Z</time></trkpt><trkpt lat="43.88789659876905" lon="10.373148297466505"><ele>358.5</ele><time>2026-05-01T12:11:05.001Z</time></trkpt><trkpt lat="43.887993141337425" lon="10.373109446966831"><ele>355.6666666666667</ele><time>2026-05-01T12:11:08.001Z</time></trkpt><trkpt lat="43.88807892970547" lon="10.373110277738736"><ele>352.83333333333337</ele><time>2026-05-01T12:11:11.001Z</time></trkpt><trkpt lat="43.88814589190175" lon="10.373122205702556"><ele>350.0</ele><time>2026-05-01T12:11:13.001Z</time></trkpt><trkpt lat="43.88823173164136" lon="10.373157613285942"><ele>350.0</ele><time>2026-05-01T12:11:16.001Z</time></trkpt><trkpt lat="43.88831627963551" lon="10.373203857740144"><ele>350.0</ele><time>2026-05-01T12:11:19.001Z</time></trkpt><trkpt lat="43.88839104787511" lon="10.373243927053753"><ele>350.0</ele><time>2026-05-01T12:11:22.001Z</time></trkpt><trkpt lat="43.88845035097764" lon="10.373286905645939"><ele>350.0</ele><time>2026-05-01T12:11:24.001Z</time></trkpt><trkpt lat="43.88851454436054" lon="10.373334182223767"><ele>350.0</ele><time>2026-05-01T12:11:27.001Z</time></trkpt><trkpt lat="43.888575113142124" lon="10.373409605194118"><ele>350.0</ele><time>2026-05-01T12:11:30.001Z</time></trkpt><trkpt lat="43.88866026301538" lon="10.373453320364293"><ele>354.0</ele><time>2026-05-01T12:11:33.002Z</time></trkpt><trkpt lat="43.88870069389959" lon="10.373531475334866"><ele>358.0</ele><time>2026-05-01T12:11:36.002Z</time></trkpt><trkpt lat="43.888763641668774" lon="10.37362027367044"><ele>362.0</ele><time>2026-05-01T12:11:39Z</time></trkpt><trkpt lat="43.88882827831815" lon="10.373630286345486"><ele>366.0</ele><time>2026-05-01T12:11:41Z</time></trkpt><trkpt lat="43.888889735619586" lon="10.373545530800882"><ele>370.0</ele><time>2026-05-01T12:11:44Z</time></trkpt><trkpt lat="43.88890115981053" lon="10.373449610704153"><ele>374.0</ele><time>2026-05-01T12:11:46Z</time></trkpt><trkpt lat="43.88892953186331" lon="10.373334795014397"><ele>374.0</ele><time>2026-05-01T12:11:49Z</time></trkpt><trkpt lat="43.88895046896145" lon="10.373232288131826"><ele>374.0</ele><time>2026-05-01T12:11:52Z</time></trkpt><trkpt lat="43.88897005966938" lon="10.373139788871425"><ele>374.0</ele><time>2026-05-01T12:11:54Z</time></trkpt><trkpt lat="43.88905149034915" lon="10.373057191577592"><ele>374.0</ele><time>2026-05-01T12:11:57Z</time></trkpt><trkpt lat="43.8891010734045" lon="10.372960366518285"><ele>374.0</ele><time>2026-05-01T12:12:00Z</time></trkpt><trkpt lat="43.889103715187275" lon="10.372861660736719"><ele>374.0</ele><time>2026-05-01T12:12:02Z</time></trkpt><trkpt lat="43.88906540217777" lon="10.3727699025889"><ele>374.0</ele><time>2026-05-01T12:12:04Z</time></trkpt><trkpt lat="43.88901684007834" lon="10.372706577961795"><ele>374.0</ele><time>2026-05-01T12:12:06Z</time></trkpt><trkpt lat="43.888950511874505" lon="10.372610603352928"><ele>374.0</ele><time>2026-05-01T12:12:09Z</time></trkpt><trkpt lat="43.88887489493215" lon="10.372536704323592"><ele>374.0</ele><time>2026-05-01T12:12:12Z</time></trkpt><trkpt lat="43.888816628180855" lon="10.372444293801394"><ele>374.0</ele><time>2026-05-01T12:12:15Z</time></trkpt><trkpt lat="43.88880000187236" lon="10.372358703136657"><ele>374.0</ele><time>2026-05-01T12:12:17Z</time></trkpt><trkpt lat="43.888786109189176" lon="10.3722621589316"><ele>374.1428571428571</ele><time>2026-05-01T12:12:19Z</time></trkpt><trkpt lat="43.88877944729935" lon="10.372165380145065"><ele>374.28571428571433</ele><time>2026-05-01T12:12:21Z</time></trkpt><trkpt lat="43.888786097346966" lon="10.372069303025995"><ele>374.42857142857144</ele><time>2026-05-01T12:12:23Z</time></trkpt><trkpt lat="43.88882061706224" lon="10.371971077876298"><ele>374.57142857142856</ele><time>2026-05-01T12:12:26Z</time></trkpt><trkpt lat="43.88887761337679" lon="10.371878743576874"><ele>374.71428571428567</ele><time>2026-05-01T12:12:29Z</time></trkpt><trkpt lat="43.88892930547706" lon="10.3718280106284"><ele>374.8571428571429</ele><time>2026-05-01T12:12:31.001Z</time></trkpt><trkpt lat="43.88899509273776" lon="10.371807149818759"><ele>375.0</ele><time>2026-05-01T12:12:33.001Z</time></trkpt><trkpt lat="43.88906583181521" lon="10.371783849430475"><ele>375.0</ele><time>2026-05-01T12:12:35.001Z</time></trkpt><trkpt lat="43.8891355749736" lon="10.371754576011243"><ele>375.0</ele><time>2026-05-01T12:12:37.001Z</time></trkpt><trkpt lat="43.88918943797515" lon="10.371690840921708"><ele>375.0</ele><time>2026-05-01T12:12:39.001Z</time></trkpt><trkpt lat="43.88919956217159" lon="10.3716043572476"><ele>375.0</ele><time>2026-05-01T12:12:41.001Z</time></trkpt><trkpt lat="43.88920663233067" lon="10.371508075310535"><ele>375.0</ele><time>2026-05-01T12:12:43.001Z</time></trkpt><trkpt lat="43.88921549816632" lon="10.371384216330805"><ele>375.0</ele><time>2026-05-01T12:12:46.001Z</time></trkpt><trkpt lat="43.88922270126091" lon="10.371254176839889"><ele>375.6666666666667</ele><time>2026-05-01T12:12:49.001Z</time></trkpt><trkpt lat="43.889223800352056" lon="10.371142051501012"><ele>376.3333333333333</ele><time>2026-05-01T12:12:52.001Z</time></trkpt><trkpt lat="43.889284566934386" lon="10.371048550968595"><ele>377.0</ele><time>2026-05-01T12:12:55.001Z</time></trkpt><trkpt lat="43.889360572568066" lon="10.370967739128204"><ele>377.66666666666663</ele><time>2026-05-01T12:12:58.001Z</time></trkpt><trkpt lat="43.88938965982228" lon="10.370887357564"><ele>378.3333333333333</ele><time>2026-05-01T12:13:00.001Z</time></trkpt><trkpt lat="43.88940216405109" lon="10.370800400004272"><ele>379.0</ele><time>2026-05-01T12:13:02.001Z</time></trkpt><trkpt lat="43.889390235307445" lon="10.370670022417185"><ele>379.0</ele><time>2026-05-01T12:13:05.001Z</time></trkpt><trkpt lat="43.889367390653966" lon="10.370537791117657"><ele>379.0</ele><time>2026-05-01T12:13:08.001Z</time></trkpt><trkpt lat="43.88937099691586" lon="10.370446797477516"><ele>379.0</ele><time>2026-05-01T12:13:10.001Z</time></trkpt><trkpt lat="43.88936548987141" lon="10.37034376566378"><ele>379.0</ele><time>2026-05-01T12:13:12.001Z</time></trkpt><trkpt lat="43.88935087816938" lon="10.37023330822763"><ele>379.0</ele><time>2026-05-01T12:13:14.001Z</time></trkpt><trkpt lat="43.88933403727163" lon="10.370129152966182"><ele>379.0</ele><time>2026-05-01T12:13:16.001Z</time></trkpt><trkpt lat="43.8893259140615" lon="10.370035227388048"><ele>377.8571428571429</ele><time>2026-05-01T12:13:18.001Z</time></trkpt><trkpt lat="43.88931213612995" lon="10.369928097437912"><ele>376.7142857142857</ele><time>2026-05-01T12:13:20.001Z</time></trkpt><trkpt lat="43.8892985355213" lon="10.369827638660691"><ele>375.57142857142856</ele><time>2026-05-01T12:13:22.001Z</time></trkpt><trkpt lat="43.889275079271556" lon="10.369742880695325"><ele>374.42857142857144</ele><time>2026-05-01T12:13:24.001Z</time></trkpt><trkpt lat="43.889254491555334" lon="10.369656790018642"><ele>373.2857142857143</ele><time>2026-05-01T12:13:26.001Z</time></trkpt><trkpt lat="43.88918891922021" lon="10.36959276928231"><ele>372.14285714285717</ele><time>2026-05-01T12:13:28.001Z</time></trkpt><trkpt lat="43.88911484745532" lon="10.369574715119915"><ele>371.0</ele><time>2026-05-01T12:13:30.001Z</time></trkpt><trkpt lat="43.88904666182324" lon="10.369522359101635"><ele>374.1666666666667</ele><time>2026-05-01T12:13:32.001Z</time></trkpt><trkpt lat="43.88898934936583" lon="10.369479484758635"><ele>377.33333333333337</ele><time>2026-05-01T12:13:34.002Z</time></trkpt><trkpt lat="43.88894916255613" lon="10.369396224605284"><ele>380.5</ele><time>2026-05-01T12:13:36.002Z</time></trkpt><trkpt lat="43.88895682717427" lon="10.369281967658955"><ele>383.6666666666667</ele><time>2026-05-01T12:13:38.002Z</time></trkpt><trkpt lat="43.888986474569585" lon="10.369157397213211"><ele>386.8333333333333</ele><time>2026-05-01T12:13:40.002Z</time></trkpt><trkpt lat="43.88901013057252" lon="10.369036720952097"><ele>390.0</ele><time>2026-05-01T12:13:42.002Z</time></trkpt><trkpt lat="43.88903204183032" lon="10.36893243427903"><ele>392.3333333333333</ele><time>2026-05-01T12:13:44Z</time></trkpt><trkpt lat="43.889016706442405" lon="10.36881954634641"><ele>394.66666666666663</ele><time>2026-05-01T12:13:46Z</time></trkpt><trkpt lat="43.88895928839748" lon="10.368708489665497"><ele>397.0</ele><time>2026-05-01T12:13:48Z</time></trkpt><trkpt lat="43.888879661475585" lon="10.368663440176062"><ele>399.3333333333333</ele><time>2026-05-01T12:13:50Z</time></trkpt><trkpt lat="43.88878043200578" lon="10.368658356505883"><ele>401.66666666666663</ele><time>2026-05-01T12:13:52Z</time></trkpt><trkpt lat="43.888703934143095" lon="10.36863897599987"><ele>404.0</ele><time>2026-05-01T12:13:54Z</time></trkpt><trkpt lat="43.88865906214785" lon="10.368559719215904"><ele>404.0</ele><time>2026-05-01T12:13:56Z</time></trkpt><trkpt lat="43.88864864804729" lon="10.368441221089032"><ele>404.0</ele><time>2026-05-01T12:13:58Z</time></trkpt><trkpt lat="43.888664676157944" lon="10.368327786784281"><ele>404.0</ele><time>2026-05-01T12:14:00Z</time></trkpt><trkpt lat="43.888569638968995" lon="10.36825787518554"><ele>404.0</ele><time>2026-05-01T12:14:02Z</time></trkpt><trkpt lat="43.88848499457967" lon="10.368203042346476"><ele>404.0</ele><time>2026-05-01T12:14:04Z</time></trkpt><trkpt lat="43.88839123536405" lon="10.36819941975482"><ele>400.66666666666663</ele><time>2026-05-01T12:14:06Z</time></trkpt><trkpt lat="43.88830547883247" lon="10.368198976535894"><ele>397.3333333333333</ele><time>2026-05-01T12:14:08Z</time></trkpt><trkpt lat="43.88822005429452" lon="10.368184924188656"><ele>394.0</ele><time>2026-05-01T12:14:10Z</time></trkpt><trkpt lat="43.88813602435738" lon="10.368190050766282"><ele>390.66666666666663</ele><time>2026-05-01T12:14:12Z</time></trkpt><trkpt lat="43.88806760568248" lon="10.368184240866006"><ele>387.3333333333333</ele><time>2026-05-01T12:14:14Z</time></trkpt><trkpt lat="43.88799046320787" lon="10.368159827100358"><ele>384.0</ele><time>2026-05-01T12:14:16Z</time></trkpt><trkpt lat="43.88792384656524" lon="10.368093523764083"><ele>385.4</ele><time>2026-05-01T12:14:19Z</time></trkpt><trkpt lat="43.887909187863" lon="10.367956113457055"><ele>386.79999999999995</ele><time>2026-05-01T12:14:22Z</time></trkpt><trkpt lat="43.887934276137884" lon="10.367861772180579"><ele>388.20000000000005</ele><time>2026-05-01T12:14:24Z</time></trkpt><trkpt lat="43.88798666271742" lon="10.367728831191798"><ele>389.6</ele><time>2026-05-01T12:14:26Z</time></trkpt><trkpt lat="43.88802207238634" lon="10.367612160344384"><ele>391.0</ele><time>2026-05-01T12:14:28Z</time></trkpt><trkpt lat="43.88804660757183" lon="10.367487752147392"><ele>391.00000000000006</ele><time>2026-05-01T12:14:30.001Z</time></trkpt><trkpt lat="43.88807807534408" lon="10.367363868298996"><ele>391.0</ele><time>2026-05-01T12:14:32.001Z</time></trkpt><trkpt lat="43.888115174762845" lon="10.367238498093373"><ele>391.0</ele><time>2026-05-01T12:14:34.001Z</time></trkpt><trkpt lat="43.88815666695839" lon="10.367142129992624"><ele>391.0</ele><time>2026-05-01T12:14:36.001Z</time></trkpt><trkpt lat="43.88819599277581" lon="10.367051749992566"><ele>391.00000000000006</ele><time>2026-05-01T12:14:38.001Z</time></trkpt><trkpt lat="43.88827043330696" lon="10.366961230154548"><ele>391.0</ele><time>2026-05-01T12:14:40.001Z</time></trkpt><trkpt lat="43.888347052470436" lon="10.366866657039324"><ele>390.00000000000006</ele><time>2026-05-01T12:14:42.001Z</time></trkpt><trkpt lat="43.88841429783215" lon="10.366804148016575"><ele>389.0</ele><time>2026-05-01T12:14:44.001Z</time></trkpt><trkpt lat="43.88847453564586" lon="10.366701930834926"><ele>388.0</ele><time>2026-05-01T12:14:46.001Z</time></trkpt><trkpt lat="43.888493110950314" lon="10.366582717541746"><ele>387.0</ele><time>2026-05-01T12:14:48.001Z</time></trkpt><trkpt lat="43.88851422618435" lon="10.366472724526666"><ele>386.00000000000006</ele><time>2026-05-01T12:14:50.001Z</time></trkpt><trkpt lat="43.88854602378579" lon="10.36636108851887"><ele>385.0</ele><time>2026-05-01T12:14:52.001Z</time></trkpt><trkpt lat="43.88850053586423" lon="10.366248569530033"><ele>386.0</ele><time>2026-05-01T12:14:54.001Z</time></trkpt><trkpt lat="43.88844069761908" lon="10.366174427112034"><ele>387.0</ele><time>2026-05-01T12:14:56.001Z</time></trkpt><trkpt lat="43.88836335057563" lon="10.366178489035736"><ele>388.0</ele><time>2026-05-01T12:14:58.001Z</time></trkpt><trkpt lat="43.88830821287073" lon="10.366125606257746"><ele>389.0</ele><time>2026-05-01T12:15:00.001Z</time></trkpt><trkpt lat="43.888258695678005" lon="10.366069117388657"><ele>390.0</ele><time>2026-05-01T12:15:02.001Z</time></trkpt><trkpt lat="43.888205713689736" lon="10.366002275746926"><ele>391.0</ele><time>2026-05-01T12:15:04.001Z</time></trkpt><trkpt lat="43.8881625191665" lon="10.3659371802841"><ele>392.0</ele><time>2026-05-01T12:15:06.001Z</time></trkpt><trkpt lat="43.88810484468261" lon="10.36584101855534"><ele>391.99999999999994</ele><time>2026-05-01T12:15:08.001Z</time></trkpt><trkpt lat="43.88804043463403" lon="10.36575151351759"><ele>392.0</ele><time>2026-05-01T12:15:10.001Z</time></trkpt><trkpt lat="43.88799577909196" lon="10.365658471974712"><ele>392.0</ele><time>2026-05-01T12:15:12.001Z</time></trkpt><trkpt lat="43.88796809151499" lon="10.36557798173845"><ele>392.0</ele><time>2026-05-01T12:15:14.001Z</time></trkpt><trkpt lat="43.887983320596895" lon="10.36548537992788"><ele>391.99999999999994</ele><time>2026-05-01T12:15:16.001Z</time></trkpt><trkpt lat="43.8880382750173" lon="10.365379621546838"><ele>392.0</ele><time>2026-05-01T12:15:18.001Z</time></trkpt><trkpt lat="43.88809033917965" lon="10.365305081076698"><ele>391.99999999999994</ele><time>2026-05-01T12:15:20.001Z</time></trkpt><trkpt lat="43.88813998566458" lon="10.365236808854977"><ele>392.0</ele><time>2026-05-01T12:15:22.001Z</time></trkpt><trkpt lat="43.888184948751366" lon="10.365174938403339"><ele>392.0</ele><time>2026-05-01T12:15:24.001Z</time></trkpt><trkpt lat="43.888209169804334" lon="10.365079977709044"><ele>392.0</ele><time>2026-05-01T12:15:26.001Z</time></trkpt><trkpt lat="43.88816062862258" lon="10.364966047728508"><ele>391.99999999999994</ele><time>2026-05-01T12:15:28.001Z</time></trkpt><trkpt lat="43.88809191333566" lon="10.364892473326178"><ele>392.0</ele><time>2026-05-01T12:15:30.001Z</time></trkpt><trkpt lat="43.88804513053766" lon="10.364820913880205"><ele>392.0</ele><time>2026-05-01T12:15:32.001Z</time></trkpt><trkpt lat="43.888012850307845" lon="10.364739613001346"><ele>392.0</ele><time>2026-05-01T12:15:34.002Z</time></trkpt><trkpt lat="43.88800816988845" lon="10.364647937269021"><ele>392.0</ele><time>2026-05-01T12:15:36.002Z</time></trkpt><trkpt lat="43.88802675995419" lon="10.364536204869967"><ele>392.0</ele><time>2026-05-01T12:15:39.002Z</time></trkpt><trkpt lat="43.88805735435038" lon="10.364446338055853"><ele>392.0</ele><time>2026-05-01T12:15:41.002Z</time></trkpt><trkpt lat="43.88811092897086" lon="10.364375522606666"><ele>392.0</ele><time>2026-05-01T12:15:43.002Z</time></trkpt><trkpt lat="43.88816861210035" lon="10.36430282545355"><ele>392.0</ele><time>2026-05-01T12:15:45.002Z</time></trkpt><trkpt lat="43.88821748163063" lon="10.364209546467281"><ele>391.49999999999994</ele><time>2026-05-01T12:15:47.002Z</time></trkpt><trkpt lat="43.88825571261382" lon="10.364109295375995"><ele>391.0</ele><time>2026-05-01T12:15:49.002Z</time></trkpt><trkpt lat="43.88828714809946" lon="10.364004137104072"><ele>390.5</ele><time>2026-05-01T12:15:51Z</time></trkpt><trkpt lat="43.888337688510966" lon="10.363900252021713"><ele>390.0</ele><time>2026-05-01T12:15:54Z</time></trkpt><trkpt lat="43.888271967378145" lon="10.363790975383168"><ele>389.49999999999994</ele><time>2026-05-01T12:15:56Z</time></trkpt><trkpt lat="43.8881985946976" lon="10.363751223686572"><ele>389.0</ele><time>2026-05-01T12:15:58Z</time></trkpt><trkpt lat="43.88812120268396" lon="10.363750308406459"><ele>391.16666666666663</ele><time>2026-05-01T12:16:01Z</time></trkpt><trkpt lat="43.88804076659632" lon="10.363733954127122"><ele>393.3333333333333</ele><time>2026-05-01T12:16:05Z</time></trkpt><trkpt lat="43.887969988068015" lon="10.363712773520572"><ele>395.5</ele><time>2026-05-01T12:16:07Z</time></trkpt><trkpt lat="43.88792854799575" lon="10.363636596624705"><ele>397.66666666666663</ele><time>2026-05-01T12:16:09Z</time></trkpt><trkpt lat="43.88792944659534" lon="10.363492277496466"><ele>399.8333333333333</ele><time>2026-05-01T12:16:12Z</time></trkpt><trkpt lat="43.88793410926791" lon="10.36338612164816"><ele>402.0</ele><time>2026-05-01T12:16:15Z</time></trkpt><trkpt lat="43.88786118235827" lon="10.363340973301483"><ele>402.0</ele><time>2026-05-01T12:16:17Z</time></trkpt><trkpt lat="43.887790953310464" lon="10.363388903116542"><ele>402.0</ele><time>2026-05-01T12:16:19Z</time></trkpt><trkpt lat="43.88772769337047" lon="10.363467178355215"><ele>402.0</ele><time>2026-05-01T12:16:21Z</time></trkpt><trkpt lat="43.88764417319821" lon="10.36354320634295"><ele>402.0</ele><time>2026-05-01T12:16:24Z</time></trkpt><trkpt lat="43.88757211237564" lon="10.363576701269379"><ele>402.0</ele><time>2026-05-01T12:16:26Z</time></trkpt><trkpt lat="43.88748862894933" lon="10.363589902979768"><ele>402.0</ele><time>2026-05-01T12:16:28Z</time></trkpt><trkpt lat="43.88741766162635" lon="10.363659503555615"><ele>400.1666666666667</ele><time>2026-05-01T12:16:30Z</time></trkpt><trkpt lat="43.88737326203531" lon="10.363758204028475"><ele>398.33333333333337</ele><time>2026-05-01T12:16:32.001Z</time></trkpt><trkpt lat="43.88728891083954" lon="10.363805200617591"><ele>396.5</ele><time>2026-05-01T12:16:34.001Z</time></trkpt><trkpt lat="43.887204383913634" lon="10.363846288604067"><ele>394.6666666666667</ele><time>2026-05-01T12:16:36.001Z</time></trkpt><trkpt lat="43.88712702915543" lon="10.363859261070662"><ele>392.83333333333337</ele><time>2026-05-01T12:16:38.001Z</time></trkpt><trkpt lat="43.88705693074576" lon="10.363863130853177"><ele>391.0</ele><time>2026-05-01T12:16:40.001Z</time></trkpt><trkpt lat="43.886980544335195" lon="10.36386934249865"><ele>390.99999999999994</ele><time>2026-05-01T12:16:42.001Z</time></trkpt><trkpt lat="43.88690624448881" lon="10.363864218251548"><ele>391.0</ele><time>2026-05-01T12:16:44.001Z</time></trkpt><trkpt lat="43.88684318301989" lon="10.363834831878965"><ele>391.0</ele><time>2026-05-01T12:16:47.001Z</time></trkpt><trkpt lat="43.886800350733616" lon="10.363767264619426"><ele>391.0</ele><time>2026-05-01T12:17:31.001Z</time></trkpt><trkpt lat="43.88674529010942" lon="10.36372100774772"><ele>391.0</ele><time>2026-05-01T12:17:58Z</time></trkpt><trkpt lat="43.88681616436738" lon="10.363700798554223"><ele>390.99999999999994</ele><time>2026-05-01T12:18:35Z</time></trkpt><trkpt lat="43.8868242874865" lon="10.363609236188012"><ele>391.0</ele><time>2026-05-01T12:18:38Z</time></trkpt><trkpt lat="43.88680884327154" lon="10.363496670918698"><ele>391.00000000000006</ele><time>2026-05-01T12:18:42Z</time></trkpt><trkpt lat="43.88678871239864" lon="10.363392930579936"><ele>391.0</ele><time>2026-05-01T12:18:45.001Z</time></trkpt><trkpt lat="43.8867531813457" lon="10.363312518068911"><ele>391.0</ele><time>2026-05-01T12:18:47.001Z</time></trkpt><trkpt lat="43.886710137588054" lon="10.363242092369568"><ele>391.0</ele><time>2026-05-01T12:18:49.001Z</time></trkpt><trkpt lat="43.8866554815947" lon="10.36314469345592"><ele>391.00000000000006</ele><time>2026-05-01T12:18:52.001Z</time></trkpt><trkpt lat="43.88662126716491" lon="10.36301753288662"><ele>391.0</ele><time>2026-05-01T12:18:55.001Z</time></trkpt><trkpt lat="43.88666464225039" lon="10.362904862871323"><ele>390.00000000000006</ele><time>2026-05-01T12:18:58.001Z</time></trkpt><trkpt lat="43.886715735787" lon="10.362845179486486"><ele>389.0</ele><time>2026-05-01T12:19:00.001Z</time></trkpt><trkpt lat="43.88677352539088" lon="10.362801414711855"><ele>388.0</ele><time>2026-05-01T12:19:02.001Z</time></trkpt><trkpt lat="43.886856083899985" lon="10.362764312566147"><ele>387.0</ele><time>2026-05-01T12:19:05.001Z</time></trkpt><trkpt lat="43.886942030155026" lon="10.362757494584702"><ele>386.00000000000006</ele><time>2026-05-01T12:19:08.001Z</time></trkpt><trkpt lat="43.88700585900001" lon="10.362768382294131"><ele>385.0</ele><time>2026-05-01T12:19:10.001Z</time></trkpt><trkpt lat="43.88709837066594" lon="10.362775324761483"><ele>385.00000000000006</ele><time>2026-05-01T12:19:13.001Z</time></trkpt><trkpt lat="43.887162080822975" lon="10.362756800315298"><ele>385.0</ele><time>2026-05-01T12:19:15.001Z</time></trkpt><trkpt lat="43.88722701988328" lon="10.362720007017229"><ele>385.0</ele><time>2026-05-01T12:19:17.001Z</time></trkpt><trkpt lat="43.88731333590137" lon="10.362671711524635"><ele>385.0</ele><time>2026-05-01T12:19:20.001Z</time></trkpt><trkpt lat="43.887378933086566" lon="10.362644888358085"><ele>385.00000000000006</ele><time>2026-05-01T12:19:22.001Z</time></trkpt><trkpt lat="43.88746038629561" lon="10.362584144754736"><ele>385.0</ele><time>2026-05-01T12:19:25.001Z</time></trkpt><trkpt lat="43.88749380927787" lon="10.362492611201658"><ele>385.0</ele><time>2026-05-01T12:19:27.001Z</time></trkpt><trkpt lat="43.88751963639259" lon="10.362405137135127"><ele>385.0</ele><time>2026-05-01T12:19:29.001Z</time></trkpt><trkpt lat="43.88755977482938" lon="10.362330187825945"><ele>385.0</ele><time>2026-05-01T12:19:31.001Z</time></trkpt><trkpt lat="43.88760585642762" lon="10.362260996606356"><ele>385.0</ele><time>2026-05-01T12:19:33.001Z</time></trkpt><trkpt lat="43.88766537727646" lon="10.362171978916722"><ele>385.0</ele><time>2026-05-01T12:19:36.001Z</time></trkpt><trkpt lat="43.88772471509343" lon="10.362084507233202"><ele>385.0</ele><time>2026-05-01T12:19:39.001Z</time></trkpt><trkpt lat="43.88778698534376" lon="10.362071481199129"><ele>385.0</ele><time>2026-05-01T12:19:41.001Z</time></trkpt><trkpt lat="43.88786682402205" lon="10.362063942821687"><ele>387.50000000000006</ele><time>2026-05-01T12:19:43.001Z</time></trkpt><trkpt lat="43.8879336304156" lon="10.362049110881692"><ele>390.0</ele><time>2026-05-01T12:19:45.001Z</time></trkpt><trkpt lat="43.8879908271819" lon="10.362000107456865"><ele>392.5</ele><time>2026-05-01T12:19:47.002Z</time></trkpt><trkpt lat="43.888055347036094" lon="10.361957032696067"><ele>395.0</ele><time>2026-05-01T12:19:49.002Z</time></trkpt><trkpt lat="43.88813670925508" lon="10.361893401059286"><ele>397.50000000000006</ele><time>2026-05-01T12:19:52.002Z</time></trkpt><trkpt lat="43.88820578283981" lon="10.361796631245932"><ele>400.0</ele><time>2026-05-01T12:19:55.002Z</time></trkpt><trkpt lat="43.88824973757886" lon="10.361721017338887"><ele>400.00000000000006</ele><time>2026-05-01T12:19:58.002Z</time></trkpt><trkpt lat="43.888301106980286" lon="10.361658180090421"><ele>400.0</ele><time>2026-05-01T12:20:00.002Z</time></trkpt><trkpt lat="43.88834078320577" lon="10.361586223734333"><ele>400.0</ele><time>2026-05-01T12:20:02Z</time></trkpt><trkpt lat="43.88835703961936" lon="10.361493328620206"><ele>400.0</ele><time>2026-05-01T12:20:04Z</time></trkpt><trkpt lat="43.888323611278054" lon="10.361364185883062"><ele>400.0</ele><time>2026-05-01T12:20:07Z</time></trkpt><trkpt lat="43.888301211554435" lon="10.361282223087624"><ele>400.00000000000006</ele><time>2026-05-01T12:20:09Z</time></trkpt><trkpt lat="43.88829103686443" lon="10.361167719006703"><ele>400.0</ele><time>2026-05-01T12:20:12Z</time></trkpt><trkpt lat="43.888336544526844" lon="10.361062727009859"><ele>398.33333333333337</ele><time>2026-05-01T12:20:15Z</time></trkpt><trkpt lat="43.888406301612434" lon="10.360999535470803"><ele>396.6666666666667</ele><time>2026-05-01T12:21:16.001Z</time></trkpt><trkpt lat="43.88847259006064" lon="10.360958065398908"><ele>395.0</ele><time>2026-05-01T12:21:19.001Z</time></trkpt><trkpt lat="43.88853469341817" lon="10.36091767734599"><ele>393.33333333333337</ele><time>2026-05-01T12:21:22.001Z</time></trkpt><trkpt lat="43.88861120748495" lon="10.360866953590309"><ele>391.6666666666667</ele><time>2026-05-01T12:21:25.001Z</time></trkpt><trkpt lat="43.88869200908631" lon="10.360813750159023"><ele>390.0</ele><time>2026-05-01T12:21:28.001Z</time></trkpt><trkpt lat="43.888750802815444" lon="10.360724972236817"><ele>396.6666666666667</ele><time>2026-05-01T12:21:31.001Z</time></trkpt><trkpt lat="43.88879527861838" lon="10.360654580296613"><ele>403.33333333333337</ele><time>2026-05-01T12:21:33.001Z</time></trkpt><trkpt lat="43.88879673097575" lon="10.360520913598778"><ele>410.0</ele><time>2026-05-01T12:21:36.001Z</time></trkpt><trkpt lat="43.88880188131774" lon="10.360414993219068"><ele>416.6666666666667</ele><time>2026-05-01T12:21:39.001Z</time></trkpt><trkpt lat="43.888814675876425" lon="10.36031970277969"><ele>423.33333333333337</ele><time>2026-05-01T12:21:41.001Z</time></trkpt><trkpt lat="43.88881361328734" lon="10.360207776615065"><ele>430.0</ele><time>2026-05-01T12:21:43.001Z</time></trkpt><trkpt lat="43.88881027870294" lon="10.360101431917574"><ele>430.00000000000006</ele><time>2026-05-01T12:21:46.001Z</time></trkpt><trkpt lat="43.88882693137509" lon="10.359981815841621"><ele>430.0</ele><time>2026-05-01T12:21:49.001Z</time></trkpt><trkpt lat="43.88882758476994" lon="10.359891876382463"><ele>430.0</ele><time>2026-05-01T12:21:51.001Z</time></trkpt><trkpt lat="43.88883050731029" lon="10.359768458840776"><ele>430.0</ele><time>2026-05-01T12:21:54.001Z</time></trkpt><trkpt lat="43.888854889173125" lon="10.359680817299356"><ele>430.00000000000006</ele><time>2026-05-01T12:21:56.001Z</time></trkpt><trkpt lat="43.88889086851391" lon="10.359565560579503"><ele>430.0</ele><time>2026-05-01T12:21:59.002Z</time></trkpt><trkpt lat="43.88889871415473" lon="10.35946784622793"><ele>428.4285714285714</ele><time>2026-05-01T12:22:01.002Z</time></trkpt><trkpt lat="43.888943076146234" lon="10.35934948559871"><ele>426.8571428571429</ele><time>2026-05-01T12:22:04.002Z</time></trkpt><trkpt lat="43.88899777816259" lon="10.359286595357284"><ele>425.2857142857143</ele><time>2026-05-01T12:22:06.002Z</time></trkpt><trkpt lat="43.88904766805035" lon="10.359216318353974"><ele>423.71428571428567</ele><time>2026-05-01T12:22:07.999Z</time></trkpt><trkpt lat="43.88909233961178" lon="10.359141835902811"><ele>422.1428571428571</ele><time>2026-05-01T12:22:09.999Z</time></trkpt><trkpt lat="43.88914354204203" lon="10.359090189867187"><ele>420.57142857142856</ele><time>2026-05-01T12:22:11.999Z</time></trkpt><trkpt lat="43.889206634121344" lon="10.359062767707258"><ele>419.0</ele><time>2026-05-01T12:22:15.999Z</time></trkpt><trkpt lat="43.88923688738115" lon="10.358979864676321"><ele>419.1428571428571</ele><time>2026-05-01T12:22:43Z</time></trkpt><trkpt lat="43.889264870152275" lon="10.35889579401864"><ele>419.2857142857143</ele><time>2026-05-01T12:22:45Z</time></trkpt><trkpt lat="43.88929807537968" lon="10.3588020295357"><ele>419.42857142857144</ele><time>2026-05-01T12:22:48Z</time></trkpt><trkpt lat="43.88932629959053" lon="10.358682348991907"><ele>419.57142857142856</ele><time>2026-05-01T12:22:51Z</time></trkpt><trkpt lat="43.88934953307329" lon="10.358590201455279"><ele>419.7142857142857</ele><time>2026-05-01T12:22:53Z</time></trkpt><trkpt lat="43.88939515560843" lon="10.358506970522175"><ele>419.85714285714283</ele><time>2026-05-01T12:22:55Z</time></trkpt><trkpt lat="43.889390143737366" lon="10.358418122151898"><ele>420.0</ele><time>2026-05-01T12:22:57Z</time></trkpt><trkpt lat="43.889437411019216" lon="10.358324742761162"><ele>420.0</ele><time>2026-05-01T12:23:00Z</time></trkpt><trkpt lat="43.88947994815673" lon="10.358246359804037"><ele>420.0</ele><time>2026-05-01T12:23:03Z</time></trkpt><trkpt lat="43.889546483070134" lon="10.358162647075197"><ele>420.0</ele><time>2026-05-01T12:23:06.001Z</time></trkpt><trkpt lat="43.88961971214301" lon="10.358093967354531"><ele>420.0</ele><time>2026-05-01T12:23:09.001Z</time></trkpt><trkpt lat="43.88967790078694" lon="10.358057366306133"><ele>420.0</ele><time>2026-05-01T12:23:11.001Z</time></trkpt><trkpt lat="43.889740579146384" lon="10.358018070130358"><ele>420.0</ele><time>2026-05-01T12:23:13.001Z</time></trkpt><trkpt lat="43.889806281868786" lon="10.35795284931808"><ele>418.1666666666667</ele><time>2026-05-01T12:23:15.001Z</time></trkpt><trkpt lat="43.88981461549312" lon="10.357832718818456"><ele>416.33333333333337</ele><time>2026-05-01T12:23:17.001Z</time></trkpt><trkpt lat="43.8897989280952" lon="10.35771358608587"><ele>414.5</ele><time>2026-05-01T12:23:19.001Z</time></trkpt><trkpt lat="43.88976706423701" lon="10.357600581221728"><ele>412.6666666666667</ele><time>2026-05-01T12:23:21.001Z</time></trkpt><trkpt lat="43.88973617221461" lon="10.357470039580509"><ele>410.83333333333337</ele><time>2026-05-01T12:23:24.001Z</time></trkpt><trkpt lat="43.88974221451263" lon="10.357369629724085"><ele>409.0</ele><time>2026-05-01T12:23:26.001Z</time></trkpt><trkpt lat="43.889770110923074" lon="10.357280079678196"><ele>409.00000000000006</ele><time>2026-05-01T12:23:28.001Z</time></trkpt><trkpt lat="43.8898280300254" lon="10.357204648951251"><ele>409.0</ele><time>2026-05-01T12:23:30.001Z</time></trkpt><trkpt lat="43.88989224629471" lon="10.35714390864723"><ele>409.0</ele><time>2026-05-01T12:23:32.001Z</time></trkpt><trkpt lat="43.889936730250604" lon="10.357079494544971"><ele>409.0</ele><time>2026-05-01T12:23:34.001Z</time></trkpt><trkpt lat="43.88997008619291" lon="10.356972043023129"><ele>409.00000000000006</ele><time>2026-05-01T12:23:36.001Z</time></trkpt><trkpt lat="43.8900008981501" lon="10.356863673378056"><ele>409.0</ele><time>2026-05-01T12:23:38.001Z</time></trkpt><trkpt lat="43.89003103597424" lon="10.35674316856951"><ele>407.79999999999995</ele><time>2026-05-01T12:23:40.001Z</time></trkpt><trkpt lat="43.89006510855874" lon="10.356615355046838"><ele>406.59999999999997</ele><time>2026-05-01T12:23:42.001Z</time></trkpt><trkpt lat="43.890082320922865" lon="10.356495508541936"><ele>405.4</ele><time>2026-05-01T12:23:44.001Z</time></trkpt><trkpt lat="43.89010386553016" lon="10.35635979197726"><ele>404.2</ele><time>2026-05-01T12:23:46.001Z</time></trkpt><trkpt lat="43.8901421555735" lon="10.356212779684315"><ele>403.0</ele><time>2026-05-01T12:23:48.001Z</time></trkpt><trkpt lat="43.89019882567607" lon="10.356116936558273"><ele>403.00000000000006</ele><time>2026-05-01T12:23:50.001Z</time></trkpt><trkpt lat="43.89024049075354" lon="10.356025364854851"><ele>403.0</ele><time>2026-05-01T12:23:52.001Z</time></trkpt><trkpt lat="43.8902432174105" lon="10.35588777341368"><ele>403.0</ele><time>2026-05-01T12:23:54.001Z</time></trkpt><trkpt lat="43.89030223277651" lon="10.355810577723814"><ele>403.0</ele><time>2026-05-01T12:23:56.002Z</time></trkpt><trkpt lat="43.89036595561404" lon="10.355734371849941"><ele>403.00000000000006</ele><time>2026-05-01T12:23:58.002Z</time></trkpt><trkpt lat="43.89042625663667" lon="10.355659312060942"><ele>403.0</ele><time>2026-05-01T12:24:00.002Z</time></trkpt><trkpt lat="43.890506880713446" lon="10.355591239411886"><ele>403.0</ele><time>2026-05-01T12:24:02.002Z</time></trkpt><trkpt lat="43.89060366443833" lon="10.355593122313751"><ele>403.0</ele><time>2026-05-01T12:24:04.002Z</time></trkpt><trkpt lat="43.890699092676755" lon="10.355576806881723"><ele>403.0</ele><time>2026-05-01T12:24:06.002Z</time></trkpt><trkpt lat="43.89078350325108" lon="10.355539704446606"><ele>403.0</ele><time>2026-05-01T12:24:08.002Z</time></trkpt><trkpt lat="43.890858133267756" lon="10.355485525115448"><ele>403.0</ele><time>2026-05-01T12:24:10.002Z</time></trkpt><trkpt lat="43.89092750178382" lon="10.355415112812649"><ele>402.83333333333337</ele><time>2026-05-01T12:24:12.002Z</time></trkpt><trkpt lat="43.89096820278347" lon="10.3553415514195"><ele>402.6666666666667</ele><time>2026-05-01T12:24:14Z</time></trkpt><trkpt lat="43.890974817703906" lon="10.35524890796122"><ele>402.5</ele><time>2026-05-01T12:24:16Z</time></trkpt><trkpt lat="43.89094258910659" lon="10.355153554475857"><ele>402.33333333333337</ele><time>2026-05-01T12:24:18Z</time></trkpt><trkpt lat="43.89088834295531" lon="10.355096535171743"><ele>402.1666666666667</ele><time>2026-05-01T12:24:20Z</time></trkpt><trkpt lat="43.89078618208035" lon="10.355075294113231"><ele>402.0</ele><time>2026-05-01T12:24:22Z</time></trkpt><trkpt lat="43.89067357264689" lon="10.35503977598241"><ele>402.0</ele><time>2026-05-01T12:24:24Z</time></trkpt><trkpt lat="43.89059693781627" lon="10.355018470138464"><ele>402.0</ele><time>2026-05-01T12:24:26Z</time></trkpt><trkpt lat="43.890533240834415" lon="10.354932548967488"><ele>402.0</ele><time>2026-05-01T12:24:28Z</time></trkpt><trkpt lat="43.89048349208726" lon="10.354793990860825"><ele>402.0</ele><time>2026-05-01T12:24:30Z</time></trkpt><trkpt lat="43.89046034661322" lon="10.354684597764768"><ele>402.0</ele><time>2026-05-01T12:24:32Z</time></trkpt><trkpt lat="43.89044518331772" lon="10.354591703785271"><ele>402.0</ele><time>2026-05-01T12:24:34Z</time></trkpt><trkpt lat="43.89042588875022" lon="10.354500245444104"><ele>400.0</ele><time>2026-05-01T12:24:36Z</time></trkpt><trkpt lat="43.890378680494784" lon="10.35440436177892"><ele>398.0</ele><time>2026-05-01T12:24:39Z</time></trkpt><trkpt lat="43.890311841191206" lon="10.354312601460501"><ele>396.0</ele><time>2026-05-01T12:24:41Z</time></trkpt><trkpt lat="43.89019371950861" lon="10.354269206895092"><ele>394.0</ele><time>2026-05-01T12:24:43Z</time></trkpt><trkpt lat="43.89011294677815" lon="10.354285761643727"><ele>392.0</ele><time>2026-05-01T12:24:45Z</time></trkpt><trkpt lat="43.89004650364986" lon="10.354246362699264"><ele>392.40000000000003</ele><time>2026-05-01T12:24:47Z</time></trkpt><trkpt lat="43.890026651135415" lon="10.354118627897861"><ele>392.8</ele><time>2026-05-01T12:24:49Z</time></trkpt><trkpt lat="43.89004584163758" lon="10.353972759656768"><ele>393.2</ele><time>2026-05-01T12:24:51Z</time></trkpt><trkpt lat="43.890064789867616" lon="10.353836424972723"><ele>393.6</ele><time>2026-05-01T12:24:53Z</time></trkpt><trkpt lat="43.890070483218004" lon="10.353703491771325"><ele>394.0</ele><time>2026-05-01T12:24:55.001Z</time></trkpt><trkpt lat="43.8900630889866" lon="10.353610835247718"><ele>394.00000000000006</ele><time>2026-05-01T12:24:56.001Z</time></trkpt><trkpt lat="43.89005117302349" lon="10.353517223223855"><ele>394.0</ele><time>2026-05-01T12:24:57.001Z</time></trkpt><trkpt lat="43.89003888943458" lon="10.353430514363888"><ele>394.0</ele><time>2026-05-01T12:24:58.001Z</time></trkpt><trkpt lat="43.89002267889908" lon="10.353282586128966"><ele>394.0</ele><time>2026-05-01T12:25:00.001Z</time></trkpt><trkpt lat="43.89002423701784" lon="10.353167180374216"><ele>394.00000000000006</ele><time>2026-05-01T12:25:02.001Z</time></trkpt><trkpt lat="43.890037654590934" lon="10.35305663228746"><ele>394.0</ele><time>2026-05-01T12:25:04.001Z</time></trkpt><trkpt lat="43.890077330708" lon="10.352978983096866"><ele>392.00000000000006</ele><time>2026-05-01T12:25:06.001Z</time></trkpt><trkpt lat="43.89014511347346" lon="10.352895344835618"><ele>390.0</ele><time>2026-05-01T12:25:08.001Z</time></trkpt><trkpt lat="43.89020308669451" lon="10.352849818498163"><ele>388.0</ele><time>2026-05-01T12:25:10.001Z</time></trkpt><trkpt lat="43.89018774488188" lon="10.352742578664143"><ele>386.0</ele><time>2026-05-01T12:25:12.001Z</time></trkpt><trkpt lat="43.890133175919146" lon="10.352654617191233"><ele>384.0</ele><time>2026-05-01T12:25:15.001Z</time></trkpt><trkpt lat="43.890069423957875" lon="10.352633585294154"><ele>382.0</ele><time>2026-05-01T12:25:17.001Z</time></trkpt><trkpt lat="43.889978375040435" lon="10.352583988719523"><ele>382.0</ele><time>2026-05-01T12:25:19.001Z</time></trkpt><trkpt lat="43.889892904893564" lon="10.352580048871593"><ele>382.0</ele><time>2026-05-01T12:25:21.001Z</time></trkpt><trkpt lat="43.889821073402814" lon="10.352526988605199"><ele>382.0</ele><time>2026-05-01T12:26:14.002Z</time></trkpt><trkpt lat="43.88975562630647" lon="10.352518335053803"><ele>382.0</ele><time>2026-05-01T12:26:16.002Z</time></trkpt><trkpt lat="43.889673424241266" lon="10.352503827987949"><ele>382.0</ele><time>2026-05-01T12:26:19.002Z</time></trkpt><trkpt lat="43.88960076103264" lon="10.352507651035577"><ele>382.0</ele><time>2026-05-01T12:26:22Z</time></trkpt><trkpt lat="43.88951353131272" lon="10.352555208544697"><ele>382.0</ele><time>2026-05-01T12:26:25Z</time></trkpt><trkpt lat="43.88944144488343" lon="10.352573678969051"><ele>382.0</ele><time>2026-05-01T12:26:27Z</time></trkpt><trkpt lat="43.88947191717654" lon="10.352774999740635"><ele>382.0</ele><time>2026-05-01T12:26:30Z</time></trkpt><trkpt lat="43.88927898925563" lon="10.352687183869842"><ele>382.0</ele><time>2026-05-01T12:26:32Z</time></trkpt><trkpt lat="43.88919127859821" lon="10.35274955309315"><ele>381.66666666666663</ele><time>2026-05-01T12:26:34Z</time></trkpt><trkpt lat="43.88910753287214" lon="10.352790318995526"><ele>381.3333333333333</ele><time>2026-05-01T12:26:36Z</time></trkpt><trkpt lat="43.889007007181284" lon="10.352828466773065"><ele>381.0</ele><time>2026-05-01T12:26:38Z</time></trkpt><trkpt lat="43.888929236538" lon="10.352826418753981"><ele>380.6666666666667</ele><time>2026-05-01T12:26:40Z</time></trkpt><trkpt lat="43.888839374495504" lon="10.3528380111093"><ele>380.33333333333337</ele><time>2026-05-01T12:26:42Z</time></trkpt><trkpt lat="43.888762125043705" lon="10.352831244086982"><ele>380.0</ele><time>2026-05-01T12:26:44Z</time></trkpt><trkpt lat="43.888700892856306" lon="10.352803311749753"><ele>380.0</ele><time>2026-05-01T12:26:47Z</time></trkpt><trkpt lat="43.88864366811373" lon="10.352714404595854"><ele>380.0</ele><time>2026-05-01T12:26:50Z</time></trkpt><trkpt lat="43.88864992156549" lon="10.35257520479996"><ele>380.0</ele><time>2026-05-01T12:26:52Z</time></trkpt><trkpt lat="43.888599997238465" lon="10.352486299803136"><ele>380.0</ele><time>2026-05-01T12:26:54Z</time></trkpt><trkpt lat="43.888558682443474" lon="10.352387416270446"><ele>380.0</ele><time>2026-05-01T12:26:56Z</time></trkpt><trkpt lat="43.88848204245212" lon="10.352260587101181"><ele>379.0</ele><time>2026-05-01T12:26:58Z</time></trkpt><trkpt lat="43.88844166018513" lon="10.352156576110827"><ele>378.0</ele><time>2026-05-01T12:27:00Z</time></trkpt><trkpt lat="43.88841684097618" lon="10.352049256333721"><ele>377.0</ele><time>2026-05-01T12:27:02.001Z</time></trkpt><trkpt lat="43.888436514841445" lon="10.351926388595468"><ele>376.0</ele><time>2026-05-01T12:27:04.001Z</time></trkpt><trkpt lat="43.88845876975445" lon="10.351812502986354"><ele>375.0</ele><time>2026-05-01T12:27:06.001Z</time></trkpt><trkpt lat="43.88844955165712" lon="10.3516993322395"><ele>374.0</ele><time>2026-05-01T12:27:08.001Z</time></trkpt><trkpt lat="43.88844392148256" lon="10.351586327442572"><ele>372.1666666666667</ele><time>2026-05-01T12:27:10.001Z</time></trkpt><trkpt lat="43.88844599239825" lon="10.351474884860638"><ele>370.33333333333337</ele><time>2026-05-01T12:27:12.001Z</time></trkpt><trkpt lat="43.888458117906914" lon="10.351362941030127"><ele>368.5</ele><time>2026-05-01T12:27:14.001Z</time></trkpt><trkpt lat="43.88848149745821" lon="10.35125839179498"><ele>366.6666666666667</ele><time>2026-05-01T12:27:16.001Z</time></trkpt><trkpt lat="43.88851209255035" lon="10.351141231553989"><ele>364.8333333333333</ele><time>2026-05-01T12:27:18.001Z</time></trkpt><trkpt lat="43.88854574784474" lon="10.350989658952027"><ele>363.0</ele><time>2026-05-01T12:27:20.001Z</time></trkpt><trkpt lat="43.88859882871612" lon="10.350853688803825"><ele>360.59999999999997</ele><time>2026-05-01T12:27:22.001Z</time></trkpt><trkpt lat="43.888638015820014" lon="10.350732720082924"><ele>358.2</ele><time>2026-05-01T12:27:24.001Z</time></trkpt><trkpt lat="43.8886805546211" lon="10.350606511349934"><ele>355.8</ele><time>2026-05-01T12:27:26.001Z</time></trkpt><trkpt lat="43.88871551339663" lon="10.350483678002407"><ele>353.4</ele><time>2026-05-01T12:27:28.001Z</time></trkpt><trkpt lat="43.88875464204455" lon="10.350362767240735"><ele>351.0</ele><time>2026-05-01T12:27:30.001Z</time></trkpt><trkpt lat="43.88879938829988" lon="10.350294253040786"><ele>350.5</ele><time>2026-05-01T12:27:32.001Z</time></trkpt><trkpt lat="43.88883248598851" lon="10.350198567909962"><ele>350.0</ele><time>2026-05-01T12:27:35.001Z</time></trkpt><trkpt lat="43.888894689909094" lon="10.350141015679052"><ele>349.5</ele><time>2026-05-01T12:28:34Z</time></trkpt><trkpt lat="43.88897140272056" lon="10.350047333832583"><ele>349.0</ele><time>2026-05-01T12:28:37Z</time></trkpt><trkpt lat="43.889030276896975" lon="10.349966970070065"><ele>348.5</ele><time>2026-05-01T12:28:39Z</time></trkpt><trkpt lat="43.889116022440206" lon="10.349882144487728"><ele>348.0</ele><time>2026-05-01T12:28:41Z</time></trkpt><trkpt lat="43.889195561240776" lon="10.349786970518378"><ele>344.2</ele><time>2026-05-01T12:28:43Z</time></trkpt><trkpt lat="43.88926614901407" lon="10.34969762045153"><ele>340.4</ele><time>2026-05-01T12:28:45Z</time></trkpt><trkpt lat="43.889324687981905" lon="10.349597661141114"><ele>336.59999999999997</ele><time>2026-05-01T12:28:47Z</time></trkpt><trkpt lat="43.889381414008106" lon="10.349494939466604"><ele>332.79999999999995</ele><time>2026-05-01T12:28:49Z</time></trkpt><trkpt lat="43.889438684280414" lon="10.349397714845544"><ele>329.0</ele><time>2026-05-01T12:28:51Z</time></trkpt><trkpt lat="43.88948333634528" lon="10.349282747717652"><ele>329.0</ele><time>2026-05-01T12:28:53Z</time></trkpt><trkpt lat="43.88951457222242" lon="10.349145156317508"><ele>329.0</ele><time>2026-05-01T12:28:55Z</time></trkpt><trkpt lat="43.88955230575159" lon="10.349009741062446"><ele>329.0</ele><time>2026-05-01T12:28:57Z</time></trkpt><trkpt lat="43.8896290753478" lon="10.348912275079297"><ele>329.0</ele><time>2026-05-01T12:28:59Z</time></trkpt><trkpt lat="43.88967562893331" lon="10.34885141790033"><ele>329.0</ele><time>2026-05-01T12:29:00Z</time></trkpt><trkpt lat="43.88975833646908" lon="10.34874316575977"><ele>329.33333333333337</ele><time>2026-05-01T12:29:02Z</time></trkpt><trkpt lat="43.889833885494745" lon="10.348636530735442"><ele>329.6666666666667</ele><time>2026-05-01T12:29:04Z</time></trkpt><trkpt lat="43.88988083724112" lon="10.3485316778482"><ele>330.0</ele><time>2026-05-01T12:29:06Z</time></trkpt><trkpt lat="43.88994148795175" lon="10.348453638821555"><ele>330.3333333333333</ele><time>2026-05-01T12:29:08Z</time></trkpt><trkpt lat="43.88999444286925" lon="10.348383047920018"><ele>330.66666666666663</ele><time>2026-05-01T12:29:10.001Z</time></trkpt><trkpt lat="43.89006847175904" lon="10.348321012136152"><ele>331.0</ele><time>2026-05-01T12:29:12.001Z</time></trkpt><trkpt lat="43.890162228826846" lon="10.348210549262218"><ele>330.0</ele><time>2026-05-01T12:29:14.001Z</time></trkpt><trkpt lat="43.890208811114356" lon="10.348142486142066"><ele>329.0</ele><time>2026-05-01T12:29:15.001Z</time></trkpt><trkpt lat="43.8902759086506" lon="10.34799546196086"><ele>328.0</ele><time>2026-05-01T12:29:17.001Z</time></trkpt><trkpt lat="43.89032631518468" lon="10.347879861600424"><ele>327.0</ele><time>2026-05-01T12:29:19.001Z</time></trkpt><trkpt lat="43.89035978823929" lon="10.347733385028697"><ele>326.0</ele><time>2026-05-01T12:29:21.001Z</time></trkpt><trkpt lat="43.890380124030905" lon="10.347581883622404"><ele>326.0</ele><time>2026-05-01T12:29:23.001Z</time></trkpt><trkpt lat="43.89041445227966" lon="10.347456676552957"><ele>326.0</ele><time>2026-05-01T12:29:25.001Z</time></trkpt><trkpt lat="43.89045574250042" lon="10.347337705237594"><ele>326.0</ele><time>2026-05-01T12:29:27.001Z</time></trkpt><trkpt lat="43.890490017928805" lon="10.347243166755444"><ele>326.0</ele><time>2026-05-01T12:29:29.001Z</time></trkpt><trkpt lat="43.89052682938846" lon="10.34711830739269"><ele>326.0</ele><time>2026-05-01T12:29:31.001Z</time></trkpt><trkpt lat="43.89056102264527" lon="10.347013157130633"><ele>326.0</ele><time>2026-05-01T12:29:33.001Z</time></trkpt><trkpt lat="43.89059336120789" lon="10.346928838273177"><ele>326.0</ele><time>2026-05-01T12:29:35.001Z</time></trkpt><trkpt lat="43.890637156659004" lon="10.34684851075602"><ele>326.0</ele><time>2026-05-01T12:29:39.001Z</time></trkpt><trkpt lat="43.89066462869327" lon="10.346766968398091"><ele>326.0</ele><time>2026-05-01T12:32:55Z</time></trkpt><trkpt lat="43.89070328888656" lon="10.346680211356649"><ele>326.0</ele><time>2026-05-01T12:32:57Z</time></trkpt><trkpt lat="43.89073105817629" lon="10.34657802830044"><ele>326.0</ele><time>2026-05-01T12:32:59Z</time></trkpt><trkpt lat="43.89077035779189" lon="10.346475218581528"><ele>326.0</ele><time>2026-05-01T12:33:01Z</time></trkpt><trkpt lat="43.8908130094663" lon="10.346374889243453"><ele>326.0</ele><time>2026-05-01T12:33:03Z</time></trkpt><trkpt lat="43.890855850586014" lon="10.34625973800966"><ele>326.0</ele><time>2026-05-01T12:33:05Z</time></trkpt><trkpt lat="43.89090827695701" lon="10.346142765462664"><ele>326.0</ele><time>2026-05-01T12:33:07Z</time></trkpt><trkpt lat="43.890963702227815" lon="10.34601998008269"><ele>326.0</ele><time>2026-05-01T12:33:09Z</time></trkpt><trkpt lat="43.89101705616542" lon="10.34590029509077"><ele>326.0</ele><time>2026-05-01T12:33:11Z</time></trkpt><trkpt lat="43.891080323337846" lon="10.345787612025623"><ele>326.0</ele><time>2026-05-01T12:33:13Z</time></trkpt><trkpt lat="43.89115014063105" lon="10.345682679342291"><ele>326.0</ele><time>2026-05-01T12:33:15Z</time></trkpt><trkpt lat="43.89121383713846" lon="10.345590744636677"><ele>326.0</ele><time>2026-05-01T12:33:17Z</time></trkpt><trkpt lat="43.89127319035012" lon="10.345528380616548"><ele>326.0</ele><time>2026-05-01T12:33:20.001Z</time></trkpt><trkpt lat="43.89138649268452" lon="10.345551169220707"><ele>326.0</ele><time>2026-05-01T12:33:22.001Z</time></trkpt><trkpt lat="43.89147060923399" lon="10.345530626367138"><ele>326.6</ele><time>2026-05-01T12:33:24.001Z</time></trkpt><trkpt lat="43.89156024263907" lon="10.345499528278431"><ele>327.20000000000005</ele><time>2026-05-01T12:33:26.001Z</time></trkpt><trkpt lat="43.891653386125355" lon="10.345481619416203"><ele>327.79999999999995</ele><time>2026-05-01T12:33:28.001Z</time></trkpt><trkpt lat="43.89175360120326" lon="10.345433205314473"><ele>328.4</ele><time>2026-05-01T12:33:30.001Z</time></trkpt><trkpt lat="43.891846165987474" lon="10.345363453100896"><ele>329.0</ele><time>2026-05-01T12:33:32.001Z</time></trkpt><trkpt lat="43.89192432000012" lon="10.345279952236355"><ele>329.0</ele><time>2026-05-01T12:33:34.001Z</time></trkpt><trkpt lat="43.8919922146955" lon="10.345192686142884"><ele>329.0</ele><time>2026-05-01T12:33:36.001Z</time></trkpt><trkpt lat="43.89203415817235" lon="10.3451115657383"><ele>329.0</ele><time>2026-05-01T12:33:38.001Z</time></trkpt><trkpt lat="43.89199219156384" lon="10.344995134140165"><ele>329.0</ele><time>2026-05-01T12:33:40.001Z</time></trkpt><trkpt lat="43.89191249499463" lon="10.344913109664146"><ele>329.0</ele><time>2026-05-01T12:33:42.001Z</time></trkpt><trkpt lat="43.89186789829961" lon="10.34479323001543"><ele>326.1666666666667</ele><time>2026-05-01T12:33:44.001Z</time></trkpt><trkpt lat="43.891833818560364" lon="10.344691309141135"><ele>323.33333333333337</ele><time>2026-05-01T12:33:46.001Z</time></trkpt><trkpt lat="43.89178277821348" lon="10.344590412176771"><ele>320.5</ele><time>2026-05-01T12:33:48.001Z</time></trkpt><trkpt lat="43.89178934762948" lon="10.344474673713298"><ele>317.6666666666667</ele><time>2026-05-01T12:33:50.001Z</time></trkpt><trkpt lat="43.89181540677248" lon="10.344358382553327"><ele>314.8333333333333</ele><time>2026-05-01T12:33:52.001Z</time></trkpt><trkpt lat="43.891835203397285" lon="10.344222531955396"><ele>312.0</ele><time>2026-05-01T12:33:54.001Z</time></trkpt><trkpt lat="43.89182082102134" lon="10.344097219804382"><ele>314.8</ele><time>2026-05-01T12:33:56.001Z</time></trkpt><trkpt lat="43.891756269101506" lon="10.34400699696038"><ele>317.6</ele><time>2026-05-01T12:33:58.001Z</time></trkpt><trkpt lat="43.89164913770096" lon="10.343979118376422"><ele>320.40000000000003</ele><time>2026-05-01T12:34:00.001Z</time></trkpt><trkpt lat="43.89155812770843" lon="10.34395119692378"><ele>323.2</ele><time>2026-05-01T12:34:02.001Z</time></trkpt><trkpt lat="43.89147783618897" lon="10.343935016007567"><ele>326.0</ele><time>2026-05-01T12:34:04.002Z</time></trkpt><trkpt lat="43.89138377122032" lon="10.343982945932407"><ele>326.0</ele><time>2026-05-01T12:34:06.002Z</time></trkpt><trkpt lat="43.89136572407531" lon="10.344078192406704"><ele>326.0</ele><time>2026-05-01T12:34:07.002Z</time></trkpt><trkpt lat="43.891303284907885" lon="10.344120019998424"><ele>326.0</ele><time>2026-05-01T12:34:10.002Z</time></trkpt><trkpt lat="43.89129527652672" lon="10.344009116961635"><ele>326.0</ele><time>2026-05-01T12:34:13.002Z</time></trkpt><trkpt lat="43.89136437639223" lon="10.343875531923098"><ele>326.0</ele><time>2026-05-01T12:34:15.002Z</time></trkpt><trkpt lat="43.89145761582274" lon="10.343807818336892"><ele>326.0</ele><time>2026-05-01T12:34:17.002Z</time></trkpt><trkpt lat="43.89158131670522" lon="10.34375361777924"><ele>322.7142857142857</ele><time>2026-05-01T12:34:19.002Z</time></trkpt><trkpt lat="43.89165455607405" lon="10.343715793860683"><ele>319.4285714285714</ele><time>2026-05-01T12:34:20.002Z</time></trkpt><trkpt lat="43.89173051008646" lon="10.343678597396266"><ele>316.1428571428571</ele><time>2026-05-01T12:34:21.002Z</time></trkpt><trkpt lat="43.891792811514684" lon="10.343651552085388"><ele>312.8571428571429</ele><time>2026-05-01T12:34:22.002Z</time></trkpt><trkpt lat="43.89185511448155" lon="10.343613098176213"><ele>309.57142857142856</ele><time>2026-05-01T12:34:23.002Z</time></trkpt><trkpt lat="43.89192439357134" lon="10.34357699977905"><ele>306.2857142857143</ele><time>2026-05-01T12:34:24.002Z</time></trkpt><trkpt lat="43.89198840394456" lon="10.343535286735014"><ele>303.0</ele><time>2026-05-01T12:34:25.002Z</time></trkpt><trkpt lat="43.892045693873555" lon="10.343491898386286"><ele>301.8</ele><time>2026-05-01T12:34:26.002Z</time></trkpt><trkpt lat="43.89216308558978" lon="10.34342882146614"><ele>300.6</ele><time>2026-05-01T12:34:28.002Z</time></trkpt><trkpt lat="43.89222766616033" lon="10.343416788263731"><ele>299.4</ele><time>2026-05-01T12:34:29.002Z</time></trkpt><trkpt lat="43.89233821513914" lon="10.343416408343396"><ele>298.2</ele><time>2026-05-01T12:34:31.002Z</time></trkpt><trkpt lat="43.89242660948776" lon="10.343449473058598"><ele>297.0</ele><time>2026-05-01T12:34:33.002Z</time></trkpt><trkpt lat="43.892505196484" lon="10.343506916729307"><ele>297.0</ele><time>2026-05-01T12:34:35.002Z</time></trkpt><trkpt lat="43.89257300140658" lon="10.343471266751639"><ele>297.0</ele><time>2026-05-01T12:34:38.002Z</time></trkpt><trkpt lat="43.89255990378916" lon="10.34333933482015"><ele>297.0</ele><time>2026-05-01T12:34:41.002Z</time></trkpt><trkpt lat="43.89245243386905" lon="10.343266836248732"><ele>297.0</ele><time>2026-05-01T12:34:43.002Z</time></trkpt><trkpt lat="43.89233627236212" lon="10.343263964782766"><ele>297.0</ele><time>2026-05-01T12:34:45Z</time></trkpt><trkpt lat="43.89224490303088" lon="10.343209289251618"><ele>297.0</ele><time>2026-05-01T12:34:47Z</time></trkpt><trkpt lat="43.892137024091234" lon="10.343184904885199"><ele>297.0</ele><time>2026-05-01T12:34:49Z</time></trkpt><trkpt lat="43.89201816049235" lon="10.343150513936902"><ele>297.0</ele><time>2026-05-01T12:34:51Z</time></trkpt><trkpt lat="43.89189086777809" lon="10.343295256607178"><ele>297.0</ele><time>2026-05-01T12:34:53Z</time></trkpt><trkpt lat="43.891771511593774" lon="10.343266211993559"><ele>292.6</ele><time>2026-05-01T12:34:55Z</time></trkpt><trkpt lat="43.89172387348003" lon="10.343001852209683"><ele>288.2</ele><time>2026-05-01T12:34:56Z</time></trkpt><trkpt lat="43.89165524600541" lon="10.34299058630431"><ele>283.8</ele><time>2026-05-01T12:34:57Z</time></trkpt><trkpt lat="43.89158974012945" lon="10.342975910953609"><ele>279.4</ele><time>2026-05-01T12:34:58Z</time></trkpt><trkpt lat="43.89152588744559" lon="10.342950913653272"><ele>275.0</ele><time>2026-05-01T12:34:59Z</time></trkpt><trkpt lat="43.89146103571151" lon="10.342915758435442"><ele>275.0</ele><time>2026-05-01T12:35:00Z</time></trkpt><trkpt lat="43.89140420610545" lon="10.342873718992614"><ele>275.0</ele><time>2026-05-01T12:35:01Z</time></trkpt><trkpt lat="43.891326457002" lon="10.342793115431045"><ele>275.0</ele><time>2026-05-01T12:35:03Z</time></trkpt><trkpt lat="43.89127836283367" lon="10.342712131754663"><ele>275.0</ele><time>2026-05-01T12:35:05Z</time></trkpt><trkpt lat="43.891239694926426" lon="10.342615140274846"><ele>275.0</ele><time>2026-05-01T12:35:08Z</time></trkpt><trkpt lat="43.89128666453834" lon="10.342726820763273"><ele>275.0</ele><time>2026-05-01T12:35:17Z</time></trkpt><trkpt lat="43.89134292900545" lon="10.34283594151439"><ele>275.0</ele><time>2026-05-01T12:35:19Z</time></trkpt><trkpt lat="43.89142859424529" lon="10.3429001656645"><ele>275.0</ele><time>2026-05-01T12:35:21Z</time></trkpt><trkpt lat="43.89153035571098" lon="10.342946698142013"><ele>275.0</ele><time>2026-05-01T12:35:23Z</time></trkpt><trkpt lat="43.89159384183851" lon="10.34296983791813"><ele>275.0</ele><time>2026-05-01T12:35:24.001Z</time></trkpt><trkpt lat="43.891702069861935" lon="10.342973509651042"><ele>275.0</ele><time>2026-05-01T12:35:26.001Z</time></trkpt><trkpt lat="43.891804395217015" lon="10.342983146868201"><ele>273.8</ele><time>2026-05-01T12:35:28.001Z</time></trkpt><trkpt lat="43.891919507599994" lon="10.342953419896547"><ele>272.6</ele><time>2026-05-01T12:35:30.001Z</time></trkpt><trkpt lat="43.89203916624347" lon="10.342875176974637"><ele>271.4</ele><time>2026-05-01T12:35:32.001Z</time></trkpt><trkpt lat="43.89208419773207" lon="10.342794460591724"><ele>270.2</ele><time>2026-05-01T12:35:33.001Z</time></trkpt><trkpt lat="43.892136585234915" lon="10.34272262618694"><ele>269.0</ele><time>2026-05-01T12:35:34.001Z</time></trkpt><trkpt lat="43.89219615956706" lon="10.342672006407323"><ele>269.0</ele><time>2026-05-01T12:35:35.001Z</time></trkpt><trkpt lat="43.89227394900495" lon="10.342566348394838"><ele>269.0</ele><time>2026-05-01T12:35:37.001Z</time></trkpt><trkpt lat="43.89237093280704" lon="10.34248240626386"><ele>269.0</ele><time>2026-05-01T12:35:39.001Z</time></trkpt><trkpt lat="43.89247044956045" lon="10.34247702468671"><ele>269.0</ele><time>2026-05-01T12:35:41.001Z</time></trkpt><trkpt lat="43.89257182195343" lon="10.342518518316806"><ele>269.0</ele><time>2026-05-01T12:35:43.001Z</time></trkpt><trkpt lat="43.89260185914413" lon="10.342612428498423"><ele>267.59999999999997</ele><time>2026-05-01T12:35:44.001Z</time></trkpt><trkpt lat="43.89270562240239" lon="10.34269784492967"><ele>266.2</ele><time>2026-05-01T12:35:46.001Z</time></trkpt><trkpt lat="43.89281074042685" lon="10.342753812765649"><ele>264.79999999999995</ele><time>2026-05-01T12:35:48.001Z</time></trkpt><trkpt lat="43.89290872509762" lon="10.342833238094709"><ele>263.4</ele><time>2026-05-01T12:35:50.001Z</time></trkpt><trkpt lat="43.89297674525558" lon="10.342858188442113"><ele>262.0</ele><time>2026-05-01T12:35:52.001Z</time></trkpt><trkpt lat="43.8930415276187" lon="10.342826450230953"><ele>262.0</ele><time>2026-05-01T12:35:54.001Z</time></trkpt><trkpt lat="43.89298164006689" lon="10.342683994439806"><ele>262.0</ele><time>2026-05-01T12:35:57.001Z</time></trkpt><trkpt lat="43.892882376893226" lon="10.342631812856286"><ele>262.0</ele><time>2026-05-01T12:35:59.001Z</time></trkpt><trkpt lat="43.892772768321564" lon="10.342564667263153"><ele>262.0</ele><time>2026-05-01T12:36:01.001Z</time></trkpt><trkpt lat="43.892672860848634" lon="10.3424746040005"><ele>262.0</ele><time>2026-05-01T12:36:03.001Z</time></trkpt><trkpt lat="43.8925892138237" lon="10.342406510400593"><ele>262.0</ele><time>2026-05-01T12:36:05.001Z</time></trkpt><trkpt lat="43.89255279779538" lon="10.342319586319775"><ele>262.0</ele><time>2026-05-01T12:36:08.002Z</time></trkpt><trkpt lat="43.89261947653412" lon="10.34225421432215"><ele>262.0</ele><time>2026-05-01T12:36:11.002Z</time></trkpt><trkpt lat="43.89272971428614" lon="10.342349504970375"><ele>262.0</ele><time>2026-05-01T12:36:13.002Z</time></trkpt><trkpt lat="43.89278175927114" lon="10.34240982651636"><ele>262.0</ele><time>2026-05-01T12:36:14.002Z</time></trkpt><trkpt lat="43.8928489679754" lon="10.342449780006708"><ele>262.0</ele><time>2026-05-01T12:36:15.002Z</time></trkpt><trkpt lat="43.892913799991426" lon="10.342483230133046"><ele>262.0</ele><time>2026-05-01T12:36:16.002Z</time></trkpt><trkpt lat="43.89302498445287" lon="10.342505019798596"><ele>262.0</ele><time>2026-05-01T12:36:18.002Z</time></trkpt><trkpt lat="43.893131278798116" lon="10.342509226787099"><ele>262.0</ele><time>2026-05-01T12:36:20.002Z</time></trkpt><trkpt lat="43.89322409643017" lon="10.342493960787959"><ele>262.0</ele><time>2026-05-01T12:36:22.002Z</time></trkpt><trkpt lat="43.89328266915145" lon="10.342401005499378"><ele>262.0</ele><time>2026-05-01T12:36:24.002Z</time></trkpt><trkpt lat="43.8933161897069" lon="10.34225065865336"><ele>262.0</ele><time>2026-05-01T12:36:26.002Z</time></trkpt><trkpt lat="43.893344244051846" lon="10.342091797228631"><ele>262.0</ele><time>2026-05-01T12:36:28.002Z</time></trkpt><trkpt lat="43.89339651085366" lon="10.341964349792502"><ele>262.0</ele><time>2026-05-01T12:36:30.002Z</time></trkpt><trkpt lat="43.893444702870624" lon="10.341844506282529"><ele>262.0</ele><time>2026-05-01T12:36:32.002Z</time></trkpt><trkpt lat="43.89348904059652" lon="10.341697592820207"><ele>260.5</ele><time>2026-05-01T12:36:34.002Z</time></trkpt><trkpt lat="43.89351675483268" lon="10.341613964202097"><ele>259.0</ele><time>2026-05-01T12:36:35.002Z</time></trkpt><trkpt lat="43.89356313630741" lon="10.341537452186696"><ele>257.5</ele><time>2026-05-01T12:36:36.002Z</time></trkpt><trkpt lat="43.89359451774999" lon="10.341457708735748"><ele>256.0</ele><time>2026-05-01T12:36:37.002Z</time></trkpt><trkpt lat="43.89365462079713" lon="10.341307429111522"><ele>254.49999999999997</ele><time>2026-05-01T12:36:39.002Z</time></trkpt><trkpt lat="43.89369448551466" lon="10.341220085962492"><ele>253.0</ele><time>2026-05-01T12:36:40.002Z</time></trkpt><trkpt lat="43.89376306705653" lon="10.341074747221453"><ele>250.42857142857144</ele><time>2026-05-01T12:36:42.002Z</time></trkpt><trkpt lat="43.89378892732031" lon="10.340980470615039"><ele>247.85714285714286</ele><time>2026-05-01T12:36:43.002Z</time></trkpt><trkpt lat="43.893844221788136" lon="10.340928971159663"><ele>245.28571428571428</ele><time>2026-05-01T12:36:44.002Z</time></trkpt><trkpt lat="43.893898902772435" lon="10.340861598202341"><ele>242.71428571428572</ele><time>2026-05-01T12:36:45.002Z</time></trkpt><trkpt lat="43.89395687752015" lon="10.34078886909954"><ele>240.1428571428571</ele><time>2026-05-01T12:36:46.002Z</time></trkpt><trkpt lat="43.894006920648366" lon="10.340708743841642"><ele>237.57142857142856</ele><time>2026-05-01T12:36:47.002Z</time></trkpt><trkpt lat="43.894056080493066" lon="10.34064408417822"><ele>235.0</ele><time>2026-05-01T12:36:48.002Z</time></trkpt><trkpt lat="43.89410739446901" lon="10.340590898967596"><ele>234.4</ele><time>2026-05-01T12:36:49.002Z</time></trkpt><trkpt lat="43.894187432283076" lon="10.340462808394026"><ele>233.8</ele><time>2026-05-01T12:36:51Z</time></trkpt><trkpt lat="43.894271653559656" lon="10.34037219770304"><ele>233.2</ele><time>2026-05-01T12:36:53Z</time></trkpt><trkpt lat="43.89435976382421" lon="10.340256159463848"><ele>232.6</ele><time>2026-05-01T12:36:55Z</time></trkpt><trkpt lat="43.89440667591289" lon="10.340194377833058"><ele>232.0</ele><time>2026-05-01T12:36:56Z</time></trkpt><trkpt lat="43.89449639446685" lon="10.340070209146296"><ele>231.0</ele><time>2026-05-01T12:36:58Z</time></trkpt><trkpt lat="43.894539405654605" lon="10.340006036369122"><ele>230.0</ele><time>2026-05-01T12:36:59Z</time></trkpt><trkpt lat="43.89459579593682" lon="10.339901528382658"><ele>229.0</ele><time>2026-05-01T12:37:01Z</time></trkpt><trkpt lat="43.89462553971272" lon="10.339767586932767"><ele>228.0</ele><time>2026-05-01T12:37:03Z</time></trkpt><trkpt lat="43.894611982423804" lon="10.33960535763783"><ele>227.0</ele><time>2026-05-01T12:37:05Z</time></trkpt><trkpt lat="43.89457786001876" lon="10.339464907729193"><ele>227.00000000000003</ele><time>2026-05-01T12:37:07Z</time></trkpt><trkpt lat="43.894544896131585" lon="10.339389804033688"><ele>227.0</ele><time>2026-05-01T12:37:08Z</time></trkpt><trkpt lat="43.894498971848016" lon="10.339262126413768"><ele>227.0</ele><time>2026-05-01T12:37:10Z</time></trkpt><trkpt lat="43.89448245377026" lon="10.33917449666453"><ele>227.0</ele><time>2026-05-01T12:37:12Z</time></trkpt><trkpt lat="43.89460386566562" lon="10.339261423540089"><ele>227.00000000000003</ele><time>2026-05-01T12:37:23.001Z</time></trkpt><trkpt lat="43.89464791214124" lon="10.339347692916013"><ele>227.0</ele><time>2026-05-01T12:37:27.001Z</time></trkpt><trkpt lat="43.894605752938716" lon="10.339255758209221"><ele>227.00000000000003</ele><time>2026-05-01T12:37:44.001Z</time></trkpt><trkpt lat="43.894549114460546" lon="10.339185360158575"><ele>227.0</ele><time>2026-05-01T12:37:46.001Z</time></trkpt><trkpt lat="43.89455289301903" lon="10.339095484216386"><ele>227.0</ele><time>2026-05-01T12:37:47.001Z</time></trkpt><trkpt lat="43.894508404314486" lon="10.339018007008967"><ele>227.0</ele><time>2026-05-01T12:37:48.001Z</time></trkpt><trkpt lat="43.89447255900259" lon="10.338944998604745"><ele>227.00000000000003</ele><time>2026-05-01T12:37:49.001Z</time></trkpt><trkpt lat="43.89440221995941" lon="10.338822076222602"><ele>227.0</ele><time>2026-05-01T12:37:51.001Z</time></trkpt><trkpt lat="43.89433424576977" lon="10.338694604277475"><ele>226.50000000000003</ele><time>2026-05-01T12:37:53.001Z</time></trkpt><trkpt lat="43.894287951149884" lon="10.338628711895455"><ele>226.0</ele><time>2026-05-01T12:37:54.001Z</time></trkpt><trkpt lat="43.894244554408765" lon="10.338548690857127"><ele>225.5</ele><time>2026-05-01T12:37:55.001Z</time></trkpt><trkpt lat="43.89416823730472" lon="10.338410698333472"><ele>225.0</ele><time>2026-05-01T12:37:57.001Z</time></trkpt><trkpt lat="43.89411762885049" lon="10.338335362747026"><ele>224.50000000000003</ele><time>2026-05-01T12:37:58.001Z</time></trkpt><trkpt lat="43.89407384051498" lon="10.338260057629727"><ele>224.0</ele><time>2026-05-01T12:37:59.001Z</time></trkpt><trkpt lat="43.89402883416044" lon="10.338169286552873"><ele>224.00000000000003</ele><time>2026-05-01T12:38:00.001Z</time></trkpt><trkpt lat="43.893990395596596" lon="10.338078296978411"><ele>224.0</ele><time>2026-05-01T12:38:01.001Z</time></trkpt><trkpt lat="43.89393522082853" lon="10.337979000603267"><ele>224.0</ele><time>2026-05-01T12:38:02.001Z</time></trkpt><trkpt lat="43.89389689174175" lon="10.337879579340614"><ele>224.0</ele><time>2026-05-01T12:38:03.001Z</time></trkpt><trkpt lat="43.893843685019675" lon="10.337774286825205"><ele>224.00000000000003</ele><time>2026-05-01T12:38:04.002Z</time></trkpt><trkpt lat="43.89380477780349" lon="10.337681619088105"><ele>224.0</ele><time>2026-05-01T12:38:05.002Z</time></trkpt><trkpt lat="43.893755591296575" lon="10.337583039664183"><ele>224.00000000000003</ele><time>2026-05-01T12:38:06.002Z</time></trkpt><trkpt lat="43.893710190152454" lon="10.337472503345353"><ele>224.0</ele><time>2026-05-01T12:38:07.002Z</time></trkpt><trkpt lat="43.89366300984627" lon="10.337363949098005"><ele>224.0</ele><time>2026-05-01T12:38:08.002Z</time></trkpt><trkpt lat="43.893619359552304" lon="10.33726889932912"><ele>224.0</ele><time>2026-05-01T12:38:09.002Z</time></trkpt><trkpt lat="43.89357131869575" lon="10.337194158250153"><ele>224.00000000000003</ele><time>2026-05-01T12:38:10.002Z</time></trkpt><trkpt lat="43.89352544689183" lon="10.337097032989723"><ele>224.0</ele><time>2026-05-01T12:38:11.002Z</time></trkpt><trkpt lat="43.89345269978342" lon="10.337039062908612"><ele>220.79999999999998</ele><time>2026-05-01T12:38:12.002Z</time></trkpt><trkpt lat="43.89337229444442" lon="10.336961126807926"><ele>217.59999999999997</ele><time>2026-05-01T12:38:13.002Z</time></trkpt><trkpt lat="43.89329402859392" lon="10.336920832363624"><ele>214.4</ele><time>2026-05-01T12:38:14.002Z</time></trkpt><trkpt lat="43.89322178148944" lon="10.336846892255485"><ele>211.2</ele><time>2026-05-01T12:38:15.002Z</time></trkpt><trkpt lat="43.893143696521435" lon="10.33678318483256"><ele>208.0</ele><time>2026-05-01T12:38:16.002Z</time></trkpt><trkpt lat="43.8930715315035" lon="10.336713616006517"><ele>208.0</ele><time>2026-05-01T12:38:17.002Z</time></trkpt><trkpt lat="43.892999380092895" lon="10.33666156232858"><ele>208.0</ele><time>2026-05-01T12:38:18.002Z</time></trkpt><trkpt lat="43.89295521530646" lon="10.33658144466611"><ele>208.0</ele><time>2026-05-01T12:38:19.002Z</time></trkpt><trkpt lat="43.892877182879396" lon="10.33643075848035"><ele>208.0</ele><time>2026-05-01T12:38:21.002Z</time></trkpt><trkpt lat="43.89282805313016" lon="10.336283812623021"><ele>208.0</ele><time>2026-05-01T12:38:23.002Z</time></trkpt><trkpt lat="43.89280132028784" lon="10.336203567351115"><ele>204.16666666666666</ele><time>2026-05-01T12:38:24.002Z</time></trkpt><trkpt lat="43.89276431365842" lon="10.336030986366465"><ele>200.33333333333331</ele><time>2026-05-01T12:38:26.002Z</time></trkpt><trkpt lat="43.89276124323391" lon="10.335942175048128"><ele>196.5</ele><time>2026-05-01T12:38:27.002Z</time></trkpt><trkpt lat="43.89275272697625" lon="10.335849119712543"><ele>192.66666666666666</ele><time>2026-05-01T12:38:28.002Z</time></trkpt><trkpt lat="43.89275408208397" lon="10.335755723774236"><ele>188.83333333333331</ele><time>2026-05-01T12:38:29.002Z</time></trkpt><trkpt lat="43.892750034194776" lon="10.335657181949818"><ele>185.0</ele><time>2026-05-01T12:38:30.002Z</time></trkpt><trkpt lat="43.89269679762719" lon="10.335569846211701"><ele>184.8</ele><time>2026-05-01T12:38:31.002Z</time></trkpt><trkpt lat="43.89265502024888" lon="10.335485462385723"><ele>184.6</ele><time>2026-05-01T12:38:32.002Z</time></trkpt><trkpt lat="43.892559339650404" lon="10.33535800002899"><ele>184.39999999999998</ele><time>2026-05-01T12:38:34.002Z</time></trkpt><trkpt lat="43.89250329652718" lon="10.335316058632198"><ele>184.2</ele><time>2026-05-01T12:38:35.002Z</time></trkpt><trkpt lat="43.89237908042431" lon="10.335243248271977"><ele>184.0</ele><time>2026-05-01T12:38:37.002Z</time></trkpt><trkpt lat="43.89231061194108" lon="10.335192940283612"><ele>184.0</ele><time>2026-05-01T12:38:38.002Z</time></trkpt><trkpt lat="43.89227082864095" lon="10.335124158012869"><ele>184.0</ele><time>2026-05-01T12:38:39.002Z</time></trkpt><trkpt lat="43.89222392528874" lon="10.335061279964624"><ele>184.0</ele><time>2026-05-01T12:38:40.002Z</time></trkpt><trkpt lat="43.89218251092806" lon="10.334986718491809"><ele>184.0</ele><time>2026-05-01T12:38:41.002Z</time></trkpt><trkpt lat="43.89215597003627" lon="10.33489261738685"><ele>184.0</ele><time>2026-05-01T12:38:42.002Z</time></trkpt><trkpt lat="43.89206669486014" lon="10.334793272922502"><ele>184.0</ele><time>2026-05-01T12:38:44.002Z</time></trkpt><trkpt lat="43.89201127541435" lon="10.334699775008653"><ele>182.0</ele><time>2026-05-01T12:38:46.002Z</time></trkpt><trkpt lat="43.891974865410425" lon="10.334628192504375"><ele>180.0</ele><time>2026-05-01T12:38:50.003Z</time></trkpt><trkpt lat="43.89197106360862" lon="10.334490624058393"><ele>178.0</ele><time>2026-05-01T12:39:12.001Z</time></trkpt><trkpt lat="43.89202218580089" lon="10.334348542329167"><ele>176.0</ele><time>2026-05-01T12:39:14.001Z</time></trkpt><trkpt lat="43.89206171114993" lon="10.334269026201934"><ele>174.0</ele><time>2026-05-01T12:39:15.001Z</time></trkpt><trkpt lat="43.89210666977531" lon="10.334184233737346"><ele>172.0</ele><time>2026-05-01T12:39:16.001Z</time></trkpt><trkpt lat="43.89215257531476" lon="10.334102092820968"><ele>172.0</ele><time>2026-05-01T12:39:17.001Z</time></trkpt><trkpt lat="43.89219207509174" lon="10.334025820060301"><ele>172.0</ele><time>2026-05-01T12:39:18.001Z</time></trkpt><trkpt lat="43.892233681561294" lon="10.333933272014296"><ele>172.0</ele><time>2026-05-01T12:39:19.001Z</time></trkpt><trkpt lat="43.892270494372106" lon="10.333832295122848"><ele>172.0</ele><time>2026-05-01T12:39:20.001Z</time></trkpt><trkpt lat="43.89229523877321" lon="10.333729598389272"><ele>172.0</ele><time>2026-05-01T12:39:21.001Z</time></trkpt><trkpt lat="43.89230544681224" lon="10.333593834387665"><ele>172.0</ele><time>2026-05-01T12:39:22.001Z</time></trkpt><trkpt lat="43.89230919566919" lon="10.333484240109142"><ele>171.71428571428572</ele><time>2026-05-01T12:39:23.001Z</time></trkpt><trkpt lat="43.892315898653436" lon="10.333392232003398"><ele>171.42857142857144</ele><time>2026-05-01T12:39:24.001Z</time></trkpt><trkpt lat="43.89232194263974" lon="10.333292661378882"><ele>171.14285714285717</ele><time>2026-05-01T12:39:25.001Z</time></trkpt><trkpt lat="43.89231887142509" lon="10.33319912352854"><ele>170.85714285714286</ele><time>2026-05-01T12:39:26.001Z</time></trkpt><trkpt lat="43.89231915588226" lon="10.333111416921906"><ele>170.57142857142856</ele><time>2026-05-01T12:39:27.001Z</time></trkpt><trkpt lat="43.89230724776247" lon="10.333024855845286"><ele>170.2857142857143</ele><time>2026-05-01T12:39:28.001Z</time></trkpt><trkpt lat="43.8922838838573" lon="10.332933582856514"><ele>170.0</ele><time>2026-05-01T12:39:29.001Z</time></trkpt><trkpt lat="43.89225076777689" lon="10.332836669314483"><ele>167.83333333333331</ele><time>2026-05-01T12:39:30.001Z</time></trkpt><trkpt lat="43.89221100935534" lon="10.332734686175606"><ele>165.66666666666666</ele><time>2026-05-01T12:39:31.001Z</time></trkpt><trkpt lat="43.89216794748937" lon="10.33263495208827"><ele>163.5</ele><time>2026-05-01T12:39:32.001Z</time></trkpt><trkpt lat="43.89212862901498" lon="10.332519625215877"><ele>161.33333333333334</ele><time>2026-05-01T12:39:33.001Z</time></trkpt><trkpt lat="43.89209444795707" lon="10.332418884218125"><ele>159.16666666666669</ele><time>2026-05-01T12:39:34.001Z</time></trkpt><trkpt lat="43.89207078473576" lon="10.332303306266052"><ele>157.0</ele><time>2026-05-01T12:39:35.001Z</time></trkpt><trkpt lat="43.89204302132346" lon="10.332197446841347"><ele>154.66666666666669</ele><time>2026-05-01T12:39:36.001Z</time></trkpt><trkpt lat="43.89201905493793" lon="10.332099016850059"><ele>152.33333333333334</ele><time>2026-05-01T12:39:37.001Z</time></trkpt><trkpt lat="43.89199269263775" lon="10.332014262594589"><ele>150.0</ele><time>2026-05-01T12:39:38.001Z</time></trkpt><trkpt lat="43.89196201486442" lon="10.33191974350799"><ele>147.66666666666666</ele><time>2026-05-01T12:39:39.001Z</time></trkpt><trkpt lat="43.89192531391902" lon="10.331835988306546"><ele>145.33333333333331</ele><time>2026-05-01T12:39:40.001Z</time></trkpt><trkpt lat="43.89185145397492" lon="10.331745587680087"><ele>143.0</ele><time>2026-05-01T12:39:41.001Z</time></trkpt><trkpt lat="43.89177818447144" lon="10.3316580288239"><ele>143.4</ele><time>2026-05-01T12:39:42.001Z</time></trkpt><trkpt lat="43.89171350465413" lon="10.331569461220857"><ele>143.8</ele><time>2026-05-01T12:39:43.001Z</time></trkpt><trkpt lat="43.89164276891535" lon="10.331461753496516"><ele>144.2</ele><time>2026-05-01T12:39:44.001Z</time></trkpt><trkpt lat="43.891563487830155" lon="10.331377899513846"><ele>144.6</ele><time>2026-05-01T12:39:45.001Z</time></trkpt><trkpt lat="43.891490631895394" lon="10.331278707672196"><ele>145.0</ele><time>2026-05-01T12:39:46.001Z</time></trkpt><trkpt lat="43.8914249740555" lon="10.33120440230008"><ele>145.0</ele><time>2026-05-01T12:39:47.001Z</time></trkpt><trkpt lat="43.89138184160961" lon="10.331136311726514"><ele>145.0</ele><time>2026-05-01T12:39:48.001Z</time></trkpt><trkpt lat="43.89134250959864" lon="10.331066272146813"><ele>145.0</ele><time>2026-05-01T12:39:49.001Z</time></trkpt><trkpt lat="43.89134350381663" lon="10.330976158804445"><ele>145.0</ele><time>2026-05-01T12:39:50.001Z</time></trkpt><trkpt lat="43.89136604577901" lon="10.330791457008024"><ele>145.0</ele><time>2026-05-01T12:39:52.001Z</time></trkpt><trkpt lat="43.89135205874506" lon="10.330615930820437"><ele>142.57142857142858</ele><time>2026-05-01T12:39:54.001Z</time></trkpt><trkpt lat="43.89133022500546" lon="10.330529659648626"><ele>140.14285714285717</ele><time>2026-05-01T12:39:55.001Z</time></trkpt><trkpt lat="43.89128644655594" lon="10.33045438248204"><ele>137.71428571428572</ele><time>2026-05-01T12:39:56.001Z</time></trkpt><trkpt lat="43.89123232215108" lon="10.330394575340996"><ele>135.28571428571428</ele><time>2026-05-01T12:39:57.001Z</time></trkpt><trkpt lat="43.891178059585435" lon="10.33033395671055"><ele>132.85714285714283</ele><time>2026-05-01T12:39:58.001Z</time></trkpt><trkpt lat="43.8911132196109" lon="10.33026161197496"><ele>130.42857142857142</ele><time>2026-05-01T12:39:59.001Z</time></trkpt><trkpt lat="43.891048533480074" lon="10.330190434389236"><ele>128.0</ele><time>2026-05-01T12:40:00.001Z</time></trkpt><trkpt lat="43.89098383819786" lon="10.330118864966702"><ele>128.6</ele><time>2026-05-01T12:40:01.001Z</time></trkpt><trkpt lat="43.89092143144881" lon="10.330037571331205"><ele>129.20000000000002</ele><time>2026-05-01T12:40:02.001Z</time></trkpt><trkpt lat="43.890848898744196" lon="10.329955741596088"><ele>129.8</ele><time>2026-05-01T12:40:03.001Z</time></trkpt><trkpt lat="43.89078580458525" lon="10.329874758059317"><ele>130.4</ele><time>2026-05-01T12:40:04.001Z</time></trkpt><trkpt lat="43.89070933281585" lon="10.329778718026521"><ele>131.0</ele><time>2026-05-01T12:40:05.002Z</time></trkpt><trkpt lat="43.89063401291352" lon="10.329688752999381"><ele>131.0</ele><time>2026-05-01T12:40:06.002Z</time></trkpt><trkpt lat="43.89055386108891" lon="10.329596810088736"><ele>131.0</ele><time>2026-05-01T12:40:07.002Z</time></trkpt><trkpt lat="43.89047379222021" lon="10.329503275963388"><ele>131.0</ele><time>2026-05-01T12:40:08.002Z</time></trkpt><trkpt lat="43.890406266270105" lon="10.32942035035791"><ele>131.0</ele><time>2026-05-01T12:40:09.002Z</time></trkpt><trkpt lat="43.89032452217305" lon="10.329334438048381"><ele>131.0</ele><time>2026-05-01T12:40:10.002Z</time></trkpt><trkpt lat="43.89021375929783" lon="10.329276984856232"><ele>131.0</ele><time>2026-05-01T12:40:11.002Z</time></trkpt><trkpt lat="43.89013614012592" lon="10.329214964375794"><ele>131.0</ele><time>2026-05-01T12:40:12.002Z</time></trkpt><trkpt lat="43.89006265361914" lon="10.329165175808686"><ele>131.0</ele><time>2026-05-01T12:40:13.002Z</time></trkpt><trkpt lat="43.8899823841928" lon="10.329117995971236"><ele>131.0</ele><time>2026-05-01T12:40:14.002Z</time></trkpt><trkpt lat="43.889903231916534" lon="10.329082195680368"><ele>131.0</ele><time>2026-05-01T12:40:15.002Z</time></trkpt><trkpt lat="43.88982362278852" lon="10.329061623165451"><ele>131.0</ele><time>2026-05-01T12:40:16.002Z</time></trkpt><trkpt lat="43.88973885069554" lon="10.329015600244881"><ele>130.0</ele><time>2026-05-01T12:40:17.002Z</time></trkpt><trkpt lat="43.88965768437818" lon="10.32897010773336"><ele>129.0</ele><time>2026-05-01T12:40:18.002Z</time></trkpt><trkpt lat="43.88959311140907" lon="10.328906733358169"><ele>128.0</ele><time>2026-05-01T12:40:19.002Z</time></trkpt><trkpt lat="43.88953465059522" lon="10.328869091043693"><ele>127.0</ele><time>2026-05-01T12:40:20.002Z</time></trkpt><trkpt lat="43.88944785998" lon="10.328769902662847"><ele>125.99999999999999</ele><time>2026-05-01T12:40:22.002Z</time></trkpt><trkpt lat="43.88941466271653" lon="10.328689249927937"><ele>125.0</ele><time>2026-05-01T12:40:23.002Z</time></trkpt><trkpt lat="43.88940531366904" lon="10.328587904039393"><ele>124.99999999999999</ele><time>2026-05-01T12:40:24.002Z</time></trkpt><trkpt lat="43.88938710119953" lon="10.328492638805345"><ele>125.0</ele><time>2026-05-01T12:40:25.002Z</time></trkpt><trkpt lat="43.88936601011261" lon="10.32839817217184"><ele>125.0</ele><time>2026-05-01T12:40:26.002Z</time></trkpt><trkpt lat="43.8893431745296" lon="10.328287365168151"><ele>125.0</ele><time>2026-05-01T12:40:27.002Z</time></trkpt><trkpt lat="43.889341472721924" lon="10.328174256952506"><ele>124.99999999999999</ele><time>2026-05-01T12:40:28.002Z</time></trkpt><trkpt lat="43.88932845723271" lon="10.328071842742906"><ele>125.0</ele><time>2026-05-01T12:40:29.002Z</time></trkpt><trkpt lat="43.889385241245236" lon="10.32797185271895"><ele>123.66666666666666</ele><time>2026-05-01T12:40:30.002Z</time></trkpt><trkpt lat="43.88941319875195" lon="10.327852133812536"><ele>122.33333333333333</ele><time>2026-05-01T12:40:31.002Z</time></trkpt><trkpt lat="43.88943804312307" lon="10.327746555711444"><ele>121.0</ele><time>2026-05-01T12:40:32.002Z</time></trkpt><trkpt lat="43.88943717287768" lon="10.32763112236104"><ele>119.66666666666666</ele><time>2026-05-01T12:40:33.002Z</time></trkpt><trkpt lat="43.88942697024577" lon="10.327505932253864"><ele>118.33333333333333</ele><time>2026-05-01T12:40:34.002Z</time></trkpt><trkpt lat="43.88943431390494" lon="10.327384333597164"><ele>117.0</ele><time>2026-05-01T12:40:35.002Z</time></trkpt><trkpt lat="43.88946904598556" lon="10.32726919661886"><ele>118.0</ele><time>2026-05-01T12:40:36.002Z</time></trkpt><trkpt lat="43.88951178532315" lon="10.327148429281152"><ele>118.99999999999999</ele><time>2026-05-01T12:40:37.002Z</time></trkpt><trkpt lat="43.88955191815754" lon="10.327029048274847"><ele>119.99999999999999</ele><time>2026-05-01T12:40:38.002Z</time></trkpt><trkpt lat="43.8896223129115" lon="10.326920030274454"><ele>121.0</ele><time>2026-05-01T12:40:39.002Z</time></trkpt><trkpt lat="43.88967309530199" lon="10.3267901609062"><ele>122.0</ele><time>2026-05-01T12:40:40.002Z</time></trkpt><trkpt lat="43.88973361792106" lon="10.32667728245217"><ele>122.0</ele><time>2026-05-01T12:40:41.002Z</time></trkpt><trkpt lat="43.88980347867925" lon="10.3265627235896"><ele>121.99999999999999</ele><time>2026-05-01T12:40:42.002Z</time></trkpt><trkpt lat="43.88987161981386" lon="10.326445252575194"><ele>121.99999999999999</ele><time>2026-05-01T12:40:43.002Z</time></trkpt><trkpt lat="43.88995209469158" lon="10.326348135330287"><ele>122.0</ele><time>2026-05-01T12:40:44.002Z</time></trkpt><trkpt lat="43.890024999077816" lon="10.326259048083879"><ele>122.0</ele><time>2026-05-01T12:40:45.002Z</time></trkpt><trkpt lat="43.890111489922994" lon="10.326176400143332"><ele>118.49999999999999</ele><time>2026-05-01T12:40:46.002Z</time></trkpt><trkpt lat="43.89016541581322" lon="10.326082855868737"><ele>115.0</ele><time>2026-05-01T12:40:47.002Z</time></trkpt><trkpt lat="43.89023334454588" lon="10.326024929089817"><ele>111.5</ele><time>2026-05-01T12:40:48.002Z</time></trkpt><trkpt lat="43.890269007419434" lon="10.32594128253357"><ele>108.0</ele><time>2026-05-01T12:40:49.002Z</time></trkpt><trkpt lat="43.89029541253016" lon="10.32584852665736"><ele>104.49999999999999</ele><time>2026-05-01T12:40:50.002Z</time></trkpt><trkpt lat="43.890326339275894" lon="10.325733996813963"><ele>101.0</ele><time>2026-05-01T12:40:51.002Z</time></trkpt><trkpt lat="43.890337305974136" lon="10.325612669479977"><ele>101.8</ele><time>2026-05-01T12:40:52.002Z</time></trkpt><trkpt lat="43.8903519259646" lon="10.325490233005166"><ele>102.6</ele><time>2026-05-01T12:40:53.002Z</time></trkpt><trkpt lat="43.89036045837582" lon="10.32536714994938"><ele>103.4</ele><time>2026-05-01T12:40:54.003Z</time></trkpt><trkpt lat="43.89037663603511" lon="10.325243916611747"><ele>104.2</ele><time>2026-05-01T12:40:55.003Z</time></trkpt><trkpt lat="43.89039566333772" lon="10.325114473761598"><ele>105.0</ele><time>2026-05-01T12:40:56.003Z</time></trkpt><trkpt lat="43.89043051007461" lon="10.324982009021406"><ele>105.0</ele><time>2026-05-01T12:40:57.003Z</time></trkpt><trkpt lat="43.89046885133202" lon="10.32486125028006"><ele>105.0</ele><time>2026-05-01T12:40:58.003Z</time></trkpt><trkpt lat="43.89051573600612" lon="10.324745623924422"><ele>105.0</ele><time>2026-05-01T12:40:59.003Z</time></trkpt><trkpt lat="43.890555283645824" lon="10.324633104280728"><ele>105.0</ele><time>2026-05-01T12:41:00.003Z</time></trkpt><trkpt lat="43.89058882073277" lon="10.324539463736713"><ele>105.0</ele><time>2026-05-01T12:41:01.003Z</time></trkpt><trkpt lat="43.890619583827764" lon="10.324450753470897"><ele>105.0</ele><time>2026-05-01T12:41:02.001Z</time></trkpt><trkpt lat="43.89065363509846" lon="10.32435595991097"><ele>105.5</ele><time>2026-05-01T12:41:03.001Z</time></trkpt><trkpt lat="43.890690923859886" lon="10.324256367024592"><ele>106.0</ele><time>2026-05-01T12:41:04.001Z</time></trkpt><trkpt lat="43.890699200201084" lon="10.324136181137586"><ele>106.5</ele><time>2026-05-01T12:41:05.001Z</time></trkpt><trkpt lat="43.890721090452445" lon="10.324028985757355"><ele>107.0</ele><time>2026-05-01T12:41:06.001Z</time></trkpt><trkpt lat="43.89072084985391" lon="10.323923937038977"><ele>107.5</ele><time>2026-05-01T12:41:07.001Z</time></trkpt><trkpt lat="43.89069256750771" lon="10.323818668752635"><ele>108.0</ele><time>2026-05-01T12:41:08.001Z</time></trkpt><trkpt lat="43.8906647127679" lon="10.323726222511162"><ele>106.0</ele><time>2026-05-01T12:41:09.001Z</time></trkpt><trkpt lat="43.890615134443905" lon="10.32362546439552"><ele>104.0</ele><time>2026-05-01T12:41:11.001Z</time></trkpt><trkpt lat="43.89054498151029" lon="10.323564256085561"><ele>102.0</ele><time>2026-05-01T12:41:12.001Z</time></trkpt><trkpt lat="43.89048271827751" lon="10.323526236155024"><ele>100.0</ele><time>2026-05-01T12:41:13.001Z</time></trkpt><trkpt lat="43.89042186980788" lon="10.323484474707412"><ele>98.0</ele><time>2026-05-01T12:41:14.001Z</time></trkpt><trkpt lat="43.89036761996261" lon="10.323438976869399"><ele>96.0</ele><time>2026-05-01T12:41:15.001Z</time></trkpt><trkpt lat="43.89031361072924" lon="10.32337855315883"><ele>94.0</ele><time>2026-05-01T12:41:16.001Z</time></trkpt><trkpt lat="43.890261720963444" lon="10.323306073455004"><ele>94.0</ele><time>2026-05-01T12:41:17.001Z</time></trkpt><trkpt lat="43.89020769652703" lon="10.323220644606344"><ele>94.0</ele><time>2026-05-01T12:41:18.001Z</time></trkpt><trkpt lat="43.89016154601475" lon="10.323120401857258"><ele>94.0</ele><time>2026-05-01T12:41:19.001Z</time></trkpt><trkpt lat="43.89011602446734" lon="10.32302110833237"><ele>94.0</ele><time>2026-05-01T12:41:20.001Z</time></trkpt><trkpt lat="43.89007933860326" lon="10.322918751383769"><ele>94.0</ele><time>2026-05-01T12:41:21.001Z</time></trkpt><trkpt lat="43.89005652353676" lon="10.322821504627985"><ele>94.0</ele><time>2026-05-01T12:41:22.001Z</time></trkpt><trkpt lat="43.89002485217219" lon="10.322709201806624"><ele>95.66666666666666</ele><time>2026-05-01T12:41:23.001Z</time></trkpt><trkpt lat="43.89002016459854" lon="10.32258284526725"><ele>97.33333333333333</ele><time>2026-05-01T12:41:24.001Z</time></trkpt><trkpt lat="43.890022387263954" lon="10.322467427616251"><ele>99.0</ele><time>2026-05-01T12:41:25.001Z</time></trkpt><trkpt lat="43.89004207534274" lon="10.322365759606171"><ele>100.66666666666666</ele><time>2026-05-01T12:41:26.001Z</time></trkpt><trkpt lat="43.890062361164915" lon="10.322210176450223"><ele>102.33333333333333</ele><time>2026-05-01T12:41:28.001Z</time></trkpt><trkpt lat="43.89009674624512" lon="10.32211449404833"><ele>104.0</ele><time>2026-05-01T12:41:30.001Z</time></trkpt><trkpt lat="43.8901723443649" lon="10.32213865805243"><ele>98.8</ele><time>2026-05-01T12:41:32.001Z</time></trkpt><trkpt lat="43.89016845527972" lon="10.322265404467315"><ele>93.60000000000001</ele><time>2026-05-01T12:41:34.001Z</time></trkpt><trkpt lat="43.89012699036764" lon="10.322411132723458"><ele>88.4</ele><time>2026-05-01T12:41:36.001Z</time></trkpt><trkpt lat="43.890139874625355" lon="10.322563241832189"><ele>83.2</ele><time>2026-05-01T12:41:38.001Z</time></trkpt><trkpt lat="43.89016084094418" lon="10.322732011963268"><ele>78.0</ele><time>2026-05-01T12:41:40.001Z</time></trkpt><trkpt lat="43.89020361739295" lon="10.32280750040524"><ele>78.0</ele><time>2026-05-01T12:41:41.001Z</time></trkpt><trkpt lat="43.89023988852769" lon="10.322888597834384"><ele>78.0</ele><time>2026-05-01T12:41:42.001Z</time></trkpt><trkpt lat="43.890287878492515" lon="10.322963365711834"><ele>78.0</ele><time>2026-05-01T12:41:43.001Z</time></trkpt><trkpt lat="43.89034286799262" lon="10.32303774326003"><ele>78.0</ele><time>2026-05-01T12:41:44.001Z</time></trkpt><trkpt lat="43.890398866210596" lon="10.323108880117678"><ele>78.0</ele><time>2026-05-01T12:41:45.001Z</time></trkpt><trkpt lat="43.890467765125145" lon="10.32317218754695"><ele>78.0</ele><time>2026-05-01T12:41:46.001Z</time></trkpt><trkpt lat="43.890541933172265" lon="10.323215909828837"><ele>80.66666666666667</ele><time>2026-05-01T12:41:47.001Z</time></trkpt><trkpt lat="43.89062025168051" lon="10.323242902667833"><ele>83.33333333333333</ele><time>2026-05-01T12:41:48.001Z</time></trkpt><trkpt lat="43.89070692532831" lon="10.323263771047232"><ele>86.0</ele><time>2026-05-01T12:41:49.001Z</time></trkpt><trkpt lat="43.890795355597874" lon="10.323278375453372"><ele>88.66666666666666</ele><time>2026-05-01T12:41:50.001Z</time></trkpt><trkpt lat="43.89086791766603" lon="10.32329367796363"><ele>91.33333333333333</ele><time>2026-05-01T12:41:51.001Z</time></trkpt><trkpt lat="43.89093274516956" lon="10.323312378970135"><ele>94.0</ele><time>2026-05-01T12:41:52.001Z</time></trkpt><trkpt lat="43.8910423965885" lon="10.323397221972261"><ele>88.2</ele><time>2026-05-01T12:41:54.001Z</time></trkpt><trkpt lat="43.8910726935149" lon="10.323587307031"><ele>82.4</ele><time>2026-05-01T12:41:56.001Z</time></trkpt><trkpt lat="43.891081914240765" lon="10.323705064102464"><ele>76.6</ele><time>2026-05-01T12:41:57.001Z</time></trkpt><trkpt lat="43.89108875245627" lon="10.323821865841259"><ele>70.8</ele><time>2026-05-01T12:41:58.001Z</time></trkpt><trkpt lat="43.89109655026068" lon="10.323946866116001"><ele>65.0</ele><time>2026-05-01T12:41:59.001Z</time></trkpt><trkpt lat="43.891117259561064" lon="10.324078283240562"><ele>65.0</ele><time>2026-05-01T12:42:00.001Z</time></trkpt><trkpt lat="43.891147155479004" lon="10.32420490695457"><ele>65.0</ele><time>2026-05-01T12:42:01.001Z</time></trkpt><trkpt lat="43.89117998646238" lon="10.324338891590328"><ele>65.0</ele><time>2026-05-01T12:42:02.001Z</time></trkpt><trkpt lat="43.891204469518" lon="10.324474339132147"><ele>65.0</ele><time>2026-05-01T12:42:03.001Z</time></trkpt><trkpt lat="43.89123885108423" lon="10.324596869550287"><ele>65.0</ele><time>2026-05-01T12:42:04.001Z</time></trkpt><trkpt lat="43.891257712354275" lon="10.324695763229277"><ele>65.0</ele><time>2026-05-01T12:42:05.001Z</time></trkpt><trkpt lat="43.89127197644464" lon="10.324800290597576"><ele>65.0</ele><time>2026-05-01T12:42:06.001Z</time></trkpt><trkpt lat="43.89129761935475" lon="10.32488792543812"><ele>65.0</ele><time>2026-05-01T12:42:07.001Z</time></trkpt><trkpt lat="43.8913203307728" lon="10.324969399011882"><ele>65.0</ele><time>2026-05-01T12:42:08.001Z</time></trkpt><trkpt lat="43.89132812114587" lon="10.32513476569992"><ele>65.0</ele><time>2026-05-01T12:42:10.001Z</time></trkpt><trkpt lat="43.89130454035586" lon="10.325223495526712"><ele>65.0</ele><time>2026-05-01T12:42:11.001Z</time></trkpt><trkpt lat="43.89127802803777" lon="10.325321873081332"><ele>65.0</ele><time>2026-05-01T12:42:12.001Z</time></trkpt><trkpt lat="43.89123951398711" lon="10.325416921268433"><ele>65.0</ele><time>2026-05-01T12:42:13.001Z</time></trkpt><trkpt lat="43.89121396839826" lon="10.325522395115653"><ele>65.0</ele><time>2026-05-01T12:42:14.001Z</time></trkpt><trkpt lat="43.89118735303055" lon="10.325635618081858"><ele>65.0</ele><time>2026-05-01T12:42:15.001Z</time></trkpt><trkpt lat="43.891159566067685" lon="10.325753825083632"><ele>65.0</ele><time>2026-05-01T12:42:16.001Z</time></trkpt><trkpt lat="43.891133577851015" lon="10.325882005647738"><ele>65.0</ele><time>2026-05-01T12:42:17.001Z</time></trkpt><trkpt lat="43.891115921394686" lon="10.326002763837685"><ele>64.33333333333334</ele><time>2026-05-01T12:42:18.002Z</time></trkpt><trkpt lat="43.89110583175879" lon="10.32613879342532"><ele>63.66666666666667</ele><time>2026-05-01T12:42:19.002Z</time></trkpt><trkpt lat="43.89109670248643" lon="10.326260051129074"><ele>63.0</ele><time>2026-05-01T12:42:20.002Z</time></trkpt><trkpt lat="43.89108662351252" lon="10.326371656732913"><ele>62.33333333333333</ele><time>2026-05-01T12:42:21.002Z</time></trkpt><trkpt lat="43.891072916301376" lon="10.32647238354077"><ele>61.666666666666664</ele><time>2026-05-01T12:42:22.002Z</time></trkpt><trkpt lat="43.891054748400606" lon="10.326589822169634"><ele>61.0</ele><time>2026-05-01T12:42:23.002Z</time></trkpt><trkpt lat="43.89102235872169" lon="10.326690324020623"><ele>59.8</ele><time>2026-05-01T12:42:24.002Z</time></trkpt><trkpt lat="43.89099431638912" lon="10.326827258643354"><ele>58.599999999999994</ele><time>2026-05-01T12:42:26.002Z</time></trkpt><trkpt lat="43.891044061204745" lon="10.326967950923187"><ele>57.4</ele><time>2026-05-01T12:42:28.002Z</time></trkpt><trkpt lat="43.89112370675826" lon="10.327003185157993"><ele>56.2</ele><time>2026-05-01T12:42:29.002Z</time></trkpt><trkpt lat="43.891206459211965" lon="10.327039697135108"><ele>55.0</ele><time>2026-05-01T12:42:30.002Z</time></trkpt><trkpt lat="43.89127522108152" lon="10.327057786753482"><ele>54.99999999999999</ele><time>2026-05-01T12:42:31.002Z</time></trkpt><trkpt lat="43.891346836870596" lon="10.327058009198618"><ele>55.0</ele><time>2026-05-01T12:42:32.002Z</time></trkpt><trkpt lat="43.89142473106343" lon="10.327042442867164"><ele>55.0</ele><time>2026-05-01T12:42:33.002Z</time></trkpt><trkpt lat="43.89150094870076" lon="10.327004260683672"><ele>55.0</ele><time>2026-05-01T12:42:34.002Z</time></trkpt><trkpt lat="43.891575776166" lon="10.326966719152272"><ele>54.99999999999999</ele><time>2026-05-01T12:42:35.002Z</time></trkpt><trkpt lat="43.89164850960305" lon="10.326936206745444"><ele>55.0</ele><time>2026-05-01T12:42:36.002Z</time></trkpt><trkpt lat="43.89171444640413" lon="10.326922491375191"><ele>52.49999999999999</ele><time>2026-05-01T12:42:37.002Z</time></trkpt><trkpt lat="43.89178339166624" lon="10.326953269308278"><ele>50.0</ele><time>2026-05-01T12:42:38.002Z</time></trkpt><trkpt lat="43.89186290510728" lon="10.326977108053036"><ele>47.5</ele><time>2026-05-01T12:42:39.002Z</time></trkpt><trkpt lat="43.89194237399604" lon="10.32700692785519"><ele>45.0</ele><time>2026-05-01T12:42:40.002Z</time></trkpt><trkpt lat="43.89202202069907" lon="10.327041715765093"><ele>42.5</ele><time>2026-05-01T12:42:41.002Z</time></trkpt><trkpt lat="43.892086749822134" lon="10.32708418290405"><ele>40.0</ele><time>2026-05-01T12:42:42.002Z</time></trkpt><trkpt lat="43.89213939503153" lon="10.3271414719603"><ele>42.16666666666667</ele><time>2026-05-01T12:42:43.002Z</time></trkpt><trkpt lat="43.892184410303905" lon="10.327233221700308"><ele>44.333333333333336</ele><time>2026-05-01T12:42:44.002Z</time></trkpt><trkpt lat="43.89222404248569" lon="10.327345566745233"><ele>46.5</ele><time>2026-05-01T12:42:45.002Z</time></trkpt><trkpt lat="43.89226388323292" lon="10.327429812467447"><ele>48.66666666666667</ele><time>2026-05-01T12:42:46.002Z</time></trkpt><trkpt lat="43.89236894902205" lon="10.32750801439272"><ele>50.833333333333336</ele><time>2026-05-01T12:42:48.002Z</time></trkpt><trkpt lat="43.89243534336076" lon="10.32751179964434"><ele>53.0</ele><time>2026-05-01T12:42:49.002Z</time></trkpt><trkpt lat="43.89250589870055" lon="10.327488657388642"><ele>53.00000000000001</ele><time>2026-05-01T12:42:50.002Z</time></trkpt><trkpt lat="43.89257431383428" lon="10.327448326691195"><ele>53.0</ele><time>2026-05-01T12:42:51.002Z</time></trkpt><trkpt lat="43.892644203479406" lon="10.327407039017604"><ele>53.0</ele><time>2026-05-01T12:42:52.002Z</time></trkpt><trkpt lat="43.892718466881426" lon="10.327371164970492"><ele>53.0</ele><time>2026-05-01T12:42:53.002Z</time></trkpt><trkpt lat="43.892793484228584" lon="10.327346633282277"><ele>53.00000000000001</ele><time>2026-05-01T12:42:54.002Z</time></trkpt><trkpt lat="43.892864040851094" lon="10.327344014060095"><ele>53.0</ele><time>2026-05-01T12:42:55.002Z</time></trkpt><trkpt lat="43.89293811199089" lon="10.327384002187438"><ele>51.00000000000001</ele><time>2026-05-01T12:42:56.002Z</time></trkpt><trkpt lat="43.89300563311992" lon="10.327445716310061"><ele>49.0</ele><time>2026-05-01T12:42:57.002Z</time></trkpt><trkpt lat="43.893070253412716" lon="10.327519660110713"><ele>47.0</ele><time>2026-05-01T12:42:58.002Z</time></trkpt><trkpt lat="43.893123484267306" lon="10.327615071019071"><ele>45.0</ele><time>2026-05-01T12:42:59.002Z</time></trkpt><trkpt lat="43.89317213579554" lon="10.327723568261215"><ele>43.0</ele><time>2026-05-01T12:43:00.002Z</time></trkpt><trkpt lat="43.8932350066381" lon="10.327814989195208"><ele>41.0</ele><time>2026-05-01T12:43:01.002Z</time></trkpt><trkpt lat="43.89327311239393" lon="10.32789376660294"><ele>41.0</ele><time>2026-05-01T12:43:02.002Z</time></trkpt><trkpt lat="43.8933681721573" lon="10.327991620639969"><ele>41.0</ele><time>2026-05-01T12:43:04.002Z</time></trkpt><trkpt lat="43.893492015800206" lon="10.327988787839413"><ele>41.0</ele><time>2026-05-01T12:43:06.002Z</time></trkpt><trkpt lat="43.89355614393422" lon="10.32794944044414"><ele>41.0</ele><time>2026-05-01T12:43:07.002Z</time></trkpt><trkpt lat="43.893602094032495" lon="10.327882387330664"><ele>41.0</ele><time>2026-05-01T12:43:08.001Z</time></trkpt><trkpt lat="43.89365228929444" lon="10.327814356164147"><ele>41.0</ele><time>2026-05-01T12:43:09.001Z</time></trkpt><trkpt lat="43.89370565990874" lon="10.327750555929352"><ele>40.666666666666664</ele><time>2026-05-01T12:43:10.001Z</time></trkpt><trkpt lat="43.89375312143145" lon="10.327670446950295"><ele>40.33333333333333</ele><time>2026-05-01T12:43:11.001Z</time></trkpt><trkpt lat="43.89381894847946" lon="10.3275996481664"><ele>40.0</ele><time>2026-05-01T12:43:12.001Z</time></trkpt><trkpt lat="43.89387454682788" lon="10.32750627042194"><ele>39.666666666666664</ele><time>2026-05-01T12:43:13.001Z</time></trkpt><trkpt lat="43.893916294913964" lon="10.327396191778323"><ele>39.333333333333336</ele><time>2026-05-01T12:43:14.001Z</time></trkpt><trkpt lat="43.89398276884773" lon="10.32731297744414"><ele>39.0</ele><time>2026-05-01T12:43:15.001Z</time></trkpt><trkpt lat="43.89404119060891" lon="10.32720430727366"><ele>39.25</ele><time>2026-05-01T12:43:16.001Z</time></trkpt><trkpt lat="43.8941048067815" lon="10.32708292055925"><ele>39.5</ele><time>2026-05-01T12:43:17.001Z</time></trkpt><trkpt lat="43.89416860733624" lon="10.326957712641372"><ele>39.75</ele><time>2026-05-01T12:43:18.001Z</time></trkpt><trkpt lat="43.894241328032" lon="10.326811036221024"><ele>40.0</ele><time>2026-05-01T12:43:19.001Z</time></trkpt><trkpt lat="43.894298711453125" lon="10.326687142562731"><ele>40.0</ele><time>2026-05-01T12:43:20.001Z</time></trkpt><trkpt lat="43.894346042143056" lon="10.326539641651324"><ele>40.0</ele><time>2026-05-01T12:43:21.001Z</time></trkpt><trkpt lat="43.89440815881297" lon="10.326419360074581"><ele>40.0</ele><time>2026-05-01T12:43:22.001Z</time></trkpt><trkpt lat="43.894470480845285" lon="10.326300395986475"><ele>40.0</ele><time>2026-05-01T12:43:23.001Z</time></trkpt><trkpt lat="43.89450046772875" lon="10.326191261033095"><ele>40.0</ele><time>2026-05-01T12:43:24.001Z</time></trkpt><trkpt lat="43.89452587815318" lon="10.326072709985986"><ele>38.8</ele><time>2026-05-01T12:43:25.001Z</time></trkpt><trkpt lat="43.89453469047637" lon="10.3259466140351"><ele>37.6</ele><time>2026-05-01T12:43:26.001Z</time></trkpt><trkpt lat="43.89451804846623" lon="10.325821867997805"><ele>36.4</ele><time>2026-05-01T12:43:27.001Z</time></trkpt><trkpt lat="43.894495437193925" lon="10.325701370401424"><ele>35.2</ele><time>2026-05-01T12:43:28.001Z</time></trkpt><trkpt lat="43.89446937451231" lon="10.325582014406324"><ele>34.0</ele><time>2026-05-01T12:43:29.001Z</time></trkpt><trkpt lat="43.89444675109349" lon="10.325464751028848"><ele>33.0</ele><time>2026-05-01T12:43:30.001Z</time></trkpt><trkpt lat="43.89442360123047" lon="10.325342073607525"><ele>32.0</ele><time>2026-05-01T12:43:31.001Z</time></trkpt><trkpt lat="43.89440167986101" lon="10.32521810593087"><ele>31.0</ele><time>2026-05-01T12:43:32.001Z</time></trkpt><trkpt lat="43.894378783709364" lon="10.325091788894362"><ele>30.0</ele><time>2026-05-01T12:43:33.001Z</time></trkpt><trkpt lat="43.894354631480745" lon="10.324966357308108"><ele>29.0</ele><time>2026-05-01T12:43:34.001Z</time></trkpt><trkpt lat="43.89433102375128" lon="10.324839699836415"><ele>27.799999999999997</ele><time>2026-05-01T12:43:35.001Z</time></trkpt><trkpt lat="43.89431000798309" lon="10.324714652194448"><ele>26.599999999999998</ele><time>2026-05-01T12:43:36.001Z</time></trkpt><trkpt lat="43.894282813770225" lon="10.324587386801463"><ele>25.4</ele><time>2026-05-01T12:43:37.001Z</time></trkpt><trkpt lat="43.89426109202076" lon="10.32446056591871"><ele>24.2</ele><time>2026-05-01T12:43:38.001Z</time></trkpt><trkpt lat="43.89423699387208" lon="10.324333483461603"><ele>23.0</ele><time>2026-05-01T12:43:39.001Z</time></trkpt><trkpt lat="43.89421671238887" lon="10.32420943164857"><ele>22.5</ele><time>2026-05-01T12:43:40.001Z</time></trkpt><trkpt lat="43.89419765621149" lon="10.324084138070074"><ele>22.0</ele><time>2026-05-01T12:43:41.001Z</time></trkpt><trkpt lat="43.894176403624854" lon="10.323963399180421"><ele>21.5</ele><time>2026-05-01T12:43:42.001Z</time></trkpt><trkpt lat="43.89415388778969" lon="10.323845034737534"><ele>21.0</ele><time>2026-05-01T12:43:43.001Z</time></trkpt><trkpt lat="43.894124470976806" lon="10.323732680919669"><ele>20.5</ele><time>2026-05-01T12:43:44.001Z</time></trkpt><trkpt lat="43.894087149257196" lon="10.323626988380644"><ele>20.0</ele><time>2026-05-01T12:43:45.001Z</time></trkpt><trkpt lat="43.89404246417538" lon="10.32352309386838"><ele>19.5</ele><time>2026-05-01T12:43:46.001Z</time></trkpt><trkpt lat="43.893995620772735" lon="10.323424126584817"><ele>19.0</ele><time>2026-05-01T12:43:47.001Z</time></trkpt><trkpt lat="43.89395138262373" lon="10.323330228678678"><ele>18.5</ele><time>2026-05-01T12:43:48.001Z</time></trkpt><trkpt lat="43.893911088927744" lon="10.323237493505525"><ele>18.0</ele><time>2026-05-01T12:43:49.001Z</time></trkpt><trkpt lat="43.89386734551811" lon="10.323143388550909"><ele>17.5</ele><time>2026-05-01T12:43:50.001Z</time></trkpt><trkpt lat="43.893824843666586" lon="10.323049942711664"><ele>17.0</ele><time>2026-05-01T12:43:51.001Z</time></trkpt><trkpt lat="43.893782793165435" lon="10.322956276505188"><ele>16.5</ele><time>2026-05-01T12:43:52.001Z</time></trkpt><trkpt lat="43.89373671338309" lon="10.322860966519714"><ele>16.0</ele><time>2026-05-01T12:43:53.001Z</time></trkpt><trkpt lat="43.893693433681605" lon="10.322764621690341"><ele>15.5</ele><time>2026-05-01T12:43:54.001Z</time></trkpt><trkpt lat="43.89365240649578" lon="10.3226691819966"><ele>15.0</ele><time>2026-05-01T12:43:55.001Z</time></trkpt><trkpt lat="43.893617723377304" lon="10.322570792930664"><ele>14.500000000000002</ele><time>2026-05-01T12:43:56.001Z</time></trkpt><trkpt lat="43.89358663331668" lon="10.322469554090361"><ele>14.0</ele><time>2026-05-01T12:43:57.001Z</time></trkpt><trkpt lat="43.893559340604845" lon="10.322364519249941"><ele>14.000000000000002</ele><time>2026-05-01T12:43:58.001Z</time></trkpt><trkpt lat="43.89353719114516" lon="10.322258252255514"><ele>14.0</ele><time>2026-05-01T12:43:59.001Z</time></trkpt><trkpt lat="43.893514349565145" lon="10.322155556203445"><ele>14.0</ele><time>2026-05-01T12:44:00.001Z</time></trkpt><trkpt lat="43.89349259016737" lon="10.322055228745812"><ele>14.0</ele><time>2026-05-01T12:44:01.001Z</time></trkpt><trkpt lat="43.893472156874694" lon="10.321954924848235"><ele>14.000000000000002</ele><time>2026-05-01T12:44:02.001Z</time></trkpt><trkpt lat="43.893449191465" lon="10.321857713558824"><ele>14.0</ele><time>2026-05-01T12:44:03.001Z</time></trkpt><trkpt lat="43.893418259283365" lon="10.321766733690625"><ele>13.571428571428571</ele><time>2026-05-01T12:44:04.001Z</time></trkpt><trkpt lat="43.89338605869845" lon="10.321679524617487"><ele>13.142857142857142</ele><time>2026-05-01T12:44:05.001Z</time></trkpt><trkpt lat="43.89335383486686" lon="10.321587815058725"><ele>12.714285714285715</ele><time>2026-05-01T12:44:06.001Z</time></trkpt><trkpt lat="43.89332043130967" lon="10.321500095008773"><ele>12.285714285714285</ele><time>2026-05-01T12:44:07.001Z</time></trkpt><trkpt lat="43.89328307627965" lon="10.32141786473654"><ele>11.857142857142858</ele><time>2026-05-01T12:44:08.001Z</time></trkpt><trkpt lat="43.89324416515892" lon="10.32133521892921"><ele>11.428571428571429</ele><time>2026-05-01T12:44:09.001Z</time></trkpt><trkpt lat="43.89320902390456" lon="10.32125120539562"><ele>11.0</ele><time>2026-05-01T12:44:10.001Z</time></trkpt><trkpt lat="43.893177409553445" lon="10.32116393640632"><ele>10.857142857142858</ele><time>2026-05-01T12:44:11.001Z</time></trkpt><trkpt lat="43.89314055149417" lon="10.321076671390262"><ele>10.714285714285714</ele><time>2026-05-01T12:44:12.001Z</time></trkpt><trkpt lat="43.89310416822469" lon="10.320991756964686"><ele>10.571428571428571</ele><time>2026-05-01T12:44:13.001Z</time></trkpt><trkpt lat="43.893075479054914" lon="10.320901505627928"><ele>10.428571428571429</ele><time>2026-05-01T12:44:14.001Z</time></trkpt><trkpt lat="43.89305306902065" lon="10.320803223521994"><ele>10.285714285714286</ele><time>2026-05-01T12:44:15.001Z</time></trkpt><trkpt lat="43.89303233359615" lon="10.320707232977508"><ele>10.142857142857142</ele><time>2026-05-01T12:44:16.001Z</time></trkpt><trkpt lat="43.89301762567963" lon="10.320616226670998"><ele>10.0</ele><time>2026-05-01T12:44:17.001Z</time></trkpt><trkpt lat="43.89300136958226" lon="10.320520235728665"><ele>9.857142857142858</ele><time>2026-05-01T12:44:18.001Z</time></trkpt><trkpt lat="43.892986664800134" lon="10.320423829196672"><ele>9.714285714285715</ele><time>2026-05-01T12:44:19.001Z</time></trkpt><trkpt lat="43.89297257828485" lon="10.320332535196162"><ele>9.571428571428573</ele><time>2026-05-01T12:44:20.001Z</time></trkpt><trkpt lat="43.89295716228905" lon="10.320237856050278"><ele>9.428571428571429</ele><time>2026-05-01T12:44:21.001Z</time></trkpt><trkpt lat="43.8929365113931" lon="10.320139583322899"><ele>9.285714285714286</ele><time>2026-05-01T12:44:22.001Z</time></trkpt><trkpt lat="43.89292262401225" lon="10.320043273087748"><ele>9.142857142857144</ele><time>2026-05-01T12:44:23.001Z</time></trkpt><trkpt lat="43.892909505544914" lon="10.319950755668097"><ele>9.0</ele><time>2026-05-01T12:44:24.001Z</time></trkpt><trkpt lat="43.89289607357742" lon="10.319857513064482"><ele>9.000000000000002</ele><time>2026-05-01T12:44:25.001Z</time></trkpt><trkpt lat="43.89288232501004" lon="10.319761187812356"><ele>9.0</ele><time>2026-05-01T12:44:26.001Z</time></trkpt><trkpt lat="43.892867892782796" lon="10.319668104507738"><ele>9.0</ele><time>2026-05-01T12:44:27.001Z</time></trkpt><trkpt lat="43.89285180856398" lon="10.319579941985138"><ele>9.0</ele><time>2026-05-01T12:44:28.001Z</time></trkpt><trkpt lat="43.89283588550859" lon="10.319492488644077"><ele>9.0</ele><time>2026-05-01T12:44:29.001Z</time></trkpt><trkpt lat="43.89282076707592" lon="10.319403379377654"><ele>9.000000000000002</ele><time>2026-05-01T12:44:30.001Z</time></trkpt><trkpt lat="43.89280329660693" lon="10.31931739352421"><ele>9.0</ele><time>2026-05-01T12:44:31.001Z</time></trkpt><trkpt lat="43.892779479353734" lon="10.31923158454504"><ele>8.857142857142858</ele><time>2026-05-01T12:44:32.001Z</time></trkpt><trkpt lat="43.89275409307203" lon="10.31914513889344"><ele>8.714285714285715</ele><time>2026-05-01T12:44:33.002Z</time></trkpt><trkpt lat="43.8927224318098" lon="10.319065529337193"><ele>8.571428571428571</ele><time>2026-05-01T12:44:34.002Z</time></trkpt><trkpt lat="43.892685747769356" lon="10.318990457014536"><ele>8.428571428571429</ele><time>2026-05-01T12:44:35.002Z</time></trkpt><trkpt lat="43.892648030927845" lon="10.318918062424215"><ele>8.285714285714285</ele><time>2026-05-01T12:44:36.002Z</time></trkpt><trkpt lat="43.892607899546086" lon="10.318846471137956"><ele>8.142857142857142</ele><time>2026-05-01T12:44:37.002Z</time></trkpt><trkpt lat="43.89257101152461" lon="10.318774564232493"><ele>8.0</ele><time>2026-05-01T12:44:38.002Z</time></trkpt><trkpt lat="43.89253094178665" lon="10.318702160068055"><ele>8.0</ele><time>2026-05-01T12:44:39.002Z</time></trkpt><trkpt lat="43.89249257742933" lon="10.318631942414378"><ele>7.999999999999999</ele><time>2026-05-01T12:44:40.002Z</time></trkpt><trkpt lat="43.89245437611656" lon="10.31855993384193"><ele>8.0</ele><time>2026-05-01T12:44:41.002Z</time></trkpt><trkpt lat="43.892414123259826" lon="10.318483717663305"><ele>8.0</ele><time>2026-05-01T12:44:42.002Z</time></trkpt><trkpt lat="43.892373809104974" lon="10.318413927277136"><ele>7.999999999999999</ele><time>2026-05-01T12:44:43.002Z</time></trkpt><trkpt lat="43.89233210246286" lon="10.318339640850763"><ele>8.0</ele><time>2026-05-01T12:44:44.002Z</time></trkpt><trkpt lat="43.89229155253244" lon="10.318266585635891"><ele>8.0</ele><time>2026-05-01T12:44:45.002Z</time></trkpt><trkpt lat="43.892252040862225" lon="10.318193537801168"><ele>7.999999999999999</ele><time>2026-05-01T12:44:46.002Z</time></trkpt><trkpt lat="43.89221348752198" lon="10.318121829011142"><ele>8.0</ele><time>2026-05-01T12:44:47.002Z</time></trkpt><trkpt lat="43.892173934349074" lon="10.318050723314736"><ele>8.0</ele><time>2026-05-01T12:44:48.002Z</time></trkpt><trkpt lat="43.892136306167245" lon="10.317975349311633"><ele>8.0</ele><time>2026-05-01T12:44:49.002Z</time></trkpt><trkpt lat="43.89210063098576" lon="10.317899267462245"><ele>7.999999999999999</ele><time>2026-05-01T12:44:50.002Z</time></trkpt><trkpt lat="43.89206234722465" lon="10.317827532563259"><ele>8.0</ele><time>2026-05-01T12:44:51.002Z</time></trkpt><trkpt lat="43.89198602579159" lon="10.317686734109142"><ele>7.857142857142857</ele><time>2026-05-01T12:44:53.002Z</time></trkpt><trkpt lat="43.891955978043086" lon="10.31760909692557"><ele>7.7142857142857135</ele><time>2026-05-01T12:44:54.002Z</time></trkpt><trkpt lat="43.89192917056731" lon="10.317526626463591"><ele>7.571428571428571</ele><time>2026-05-01T12:44:55.002Z</time></trkpt><trkpt lat="43.89191006266942" lon="10.31744127653791"><ele>7.428571428571429</ele><time>2026-05-01T12:44:56.002Z</time></trkpt><trkpt lat="43.89187375583936" lon="10.317275018653593"><ele>7.285714285714286</ele><time>2026-05-01T12:44:58.002Z</time></trkpt><trkpt lat="43.89186165039164" lon="10.317187601017048"><ele>7.142857142857142</ele><time>2026-05-01T12:44:59.002Z</time></trkpt><trkpt lat="43.89185897667682" lon="10.317100283741702"><ele>7.0</ele><time>2026-05-01T12:45:00.002Z</time></trkpt><trkpt lat="43.8918575998146" lon="10.317011173071974"><ele>7.0</ele><time>2026-05-01T12:45:01.002Z</time></trkpt><trkpt lat="43.891850250057615" lon="10.316918289645848"><ele>6.999999999999999</ele><time>2026-05-01T12:45:02.002Z</time></trkpt><trkpt lat="43.89184174348052" lon="10.316735049501768"><ele>6.999999999999999</ele><time>2026-05-01T12:45:04.002Z</time></trkpt><trkpt lat="43.89183145909615" lon="10.316563854290305"><ele>7.0</ele><time>2026-05-01T12:45:06.002Z</time></trkpt><trkpt lat="43.891826004754236" lon="10.316475216133147"><ele>7.0</ele><time>2026-05-01T12:45:07.002Z</time></trkpt><trkpt lat="43.89182208304634" lon="10.316387872464327"><ele>6.833333333333334</ele><time>2026-05-01T12:45:08.002Z</time></trkpt><trkpt lat="43.89181841037536" lon="10.316294629385629"><ele>6.666666666666667</ele><time>2026-05-01T12:45:09.002Z</time></trkpt><trkpt lat="43.891811428083756" lon="10.316119699910393"><ele>6.5</ele><time>2026-05-01T12:45:11.002Z</time></trkpt><trkpt lat="43.89180267652504" lon="10.315947629424814"><ele>6.333333333333334</ele><time>2026-05-01T12:45:13.002Z</time></trkpt><trkpt lat="43.89179695051539" lon="10.315857387563947"><ele>6.166666666666667</ele><time>2026-05-01T12:45:14.001Z</time></trkpt><trkpt lat="43.891791627599986" lon="10.315766905891751"><ele>6.0</ele><time>2026-05-01T12:45:15.001Z</time></trkpt><trkpt lat="43.891786923209416" lon="10.315675753122646"><ele>5.999999999999999</ele><time>2026-05-01T12:45:16.001Z</time></trkpt><trkpt lat="43.89178525069419" lon="10.315585920422485"><ele>6.0</ele><time>2026-05-01T12:45:17.001Z</time></trkpt><trkpt lat="43.891781208475294" lon="10.315498343776296"><ele>6.0</ele><time>2026-05-01T12:45:18.001Z</time></trkpt><trkpt lat="43.89177664597983" lon="10.315409189427"><ele>6.0</ele><time>2026-05-01T12:45:19.001Z</time></trkpt><trkpt lat="43.891764134866214" lon="10.315241550537113"><ele>6.0</ele><time>2026-05-01T12:45:21.001Z</time></trkpt><trkpt lat="43.89175657699943" lon="10.315150932314337"><ele>5.999999999999999</ele><time>2026-05-01T12:45:22.001Z</time></trkpt><trkpt lat="43.891751065420095" lon="10.31505988857402"><ele>6.0</ele><time>2026-05-01T12:45:23.001Z</time></trkpt><trkpt lat="43.891739167526325" lon="10.314883803725438"><ele>6.166666666666667</ele><time>2026-05-01T12:45:25.001Z</time></trkpt><trkpt lat="43.89173385003896" lon="10.314795999778218"><ele>6.333333333333334</ele><time>2026-05-01T12:45:26.001Z</time></trkpt><trkpt lat="43.89173084518286" lon="10.314705274630416"><ele>6.5</ele><time>2026-05-01T12:45:27.001Z</time></trkpt><trkpt lat="43.891726995407616" lon="10.314615754309319"><ele>6.666666666666667</ele><time>2026-05-01T12:45:28.001Z</time></trkpt><trkpt lat="43.89172225433946" lon="10.314519374554665"><ele>6.833333333333334</ele><time>2026-05-01T12:45:29.001Z</time></trkpt><trkpt lat="43.89171016464454" lon="10.314340357899962"><ele>7.0</ele><time>2026-05-01T12:45:31.001Z</time></trkpt><trkpt lat="43.89170491782603" lon="10.314251059318272"><ele>7.166666666666667</ele><time>2026-05-01T12:45:32.001Z</time></trkpt><trkpt lat="43.89169888266917" lon="10.314158083091442"><ele>7.333333333333334</ele><time>2026-05-01T12:45:33.001Z</time></trkpt><trkpt lat="43.8916952210106" lon="10.314069480659345"><ele>7.5</ele><time>2026-05-01T12:45:34.001Z</time></trkpt><trkpt lat="43.89169565349197" lon="10.313979980780541"><ele>7.666666666666666</ele><time>2026-05-01T12:45:35.001Z</time></trkpt><trkpt lat="43.89169692468457" lon="10.313888417992846"><ele>7.833333333333333</ele><time>2026-05-01T12:45:36.001Z</time></trkpt><trkpt lat="43.891708743747145" lon="10.313710811220043"><ele>8.0</ele><time>2026-05-01T12:45:38.001Z</time></trkpt><trkpt lat="43.891747762399596" lon="10.313513179150346"><ele>7.499999999999999</ele><time>2026-05-01T12:45:40.001Z</time></trkpt><trkpt lat="43.891778031243156" lon="10.313361286310581"><ele>7.0</ele><time>2026-05-01T12:45:42.001Z</time></trkpt><trkpt lat="43.89180403106328" lon="10.313280695774596"><ele>6.5</ele><time>2026-05-01T12:45:43.001Z</time></trkpt><trkpt lat="43.891864357285144" lon="10.313133325850364"><ele>6.0</ele><time>2026-05-01T12:45:45.001Z</time></trkpt><trkpt lat="43.89189355238014" lon="10.31304921465242"><ele>5.5</ele><time>2026-05-01T12:45:46.001Z</time></trkpt><trkpt lat="43.89192384111459" lon="10.312972275316342"><ele>5.0</ele><time>2026-05-01T12:45:47.001Z</time></trkpt><trkpt lat="43.891984275578224" lon="10.312817631536358"><ele>5.0</ele><time>2026-05-01T12:45:49.001Z</time></trkpt><trkpt lat="43.89204798439807" lon="10.312666221652421"><ele>5.0</ele><time>2026-05-01T12:45:51.001Z</time></trkpt><trkpt lat="43.89211212500892" lon="10.312512870682031"><ele>5.0</ele><time>2026-05-01T12:45:53.001Z</time></trkpt><trkpt lat="43.89214481707768" lon="10.312437191278999"><ele>5.0</ele><time>2026-05-01T12:45:54.001Z</time></trkpt><trkpt lat="43.89217678181034" lon="10.312359970633045"><ele>5.0</ele><time>2026-05-01T12:45:55.001Z</time></trkpt><trkpt lat="43.892208578840396" lon="10.312279887504893"><ele>5.0</ele><time>2026-05-01T12:45:56.001Z</time></trkpt><trkpt lat="43.892264983873396" lon="10.312126831411618"><ele>4.5</ele><time>2026-05-01T12:45:58.001Z</time></trkpt><trkpt lat="43.89229388766308" lon="10.312046124883425"><ele>4.0</ele><time>2026-05-01T12:45:59.001Z</time></trkpt><trkpt lat="43.89232641153326" lon="10.311969157368933"><ele>3.5</ele><time>2026-05-01T12:46:00.001Z</time></trkpt><trkpt lat="43.892360308775565" lon="10.311894883799651"><ele>3.0</ele><time>2026-05-01T12:46:01.001Z</time></trkpt><trkpt lat="43.89241639743813" lon="10.311734225684615"><ele>2.5</ele><time>2026-05-01T12:46:03.001Z</time></trkpt><trkpt lat="43.89243815632714" lon="10.311641732971648"><ele>2.0</ele><time>2026-05-01T12:46:04.001Z</time></trkpt><trkpt lat="43.89248169149736" lon="10.311484592225476"><ele>1.857142857142857</ele><time>2026-05-01T12:46:06.001Z</time></trkpt><trkpt lat="43.89250237247272" lon="10.31139758399834"><ele>1.714285714285714</ele><time>2026-05-01T12:46:07.001Z</time></trkpt><trkpt lat="43.89251144000788" lon="10.31130947051505"><ele>1.5714285714285714</ele><time>2026-05-01T12:46:08.001Z</time></trkpt><trkpt lat="43.892520622525524" lon="10.311218374332354"><ele>1.4285714285714284</ele><time>2026-05-01T12:46:09.001Z</time></trkpt><trkpt lat="43.89252630331249" lon="10.311126757954964"><ele>1.2857142857142856</ele><time>2026-05-01T12:46:10.001Z</time></trkpt><trkpt lat="43.89252440347976" lon="10.3110363858834"><ele>1.1428571428571428</ele><time>2026-05-01T12:46:11.001Z</time></trkpt><trkpt lat="43.892521268769585" lon="10.310947307027526"><ele>1.0</ele><time>2026-05-01T12:46:12.001Z</time></trkpt><trkpt lat="43.89251214661188" lon="10.310857854241743"><ele>1.0</ele><time>2026-05-01T12:46:13.001Z</time></trkpt><trkpt lat="43.8924782716926" lon="10.31068770283345"><ele>1.0</ele><time>2026-05-01T12:46:15.001Z</time></trkpt><trkpt lat="43.89242733443506" lon="10.31052507922992"><ele>1.0</ele><time>2026-05-01T12:46:17.001Z</time></trkpt><trkpt lat="43.89239427971654" lon="10.31044779227376"><ele>1.0</ele><time>2026-05-01T12:46:18.001Z</time></trkpt><trkpt lat="43.892359715189734" lon="10.31036943122267"><ele>1.0</ele><time>2026-05-01T12:46:19.001Z</time></trkpt><trkpt lat="43.89229285060379" lon="10.310228146852907"><ele>0.8333333333333333</ele><time>2026-05-01T12:46:21.001Z</time></trkpt><trkpt lat="43.89225706518778" lon="10.310156167783664"><ele>0.6666666666666666</ele><time>2026-05-01T12:46:22.001Z</time></trkpt><trkpt lat="43.89221844457126" lon="10.310085422984416"><ele>0.5</ele><time>2026-05-01T12:46:23.001Z</time></trkpt><trkpt lat="43.89217958823121" lon="10.310014186772497"><ele>0.3333333333333333</ele><time>2026-05-01T12:46:24.001Z</time></trkpt><trkpt lat="43.89213833065222" lon="10.309944250063678"><ele>0.16666666666666666</ele><time>2026-05-01T12:46:25.001Z</time></trkpt><trkpt lat="43.89206948908994" lon="10.309810427515721"><ele>0.0</ele><time>2026-05-01T12:46:27.001Z</time></trkpt><trkpt lat="43.891996216412096" lon="10.30967353484276"><ele>0.0</ele><time>2026-05-01T12:46:29.001Z</time></trkpt><trkpt lat="43.89196336046745" lon="10.309597896749356"><ele>0.0</ele><time>2026-05-01T12:46:30.001Z</time></trkpt><trkpt lat="43.89189010854103" lon="10.30945608157105"><ele>0.0</ele><time>2026-05-01T12:46:32.001Z</time></trkpt><trkpt lat="43.89184930956807" lon="10.30938648456993"><ele>0.0</ele><time>2026-05-01T12:46:33.001Z</time></trkpt><trkpt lat="43.89176919059726" lon="10.309258120471446"><ele>0.0</ele><time>2026-05-01T12:46:35.001Z</time></trkpt><trkpt lat="43.89172650672405" lon="10.309186522809071"><ele>0.0</ele><time>2026-05-01T12:46:36.001Z</time></trkpt><trkpt lat="43.891648891075285" lon="10.309104393588495"><ele>0.6</ele><time>2026-05-01T12:46:38.001Z</time></trkpt><trkpt lat="43.89159424356392" lon="10.309045798393175"><ele>1.2</ele><time>2026-05-01T12:46:39.001Z</time></trkpt><trkpt lat="43.8915384257696" lon="10.308989705394424"><ele>1.7999999999999998</ele><time>2026-05-01T12:46:40.001Z</time></trkpt><trkpt lat="43.891488411051085" lon="10.30893489160285"><ele>2.4</ele><time>2026-05-01T12:46:41.001Z</time></trkpt><trkpt lat="43.89139541630216" lon="10.30882003724718"><ele>3.0</ele><time>2026-05-01T12:46:43.001Z</time></trkpt><trkpt lat="43.891295384211446" lon="10.30870243551307"><ele>3.0</ele><time>2026-05-01T12:46:45.001Z</time></trkpt><trkpt lat="43.891260908527464" lon="10.308622807999441"><ele>3.0</ele><time>2026-05-01T12:46:46.001Z</time></trkpt><trkpt lat="43.89123421538224" lon="10.308542620442974"><ele>3.0</ele><time>2026-05-01T12:46:47.001Z</time></trkpt><trkpt lat="43.89117899537732" lon="10.308378431326789"><ele>3.0</ele><time>2026-05-01T12:46:49.001Z</time></trkpt><trkpt lat="43.89115860544394" lon="10.308288957900476"><ele>3.0</ele><time>2026-05-01T12:46:50.001Z</time></trkpt><trkpt lat="43.89113551962524" lon="10.308197754307852"><ele>3.0</ele><time>2026-05-01T12:46:51.002Z</time></trkpt><trkpt lat="43.891119535985005" lon="10.308107062573233"><ele>2.4285714285714284</ele><time>2026-05-01T12:46:52.002Z</time></trkpt><trkpt lat="43.89110526592475" lon="10.308013478318788"><ele>1.8571428571428572</ele><time>2026-05-01T12:46:53.002Z</time></trkpt><trkpt lat="43.89109062559494" lon="10.307919783897527"><ele>1.2857142857142856</ele><time>2026-05-01T12:46:54.002Z</time></trkpt><trkpt lat="43.89107749620038" lon="10.307821002266836"><ele>0.7142857142857142</ele><time>2026-05-01T12:46:55.002Z</time></trkpt><trkpt lat="43.89106437452731" lon="10.307727545222706"><ele>0.1428571428571429</ele><time>2026-05-01T12:46:56.002Z</time></trkpt><trkpt lat="43.89105842382886" lon="10.307628231465081"><ele>-0.42857142857142855</ele><time>2026-05-01T12:46:57.002Z</time></trkpt><trkpt lat="43.89105159474622" lon="10.307535121552606"><ele>-1.0</ele><time>2026-05-01T12:46:58.002Z</time></trkpt><trkpt lat="43.89104472273468" lon="10.30743909172578"><ele>-0.9999999999999999</ele><time>2026-05-01T12:46:59.002Z</time></trkpt><trkpt lat="43.89103743831695" lon="10.307344847330405"><ele>-1.0</ele><time>2026-05-01T12:47:00.002Z</time></trkpt><trkpt lat="43.89103249457101" lon="10.30725089202369"><ele>-1.0</ele><time>2026-05-01T12:47:01.002Z</time></trkpt><trkpt lat="43.89102881743266" lon="10.307153661562934"><ele>-1.0</ele><time>2026-05-01T12:47:02.002Z</time></trkpt><trkpt lat="43.89101987448328" lon="10.3070616705319"><ele>-0.9999999999999999</ele><time>2026-05-01T12:47:03.002Z</time></trkpt><trkpt lat="43.89100877358048" lon="10.306971363517865"><ele>-1.0</ele><time>2026-05-01T12:47:04.002Z</time></trkpt><trkpt lat="43.89097398043985" lon="10.306812316709472"><ele>-1.0</ele><time>2026-05-01T12:47:06.002Z</time></trkpt><trkpt lat="43.890931882384685" lon="10.306671029952543"><ele>-0.9999999999999999</ele><time>2026-05-01T12:47:08.002Z</time></trkpt><trkpt lat="43.89089246328661" lon="10.306593157643226"><ele>-1.0</ele><time>2026-05-01T12:47:09.002Z</time></trkpt><trkpt lat="43.8908544588192" lon="10.306517619861827"><ele>-1.0</ele><time>2026-05-01T12:47:10.002Z</time></trkpt><trkpt lat="43.8908116541552" lon="10.306441198648818"><ele>-0.9999999999999999</ele><time>2026-05-01T12:47:11.002Z</time></trkpt><trkpt lat="43.890771042031304" lon="10.306363680891364"><ele>-1.0</ele><time>2026-05-01T12:47:12.002Z</time></trkpt><trkpt lat="43.89073344464088" lon="10.30629220310345"><ele>-1.0</ele><time>2026-05-01T12:47:13.002Z</time></trkpt><trkpt lat="43.89066460029122" lon="10.306138331304235"><ele>-0.8</ele><time>2026-05-01T12:47:15.002Z</time></trkpt><trkpt lat="43.89060078556377" lon="10.305995414575069"><ele>-0.6000000000000001</ele><time>2026-05-01T12:47:17.002Z</time></trkpt><trkpt lat="43.890567482654035" lon="10.305921080046623"><ele>-0.4</ele><time>2026-05-01T12:47:18.002Z</time></trkpt><trkpt lat="43.89050290211219" lon="10.305773447774756"><ele>-0.2</ele><time>2026-05-01T12:47:20Z</time></trkpt><trkpt lat="43.890431090372374" lon="10.305633199216654"><ele>0.0</ele><time>2026-05-01T12:47:22Z</time></trkpt><trkpt lat="43.89033120394729" lon="10.30551504410023"><ele>0.0</ele><time>2026-05-01T12:47:24Z</time></trkpt><trkpt lat="43.89028331180845" lon="10.305452748262864"><ele>0.0</ele><time>2026-05-01T12:47:25Z</time></trkpt><trkpt lat="43.89018469235167" lon="10.305331618796671"><ele>0.0</ele><time>2026-05-01T12:47:27Z</time></trkpt><trkpt lat="43.89014328612224" lon="10.30526094166516"><ele>0.0</ele><time>2026-05-01T12:47:28Z</time></trkpt><trkpt lat="43.89009532502154" lon="10.3051970516528"><ele>0.0</ele><time>2026-05-01T12:47:29Z</time></trkpt><trkpt lat="43.890050008121214" lon="10.3051324213997"><ele>0.0</ele><time>2026-05-01T12:47:30Z</time></trkpt><trkpt lat="43.89000240026973" lon="10.305068675180692"><ele>0.4</ele><time>2026-05-01T12:47:31Z</time></trkpt><trkpt lat="43.88995811123125" lon="10.305002049648262"><ele>0.8</ele><time>2026-05-01T12:47:32Z</time></trkpt><trkpt lat="43.889907041521354" lon="10.304942058968338"><ele>1.2000000000000002</ele><time>2026-05-01T12:47:33Z</time></trkpt><trkpt lat="43.8897969469697" lon="10.304830766541176"><ele>1.6</ele><time>2026-05-01T12:47:35Z</time></trkpt><trkpt lat="43.88974654044586" lon="10.304777092582151"><ele>2.0</ele><time>2026-05-01T12:47:36Z</time></trkpt><trkpt lat="43.88965041139622" lon="10.304670931086976"><ele>1.9999999999999998</ele><time>2026-05-01T12:47:38Z</time></trkpt><trkpt lat="43.88959982182662" lon="10.304617788307828"><ele>2.0</ele><time>2026-05-01T12:47:39Z</time></trkpt><trkpt lat="43.889548362621966" lon="10.304556476937833"><ele>2.0</ele><time>2026-05-01T12:47:40Z</time></trkpt><trkpt lat="43.88946264642101" lon="10.304427645091032"><ele>2.0</ele><time>2026-05-01T12:47:42Z</time></trkpt><trkpt lat="43.88942023275759" lon="10.304352834915024"><ele>1.9999999999999998</ele><time>2026-05-01T12:47:43Z</time></trkpt><trkpt lat="43.88939802205406" lon="10.304267125920816"><ele>2.0</ele><time>2026-05-01T12:47:44Z</time></trkpt><trkpt lat="43.88935267049303" lon="10.304200670885486"><ele>1.9999999999999998</ele><time>2026-05-01T12:47:45Z</time></trkpt><trkpt lat="43.8893192941658" lon="10.304112928654229"><ele>2.0</ele><time>2026-05-01T12:47:46Z</time></trkpt><trkpt lat="43.889286877930296" lon="10.304024497491463"><ele>2.0</ele><time>2026-05-01T12:47:47Z</time></trkpt><trkpt lat="43.889257585347856" lon="10.303938687237952"><ele>2.0</ele><time>2026-05-01T12:47:48Z</time></trkpt><trkpt lat="43.889230649075444" lon="10.303854725683134"><ele>1.9999999999999998</ele><time>2026-05-01T12:47:49Z</time></trkpt><trkpt lat="43.88920162855958" lon="10.303777114319457"><ele>2.0</ele><time>2026-05-01T12:47:50Z</time></trkpt><trkpt lat="43.88912815107557" lon="10.303637589494812"><ele>2.6</ele><time>2026-05-01T12:47:52Z</time></trkpt><trkpt lat="43.889086570356355" lon="10.303567100867566"><ele>3.2</ele><time>2026-05-01T12:47:53Z</time></trkpt><trkpt lat="43.888996490469076" lon="10.303448758968385"><ele>3.8</ele><time>2026-05-01T12:47:55.001Z</time></trkpt><trkpt lat="43.88891982611894" lon="10.30331230893055"><ele>4.4</ele><time>2026-05-01T12:47:57.001Z</time></trkpt><trkpt lat="43.88882005883655" lon="10.303201633747193"><ele>5.0</ele><time>2026-05-01T12:47:59.001Z</time></trkpt><trkpt lat="43.88879105245391" lon="10.30311664330853"><ele>4.0</ele><time>2026-05-01T12:48:00.001Z</time></trkpt><trkpt lat="43.88875800729594" lon="10.303041770088141"><ele>3.0</ele><time>2026-05-01T12:48:01.001Z</time></trkpt><trkpt lat="43.888699390955416" lon="10.302890672298789"><ele>2.0</ele><time>2026-05-01T12:48:03.001Z</time></trkpt><trkpt lat="43.8886474003127" lon="10.302750030932323"><ele>1.0</ele><time>2026-05-01T12:48:05.001Z</time></trkpt><trkpt lat="43.888598811497474" lon="10.30265536420914"><ele>0.0</ele><time>2026-05-01T12:48:06.001Z</time></trkpt><trkpt lat="43.88854140118129" lon="10.302506832922656"><ele>0.0</ele><time>2026-05-01T12:48:08.001Z</time></trkpt><trkpt lat="43.88848544728305" lon="10.302370643130713"><ele>0.0</ele><time>2026-05-01T12:48:10.001Z</time></trkpt><trkpt lat="43.88843877303621" lon="10.302292648592918"><ele>0.0</ele><time>2026-05-01T12:48:11.001Z</time></trkpt><trkpt lat="43.88839228112269" lon="10.302225763690254"><ele>0.0</ele><time>2026-05-01T12:48:12.001Z</time></trkpt><trkpt lat="43.88832119393638" lon="10.302083815021431"><ele>0.0</ele><time>2026-05-01T12:48:14.001Z</time></trkpt><trkpt lat="43.88823014353487" lon="10.30194552944849"><ele>0.6</ele><time>2026-05-01T12:48:16.001Z</time></trkpt><trkpt lat="43.88813410184701" lon="10.301836440254881"><ele>1.2</ele><time>2026-05-01T12:48:18.001Z</time></trkpt><trkpt lat="43.88805485947201" lon="10.301706902092848"><ele>1.7999999999999998</ele><time>2026-05-01T12:48:20.001Z</time></trkpt><trkpt lat="43.88796411082039" lon="10.301599267561146"><ele>2.4</ele><time>2026-05-01T12:48:22.001Z</time></trkpt><trkpt lat="43.88792135319318" lon="10.301523265785434"><ele>3.0</ele><time>2026-05-01T12:48:23.001Z</time></trkpt><trkpt lat="43.88786322130649" lon="10.301456363102469"><ele>2.4</ele><time>2026-05-01T12:48:24.001Z</time></trkpt><trkpt lat="43.88775729411082" lon="10.301349275640447"><ele>1.7999999999999998</ele><time>2026-05-01T12:48:26.001Z</time></trkpt><trkpt lat="43.887705079941696" lon="10.301287563352147"><ele>1.2</ele><time>2026-05-01T12:48:27.001Z</time></trkpt><trkpt lat="43.88766294279377" lon="10.301218554702336"><ele>0.6</ele><time>2026-05-01T12:48:28.001Z</time></trkpt><trkpt lat="43.887549086776175" lon="10.301119280922183"><ele>0.0</ele><time>2026-05-01T12:48:30.001Z</time></trkpt><trkpt lat="43.887486362877674" lon="10.301068996188766"><ele>1.0</ele><time>2026-05-01T12:48:31.001Z</time></trkpt><trkpt lat="43.88742963477045" lon="10.301031047410808"><ele>2.0</ele><time>2026-05-01T12:48:32.001Z</time></trkpt><trkpt lat="43.887365913460535" lon="10.300977674716291"><ele>3.0</ele><time>2026-05-01T12:48:33.001Z</time></trkpt><trkpt lat="43.88725153909441" lon="10.300894615117352"><ele>4.0</ele><time>2026-05-01T12:48:35.001Z</time></trkpt><trkpt lat="43.88718877931628" lon="10.300852019606364"><ele>5.0</ele><time>2026-05-01T12:48:36.001Z</time></trkpt><trkpt lat="43.8871236330693" lon="10.300804036615665"><ele>6.0</ele><time>2026-05-01T12:48:37.001Z</time></trkpt><trkpt lat="43.88705965825273" lon="10.300759758078952"><ele>6.0</ele><time>2026-05-01T12:48:38.001Z</time></trkpt><trkpt lat="43.88694233960752" lon="10.300655605198859"><ele>6.0</ele><time>2026-05-01T12:48:40.001Z</time></trkpt><trkpt lat="43.88688302490495" lon="10.30061158397834"><ele>6.0</ele><time>2026-05-01T12:48:41.001Z</time></trkpt><trkpt lat="43.8868236834562" lon="10.300569125690451"><ele>6.0</ele><time>2026-05-01T12:48:42.001Z</time></trkpt><trkpt lat="43.886766026237225" lon="10.30051680038167"><ele>6.0</ele><time>2026-05-01T12:48:43.001Z</time></trkpt><trkpt lat="43.88669919863987" lon="10.300465030674822"><ele>6.0</ele><time>2026-05-01T12:48:44.001Z</time></trkpt><trkpt lat="43.886633386573855" lon="10.30041447735305"><ele>5.142857142857142</ele><time>2026-05-01T12:48:45.001Z</time></trkpt><trkpt lat="43.886561303479255" lon="10.300366058523432"><ele>4.285714285714286</ele><time>2026-05-01T12:48:46.001Z</time></trkpt><trkpt lat="43.88649754188609" lon="10.300319701189848"><ele>3.4285714285714284</ele><time>2026-05-01T12:48:47.001Z</time></trkpt><trkpt lat="43.88643761726846" lon="10.300276675354425"><ele>2.571428571428571</ele><time>2026-05-01T12:48:48.001Z</time></trkpt><trkpt lat="43.88637175036711" lon="10.300229447420069"><ele>1.7142857142857142</ele><time>2026-05-01T12:48:49.001Z</time></trkpt><trkpt lat="43.88631390628304" lon="10.300184929061771"><ele>0.8571428571428571</ele><time>2026-05-01T12:48:50.001Z</time></trkpt><trkpt lat="43.88625071126063" lon="10.300145610877319"><ele>0.0</ele><time>2026-05-01T12:48:51.001Z</time></trkpt><trkpt lat="43.88619700092186" lon="10.300083220940861"><ele>0.0</ele><time>2026-05-01T12:48:52.001Z</time></trkpt><trkpt lat="43.88613722193901" lon="10.300039306864873"><ele>0.0</ele><time>2026-05-01T12:48:53.001Z</time></trkpt><trkpt lat="43.88606203794557" lon="10.30000973027239"><ele>0.0</ele><time>2026-05-01T12:48:54.001Z</time></trkpt><trkpt lat="43.885951557871046" lon="10.299915300627482"><ele>0.0</ele><time>2026-05-01T12:48:56.001Z</time></trkpt><trkpt lat="43.88588998340923" lon="10.2998627601403"><ele>0.0</ele><time>2026-05-01T12:48:57.001Z</time></trkpt><trkpt lat="43.88577390503581" lon="10.299759627005823"><ele>0.16666666666666666</ele><time>2026-05-01T12:48:59.001Z</time></trkpt><trkpt lat="43.8857143844845" lon="10.299707494714662"><ele>0.3333333333333333</ele><time>2026-05-01T12:49:00.001Z</time></trkpt><trkpt lat="43.88564881111187" lon="10.29965922212413"><ele>0.5</ele><time>2026-05-01T12:49:01.001Z</time></trkpt><trkpt lat="43.88558777340423" lon="10.299609727402407"><ele>0.6666666666666666</ele><time>2026-05-01T12:49:02.001Z</time></trkpt><trkpt lat="43.88553589950378" lon="10.299548479859101"><ele>0.8333333333333333</ele><time>2026-05-01T12:49:03.001Z</time></trkpt><trkpt lat="43.885480153925684" lon="10.299495964133566"><ele>1.0</ele><time>2026-05-01T12:49:04.001Z</time></trkpt><trkpt lat="43.88536805676962" lon="10.29940740228011"><ele>1.0</ele><time>2026-05-01T12:49:06.001Z</time></trkpt><trkpt lat="43.88531038231718" lon="10.299365403827771"><ele>0.9999999999999999</ele><time>2026-05-01T12:49:07.001Z</time></trkpt><trkpt lat="43.88525065721403" lon="10.299324777566522"><ele>1.0</ele><time>2026-05-01T12:49:08.001Z</time></trkpt><trkpt lat="43.88519340897668" lon="10.299277888416404"><ele>1.0</ele><time>2026-05-01T12:49:09.002Z</time></trkpt><trkpt lat="43.885140424443186" lon="10.299226418839845"><ele>0.9999999999999999</ele><time>2026-05-01T12:49:10.002Z</time></trkpt><trkpt lat="43.885097442979706" lon="10.29916245956854"><ele>1.0</ele><time>2026-05-01T12:49:11.002Z</time></trkpt><trkpt lat="43.88506356619755" lon="10.299087943321668"><ele>1.0</ele><time>2026-05-01T12:49:12.002Z</time></trkpt><trkpt lat="43.88501530231242" lon="10.298942183986025"><ele>2.0</ele><time>2026-05-01T12:49:14.002Z</time></trkpt><trkpt lat="43.884961347219274" lon="10.298844128735023"><ele>3.0</ele><time>2026-05-01T12:49:16.002Z</time></trkpt><trkpt lat="43.88483371432166" lon="10.298851877239839"><ele>3.9999999999999996</ele><time>2026-05-01T12:49:18.002Z</time></trkpt><trkpt lat="43.884714544242456" lon="10.298892148925052"><ele>5.0</ele><time>2026-05-01T12:49:20.002Z</time></trkpt><trkpt lat="43.88461128309948" lon="10.298891409879289"><ele>6.0</ele><time>2026-05-01T12:49:22.002Z</time></trkpt><trkpt lat="43.88454916081594" lon="10.298866209966464"><ele>6.0</ele><time>2026-05-01T12:49:23.002Z</time></trkpt><trkpt lat="43.88448377966695" lon="10.298829073973865"><ele>6.0</ele><time>2026-05-01T12:49:24.002Z</time></trkpt><trkpt lat="43.88442451476045" lon="10.29879279969118"><ele>6.0</ele><time>2026-05-01T12:49:25.002Z</time></trkpt><trkpt lat="43.884366583740096" lon="10.298757293282017"><ele>6.0</ele><time>2026-05-01T12:49:26Z</time></trkpt><trkpt lat="43.884254205615825" lon="10.298681714944719"><ele>6.0</ele><time>2026-05-01T12:49:28Z</time></trkpt><trkpt lat="43.88419609348685" lon="10.298638782495235"><ele>6.0</ele><time>2026-05-01T12:49:29Z</time></trkpt><trkpt lat="43.88413610173559" lon="10.298599299662513"><ele>5.5</ele><time>2026-05-01T12:49:30Z</time></trkpt><trkpt lat="43.88407553263665" lon="10.298554673296604"><ele>5.0</ele><time>2026-05-01T12:49:31Z</time></trkpt><trkpt lat="43.884019236273254" lon="10.298504416166498"><ele>4.5</ele><time>2026-05-01T12:49:32Z</time></trkpt><trkpt lat="43.88396902326411" lon="10.298325501582456"><ele>4.0</ele><time>2026-05-01T12:49:34Z</time></trkpt><trkpt lat="43.883889292250025" lon="10.29828920534096"><ele>3.5</ele><time>2026-05-01T12:49:35Z</time></trkpt><trkpt lat="43.8838347832401" lon="10.298232963323231"><ele>3.0</ele><time>2026-05-01T12:49:36Z</time></trkpt><trkpt lat="43.8837793427549" lon="10.298180046844703"><ele>3.0</ele><time>2026-05-01T12:49:37Z</time></trkpt><trkpt lat="43.88372396891691" lon="10.298124839522092"><ele>3.0</ele><time>2026-05-01T12:49:38Z</time></trkpt><trkpt lat="43.88366652675693" lon="10.298078709285342"><ele>3.0</ele><time>2026-05-01T12:49:39Z</time></trkpt><trkpt lat="43.88361088913576" lon="10.2980310681415"><ele>3.0</ele><time>2026-05-01T12:49:40Z</time></trkpt><trkpt lat="43.88355668836089" lon="10.297986466345334"><ele>3.0</ele><time>2026-05-01T12:49:41Z</time></trkpt><trkpt lat="43.88345381481896" lon="10.29787742735694"><ele>3.0</ele><time>2026-05-01T12:49:43Z</time></trkpt><trkpt lat="43.88340597352848" lon="10.29781403126417"><ele>2.1999999999999997</ele><time>2026-05-01T12:49:44Z</time></trkpt><trkpt lat="43.88336197469807" lon="10.297749652482675"><ele>1.4</ele><time>2026-05-01T12:49:45Z</time></trkpt><trkpt lat="43.8832934917289" lon="10.297618513585014"><ele>0.5999999999999999</ele><time>2026-05-01T12:49:47Z</time></trkpt><trkpt lat="43.88325001755694" lon="10.297546346737711"><ele>-0.20000000000000007</ele><time>2026-05-01T12:49:48Z</time></trkpt><trkpt lat="43.88318371282552" lon="10.297404983859774"><ele>-1.0</ele><time>2026-05-01T12:49:50Z</time></trkpt><trkpt lat="43.883155437320134" lon="10.2972510152123"><ele>-0.9999999999999999</ele><time>2026-05-01T12:49:52Z</time></trkpt><trkpt lat="43.88319610162994" lon="10.297165294503737"><ele>-1.0</ele><time>2026-05-01T12:49:53Z</time></trkpt><trkpt lat="43.88313075446002" lon="10.297041602166875"><ele>-1.0</ele><time>2026-05-01T12:49:55Z</time></trkpt><trkpt lat="43.88302963276971" lon="10.297011360485618"><ele>-1.0</ele><time>2026-05-01T12:49:57Z</time></trkpt><trkpt lat="43.88295035713786" lon="10.297007544494816"><ele>-0.9999999999999999</ele><time>2026-05-01T12:49:59Z</time></trkpt><trkpt lat="43.88287874753633" lon="10.29699102059659"><ele>-1.0</ele><time>2026-05-01T12:50:02Z</time></trkpt><trkpt lat="43.88284810135044" lon="10.2968490702382"><ele>-1.0</ele><time>2026-05-01T12:50:03Z</time></trkpt><trkpt lat="43.88278207358555" lon="10.296723910057855"><ele>-1.0</ele><time>2026-05-01T12:50:05Z</time></trkpt><trkpt lat="43.88270922291359" lon="10.296580381116247"><ele>-1.0</ele><time>2026-05-01T12:50:07Z</time></trkpt><trkpt lat="43.88266892914464" lon="10.296512357724467"><ele>-1.0</ele><time>2026-05-01T12:50:08Z</time></trkpt><trkpt lat="43.88259815252718" lon="10.296360687946887"><ele>-1.0</ele><time>2026-05-01T12:50:10Z</time></trkpt><trkpt lat="43.8825633529736" lon="10.296285442550813"><ele>-0.9999999999999999</ele><time>2026-05-01T12:50:11Z</time></trkpt><trkpt lat="43.88252829715203" lon="10.296212615404192"><ele>-1.0</ele><time>2026-05-01T12:50:12Z</time></trkpt><trkpt lat="43.88249024651317" lon="10.296139452985718"><ele>-1.0</ele><time>2026-05-01T12:50:13Z</time></trkpt><trkpt lat="43.882449170842364" lon="10.296069362690957"><ele>-1.0</ele><time>2026-05-01T12:50:14Z</time></trkpt><trkpt lat="43.882409222399815" lon="10.295978292142882"><ele>-0.9999999999999999</ele><time>2026-05-01T12:50:15Z</time></trkpt><trkpt lat="43.88234224435008" lon="10.295839174788236"><ele>-1.0</ele><time>2026-05-01T12:50:17Z</time></trkpt><trkpt lat="43.88230276586238" lon="10.295768562953972"><ele>-0.9999999999999999</ele><time>2026-05-01T12:50:18Z</time></trkpt><trkpt lat="43.8822608414478" lon="10.295695047846085"><ele>-1.0</ele><time>2026-05-01T12:50:19.001Z</time></trkpt><trkpt lat="43.882224973419724" lon="10.295619106665573"><ele>-1.0</ele><time>2026-05-01T12:50:20.001Z</time></trkpt><trkpt lat="43.882177884135515" lon="10.295548318765"><ele>-1.0</ele><time>2026-05-01T12:50:21.001Z</time></trkpt><trkpt lat="43.8820970789399" lon="10.295435395413916"><ele>-0.9999999999999999</ele><time>2026-05-01T12:50:23.001Z</time></trkpt><trkpt lat="43.88204880565508" lon="10.295364782287995"><ele>-1.0</ele><time>2026-05-01T12:50:24.001Z</time></trkpt><trkpt lat="43.8820002135107" lon="10.295299686757478"><ele>-1.0</ele><time>2026-05-01T12:50:25.001Z</time></trkpt><trkpt lat="43.881951953392374" lon="10.295227760808736"><ele>-1.0</ele><time>2026-05-01T12:50:26.001Z</time></trkpt><trkpt lat="43.88187375824611" lon="10.295099085682557"><ele>-1.0</ele><time>2026-05-01T12:50:28.001Z</time></trkpt><trkpt lat="43.8818339416422" lon="10.295022477282835"><ele>-1.0</ele><time>2026-05-01T12:50:29.001Z</time></trkpt><trkpt lat="43.88178023258963" lon="10.294972879447148"><ele>-1.0</ele><time>2026-05-01T12:50:30.001Z</time></trkpt><trkpt lat="43.88169011216525" lon="10.294848071798803"><ele>-1.0</ele><time>2026-05-01T12:50:32.001Z</time></trkpt><trkpt lat="43.88164166378003" lon="10.294784259980538"><ele>-1.0</ele><time>2026-05-01T12:50:33.001Z</time></trkpt><trkpt lat="43.88159722851724" lon="10.294718199092546"><ele>-1.0</ele><time>2026-05-01T12:50:34.001Z</time></trkpt><trkpt lat="43.881552746785964" lon="10.29465509356088"><ele>-1.0</ele><time>2026-05-01T12:50:35.001Z</time></trkpt><trkpt lat="43.88150946031989" lon="10.294591135849549"><ele>-1.0</ele><time>2026-05-01T12:50:36.001Z</time></trkpt><trkpt lat="43.88146584639833" lon="10.294525943668123"><ele>-1.0</ele><time>2026-05-01T12:50:37.001Z</time></trkpt><trkpt lat="43.88142228535828" lon="10.294462517031674"><ele>-1.0</ele><time>2026-05-01T12:50:38.001Z</time></trkpt><trkpt lat="43.88138033922245" lon="10.294397115665072"><ele>-1.0</ele><time>2026-05-01T12:50:39.001Z</time></trkpt><trkpt lat="43.88128840857491" lon="10.294276353124962"><ele>-1.0</ele><time>2026-05-01T12:50:41.001Z</time></trkpt><trkpt lat="43.881241485837876" lon="10.29420869834086"><ele>-1.0</ele><time>2026-05-01T12:50:42.001Z</time></trkpt><trkpt lat="43.88115331562676" lon="10.294084594982182"><ele>-1.0</ele><time>2026-05-01T12:50:44.001Z</time></trkpt><trkpt lat="43.88106463705139" lon="10.293958826492947"><ele>-1.0</ele><time>2026-05-01T12:50:46.001Z</time></trkpt><trkpt lat="43.88102103441698" lon="10.29389123309926"><ele>-1.0</ele><time>2026-05-01T12:50:47.001Z</time></trkpt><trkpt lat="43.880972417978825" lon="10.293830308678215"><ele>-1.2857142857142856</ele><time>2026-05-01T12:50:48.001Z</time></trkpt><trkpt lat="43.88092738799277" lon="10.293768386049823"><ele>-1.5714285714285712</ele><time>2026-05-01T12:50:49.001Z</time></trkpt><trkpt lat="43.88088452776829" lon="10.293702883970596"><ele>-1.857142857142857</ele><time>2026-05-01T12:50:50.001Z</time></trkpt><trkpt lat="43.88084147006586" lon="10.293638926763782"><ele>-2.142857142857143</ele><time>2026-05-01T12:50:51.001Z</time></trkpt><trkpt lat="43.880753161898454" lon="10.293512545032916"><ele>-2.4285714285714284</ele><time>2026-05-01T12:50:53.001Z</time></trkpt><trkpt lat="43.88070867817743" lon="10.29344979537844"><ele>-2.714285714285714</ele><time>2026-05-01T12:50:54.001Z</time></trkpt><trkpt lat="43.88066390753964" lon="10.29338342440628"><ele>-3.0</ele><time>2026-05-01T12:50:55.001Z</time></trkpt><trkpt lat="43.88061769672235" lon="10.293318610240602"><ele>-2.9999999999999996</ele><time>2026-05-01T12:50:56.001Z</time></trkpt><trkpt lat="43.880574232515826" lon="10.293252739823636"><ele>-3.0</ele><time>2026-05-01T12:50:57.001Z</time></trkpt><trkpt lat="43.880527693637426" lon="10.29318950317165"><ele>-3.0</ele><time>2026-05-01T12:50:58.001Z</time></trkpt><trkpt lat="43.880480762062376" lon="10.293125315178358"><ele>-3.0</ele><time>2026-05-01T12:50:59.001Z</time></trkpt><trkpt lat="43.88043628592576" lon="10.293059564413573"><ele>-3.0</ele><time>2026-05-01T12:51:00.001Z</time></trkpt><trkpt lat="43.88039171089269" lon="10.29299313667307"><ele>-2.9999999999999996</ele><time>2026-05-01T12:51:01.001Z</time></trkpt><trkpt lat="43.8803471343389" lon="10.292929445263711"><ele>-3.0</ele><time>2026-05-01T12:51:02.001Z</time></trkpt><trkpt lat="43.880300530017955" lon="10.29286191357137"><ele>-2.8571428571428568</ele><time>2026-05-01T12:51:03.001Z</time></trkpt><trkpt lat="43.880255432363526" lon="10.292795530381108"><ele>-2.7142857142857144</ele><time>2026-05-01T12:51:04.001Z</time></trkpt><trkpt lat="43.88020918496159" lon="10.292729805796586"><ele>-2.571428571428571</ele><time>2026-05-01T12:51:05.001Z</time></trkpt><trkpt lat="43.88016580420924" lon="10.292664844244342"><ele>-2.4285714285714284</ele><time>2026-05-01T12:51:06.001Z</time></trkpt><trkpt lat="43.880120781875185" lon="10.292600256717527"><ele>-2.2857142857142856</ele><time>2026-05-01T12:51:07.001Z</time></trkpt><trkpt lat="43.8800753771916" lon="10.292534312832373"><ele>-2.142857142857143</ele><time>2026-05-01T12:51:08.001Z</time></trkpt><trkpt lat="43.88003037783333" lon="10.29246855240555"><ele>-2.0</ele><time>2026-05-01T12:51:09.001Z</time></trkpt><trkpt lat="43.87998501173734" lon="10.292402685962717"><ele>-1.857142857142857</ele><time>2026-05-01T12:51:10.001Z</time></trkpt><trkpt lat="43.87993899272362" lon="10.292338012640752"><ele>-1.714285714285714</ele><time>2026-05-01T12:51:11.001Z</time></trkpt><trkpt lat="43.87989419159314" lon="10.29227447427448"><ele>-1.5714285714285714</ele><time>2026-05-01T12:51:12.001Z</time></trkpt><trkpt lat="43.8798495022098" lon="10.29221125685327"><ele>-1.4285714285714284</ele><time>2026-05-01T12:51:13.001Z</time></trkpt><trkpt lat="43.8798043326113" lon="10.292148515992261"><ele>-1.2857142857142856</ele><time>2026-05-01T12:51:14.001Z</time></trkpt><trkpt lat="43.87971725012018" lon="10.292026190300467"><ele>-1.1428571428571428</ele><time>2026-05-01T12:51:16.001Z</time></trkpt><trkpt lat="43.879665536210055" lon="10.291964705477241"><ele>-1.0</ele><time>2026-05-01T12:51:17.001Z</time></trkpt><trkpt lat="43.879619507371196" lon="10.291902311955637"><ele>-1.0</ele><time>2026-05-01T12:51:18.001Z</time></trkpt><trkpt lat="43.87957256245298" lon="10.291841649928474"><ele>-0.9999999999999999</ele><time>2026-05-01T12:51:19.001Z</time></trkpt><trkpt lat="43.87952523412248" lon="10.29178246256061"><ele>-1.0</ele><time>2026-05-01T12:51:20.001Z</time></trkpt><trkpt lat="43.87947567663412" lon="10.291725241112037"><ele>-1.0</ele><time>2026-05-01T12:51:21.001Z</time></trkpt><trkpt lat="43.87942630821031" lon="10.291668248044154"><ele>-0.9999999999999999</ele><time>2026-05-01T12:51:22.001Z</time></trkpt><trkpt lat="43.87937714789329" lon="10.291609931131466"><ele>-1.0</ele><time>2026-05-01T12:51:23.001Z</time></trkpt><trkpt lat="43.87928055607657" lon="10.29149873142388"><ele>-1.0</ele><time>2026-05-01T12:51:25.001Z</time></trkpt><trkpt lat="43.87922959644147" lon="10.291442707849422"><ele>-0.8571428571428571</ele><time>2026-05-01T12:51:26.001Z</time></trkpt><trkpt lat="43.87917872649326" lon="10.291387917447828"><ele>-0.7142857142857142</ele><time>2026-05-01T12:51:27.001Z</time></trkpt><trkpt lat="43.879128901449505" lon="10.291330185071482"><ele>-0.5714285714285714</ele><time>2026-05-01T12:51:28.001Z</time></trkpt><trkpt lat="43.879078402870334" lon="10.291271444551723"><ele>-0.42857142857142855</ele><time>2026-05-01T12:51:29.001Z</time></trkpt><trkpt lat="43.879028589188714" lon="10.291214367799192"><ele>-0.2857142857142857</ele><time>2026-05-01T12:51:30.002Z</time></trkpt><trkpt lat="43.87898090077645" lon="10.291155892314404"><ele>-0.14285714285714285</ele><time>2026-05-01T12:51:31.002Z</time></trkpt><trkpt lat="43.87893207959604" lon="10.291098457467152"><ele>0.0</ele><time>2026-05-01T12:51:32Z</time></trkpt><trkpt lat="43.87888135025468" lon="10.291042130850235"><ele>0.0</ele><time>2026-05-01T12:51:33Z</time></trkpt><trkpt lat="43.87878748868256" lon="10.290936325300164"><ele>0.0</ele><time>2026-05-01T12:51:35Z</time></trkpt><trkpt lat="43.8787076960828" lon="10.290835140426124"><ele>0.0</ele><time>2026-05-01T12:51:37Z</time></trkpt><trkpt lat="43.87866187757498" lon="10.29068873063067"><ele>0.0</ele><time>2026-05-01T12:51:39Z</time></trkpt><trkpt lat="43.87866933741274" lon="10.290518909991683"><ele>-0.16666666666666666</ele><time>2026-05-01T12:51:41Z</time></trkpt><trkpt lat="43.87867503004722" lon="10.290426914145739"><ele>-0.3333333333333333</ele><time>2026-05-01T12:51:42Z</time></trkpt><trkpt lat="43.878691911342415" lon="10.290341051392481"><ele>-0.5</ele><time>2026-05-01T12:51:43Z</time></trkpt><trkpt lat="43.87876413131921" lon="10.290281654304668"><ele>-0.6666666666666666</ele><time>2026-05-01T12:51:44Z</time></trkpt><trkpt lat="43.8788046732023" lon="10.290212098679344"><ele>-0.8333333333333333</ele><time>2026-05-01T12:51:45Z</time></trkpt><trkpt lat="43.878885115878056" lon="10.29011077775838"><ele>-1.0</ele><time>2026-05-01T12:51:47Z</time></trkpt><trkpt lat="43.878972999480894" lon="10.290008308136326"><ele>-0.9999999999999999</ele><time>2026-05-01T12:51:49Z</time></trkpt><trkpt lat="43.87906128065444" lon="10.289908958986908"><ele>-1.0</ele><time>2026-05-01T12:51:51Z</time></trkpt><trkpt lat="43.87911010936209" lon="10.289853763769656"><ele>-1.0</ele><time>2026-05-01T12:51:52Z</time></trkpt><trkpt lat="43.8791617338421" lon="10.289798853479919"><ele>-1.0</ele><time>2026-05-01T12:51:53Z</time></trkpt><trkpt lat="43.87921238180165" lon="10.289735321456467"><ele>-0.9999999999999999</ele><time>2026-05-01T12:51:54Z</time></trkpt><trkpt lat="43.87926185054017" lon="10.289665279723948"><ele>-1.0</ele><time>2026-05-01T12:51:55Z</time></trkpt><trkpt lat="43.879308563183415" lon="10.2895870991665"><ele>-1.1666666666666665</ele><time>2026-05-01T12:51:56Z</time></trkpt><trkpt lat="43.87935228275919" lon="10.289506620709817"><ele>-1.3333333333333333</ele><time>2026-05-01T12:51:57Z</time></trkpt><trkpt lat="43.879395344682685" lon="10.289421707078935"><ele>-1.5</ele><time>2026-05-01T12:51:58Z</time></trkpt><trkpt lat="43.87943390112002" lon="10.2893302449372"><ele>-1.6666666666666665</ele><time>2026-05-01T12:51:59Z</time></trkpt><trkpt lat="43.87947323991507" lon="10.289241306159301"><ele>-1.8333333333333333</ele><time>2026-05-01T12:52:00Z</time></trkpt><trkpt lat="43.87951479774591" lon="10.289153493959873"><ele>-2.0</ele><time>2026-05-01T12:52:01Z</time></trkpt><trkpt lat="43.87955605245545" lon="10.289066717247419"><ele>-2.0</ele><time>2026-05-01T12:52:02Z</time></trkpt><trkpt lat="43.87959810252779" lon="10.288982630518666"><ele>-1.9999999999999998</ele><time>2026-05-01T12:52:03Z</time></trkpt><trkpt lat="43.87964458064921" lon="10.288901120205379"><ele>-2.0</ele><time>2026-05-01T12:52:04Z</time></trkpt><trkpt lat="43.879689456115244" lon="10.28882517224418"><ele>-2.0</ele><time>2026-05-01T12:52:05Z</time></trkpt><trkpt lat="43.879737048656864" lon="10.288749984219484"><ele>-1.9999999999999998</ele><time>2026-05-01T12:52:06Z</time></trkpt><trkpt lat="43.87978688128932" lon="10.288678045918918"><ele>-2.0</ele><time>2026-05-01T12:52:07Z</time></trkpt><trkpt lat="43.8798407844426" lon="10.28860805799002"><ele>-2.0</ele><time>2026-05-01T12:52:08Z</time></trkpt><trkpt lat="43.879893432371276" lon="10.288539921596456"><ele>-1.9999999999999998</ele><time>2026-05-01T12:52:09Z</time></trkpt><trkpt lat="43.8799479142015" lon="10.28847784333327"><ele>-2.0</ele><time>2026-05-01T12:52:10Z</time></trkpt><trkpt lat="43.87999969992789" lon="10.2884186982105"><ele>-2.0</ele><time>2026-05-01T12:52:11Z</time></trkpt><trkpt lat="43.88005007052065" lon="10.28836156707068"><ele>-2.0</ele><time>2026-05-01T12:52:12Z</time></trkpt><trkpt lat="43.88010399413048" lon="10.288302831973859"><ele>-1.9999999999999998</ele><time>2026-05-01T12:52:13Z</time></trkpt><trkpt lat="43.88015862443919" lon="10.288245638534901"><ele>-2.0</ele><time>2026-05-01T12:52:14Z</time></trkpt><trkpt lat="43.880266317782755" lon="10.288153477442274"><ele>-2.0</ele><time>2026-05-01T12:52:16Z</time></trkpt><trkpt lat="43.88036677656787" lon="10.288063211249774"><ele>-2.0</ele><time>2026-05-01T12:52:18Z</time></trkpt><trkpt lat="43.880469078739345" lon="10.28795592401672"><ele>-2.0</ele><time>2026-05-01T12:52:20Z</time></trkpt><trkpt lat="43.88051897594627" lon="10.287899968441971"><ele>-2.0</ele><time>2026-05-01T12:52:21Z</time></trkpt><trkpt lat="43.880569324526064" lon="10.287844160131392"><ele>-2.0</ele><time>2026-05-01T12:52:22Z</time></trkpt><trkpt lat="43.88066121964682" lon="10.28772185780563"><ele>-2.0</ele><time>2026-05-01T12:52:24Z</time></trkpt><trkpt lat="43.88070882904738" lon="10.287660117041927"><ele>-1.9999999999999998</ele><time>2026-05-01T12:52:25Z</time></trkpt><trkpt lat="43.88075650644391" lon="10.287598572413438"><ele>-2.0</ele><time>2026-05-01T12:52:26Z</time></trkpt><trkpt lat="43.88080347554569" lon="10.28753771318464"><ele>-2.0</ele><time>2026-05-01T12:52:27Z</time></trkpt><trkpt lat="43.88085046149671" lon="10.28747782250366"><ele>-1.9999999999999998</ele><time>2026-05-01T12:52:28Z</time></trkpt><trkpt lat="43.88089706817115" lon="10.287416605484038"><ele>-2.0</ele><time>2026-05-01T12:52:29Z</time></trkpt><trkpt lat="43.88094563662971" lon="10.287356125351026"><ele>-2.0</ele><time>2026-05-01T12:52:30.001Z</time></trkpt><trkpt lat="43.88099567258913" lon="10.287298186976352"><ele>-2.1666666666666665</ele><time>2026-05-01T12:52:31.001Z</time></trkpt><trkpt lat="43.88104348641678" lon="10.287238428357037"><ele>-2.333333333333333</ele><time>2026-05-01T12:52:32.001Z</time></trkpt><trkpt lat="43.88109166277914" lon="10.287178084034336"><ele>-2.5</ele><time>2026-05-01T12:52:33.001Z</time></trkpt><trkpt lat="43.881139616947976" lon="10.287119819621783"><ele>-2.6666666666666665</ele><time>2026-05-01T12:52:34.001Z</time></trkpt><trkpt lat="43.88123015851944" lon="10.286999583157444"><ele>-2.8333333333333335</ele><time>2026-05-01T12:52:36.001Z</time></trkpt><trkpt lat="43.881321994891515" lon="10.286878518032873"><ele>-3.0</ele><time>2026-05-01T12:52:38.001Z</time></trkpt><trkpt lat="43.88137042998477" lon="10.286822388986142"><ele>-3.0</ele><time>2026-05-01T12:52:39.001Z</time></trkpt><trkpt lat="43.88146221830069" lon="10.286704057738662"><ele>-3.0</ele><time>2026-05-01T12:52:41.001Z</time></trkpt><trkpt lat="43.88155359210658" lon="10.28658328363467"><ele>-3.0</ele><time>2026-05-01T12:52:43.001Z</time></trkpt><trkpt lat="43.88160232939746" lon="10.286525812186119"><ele>-3.0</ele><time>2026-05-01T12:52:44.001Z</time></trkpt><trkpt lat="43.88169429583851" lon="10.28640478857413"><ele>-3.0</ele><time>2026-05-01T12:52:46.001Z</time></trkpt><trkpt lat="43.88174425520033" lon="10.286345146363386"><ele>-2.8571428571428568</ele><time>2026-05-01T12:52:47.001Z</time></trkpt><trkpt lat="43.88179311883134" lon="10.286284492801807"><ele>-2.7142857142857144</ele><time>2026-05-01T12:52:48.001Z</time></trkpt><trkpt lat="43.88184270292501" lon="10.2862230753992"><ele>-2.571428571428571</ele><time>2026-05-01T12:52:49.001Z</time></trkpt><trkpt lat="43.88189021459173" lon="10.286162722539464"><ele>-2.4285714285714284</ele><time>2026-05-01T12:52:50.001Z</time></trkpt><trkpt lat="43.88193612711196" lon="10.286102341642744"><ele>-2.2857142857142856</ele><time>2026-05-01T12:52:51.001Z</time></trkpt><trkpt lat="43.88198255286043" lon="10.28604285291227"><ele>-2.142857142857143</ele><time>2026-05-01T12:52:52.001Z</time></trkpt><trkpt lat="43.88203107404809" lon="10.285982961788026"><ele>-2.0</ele><time>2026-05-01T12:52:53.001Z</time></trkpt><trkpt lat="43.88207697600479" lon="10.28592196883391"><ele>-2.0</ele><time>2026-05-01T12:52:54.001Z</time></trkpt><trkpt lat="43.882123006935" lon="10.285858506568902"><ele>-1.9999999999999998</ele><time>2026-05-01T12:52:55.001Z</time></trkpt><trkpt lat="43.88217081899548" lon="10.285796579912455"><ele>-2.0</ele><time>2026-05-01T12:52:56.001Z</time></trkpt><trkpt lat="43.88222056938475" lon="10.285733847897113"><ele>-2.0</ele><time>2026-05-01T12:52:57.001Z</time></trkpt><trkpt lat="43.88226699676578" lon="10.285671925828309"><ele>-1.9999999999999998</ele><time>2026-05-01T12:52:58.001Z</time></trkpt><trkpt lat="43.882315376480044" lon="10.285611453783426"><ele>-2.0</ele><time>2026-05-01T12:52:59.001Z</time></trkpt><trkpt lat="43.882368559509054" lon="10.285549081698015"><ele>-2.0</ele><time>2026-05-01T12:53:00.001Z</time></trkpt><trkpt lat="43.882421241964096" lon="10.285482087744818"><ele>-2.0</ele><time>2026-05-01T12:53:01.001Z</time></trkpt><trkpt lat="43.88251102095088" lon="10.28537403595844"><ele>-1.9999999999999998</ele><time>2026-05-01T12:53:03.001Z</time></trkpt><trkpt lat="43.88255745742423" lon="10.285311604324484"><ele>-2.0</ele><time>2026-05-01T12:53:04.001Z</time></trkpt><trkpt lat="43.88260728997824" lon="10.28525365540475"><ele>-2.0</ele><time>2026-05-01T12:53:05.001Z</time></trkpt><trkpt lat="43.88265492447162" lon="10.285193509698955"><ele>-1.9999999999999998</ele><time>2026-05-01T12:53:06.001Z</time></trkpt><trkpt lat="43.88270139520025" lon="10.285133544876418"><ele>-2.0</ele><time>2026-05-01T12:53:07.001Z</time></trkpt><trkpt lat="43.88275359525374" lon="10.28507673273186"><ele>-2.0</ele><time>2026-05-01T12:53:08.001Z</time></trkpt><trkpt lat="43.8828017248497" lon="10.285019767266267"><ele>-2.142857142857143</ele><time>2026-05-01T12:53:09.001Z</time></trkpt><trkpt lat="43.88285234595975" lon="10.2849643698404"><ele>-2.2857142857142856</ele><time>2026-05-01T12:53:10.001Z</time></trkpt><trkpt lat="43.88290136194541" lon="10.284906356056101"><ele>-2.4285714285714284</ele><time>2026-05-01T12:53:11.001Z</time></trkpt><trkpt lat="43.882951303399146" lon="10.284851026404338"><ele>-2.571428571428571</ele><time>2026-05-01T12:53:12.001Z</time></trkpt><trkpt lat="43.88299955303849" lon="10.284794898023295"><ele>-2.7142857142857144</ele><time>2026-05-01T12:53:13.001Z</time></trkpt><trkpt lat="43.883049093227164" lon="10.284737825277404"><ele>-2.8571428571428568</ele><time>2026-05-01T12:53:14.001Z</time></trkpt><trkpt lat="43.88309955188236" lon="10.284683726962191"><ele>-3.0</ele><time>2026-05-01T12:53:15.001Z</time></trkpt><trkpt lat="43.88319642945149" lon="10.284570759061058"><ele>-2.9999999999999996</ele><time>2026-05-01T12:53:17.001Z</time></trkpt><trkpt lat="43.88324545524747" lon="10.284513023287742"><ele>-3.0</ele><time>2026-05-01T12:53:18.001Z</time></trkpt><trkpt lat="43.8832944038064" lon="10.28445437893787"><ele>-3.0</ele><time>2026-05-01T12:53:19.001Z</time></trkpt><trkpt lat="43.88334200760276" lon="10.284396971265776"><ele>-3.0</ele><time>2026-05-01T12:53:20.001Z</time></trkpt><trkpt lat="43.883391342360135" lon="10.284341604589995"><ele>-3.0</ele><time>2026-05-01T12:53:21.001Z</time></trkpt><trkpt lat="43.88344000321121" lon="10.284284081577123"><ele>-2.9999999999999996</ele><time>2026-05-01T12:53:22.001Z</time></trkpt><trkpt lat="43.88353662983462" lon="10.284167532355161"><ele>-3.0</ele><time>2026-05-01T12:53:24.001Z</time></trkpt><trkpt lat="43.883586207984855" lon="10.284112086599983"><ele>-2.9999999999999996</ele><time>2026-05-01T12:53:25.001Z</time></trkpt><trkpt lat="43.88364024942914" lon="10.284055483184378"><ele>-3.0</ele><time>2026-05-01T12:53:26.001Z</time></trkpt><trkpt lat="43.8836918306609" lon="10.283998503001115"><ele>-3.0</ele><time>2026-05-01T12:53:27.001Z</time></trkpt><trkpt lat="43.88374260481117" lon="10.283942119523784"><ele>-3.0</ele><time>2026-05-01T12:53:28.001Z</time></trkpt><trkpt lat="43.88379293648183" lon="10.283884046251472"><ele>-3.0</ele><time>2026-05-01T12:53:29.001Z</time></trkpt><trkpt lat="43.883841852099145" lon="10.283824637003436"><ele>-2.9999999999999996</ele><time>2026-05-01T12:53:30.001Z</time></trkpt><trkpt lat="43.88389288491828" lon="10.283770170418562"><ele>-3.0</ele><time>2026-05-01T12:53:31.001Z</time></trkpt><trkpt lat="43.883944705673436" lon="10.283715793481395"><ele>-2.8</ele><time>2026-05-01T12:53:32.001Z</time></trkpt><trkpt lat="43.88404242350343" lon="10.283605665225835"><ele>-2.5999999999999996</ele><time>2026-05-01T12:53:34.001Z</time></trkpt><trkpt lat="43.88413858285027" lon="10.2834971417502"><ele>-2.4000000000000004</ele><time>2026-05-01T12:53:36.001Z</time></trkpt><trkpt lat="43.88418783594319" lon="10.283440925556263"><ele>-2.2</ele><time>2026-05-01T12:53:37.001Z</time></trkpt><trkpt lat="43.88428267444375" lon="10.283328019988724"><ele>-2.0</ele><time>2026-05-01T12:53:39Z</time></trkpt><trkpt lat="43.88433297058293" lon="10.283269586776534"><ele>-1.9999999999999998</ele><time>2026-05-01T12:53:40Z</time></trkpt><trkpt lat="43.88438369079281" lon="10.28321174655302"><ele>-2.0</ele><time>2026-05-01T12:53:41Z</time></trkpt><trkpt lat="43.88443418805269" lon="10.283157209483814"><ele>-2.0</ele><time>2026-05-01T12:53:42Z</time></trkpt><trkpt lat="43.88453068665891" lon="10.283048689977695"><ele>-2.0</ele><time>2026-05-01T12:53:44Z</time></trkpt><trkpt lat="43.884584198262125" lon="10.282996189616338"><ele>-1.9999999999999998</ele><time>2026-05-01T12:53:45Z</time></trkpt><trkpt lat="43.88467195819058" lon="10.282880766516605"><ele>-2.0</ele><time>2026-05-01T12:53:47Z</time></trkpt><trkpt lat="43.88476510397747" lon="10.282773404814575"><ele>-2.0</ele><time>2026-05-01T12:53:49Z</time></trkpt><trkpt lat="43.88485096747063" lon="10.282669453140143"><ele>-2.0</ele><time>2026-05-01T12:53:51Z</time></trkpt><trkpt lat="43.88493167482643" lon="10.282580495381952"><ele>-2.0</ele><time>2026-05-01T12:53:53Z</time></trkpt><trkpt lat="43.8849971382564" lon="10.282490199728059"><ele>-2.0</ele><time>2026-05-01T12:53:55Z</time></trkpt><trkpt lat="43.88506054530844" lon="10.282385474068237"><ele>-2.0</ele><time>2026-05-01T12:53:57Z</time></trkpt><trkpt lat="43.88512611531442" lon="10.282332689808586"><ele>-2.0</ele><time>2026-05-01T12:53:59Z</time></trkpt><trkpt lat="43.88502107704883" lon="10.282108372398657"><ele>-2.0</ele><time>2026-05-01T12:54:01Z</time></trkpt><trkpt lat="43.88492408333359" lon="10.282040250505576"><ele>-2.0</ele><time>2026-05-01T12:54:03Z</time></trkpt><trkpt lat="43.88482834792377" lon="10.28198984849158"><ele>-2.0</ele><time>2026-05-01T12:54:05Z</time></trkpt><trkpt lat="43.88474569759418" lon="10.281880619158944"><ele>-2.0</ele><time>2026-05-01T12:54:07Z</time></trkpt><trkpt lat="43.88466548673347" lon="10.281758926642672"><ele>-2.0</ele><time>2026-05-01T12:54:09Z</time></trkpt><trkpt lat="43.88460097493051" lon="10.281671448493174"><ele>-2.0</ele><time>2026-05-01T12:54:11Z</time></trkpt><trkpt lat="43.884541494761486" lon="10.28159552203444"><ele>-2.0</ele><time>2026-05-01T12:54:12Z</time></trkpt><trkpt lat="43.88445468858654" lon="10.281484262302444"><ele>-2.0</ele><time>2026-05-01T12:54:14Z</time></trkpt><trkpt lat="43.884364259600076" lon="10.281358126431051"><ele>-1.75</ele><time>2026-05-01T12:54:16Z</time></trkpt><trkpt lat="43.88427422651667" lon="10.281267605240922"><ele>-1.5</ele><time>2026-05-01T12:54:18Z</time></trkpt><trkpt lat="43.88419882447943" lon="10.281148417033029"><ele>-1.25</ele><time>2026-05-01T12:54:20Z</time></trkpt><trkpt lat="43.88410753145412" lon="10.281034443884987"><ele>-1.0</ele><time>2026-05-01T12:54:22Z</time></trkpt><trkpt lat="43.884015114252335" lon="10.28093320238351"><ele>-0.9999999999999999</ele><time>2026-05-01T12:54:24Z</time></trkpt><trkpt lat="43.88397253244558" lon="10.28086840293366"><ele>-1.0</ele><time>2026-05-01T12:54:25Z</time></trkpt><trkpt lat="43.88392540264892" lon="10.280808685667289"><ele>-1.0</ele><time>2026-05-01T12:54:26Z</time></trkpt><trkpt lat="43.88383563390134" lon="10.280691204743292"><ele>-1.0</ele><time>2026-05-01T12:54:28Z</time></trkpt><trkpt lat="43.883788225216975" lon="10.280630056553637"><ele>-0.9999999999999999</ele><time>2026-05-01T12:54:29Z</time></trkpt><trkpt lat="43.883700971740794" lon="10.280528769234095"><ele>-1.0</ele><time>2026-05-01T12:54:31.001Z</time></trkpt><trkpt lat="43.88361860680635" lon="10.280431806897948"><ele>-1.0</ele><time>2026-05-01T12:54:33.001Z</time></trkpt><trkpt lat="43.88353718102001" lon="10.280335584484698"><ele>-1.0</ele><time>2026-05-01T12:54:35.001Z</time></trkpt><trkpt lat="43.88346646297997" lon="10.280233740370797"><ele>-1.0</ele><time>2026-05-01T12:54:37.001Z</time></trkpt><trkpt lat="43.88338781811365" lon="10.280136219239273"><ele>-1.0</ele><time>2026-05-01T12:54:39.001Z</time></trkpt><trkpt lat="43.88331195582607" lon="10.280039379663208"><ele>-1.0</ele><time>2026-05-01T12:54:41.001Z</time></trkpt><trkpt lat="43.88322977748402" lon="10.279951550318499"><ele>-1.0</ele><time>2026-05-01T12:54:43.001Z</time></trkpt><trkpt lat="43.883168272967026" lon="10.279855143227334"><ele>-1.0</ele><time>2026-05-01T12:54:45.001Z</time></trkpt><trkpt lat="43.88308590015955" lon="10.279781794372013"><ele>-1.0</ele><time>2026-05-01T12:54:47.001Z</time></trkpt><trkpt lat="43.88303567532477" lon="10.27967644161991"><ele>-1.0</ele><time>2026-05-01T12:54:49.001Z</time></trkpt><trkpt lat="43.88296463244024" lon="10.279584521408196"><ele>-1.0</ele><time>2026-05-01T12:54:51.001Z</time></trkpt><trkpt lat="43.88290238518352" lon="10.279490063229172"><ele>-1.2000000000000002</ele><time>2026-05-01T12:54:53.001Z</time></trkpt><trkpt lat="43.8828220064452" lon="10.27940268830702"><ele>-1.4000000000000001</ele><time>2026-05-01T12:54:55.001Z</time></trkpt><trkpt lat="43.88275050097266" lon="10.279300263760812"><ele>-1.6</ele><time>2026-05-01T12:54:57.001Z</time></trkpt><trkpt lat="43.882661512919704" lon="10.279213742487675"><ele>-1.8</ele><time>2026-05-01T12:54:59.001Z</time></trkpt><trkpt lat="43.88257838490942" lon="10.279125803963048"><ele>-2.0</ele><time>2026-05-01T12:55:01.001Z</time></trkpt><trkpt lat="43.88250001487833" lon="10.279006365682381"><ele>-2.0</ele><time>2026-05-01T12:55:03.001Z</time></trkpt><trkpt lat="43.882432289889785" lon="10.278892448570081"><ele>-2.0</ele><time>2026-05-01T12:55:05.001Z</time></trkpt><trkpt lat="43.88237040095972" lon="10.278814136317589"><ele>-2.0</ele><time>2026-05-01T12:55:06.001Z</time></trkpt><trkpt lat="43.88229267072394" lon="10.278734288942276"><ele>-2.0</ele><time>2026-05-01T12:55:08.001Z</time></trkpt><trkpt lat="43.88224344351805" lon="10.27867588532105"><ele>-2.0</ele><time>2026-05-01T12:55:09.001Z</time></trkpt><trkpt lat="43.882152463613096" lon="10.278567308399497"><ele>-2.0</ele><time>2026-05-01T12:55:11.001Z</time></trkpt><trkpt lat="43.88207007317669" lon="10.278434696522524"><ele>-2.0</ele><time>2026-05-01T12:55:13.001Z</time></trkpt><trkpt lat="43.88196874308263" lon="10.27832522170156"><ele>-2.0</ele><time>2026-05-01T12:55:15.001Z</time></trkpt><trkpt lat="43.88188576110457" lon="10.278221159339704"><ele>-2.0</ele><time>2026-05-01T12:55:17.001Z</time></trkpt><trkpt lat="43.881816817117034" lon="10.278105082680026"><ele>-1.75</ele><time>2026-05-01T12:55:19.001Z</time></trkpt><trkpt lat="43.881725233619" lon="10.277988265943467"><ele>-1.5</ele><time>2026-05-01T12:55:21.001Z</time></trkpt><trkpt lat="43.88163922027658" lon="10.277880626688933"><ele>-1.25</ele><time>2026-05-01T12:55:23.001Z</time></trkpt><trkpt lat="43.88155258656143" lon="10.277772211105667"><ele>-1.0</ele><time>2026-05-01T12:55:25.001Z</time></trkpt><trkpt lat="43.88145920499879" lon="10.277666813867372"><ele>-1.0</ele><time>2026-05-01T12:55:27.001Z</time></trkpt><trkpt lat="43.881366843335464" lon="10.277560339855413"><ele>-1.0</ele><time>2026-05-01T12:55:29.001Z</time></trkpt><trkpt lat="43.88127612350479" lon="10.277443540707232"><ele>-1.0</ele><time>2026-05-01T12:55:31.001Z</time></trkpt><trkpt lat="43.88119805456932" lon="10.27732432787694"><ele>-1.0</ele><time>2026-05-01T12:55:33.001Z</time></trkpt><trkpt lat="43.8811169629144" lon="10.277219465772232"><ele>-1.1666666666666665</ele><time>2026-05-01T12:55:35.001Z</time></trkpt><trkpt lat="43.881070737387475" lon="10.277159690142255"><ele>-1.3333333333333333</ele><time>2026-05-01T12:55:36.001Z</time></trkpt><trkpt lat="43.880974261498366" lon="10.277068064651528"><ele>-1.5</ele><time>2026-05-01T12:55:38.002Z</time></trkpt><trkpt lat="43.88091024797436" lon="10.276985365524776"><ele>-1.6666666666666665</ele><time>2026-05-01T12:55:40.002Z</time></trkpt><trkpt lat="43.880858214721506" lon="10.276921288962182"><ele>-1.8333333333333333</ele><time>2026-05-01T12:55:41.002Z</time></trkpt><trkpt lat="43.88077930192908" lon="10.276813567688787"><ele>-2.0</ele><time>2026-05-01T12:55:43.002Z</time></trkpt><trkpt lat="43.88069318325256" lon="10.276700306778201"><ele>-2.0</ele><time>2026-05-01T12:55:45Z</time></trkpt><trkpt lat="43.88060890438131" lon="10.27658800220656"><ele>-2.0</ele><time>2026-05-01T12:55:47Z</time></trkpt><trkpt lat="43.88051651059384" lon="10.276483378290862"><ele>-2.0</ele><time>2026-05-01T12:55:49Z</time></trkpt><trkpt lat="43.88043002527845" lon="10.276367313514896"><ele>-2.0</ele><time>2026-05-01T12:55:51Z</time></trkpt><trkpt lat="43.88034092100625" lon="10.276251587279464"><ele>-2.2</ele><time>2026-05-01T12:55:53Z</time></trkpt><trkpt lat="43.88024858870085" lon="10.276138168025149"><ele>-2.4000000000000004</ele><time>2026-05-01T12:55:55Z</time></trkpt><trkpt lat="43.880201586852856" lon="10.276078793564668"><ele>-2.5999999999999996</ele><time>2026-05-01T12:55:56Z</time></trkpt><trkpt lat="43.88011570672588" lon="10.275961569921506"><ele>-2.8</ele><time>2026-05-01T12:55:58Z</time></trkpt><trkpt lat="43.880036698260774" lon="10.275853392412381"><ele>-3.0</ele><time>2026-05-01T12:56:00Z</time></trkpt><trkpt lat="43.87995792403687" lon="10.27574959031926"><ele>-2.6666666666666665</ele><time>2026-05-01T12:56:02Z</time></trkpt><trkpt lat="43.879883708024444" lon="10.275656326006546"><ele>-2.3333333333333335</ele><time>2026-05-01T12:56:04Z</time></trkpt><trkpt lat="43.8798154190315" lon="10.275564356797586"><ele>-2.0</ele><time>2026-05-01T12:56:06Z</time></trkpt><trkpt lat="43.87975683622493" lon="10.27547944952161"><ele>-1.6666666666666665</ele><time>2026-05-01T12:56:08Z</time></trkpt><trkpt lat="43.87970452842716" lon="10.275422582967906"><ele>-1.3333333333333333</ele><time>2026-05-01T12:56:10Z</time></trkpt><trkpt lat="43.87963811948489" lon="10.275397952733583"><ele>-1.0</ele><time>2026-05-01T12:56:13Z</time></trkpt><trkpt lat="43.879575240691715" lon="10.27540251880122"><ele>-0.8</ele><time>2026-05-01T12:56:15Z</time></trkpt><trkpt lat="43.87949396982155" lon="10.275416310274526"><ele>-0.6000000000000001</ele><time>2026-05-01T12:56:17Z</time></trkpt><trkpt lat="43.87943170102384" lon="10.275311679256848"><ele>-0.4</ele><time>2026-05-01T12:56:19Z</time></trkpt><trkpt lat="43.879348152558606" lon="10.275225069189402"><ele>-0.2</ele><time>2026-05-01T12:56:21Z</time></trkpt><trkpt lat="43.879273717545495" lon="10.275129622169091"><ele>0.0</ele><time>2026-05-01T12:56:23Z</time></trkpt><trkpt lat="43.87920379964636" lon="10.275041472474104"><ele>0.0</ele><time>2026-05-01T12:56:25Z</time></trkpt><trkpt lat="43.87912648710257" lon="10.274938341306276"><ele>0.0</ele><time>2026-05-01T12:56:27Z</time></trkpt><trkpt lat="43.879073430483956" lon="10.274868431100375"><ele>0.0</ele><time>2026-05-01T12:56:28Z</time></trkpt><trkpt lat="43.87898957746201" lon="10.274753831183109"><ele>0.0</ele><time>2026-05-01T12:56:30Z</time></trkpt><trkpt lat="43.87893833800989" lon="10.274702658338807"><ele>0.0</ele><time>2026-05-01T12:56:31Z</time></trkpt><trkpt lat="43.87886103109968" lon="10.274598986581031"><ele>-0.2</ele><time>2026-05-01T12:56:33Z</time></trkpt><trkpt lat="43.878779010344175" lon="10.274496361223681"><ele>-0.4</ele><time>2026-05-01T12:56:35Z</time></trkpt><trkpt lat="43.87872911950461" lon="10.274431611915068"><ele>-0.6000000000000001</ele><time>2026-05-01T12:56:36Z</time></trkpt><trkpt lat="43.878679565654096" lon="10.274368917829051"><ele>-0.8</ele><time>2026-05-01T12:56:37Z</time></trkpt><trkpt lat="43.87858813703528" lon="10.274257854921515"><ele>-1.0</ele><time>2026-05-01T12:56:39Z</time></trkpt><trkpt lat="43.878497620448954" lon="10.27415082486355"><ele>-1.0</ele><time>2026-05-01T12:56:41.001Z</time></trkpt><trkpt lat="43.87840961822829" lon="10.274043219111832"><ele>-1.0</ele><time>2026-05-01T12:56:43.001Z</time></trkpt><trkpt lat="43.878325754108516" lon="10.27390631207924"><ele>-1.0</ele><time>2026-05-01T12:56:45.001Z</time></trkpt><trkpt lat="43.87823136535492" lon="10.273819730256635"><ele>-1.0</ele><time>2026-05-01T12:56:47.001Z</time></trkpt><trkpt lat="43.87818301776855" lon="10.273762939117097"><ele>-1.0</ele><time>2026-05-01T12:56:48.001Z</time></trkpt><trkpt lat="43.878100783678676" lon="10.273662619153411"><ele>-0.75</ele><time>2026-05-01T12:56:50.001Z</time></trkpt><trkpt lat="43.87801314311545" lon="10.27354705588063"><ele>-0.5</ele><time>2026-05-01T12:56:52.001Z</time></trkpt><trkpt lat="43.87793868240186" lon="10.273431350281443"><ele>-0.25</ele><time>2026-05-01T12:56:54.001Z</time></trkpt><trkpt lat="43.87788332962751" lon="10.273300328154143"><ele>0.0</ele><time>2026-05-01T12:56:56.001Z</time></trkpt><trkpt lat="43.87781946387909" lon="10.273162123819223"><ele>-0.2</ele><time>2026-05-01T12:56:58.001Z</time></trkpt><trkpt lat="43.877758060678026" lon="10.273039759499538"><ele>-0.4</ele><time>2026-05-01T12:57:00.001Z</time></trkpt><trkpt lat="43.877709285714616" lon="10.272929551298393"><ele>-0.6000000000000001</ele><time>2026-05-01T12:57:02.001Z</time></trkpt><trkpt lat="43.87768288586144" lon="10.27280347519505"><ele>-0.8</ele><time>2026-05-01T12:57:04.001Z</time></trkpt><trkpt lat="43.87766628246899" lon="10.272682550507602"><ele>-1.0</ele><time>2026-05-01T12:57:07.001Z</time></trkpt><trkpt lat="43.87762897521122" lon="10.272577028195121"><ele>-1.0</ele><time>2026-05-01T12:57:09.001Z</time></trkpt><trkpt lat="43.87760121913684" lon="10.272452607881457"><ele>-1.0</ele><time>2026-05-01T12:57:11.001Z</time></trkpt><trkpt lat="43.87758909983004" lon="10.272304940135417"><ele>-1.0</ele><time>2026-05-01T12:57:13.001Z</time></trkpt><trkpt lat="43.877608512131545" lon="10.272152006034434"><ele>-1.0</ele><time>2026-05-01T12:57:15.001Z</time></trkpt><trkpt lat="43.877646241928396" lon="10.272018263239708"><ele>-1.0</ele><time>2026-05-01T12:57:17.001Z</time></trkpt><trkpt lat="43.87766374286955" lon="10.271861673711623"><ele>-1.0</ele><time>2026-05-01T12:57:19.001Z</time></trkpt><trkpt lat="43.877682205161136" lon="10.271720837193941"><ele>-1.0</ele><time>2026-05-01T12:57:21.001Z</time></trkpt><trkpt lat="43.87769847906126" lon="10.27163628567055"><ele>-1.0</ele><time>2026-05-01T12:57:22.001Z</time></trkpt><trkpt lat="43.87769509148221" lon="10.271488288786587"><ele>-1.0</ele><time>2026-05-01T12:57:24.001Z</time></trkpt><trkpt lat="43.877677757866664" lon="10.271341129043567"><ele>-1.0</ele><time>2026-05-01T12:57:26.001Z</time></trkpt><trkpt lat="43.877649336286694" lon="10.271196339516896"><ele>-1.0</ele><time>2026-05-01T12:57:28.001Z</time></trkpt><trkpt lat="43.87761123176147" lon="10.271044779816958"><ele>-1.0</ele><time>2026-05-01T12:57:30.001Z</time></trkpt><trkpt lat="43.8775524703804" lon="10.270915968632751"><ele>-1.0</ele><time>2026-05-01T12:57:32.001Z</time></trkpt><trkpt lat="43.877506150527715" lon="10.270768301754904"><ele>-1.0</ele><time>2026-05-01T12:57:34.001Z</time></trkpt><trkpt lat="43.87746598601309" lon="10.2706568768797"><ele>-1.0</ele><time>2026-05-01T12:57:36.001Z</time></trkpt><trkpt lat="43.877422079562294" lon="10.270553813388902"><ele>-1.0</ele><time>2026-05-01T12:57:38.001Z</time></trkpt><trkpt lat="43.877379179551234" lon="10.270442169798207"><ele>-1.0</ele><time>2026-05-01T12:57:40.001Z</time></trkpt><trkpt lat="43.87732671980095" lon="10.270297135054241"><ele>-1.0</ele><time>2026-05-01T12:57:42.001Z</time></trkpt><trkpt lat="43.87726994014289" lon="10.270162647939285"><ele>-1.0</ele><time>2026-05-01T12:57:44.001Z</time></trkpt><trkpt lat="43.877219690285926" lon="10.270036384788316"><ele>-1.0</ele><time>2026-05-01T12:57:46.002Z</time></trkpt><trkpt lat="43.87716513715944" lon="10.269897697663062"><ele>-1.0</ele><time>2026-05-01T12:57:48.002Z</time></trkpt><trkpt lat="43.87711786480398" lon="10.26977680392047"><ele>-1.0</ele><time>2026-05-01T12:57:50Z</time></trkpt><trkpt lat="43.87708178231958" lon="10.26963591892748"><ele>-1.0</ele><time>2026-05-01T12:57:52Z</time></trkpt><trkpt lat="43.8770162734484" lon="10.269513395220212"><ele>-1.0</ele><time>2026-05-01T12:57:54Z</time></trkpt><trkpt lat="43.87691227258871" lon="10.269448699542947"><ele>-1.0</ele><time>2026-05-01T12:57:56Z</time></trkpt><trkpt lat="43.87678375490441" lon="10.26939561183125"><ele>-0.49999999999999994</ele><time>2026-05-01T12:57:58Z</time></trkpt><trkpt lat="43.87668004917093" lon="10.269337269000928"><ele>0.0</ele><time>2026-05-01T12:58:00Z</time></trkpt><trkpt lat="43.8765968763021" lon="10.269308273407427"><ele>0.5</ele><time>2026-05-01T12:58:01Z</time></trkpt><trkpt lat="43.87652466146833" lon="10.26926149262408"><ele>1.0</ele><time>2026-05-01T12:58:02Z</time></trkpt><trkpt lat="43.876451758874666" lon="10.269210210572483"><ele>1.4999999999999998</ele><time>2026-05-01T12:58:03Z</time></trkpt><trkpt lat="43.876391001668" lon="10.26913846944336"><ele>2.0</ele><time>2026-05-01T12:58:04Z</time></trkpt><trkpt lat="43.87634145199909" lon="10.269031811916854"><ele>1.6</ele><time>2026-05-01T12:58:05Z</time></trkpt><trkpt lat="43.87629278761482" lon="10.26893161258229"><ele>1.2000000000000002</ele><time>2026-05-01T12:58:06Z</time></trkpt><trkpt lat="43.87624605854926" lon="10.268833320271566"><ele>0.8</ele><time>2026-05-01T12:58:07Z</time></trkpt><trkpt lat="43.876220361324435" lon="10.268752685570863"><ele>0.4</ele><time>2026-05-01T12:58:08Z</time></trkpt><trkpt lat="43.876173343710654" lon="10.268634134450046"><ele>0.0</ele><time>2026-05-01T12:58:10Z</time></trkpt><trkpt lat="43.876272611489" lon="10.268484766980976"><ele>0.0</ele><time>2026-05-01T12:58:13Z</time></trkpt><trkpt lat="43.876362612830455" lon="10.268414053124227"><ele>0.0</ele><time>2026-05-01T12:58:15Z</time></trkpt><trkpt lat="43.87647011275172" lon="10.268349318602104"><ele>0.0</ele><time>2026-05-01T12:58:17Z</time></trkpt><trkpt lat="43.876570263939016" lon="10.268271391176468"><ele>0.0</ele><time>2026-05-01T12:58:19Z</time></trkpt><trkpt lat="43.87667344112967" lon="10.268190881669335"><ele>0.0</ele><time>2026-05-01T12:58:21Z</time></trkpt><trkpt lat="43.876779323119145" lon="10.268116961359123"><ele>0.0</ele><time>2026-05-01T12:58:23Z</time></trkpt><trkpt lat="43.87688399651398" lon="10.268040628471967"><ele>0.0</ele><time>2026-05-01T12:58:25Z</time></trkpt><trkpt lat="43.87698090695517" lon="10.267954565862933"><ele>0.0</ele><time>2026-05-01T12:58:27Z</time></trkpt><trkpt lat="43.877091547210796" lon="10.267877690439466"><ele>0.0</ele><time>2026-05-01T12:58:29Z</time></trkpt><trkpt lat="43.87719356003297" lon="10.267809401995219"><ele>0.0</ele><time>2026-05-01T12:58:31Z</time></trkpt><trkpt lat="43.87729689888214" lon="10.267735175548854"><ele>0.0</ele><time>2026-05-01T12:58:33Z</time></trkpt><trkpt lat="43.87740616695116" lon="10.267654652971656"><ele>0.0</ele><time>2026-05-01T12:58:35Z</time></trkpt><trkpt lat="43.8774635792353" lon="10.267613536643314"><ele>0.0</ele><time>2026-05-01T12:58:36Z</time></trkpt><trkpt lat="43.87756436495593" lon="10.267540023661532"><ele>0.0</ele><time>2026-05-01T12:58:38Z</time></trkpt><trkpt lat="43.87767636482885" lon="10.267474000445548"><ele>0.0</ele><time>2026-05-01T12:58:40Z</time></trkpt><trkpt lat="43.87778710021549" lon="10.267404568598323"><ele>0.0</ele><time>2026-05-01T12:58:42Z</time></trkpt><trkpt lat="43.877903642101025" lon="10.267335587310583"><ele>0.0</ele><time>2026-05-01T12:58:44Z</time></trkpt><trkpt lat="43.87796085370744" lon="10.267297415816639"><ele>0.0</ele><time>2026-05-01T12:58:45Z</time></trkpt><trkpt lat="43.87801949070977" lon="10.267262085282745"><ele>0.0</ele><time>2026-05-01T12:58:46Z</time></trkpt><trkpt lat="43.87812541437432" lon="10.267190031425532"><ele>0.0</ele><time>2026-05-01T12:58:48Z</time></trkpt><trkpt lat="43.878235336768036" lon="10.267127563844227"><ele>0.0</ele><time>2026-05-01T12:58:50.001Z</time></trkpt><trkpt lat="43.878340352795284" lon="10.267056885933183"><ele>0.0</ele><time>2026-05-01T12:58:52.001Z</time></trkpt><trkpt lat="43.878440874685886" lon="10.266991629743323"><ele>0.0</ele><time>2026-05-01T12:58:54.001Z</time></trkpt><trkpt lat="43.87854562799013" lon="10.266925771840068"><ele>0.0</ele><time>2026-05-01T12:58:56.001Z</time></trkpt><trkpt lat="43.87864754364171" lon="10.266871425274411"><ele>0.0</ele><time>2026-05-01T12:58:58.001Z</time></trkpt><trkpt lat="43.87874023002162" lon="10.266819385768024"><ele>0.0</ele><time>2026-05-01T12:59:00.001Z</time></trkpt><trkpt lat="43.87880678626005" lon="10.266766158763746"><ele>0.0</ele><time>2026-05-01T12:59:02.001Z</time></trkpt><trkpt lat="43.87882379225896" lon="10.266603364119565"><ele>0.0</ele><time>2026-05-01T12:59:05.001Z</time></trkpt><trkpt lat="43.87877710374584" lon="10.266489275125176"><ele>0.0</ele><time>2026-05-01T12:59:07.001Z</time></trkpt><trkpt lat="43.87873632222233" lon="10.266359491067993"><ele>0.0</ele><time>2026-05-01T12:59:09.001Z</time></trkpt><trkpt lat="43.87868892606316" lon="10.266220781554575"><ele>0.0</ele><time>2026-05-01T12:59:11.001Z</time></trkpt><trkpt lat="43.87865358313726" lon="10.266063749192474"><ele>0.0</ele><time>2026-05-01T12:59:13.001Z</time></trkpt><trkpt lat="43.87860666332061" lon="10.265922365689988"><ele>-0.2</ele><time>2026-05-01T12:59:15.001Z</time></trkpt><trkpt lat="43.878555677200666" lon="10.26576872919042"><ele>-0.4</ele><time>2026-05-01T12:59:17.001Z</time></trkpt><trkpt lat="43.878528147476175" lon="10.265685773844929"><ele>-0.6000000000000001</ele><time>2026-05-01T12:59:18.001Z</time></trkpt><trkpt lat="43.878468313539784" lon="10.265546724227566"><ele>-0.8</ele><time>2026-05-01T12:59:20.001Z</time></trkpt><trkpt lat="43.87842343548444" lon="10.265396328158895"><ele>-1.0</ele><time>2026-05-01T12:59:22.001Z</time></trkpt><trkpt lat="43.87837808913473" lon="10.265244333231083"><ele>-0.5</ele><time>2026-05-01T12:59:24.001Z</time></trkpt><trkpt lat="43.87832162715163" lon="10.265098430050422"><ele>0.0</ele><time>2026-05-01T12:59:26.001Z</time></trkpt><trkpt lat="43.87827107334282" lon="10.264953508266654"><ele>0.5</ele><time>2026-05-01T12:59:28.001Z</time></trkpt><trkpt lat="43.878230052447336" lon="10.264811306332025"><ele>1.0</ele><time>2026-05-01T12:59:30.001Z</time></trkpt><trkpt lat="43.87820871175309" lon="10.264656834509688"><ele>1.0</ele><time>2026-05-01T12:59:32.001Z</time></trkpt><trkpt lat="43.878156568076555" lon="10.264511746366336"><ele>1.0</ele><time>2026-05-01T12:59:34.001Z</time></trkpt><trkpt lat="43.87808401937959" lon="10.264387159844038"><ele>1.0</ele><time>2026-05-01T12:59:36.001Z</time></trkpt><trkpt lat="43.87801389176954" lon="10.264247039723761"><ele>1.0</ele><time>2026-05-01T12:59:38.001Z</time></trkpt><trkpt lat="43.87795175010631" lon="10.264101800603566"><ele>1.0</ele><time>2026-05-01T12:59:40.001Z</time></trkpt><trkpt lat="43.87788564941691" lon="10.263958967366047"><ele>1.0</ele><time>2026-05-01T12:59:42.001Z</time></trkpt><trkpt lat="43.87781914112408" lon="10.263817403415846"><ele>1.0</ele><time>2026-05-01T12:59:44.001Z</time></trkpt><trkpt lat="43.877759729794356" lon="10.263662253240934"><ele>1.0</ele><time>2026-05-01T12:59:46.001Z</time></trkpt><trkpt lat="43.87770853192902" lon="10.26352514795814"><ele>1.0</ele><time>2026-05-01T12:59:48.001Z</time></trkpt><trkpt lat="43.87766578582793" lon="10.263370491934976"><ele>1.0</ele><time>2026-05-01T12:59:50.001Z</time></trkpt><trkpt lat="43.877629691265284" lon="10.263214817719685"><ele>1.0</ele><time>2026-05-01T12:59:52.001Z</time></trkpt><trkpt lat="43.87759839257405" lon="10.263053841165258"><ele>1.0</ele><time>2026-05-01T12:59:54.001Z</time></trkpt><trkpt lat="43.87757014303639" lon="10.262890516581532"><ele>1.0</ele><time>2026-05-01T12:59:56Z</time></trkpt><trkpt lat="43.87753052185782" lon="10.262734389449834"><ele>1.0</ele><time>2026-05-01T12:59:58Z</time></trkpt><trkpt lat="43.87749306993619" lon="10.262572828963663"><ele>1.0</ele><time>2026-05-01T13:00:00Z</time></trkpt><trkpt lat="43.877455747025515" lon="10.262410396928349"><ele>1.0</ele><time>2026-05-01T13:00:02Z</time></trkpt><trkpt lat="43.87741865649695" lon="10.26225703659419"><ele>1.2000000000000002</ele><time>2026-05-01T13:00:04Z</time></trkpt><trkpt lat="43.877386833836844" lon="10.262099441593756"><ele>1.4000000000000001</ele><time>2026-05-01T13:00:06Z</time></trkpt><trkpt lat="43.877348540474074" lon="10.261942537932212"><ele>1.6</ele><time>2026-05-01T13:00:08Z</time></trkpt><trkpt lat="43.8773195779572" lon="10.261857228755694"><ele>1.8</ele><time>2026-05-01T13:00:09Z</time></trkpt><trkpt lat="43.87726110929576" lon="10.261718395452638"><ele>2.0</ele><time>2026-05-01T13:00:11Z</time></trkpt><trkpt lat="43.877211946756475" lon="10.261609535810429"><ele>1.9999999999999998</ele><time>2026-05-01T13:00:13Z</time></trkpt><trkpt lat="43.87715227704725" lon="10.261496676632557"><ele>2.0</ele><time>2026-05-01T13:00:15Z</time></trkpt><trkpt lat="43.877103447283766" lon="10.261392384835082"><ele>2.0</ele><time>2026-05-01T13:00:17Z</time></trkpt><trkpt lat="43.87705693275505" lon="10.261286809050658"><ele>2.0</ele><time>2026-05-01T13:00:19Z</time></trkpt><trkpt lat="43.87700415839" lon="10.261180744115203"><ele>1.9999999999999998</ele><time>2026-05-01T13:00:21Z</time></trkpt><trkpt lat="43.87698333844013" lon="10.261083593243034"><ele>2.0</ele><time>2026-05-01T13:00:23Z</time></trkpt><trkpt lat="43.87695175219101" lon="10.260986382439823"><ele>2.0</ele><time>2026-05-01T13:00:25Z</time></trkpt><trkpt lat="43.87688436374242" lon="10.260873438086014"><ele>2.0</ele><time>2026-05-01T13:00:27Z</time></trkpt><trkpt lat="43.87681607232552" lon="10.260745409478533"><ele>2.0</ele><time>2026-05-01T13:00:29Z</time></trkpt><trkpt lat="43.876757491961975" lon="10.260606768829495"><ele>2.0</ele><time>2026-05-01T13:00:31Z</time></trkpt><trkpt lat="43.87669741326146" lon="10.260487952491776"><ele>2.0</ele><time>2026-05-01T13:00:33Z</time></trkpt><trkpt lat="43.8766422505845" lon="10.260370723855846"><ele>2.0</ele><time>2026-05-01T13:00:35Z</time></trkpt><trkpt lat="43.87661926688341" lon="10.260286469584624"><ele>2.0</ele><time>2026-05-01T13:00:37Z</time></trkpt></trkseg></trk></gpx>